<?xml version='1.0' encoding='UTF-8'?><gpx version="1.1" creator="JPX - https://github.com/jenetics/jpx" xmlns="http://www.topografix.com/GPX/1/1"><trk><trkseg><trkpt lat="45.61356298164082" lon="8.952765092262025"><ele>219.0</ele><time>2026-03-30T06:46:45.999Z</time></trkpt><trkpt lat="45.61346018651343" lon="8.95284761502373"><ele>218.99999999999997</ele><time>2026-03-30T06:47:39.999Z</time></trkpt><trkpt lat="45.61340343538356" lon="8.952928204406254"><ele>218.99999999999997</ele><time>2026-03-30T06:47:40.999Z</time></trkpt><trkpt lat="45.61333141522036" lon="8.953024062484483"><ele>219.0</ele><time>2026-03-30T06:47:41.999Z</time></trkpt><trkpt lat="45.61323490704799" lon="8.953165277870227"><ele>219.0</ele><time>2026-03-30T06:47:42.999Z</time></trkpt><trkpt lat="45.61311555586117" lon="8.953310349006564"><ele>219.33333333333331</ele><time>2026-03-30T06:47:43.999Z</time></trkpt><trkpt lat="45.61299117863761" lon="8.953503718291294"><ele>219.66666666666666</ele><time>2026-03-30T06:47:44.999Z</time></trkpt><trkpt lat="45.61286255593995" lon="8.953680379013125"><ele>220.0</ele><time>2026-03-30T06:47:45.999Z</time></trkpt><trkpt lat="45.61274798558466" lon="8.953826268304814"><ele>219.5</ele><time>2026-03-30T06:47:46.999Z</time></trkpt><trkpt lat="45.61264462479191" lon="8.953965076912228"><ele>219.0</ele><time>2026-03-30T06:47:47.999Z</time></trkpt><trkpt lat="45.61254238139178" lon="8.954103332172911"><ele>218.5</ele><time>2026-03-30T06:47:48.999Z</time></trkpt><trkpt lat="45.612437876694166" lon="8.954250344531342"><ele>218.0</ele><time>2026-03-30T06:47:49.999Z</time></trkpt><trkpt lat="45.612342265683175" lon="8.954395253481467"><ele>217.8</ele><time>2026-03-30T06:47:50.999Z</time></trkpt><trkpt lat="45.6122579718776" lon="8.954508952498179"><ele>217.60000000000002</ele><time>2026-03-30T06:47:51.999Z</time></trkpt><trkpt lat="45.61218039571174" lon="8.954577658907413"><ele>217.39999999999998</ele><time>2026-03-30T06:47:52.999Z</time></trkpt><trkpt lat="45.61209921148159" lon="8.954621091010994"><ele>217.2</ele><time>2026-03-30T06:47:54.999Z</time></trkpt><trkpt lat="45.6120600346874" lon="8.95444233293649"><ele>217.0</ele><time>2026-03-30T06:47:57.999Z</time></trkpt><trkpt lat="45.61208021090441" lon="8.954287247875476"><ele>217.33333333333331</ele><time>2026-03-30T06:47:58.999Z</time></trkpt><trkpt lat="45.612078436219306" lon="8.954015466760264"><ele>217.66666666666669</ele><time>2026-03-30T06:47:59.999Z</time></trkpt><trkpt lat="45.61206380631486" lon="8.953767031280094"><ele>218.0</ele><time>2026-03-30T06:48:00.999Z</time></trkpt><trkpt lat="45.61205635241077" lon="8.953500921249557"><ele>218.0</ele><time>2026-03-30T06:48:01.999Z</time></trkpt><trkpt lat="45.612047114330494" lon="8.953236476217945"><ele>218.0</ele><time>2026-03-30T06:48:02.999Z</time></trkpt><trkpt lat="45.61203857297611" lon="8.952972637821365"><ele>218.0</ele><time>2026-03-30T06:48:03.999Z</time></trkpt><trkpt lat="45.61202909610203" lon="8.952728782489876"><ele>218.0</ele><time>2026-03-30T06:48:04.999Z</time></trkpt><trkpt lat="45.612023113794855" lon="8.95250653334251"><ele>218.0</ele><time>2026-03-30T06:48:05.999Z</time></trkpt><trkpt lat="45.61201526498848" lon="8.95229095805875"><ele>218.0</ele><time>2026-03-30T06:48:06.999Z</time></trkpt><trkpt lat="45.61200862019394" lon="8.95208206574781"><ele>218.0</ele><time>2026-03-30T06:48:07.999Z</time></trkpt><trkpt lat="45.61200391783783" lon="8.951874226621452"><ele>218.0</ele><time>2026-03-30T06:48:08.999Z</time></trkpt><trkpt lat="45.611997213385855" lon="8.951668529046888"><ele>218.0</ele><time>2026-03-30T06:48:09.999Z</time></trkpt><trkpt lat="45.61199164271528" lon="8.951465029842337"><ele>218.0</ele><time>2026-03-30T06:48:10.999Z</time></trkpt><trkpt lat="45.61198456328298" lon="8.951269540893946"><ele>218.0</ele><time>2026-03-30T06:48:11.999Z</time></trkpt><trkpt lat="45.61197826656654" lon="8.951092887527125"><ele>218.0</ele><time>2026-03-30T06:48:12.999Z</time></trkpt><trkpt lat="45.611970470898406" lon="8.950907479735339"><ele>218.0</ele><time>2026-03-30T06:48:13.999Z</time></trkpt><trkpt lat="45.61196507816698" lon="8.95071933280004"><ele>218.0</ele><time>2026-03-30T06:48:14.999Z</time></trkpt><trkpt lat="45.61195935943723" lon="8.950533720339571"><ele>218.25</ele><time>2026-03-30T06:48:15.999Z</time></trkpt><trkpt lat="45.61195192022299" lon="8.950356371789312"><ele>218.5</ele><time>2026-03-30T06:48:16.999Z</time></trkpt><trkpt lat="45.61194903348451" lon="8.950170057658536"><ele>218.75</ele><time>2026-03-30T06:48:17.999Z</time></trkpt><trkpt lat="45.61194087713537" lon="8.94999200936207"><ele>219.0</ele><time>2026-03-30T06:48:18.999Z</time></trkpt><trkpt lat="45.6119348518577" lon="8.949835647568737"><ele>219.0</ele><time>2026-03-30T06:48:19.999Z</time></trkpt><trkpt lat="45.611933375393335" lon="8.9497097058844"><ele>219.0</ele><time>2026-03-30T06:48:20.999Z</time></trkpt><trkpt lat="45.61193053064355" lon="8.949612541472362"><ele>219.0</ele><time>2026-03-30T06:48:21.999Z</time></trkpt><trkpt lat="45.611926261805344" lon="8.949502596184708"><ele>219.0</ele><time>2026-03-30T06:48:22.999Z</time></trkpt><trkpt lat="45.6119269791787" lon="8.949399385990901"><ele>219.0</ele><time>2026-03-30T06:48:23.999Z</time></trkpt><trkpt lat="45.61192834635863" lon="8.94925551490527"><ele>219.0</ele><time>2026-03-30T06:48:24.999Z</time></trkpt><trkpt lat="45.61192297744273" lon="8.949113184730187"><ele>218.79999999999998</ele><time>2026-03-30T06:48:25.999Z</time></trkpt><trkpt lat="45.61190987636737" lon="8.948989913278004"><ele>218.59999999999997</ele><time>2026-03-30T06:48:26.999Z</time></trkpt><trkpt lat="45.61190125035165" lon="8.948855869282628"><ele>218.4</ele><time>2026-03-30T06:48:27.999Z</time></trkpt><trkpt lat="45.611896443003175" lon="8.948703597523066"><ele>218.2</ele><time>2026-03-30T06:48:28.999Z</time></trkpt><trkpt lat="45.61189092811045" lon="8.948552686901841"><ele>218.0</ele><time>2026-03-30T06:48:29.999Z</time></trkpt><trkpt lat="45.611887322984174" lon="8.948392912153466"><ele>218.0</ele><time>2026-03-30T06:48:30.999Z</time></trkpt><trkpt lat="45.61188626478411" lon="8.948245386041433"><ele>218.0</ele><time>2026-03-30T06:48:31.999Z</time></trkpt><trkpt lat="45.61188135662729" lon="8.94809191634177"><ele>218.0</ele><time>2026-03-30T06:48:32.999Z</time></trkpt><trkpt lat="45.61187634490005" lon="8.947937708088244"><ele>218.0</ele><time>2026-03-30T06:48:33.999Z</time></trkpt><trkpt lat="45.611863402848186" lon="8.947790711576676"><ele>218.0</ele><time>2026-03-30T06:48:34.999Z</time></trkpt><trkpt lat="45.61185069221687" lon="8.947611568586753"><ele>218.0</ele><time>2026-03-30T06:48:35.999Z</time></trkpt><trkpt lat="45.61183737278387" lon="8.947438752314257"><ele>218.0</ele><time>2026-03-30T06:48:36.999Z</time></trkpt><trkpt lat="45.611838502688656" lon="8.947250438681085"><ele>218.0</ele><time>2026-03-30T06:48:37.999Z</time></trkpt><trkpt lat="45.61182269308172" lon="8.947037882900089"><ele>218.0</ele><time>2026-03-30T06:48:39Z</time></trkpt><trkpt lat="45.61181932644197" lon="8.946826712100295"><ele>218.2</ele><time>2026-03-30T06:48:40Z</time></trkpt><trkpt lat="45.611817605245776" lon="8.946650044099307"><ele>218.4</ele><time>2026-03-30T06:48:41Z</time></trkpt><trkpt lat="45.6118098567433" lon="8.946516179871274"><ele>218.59999999999997</ele><time>2026-03-30T06:48:42Z</time></trkpt><trkpt lat="45.61180473933332" lon="8.946411708753883"><ele>218.79999999999998</ele><time>2026-03-30T06:48:43Z</time></trkpt><trkpt lat="45.6117979448007" lon="8.946310926283536"><ele>219.0</ele><time>2026-03-30T06:48:44Z</time></trkpt><trkpt lat="45.611811288158655" lon="8.946166530580347"><ele>219.0</ele><time>2026-03-30T06:48:46Z</time></trkpt><trkpt lat="45.6118479341596" lon="8.946055286351195"><ele>218.99999999999997</ele><time>2026-03-30T06:48:48Z</time></trkpt><trkpt lat="45.61191154267244" lon="8.945972519455644"><ele>218.99999999999997</ele><time>2026-03-30T06:48:51Z</time></trkpt><trkpt lat="45.61200007364636" lon="8.945882782506017"><ele>219.0</ele><time>2026-03-30T06:48:53Z</time></trkpt><trkpt lat="45.61204236179645" lon="8.94571559842842"><ele>219.0</ele><time>2026-03-30T06:48:55Z</time></trkpt><trkpt lat="45.61202812633745" lon="8.945605138858882"><ele>219.0</ele><time>2026-03-30T06:48:56Z</time></trkpt><trkpt lat="45.611978989885884" lon="8.9454725225495"><ele>219.0</ele><time>2026-03-30T06:48:57Z</time></trkpt><trkpt lat="45.611906602619314" lon="8.945336911099691"><ele>219.0</ele><time>2026-03-30T06:48:58Z</time></trkpt><trkpt lat="45.61184631484722" lon="8.945192190194124"><ele>219.0</ele><time>2026-03-30T06:48:59Z</time></trkpt><trkpt lat="45.61181640540246" lon="8.945023751403404"><ele>219.0</ele><time>2026-03-30T06:49:00Z</time></trkpt><trkpt lat="45.61178033519542" lon="8.944837659636367"><ele>219.0</ele><time>2026-03-30T06:49:01Z</time></trkpt><trkpt lat="45.61175233625998" lon="8.944654760781514"><ele>219.0</ele><time>2026-03-30T06:49:02Z</time></trkpt><trkpt lat="45.6117319771028" lon="8.944473712192261"><ele>219.0</ele><time>2026-03-30T06:49:03Z</time></trkpt><trkpt lat="45.61172645643649" lon="8.944293072238727"><ele>219.75</ele><time>2026-03-30T06:49:04Z</time></trkpt><trkpt lat="45.61172077877842" lon="8.944112451332666"><ele>220.5</ele><time>2026-03-30T06:49:05Z</time></trkpt><trkpt lat="45.611708490221076" lon="8.94394363062463"><ele>221.25</ele><time>2026-03-30T06:49:06Z</time></trkpt><trkpt lat="45.611690224849845" lon="8.94378560651002"><ele>222.0</ele><time>2026-03-30T06:49:07Z</time></trkpt><trkpt lat="45.61166891680475" lon="8.943610294889893"><ele>222.0</ele><time>2026-03-30T06:49:08Z</time></trkpt><trkpt lat="45.611646259599645" lon="8.943424503570725"><ele>222.0</ele><time>2026-03-30T06:49:09Z</time></trkpt><trkpt lat="45.61162644844431" lon="8.943234662093081"><ele>222.0</ele><time>2026-03-30T06:49:10Z</time></trkpt><trkpt lat="45.61160321452208" lon="8.943035552699161"><ele>222.0</ele><time>2026-03-30T06:49:11Z</time></trkpt><trkpt lat="45.61157579367214" lon="8.94281539775916"><ele>222.33333333333331</ele><time>2026-03-30T06:49:12Z</time></trkpt><trkpt lat="45.611548701735884" lon="8.942591265214906"><ele>222.66666666666666</ele><time>2026-03-30T06:49:13Z</time></trkpt><trkpt lat="45.61152409606476" lon="8.94237001283956"><ele>223.0</ele><time>2026-03-30T06:49:14Z</time></trkpt><trkpt lat="45.61149524903365" lon="8.942139840170675"><ele>223.0</ele><time>2026-03-30T06:49:15Z</time></trkpt><trkpt lat="45.61146827264671" lon="8.941917998315706"><ele>223.0</ele><time>2026-03-30T06:49:16Z</time></trkpt><trkpt lat="45.61144407507662" lon="8.941691504204778"><ele>223.0</ele><time>2026-03-30T06:49:17Z</time></trkpt><trkpt lat="45.611411591853994" lon="8.941460877276329"><ele>223.0</ele><time>2026-03-30T06:49:18Z</time></trkpt><trkpt lat="45.6113847599688" lon="8.941228429900162"><ele>223.0</ele><time>2026-03-30T06:49:19Z</time></trkpt><trkpt lat="45.61135813513462" lon="8.9410041749779"><ele>223.0</ele><time>2026-03-30T06:49:20Z</time></trkpt><trkpt lat="45.61133367599353" lon="8.940782841464605"><ele>222.33333333333331</ele><time>2026-03-30T06:49:21Z</time></trkpt><trkpt lat="45.61130792768536" lon="8.94056395988128"><ele>221.66666666666669</ele><time>2026-03-30T06:49:22Z</time></trkpt><trkpt lat="45.611280766872426" lon="8.940352235962997"><ele>221.0</ele><time>2026-03-30T06:49:23Z</time></trkpt><trkpt lat="45.61125806864885" lon="8.940145515308961"><ele>221.33333333333334</ele><time>2026-03-30T06:49:24Z</time></trkpt><trkpt lat="45.61123045902032" lon="8.939931929337087"><ele>221.66666666666669</ele><time>2026-03-30T06:49:25Z</time></trkpt><trkpt lat="45.61120810235652" lon="8.939723192361509"><ele>222.0</ele><time>2026-03-30T06:49:26Z</time></trkpt><trkpt lat="45.6111813901189" lon="8.939509736301066"><ele>221.75</ele><time>2026-03-30T06:49:27Z</time></trkpt><trkpt lat="45.611157192031" lon="8.939303682578958"><ele>221.5</ele><time>2026-03-30T06:49:28Z</time></trkpt><trkpt lat="45.61113479483692" lon="8.939108589514476"><ele>221.25</ele><time>2026-03-30T06:49:29Z</time></trkpt><trkpt lat="45.61111632003749" lon="8.938918069509148"><ele>221.0</ele><time>2026-03-30T06:49:30Z</time></trkpt><trkpt lat="45.61109835630528" lon="8.938730863729136"><ele>221.0</ele><time>2026-03-30T06:49:31Z</time></trkpt><trkpt lat="45.611080989671194" lon="8.938549625999961"><ele>221.00000000000003</ele><time>2026-03-30T06:49:32Z</time></trkpt><trkpt lat="45.61106504987042" lon="8.938385314250251"><ele>221.00000000000003</ele><time>2026-03-30T06:49:33Z</time></trkpt><trkpt lat="45.61105642949916" lon="8.938264264531815"><ele>221.0</ele><time>2026-03-30T06:49:34Z</time></trkpt><trkpt lat="45.611067737738374" lon="8.938114494956476"><ele>221.0</ele><time>2026-03-30T06:49:35.999Z</time></trkpt><trkpt lat="45.61110236835315" lon="8.938010973123435"><ele>221.0</ele><time>2026-03-30T06:49:39.999Z</time></trkpt><trkpt lat="45.61114995770548" lon="8.937917832263356"><ele>221.00000000000003</ele><time>2026-03-30T06:49:41.999Z</time></trkpt><trkpt lat="45.61121231255825" lon="8.937852886599424"><ele>221.00000000000003</ele><time>2026-03-30T06:49:42.999Z</time></trkpt><trkpt lat="45.611259767858535" lon="8.937738642991262"><ele>221.0</ele><time>2026-03-30T06:49:43.999Z</time></trkpt><trkpt lat="45.61140469391081" lon="8.937704190426068"><ele>221.0</ele><time>2026-03-30T06:49:44.999Z</time></trkpt><trkpt lat="45.611513372374034" lon="8.937660697163109"><ele>221.25</ele><time>2026-03-30T06:49:45.999Z</time></trkpt><trkpt lat="45.611626057390495" lon="8.937633787146853"><ele>221.5</ele><time>2026-03-30T06:49:46.999Z</time></trkpt><trkpt lat="45.61174876415655" lon="8.937614552241344"><ele>221.75</ele><time>2026-03-30T06:49:47.999Z</time></trkpt><trkpt lat="45.611877971754666" lon="8.937595321513422"><ele>222.0</ele><time>2026-03-30T06:49:48.999Z</time></trkpt><trkpt lat="45.611995619512754" lon="8.937564368838515"><ele>222.0</ele><time>2026-03-30T06:49:49.999Z</time></trkpt><trkpt lat="45.61211348971053" lon="8.93753343473696"><ele>222.0</ele><time>2026-03-30T06:49:50.999Z</time></trkpt><trkpt lat="45.61223683032166" lon="8.937501579697313"><ele>222.0</ele><time>2026-03-30T06:49:51.999Z</time></trkpt><trkpt lat="45.61236152100488" lon="8.937472230773375"><ele>222.0</ele><time>2026-03-30T06:49:52.999Z</time></trkpt><trkpt lat="45.61248605325696" lon="8.937437370959845"><ele>222.0</ele><time>2026-03-30T06:49:53.999Z</time></trkpt><trkpt lat="45.61259971106434" lon="8.937400944818318"><ele>222.0</ele><time>2026-03-30T06:49:54.999Z</time></trkpt><trkpt lat="45.61271705625552" lon="8.937370067546073"><ele>222.0</ele><time>2026-03-30T06:49:55.999Z</time></trkpt><trkpt lat="45.61283098354108" lon="8.937339315377244"><ele>222.0</ele><time>2026-03-30T06:49:56.999Z</time></trkpt><trkpt lat="45.612932933726995" lon="8.937306147806991"><ele>222.2</ele><time>2026-03-30T06:49:57.999Z</time></trkpt><trkpt lat="45.61303025579151" lon="8.937269960073857"><ele>222.39999999999998</ele><time>2026-03-30T06:49:58.999Z</time></trkpt><trkpt lat="45.613121474662734" lon="8.9372381211334"><ele>222.60000000000002</ele><time>2026-03-30T06:49:59.999Z</time></trkpt><trkpt lat="45.61321199017638" lon="8.937210386307965"><ele>222.8</ele><time>2026-03-30T06:50:00.999Z</time></trkpt><trkpt lat="45.613313369749186" lon="8.937184642369324"><ele>223.0</ele><time>2026-03-30T06:50:01.999Z</time></trkpt><trkpt lat="45.61343509212942" lon="8.937143638427782"><ele>223.0</ele><time>2026-03-30T06:50:02.999Z</time></trkpt><trkpt lat="45.61356310131531" lon="8.937095164706573"><ele>223.0</ele><time>2026-03-30T06:50:03.999Z</time></trkpt><trkpt lat="45.61370042605202" lon="8.937052887355607"><ele>223.0</ele><time>2026-03-30T06:50:04.999Z</time></trkpt><trkpt lat="45.613840467325254" lon="8.937011032660594"><ele>223.0</ele><time>2026-03-30T06:50:05.999Z</time></trkpt><trkpt lat="45.61396982934367" lon="8.936948098834339"><ele>223.75</ele><time>2026-03-30T06:50:06.999Z</time></trkpt><trkpt lat="45.61409435505325" lon="8.936859207518289"><ele>224.5</ele><time>2026-03-30T06:50:07.999Z</time></trkpt><trkpt lat="45.61421250402498" lon="8.936763008858765"><ele>225.25</ele><time>2026-03-30T06:50:08.999Z</time></trkpt><trkpt lat="45.61433095194294" lon="8.936656501042057"><ele>226.0</ele><time>2026-03-30T06:50:09.999Z</time></trkpt><trkpt lat="45.6144443018699" lon="8.936559182160975"><ele>225.75</ele><time>2026-03-30T06:50:10.999Z</time></trkpt><trkpt lat="45.61454998481015" lon="8.936462768434895"><ele>225.5</ele><time>2026-03-30T06:50:11.999Z</time></trkpt><trkpt lat="45.61465684570305" lon="8.936371081157802"><ele>225.25</ele><time>2026-03-30T06:50:12.999Z</time></trkpt><trkpt lat="45.61476041108928" lon="8.936278815288727"><ele>225.0</ele><time>2026-03-30T06:50:13.999Z</time></trkpt><trkpt lat="45.61485526453302" lon="8.93619452444314"><ele>225.0</ele><time>2026-03-30T06:50:14.999Z</time></trkpt><trkpt lat="45.614943750022206" lon="8.936118370005552"><ele>225.0</ele><time>2026-03-30T06:50:15.999Z</time></trkpt><trkpt lat="45.615026754569314" lon="8.936049420416376"><ele>225.0</ele><time>2026-03-30T06:50:16.999Z</time></trkpt><trkpt lat="45.61509494157775" lon="8.93599111168415"><ele>225.0</ele><time>2026-03-30T06:50:17.999Z</time></trkpt><trkpt lat="45.61516145513358" lon="8.935938617570809"><ele>225.0</ele><time>2026-03-30T06:50:18.999Z</time></trkpt><trkpt lat="45.6152540460863" lon="8.935866501973036"><ele>224.66666666666666</ele><time>2026-03-30T06:50:20.999Z</time></trkpt><trkpt lat="45.61537146092022" lon="8.93581752629079"><ele>224.33333333333331</ele><time>2026-03-30T06:50:22.999Z</time></trkpt><trkpt lat="45.615437804028375" lon="8.935778507790662"><ele>224.0</ele><time>2026-03-30T06:50:23.999Z</time></trkpt><trkpt lat="45.615481485130324" lon="8.935704395569656"><ele>223.66666666666666</ele><time>2026-03-30T06:50:24.999Z</time></trkpt><trkpt lat="45.61552386222175" lon="8.935611070274538"><ele>223.33333333333331</ele><time>2026-03-30T06:50:25.999Z</time></trkpt><trkpt lat="45.615573438699954" lon="8.935514604678659"><ele>223.0</ele><time>2026-03-30T06:50:26.999Z</time></trkpt><trkpt lat="45.61563688856735" lon="8.935421948658387"><ele>223.0</ele><time>2026-03-30T06:50:27.999Z</time></trkpt><trkpt lat="45.615711449480834" lon="8.9353196612196"><ele>223.0</ele><time>2026-03-30T06:50:28.999Z</time></trkpt><trkpt lat="45.61578872155799" lon="8.93521050810014"><ele>223.0</ele><time>2026-03-30T06:50:29.999Z</time></trkpt><trkpt lat="45.61586021496213" lon="8.935111641185003"><ele>223.0</ele><time>2026-03-30T06:50:30.999Z</time></trkpt><trkpt lat="45.61593609600453" lon="8.935007501408116"><ele>223.0</ele><time>2026-03-30T06:50:31.999Z</time></trkpt><trkpt lat="45.6160111287704" lon="8.934903836346043"><ele>223.2</ele><time>2026-03-30T06:50:32.999Z</time></trkpt><trkpt lat="45.6160807965572" lon="8.934805125894924"><ele>223.4</ele><time>2026-03-30T06:50:33.999Z</time></trkpt><trkpt lat="45.616149887407325" lon="8.934704768167016"><ele>223.59999999999997</ele><time>2026-03-30T06:50:34.999Z</time></trkpt><trkpt lat="45.61622067396832" lon="8.934602686402831"><ele>223.79999999999998</ele><time>2026-03-30T06:50:35.999Z</time></trkpt><trkpt lat="45.6162902712317" lon="8.934504920915636"><ele>224.0</ele><time>2026-03-30T06:50:36.999Z</time></trkpt><trkpt lat="45.61635286410831" lon="8.934411019996276"><ele>224.16666666666669</ele><time>2026-03-30T06:50:37.999Z</time></trkpt><trkpt lat="45.616418681734274" lon="8.934317210310194"><ele>224.33333333333334</ele><time>2026-03-30T06:50:38.999Z</time></trkpt><trkpt lat="45.61648017726422" lon="8.934233213752425"><ele>224.5</ele><time>2026-03-30T06:50:39.999Z</time></trkpt><trkpt lat="45.616538222855255" lon="8.934153942100412"><ele>224.66666666666669</ele><time>2026-03-30T06:50:40.999Z</time></trkpt><trkpt lat="45.6165891755637" lon="8.934086364755215"><ele>224.83333333333334</ele><time>2026-03-30T06:50:41.999Z</time></trkpt><trkpt lat="45.61664103493399" lon="8.934028076703502"><ele>225.0</ele><time>2026-03-30T06:50:42.999Z</time></trkpt><trkpt lat="45.61669851533293" lon="8.933990544051605"><ele>225.0</ele><time>2026-03-30T06:50:43.998Z</time></trkpt><trkpt lat="45.61677387761598" lon="8.9339792923992"><ele>225.0</ele><time>2026-03-30T06:50:45Z</time></trkpt><trkpt lat="45.616855452692505" lon="8.933981555492824"><ele>225.0</ele><time>2026-03-30T06:50:46Z</time></trkpt><trkpt lat="45.61694155064987" lon="8.933953004932045"><ele>225.0</ele><time>2026-03-30T06:50:47Z</time></trkpt><trkpt lat="45.61702766362052" lon="8.933899594526224"><ele>225.0</ele><time>2026-03-30T06:50:48Z</time></trkpt><trkpt lat="45.617078978652614" lon="8.933771776344088"><ele>225.0</ele><time>2026-03-30T06:50:49Z</time></trkpt><trkpt lat="45.61711006827669" lon="8.933629643688686"><ele>225.75</ele><time>2026-03-30T06:50:50Z</time></trkpt><trkpt lat="45.617181437754915" lon="8.933483362864735"><ele>226.5</ele><time>2026-03-30T06:50:51Z</time></trkpt><trkpt lat="45.61724827617275" lon="8.933368252261358"><ele>227.25</ele><time>2026-03-30T06:50:52Z</time></trkpt><trkpt lat="45.61733505935276" lon="8.933260477088426"><ele>228.0</ele><time>2026-03-30T06:50:53Z</time></trkpt><trkpt lat="45.6174270601204" lon="8.933156186080739"><ele>229.0</ele><time>2026-03-30T06:50:54Z</time></trkpt><trkpt lat="45.61751659020496" lon="8.9330566220459"><ele>230.0</ele><time>2026-03-30T06:50:55Z</time></trkpt><trkpt lat="45.61761049350502" lon="8.932953893884113"><ele>231.0</ele><time>2026-03-30T06:50:56Z</time></trkpt><trkpt lat="45.61770813816112" lon="8.932848246848195"><ele>232.0</ele><time>2026-03-30T06:50:57Z</time></trkpt><trkpt lat="45.61780871548602" lon="8.932736014104046"><ele>233.25</ele><time>2026-03-30T06:50:58Z</time></trkpt><trkpt lat="45.617911817846256" lon="8.932624954225052"><ele>234.5</ele><time>2026-03-30T06:50:59Z</time></trkpt><trkpt lat="45.61801083680022" lon="8.93251068116413"><ele>235.75</ele><time>2026-03-30T06:51:00Z</time></trkpt><trkpt lat="45.61810895696025" lon="8.932395017170947"><ele>237.0</ele><time>2026-03-30T06:51:01Z</time></trkpt><trkpt lat="45.6182024553485" lon="8.932262092226624"><ele>237.0</ele><time>2026-03-30T06:51:02Z</time></trkpt><trkpt lat="45.61828782329853" lon="8.932121848997747"><ele>237.0</ele><time>2026-03-30T06:51:03Z</time></trkpt><trkpt lat="45.6183714195891" lon="8.931970979912245"><ele>237.0</ele><time>2026-03-30T06:51:04Z</time></trkpt><trkpt lat="45.618450846991735" lon="8.931814367765753"><ele>237.0</ele><time>2026-03-30T06:51:05Z</time></trkpt><trkpt lat="45.618527336958" lon="8.931641837842122"><ele>237.0</ele><time>2026-03-30T06:51:06Z</time></trkpt><trkpt lat="45.61859969051956" lon="8.931466855358716"><ele>237.0</ele><time>2026-03-30T06:51:07Z</time></trkpt><trkpt lat="45.61866549825782" lon="8.931284134135174"><ele>237.0</ele><time>2026-03-30T06:51:08Z</time></trkpt><trkpt lat="45.61872265044505" lon="8.931109758985764"><ele>237.0</ele><time>2026-03-30T06:51:09Z</time></trkpt><trkpt lat="45.61877722951002" lon="8.930928391302544"><ele>236.25</ele><time>2026-03-30T06:51:10Z</time></trkpt><trkpt lat="45.618829168196854" lon="8.930741538822593"><ele>235.5</ele><time>2026-03-30T06:51:11Z</time></trkpt><trkpt lat="45.61887389803475" lon="8.930556840443723"><ele>234.75</ele><time>2026-03-30T06:51:12Z</time></trkpt><trkpt lat="45.618917712776394" lon="8.930379449457014"><ele>234.0</ele><time>2026-03-30T06:51:13Z</time></trkpt><trkpt lat="45.61896132659337" lon="8.930208744478374"><ele>234.0</ele><time>2026-03-30T06:51:14Z</time></trkpt><trkpt lat="45.619007270542085" lon="8.930036779749772"><ele>234.0</ele><time>2026-03-30T06:51:15Z</time></trkpt><trkpt lat="45.619058860346556" lon="8.929866635849724"><ele>234.0</ele><time>2026-03-30T06:51:16Z</time></trkpt><trkpt lat="45.61911879300041" lon="8.929692974964684"><ele>234.0</ele><time>2026-03-30T06:51:17Z</time></trkpt><trkpt lat="45.61918075089297" lon="8.929521587839181"><ele>234.0</ele><time>2026-03-30T06:51:18Z</time></trkpt><trkpt lat="45.61925389380017" lon="8.929354851906844"><ele>234.0</ele><time>2026-03-30T06:51:19Z</time></trkpt><trkpt lat="45.61934660380296" lon="8.929200682016269"><ele>234.0</ele><time>2026-03-30T06:51:20Z</time></trkpt><trkpt lat="45.61943849846293" lon="8.92905830119598"><ele>234.0</ele><time>2026-03-30T06:51:21Z</time></trkpt><trkpt lat="45.619539277234104" lon="8.928918297965922"><ele>233.5</ele><time>2026-03-30T06:51:22Z</time></trkpt><trkpt lat="45.61964954865328" lon="8.928789555528352"><ele>233.0</ele><time>2026-03-30T06:51:23Z</time></trkpt><trkpt lat="45.61977035847407" lon="8.928672389234276"><ele>232.5</ele><time>2026-03-30T06:51:24Z</time></trkpt><trkpt lat="45.61989611152282" lon="8.928559277394307"><ele>232.0</ele><time>2026-03-30T06:51:25Z</time></trkpt><trkpt lat="45.62002590012307" lon="8.928445931685827"><ele>232.33333333333331</ele><time>2026-03-30T06:51:26Z</time></trkpt><trkpt lat="45.620152265466416" lon="8.928341402909004"><ele>232.66666666666669</ele><time>2026-03-30T06:51:27Z</time></trkpt><trkpt lat="45.620293649294396" lon="8.928256110460422"><ele>233.0</ele><time>2026-03-30T06:51:28Z</time></trkpt><trkpt lat="45.620427527715115" lon="8.92815883764172"><ele>233.0</ele><time>2026-03-30T06:51:29Z</time></trkpt><trkpt lat="45.620563564674" lon="8.928082540349308"><ele>233.0</ele><time>2026-03-30T06:51:30Z</time></trkpt><trkpt lat="45.62069874375691" lon="8.92802282008363"><ele>233.0</ele><time>2026-03-30T06:51:31Z</time></trkpt><trkpt lat="45.62082781775904" lon="8.927939729412614"><ele>233.0</ele><time>2026-03-30T06:51:32Z</time></trkpt><trkpt lat="45.62094936313622" lon="8.927856975829378"><ele>233.0</ele><time>2026-03-30T06:51:33Z</time></trkpt><trkpt lat="45.6210853170402" lon="8.927747121163586"><ele>233.0</ele><time>2026-03-30T06:51:33.999Z</time></trkpt><trkpt lat="45.62125926145999" lon="8.92758587150074"><ele>233.0</ele><time>2026-03-30T06:51:34.999Z</time></trkpt><trkpt lat="45.62135295008212" lon="8.927478312487604"><ele>232.75</ele><time>2026-03-30T06:51:35.999Z</time></trkpt><trkpt lat="45.621453903593896" lon="8.927342599010545"><ele>232.5</ele><time>2026-03-30T06:51:36.999Z</time></trkpt><trkpt lat="45.62154280004602" lon="8.927192766146698"><ele>232.25</ele><time>2026-03-30T06:51:37.999Z</time></trkpt><trkpt lat="45.6216241258755" lon="8.927029487194845"><ele>232.0</ele><time>2026-03-30T06:51:38.999Z</time></trkpt><trkpt lat="45.621696343405894" lon="8.9268529934453"><ele>231.25</ele><time>2026-03-30T06:51:39.999Z</time></trkpt><trkpt lat="45.62175755046508" lon="8.926661657885944"><ele>230.5</ele><time>2026-03-30T06:51:40.999Z</time></trkpt><trkpt lat="45.62180603807537" lon="8.926461739510415"><ele>229.75</ele><time>2026-03-30T06:51:41.999Z</time></trkpt><trkpt lat="45.62184230277484" lon="8.926259073304852"><ele>229.0</ele><time>2026-03-30T06:51:42.999Z</time></trkpt><trkpt lat="45.62186441104969" lon="8.926063708150675"><ele>230.5</ele><time>2026-03-30T06:51:43.999Z</time></trkpt><trkpt lat="45.62187072298803" lon="8.925864947074082"><ele>232.0</ele><time>2026-03-30T06:51:44.999Z</time></trkpt><trkpt lat="45.62186367000375" lon="8.92566507898774"><ele>233.5</ele><time>2026-03-30T06:51:45.999Z</time></trkpt><trkpt lat="45.62184825398904" lon="8.925467374607319"><ele>235.0</ele><time>2026-03-30T06:51:46.999Z</time></trkpt><trkpt lat="45.62180547089875" lon="8.925277033917489"><ele>235.0</ele><time>2026-03-30T06:51:47.999Z</time></trkpt><trkpt lat="45.62176664859182" lon="8.925084746272251"><ele>235.0</ele><time>2026-03-30T06:51:48.999Z</time></trkpt><trkpt lat="45.621717487311756" lon="8.924913304983011"><ele>235.0</ele><time>2026-03-30T06:51:49.999Z</time></trkpt><trkpt lat="45.621667322812876" lon="8.924768143994521"><ele>235.0</ele><time>2026-03-30T06:51:50.999Z</time></trkpt><trkpt lat="45.621617670541944" lon="8.924646903006549"><ele>234.83333333333331</ele><time>2026-03-30T06:51:51.999Z</time></trkpt><trkpt lat="45.62157288466116" lon="8.924540662266057"><ele>234.66666666666666</ele><time>2026-03-30T06:51:52.999Z</time></trkpt><trkpt lat="45.62152932725707" lon="8.924441320241268"><ele>234.5</ele><time>2026-03-30T06:51:53.999Z</time></trkpt><trkpt lat="45.62149378111619" lon="8.92435876540686"><ele>234.33333333333331</ele><time>2026-03-30T06:51:54.999Z</time></trkpt><trkpt lat="45.62144225033367" lon="8.924256507282665"><ele>234.16666666666666</ele><time>2026-03-30T06:51:56.999Z</time></trkpt><trkpt lat="45.621475458139365" lon="8.924334744697584"><ele>234.0</ele><time>2026-03-30T06:52:10.999Z</time></trkpt><trkpt lat="45.621591594260025" lon="8.924366091810747"><ele>234.0</ele><time>2026-03-30T06:52:12.999Z</time></trkpt><trkpt lat="45.62165700254637" lon="8.924307939050339"><ele>233.99999999999997</ele><time>2026-03-30T06:52:14.999Z</time></trkpt><trkpt lat="45.62175308739909" lon="8.924299825846845"><ele>233.99999999999997</ele><time>2026-03-30T06:52:16.999Z</time></trkpt><trkpt lat="45.62186391658945" lon="8.92423372816829"><ele>234.0</ele><time>2026-03-30T06:52:18.999Z</time></trkpt><trkpt lat="45.62195382774553" lon="8.924202939992039"><ele>234.0</ele><time>2026-03-30T06:52:20.999Z</time></trkpt><trkpt lat="45.62206050903069" lon="8.924178414005418"><ele>233.25</ele><time>2026-03-30T06:52:22.999Z</time></trkpt><trkpt lat="45.622222815916125" lon="8.924140811788893"><ele>232.5</ele><time>2026-03-30T06:52:25.999Z</time></trkpt><trkpt lat="45.62238636656283" lon="8.924072852838004"><ele>231.75</ele><time>2026-03-30T06:52:26.999Z</time></trkpt><trkpt lat="45.62247601331694" lon="8.924059921668281"><ele>231.0</ele><time>2026-03-30T06:52:27.999Z</time></trkpt><trkpt lat="45.62256732238331" lon="8.924065474003676"><ele>231.0</ele><time>2026-03-30T06:52:28.999Z</time></trkpt><trkpt lat="45.62265186581474" lon="8.924085898087641"><ele>231.00000000000003</ele><time>2026-03-30T06:52:30.999Z</time></trkpt><trkpt lat="45.62272817218783" lon="8.92410716314244"><ele>231.00000000000003</ele><time>2026-03-30T06:52:34.999Z</time></trkpt><trkpt lat="45.622778247868645" lon="8.924009786177987"><ele>231.0</ele><time>2026-03-30T07:07:37Z</time></trkpt><trkpt lat="45.62288734257616" lon="8.923995517099781"><ele>231.0</ele><time>2026-03-30T07:07:39Z</time></trkpt><trkpt lat="45.6229801640582" lon="8.924006875651587"><ele>231.20000000000002</ele><time>2026-03-30T07:07:40Z</time></trkpt><trkpt lat="45.62306953267524" lon="8.924021361500348"><ele>231.40000000000003</ele><time>2026-03-30T07:07:41Z</time></trkpt><trkpt lat="45.62316725982281" lon="8.924052489109243"><ele>231.6</ele><time>2026-03-30T07:07:42Z</time></trkpt><trkpt lat="45.62326646148587" lon="8.924106918389096"><ele>231.8</ele><time>2026-03-30T07:07:43Z</time></trkpt><trkpt lat="45.62336946292111" lon="8.92417732631146"><ele>232.0</ele><time>2026-03-30T07:07:44Z</time></trkpt><trkpt lat="45.62345516195272" lon="8.924259993541739"><ele>232.33333333333331</ele><time>2026-03-30T07:07:45Z</time></trkpt><trkpt lat="45.62351751923112" lon="8.924348167262517"><ele>232.66666666666666</ele><time>2026-03-30T07:07:46Z</time></trkpt><trkpt lat="45.62359847948741" lon="8.924405813629143"><ele>233.0</ele><time>2026-03-30T07:07:47Z</time></trkpt><trkpt lat="45.62367867705126" lon="8.924483587232196"><ele>233.33333333333331</ele><time>2026-03-30T07:07:48Z</time></trkpt><trkpt lat="45.62374456113965" lon="8.924551953825507"><ele>233.66666666666666</ele><time>2026-03-30T07:07:49Z</time></trkpt><trkpt lat="45.62382066759908" lon="8.924588968755936"><ele>234.0</ele><time>2026-03-30T07:07:50Z</time></trkpt><trkpt lat="45.62390986002413" lon="8.924636221296012"><ele>234.0</ele><time>2026-03-30T07:07:51Z</time></trkpt><trkpt lat="45.624006836421806" lon="8.924674192073411"><ele>233.99999999999997</ele><time>2026-03-30T07:07:52Z</time></trkpt><trkpt lat="45.624109552673005" lon="8.924686217479275"><ele>233.99999999999997</ele><time>2026-03-30T07:07:53Z</time></trkpt><trkpt lat="45.62423073464269" lon="8.924678393204466"><ele>234.0</ele><time>2026-03-30T07:07:54Z</time></trkpt><trkpt lat="45.62434101433693" lon="8.924647529827029"><ele>234.0</ele><time>2026-03-30T07:07:55Z</time></trkpt><trkpt lat="45.624425104092346" lon="8.924628603575295"><ele>234.5</ele><time>2026-03-30T07:07:56Z</time></trkpt><trkpt lat="45.624544543806785" lon="8.924576672749257"><ele>235.0</ele><time>2026-03-30T07:07:57Z</time></trkpt><trkpt lat="45.62463739374378" lon="8.924568136049448"><ele>235.5</ele><time>2026-03-30T07:07:58Z</time></trkpt><trkpt lat="45.62475239406202" lon="8.924528905133053"><ele>236.0</ele><time>2026-03-30T07:07:59Z</time></trkpt><trkpt lat="45.6248662102184" lon="8.92448760123477"><ele>236.0</ele><time>2026-03-30T07:08:00Z</time></trkpt><trkpt lat="45.62497600750386" lon="8.924426394949077"><ele>236.00000000000003</ele><time>2026-03-30T07:08:01Z</time></trkpt><trkpt lat="45.625089152677354" lon="8.924387781463468"><ele>236.00000000000003</ele><time>2026-03-30T07:08:02Z</time></trkpt><trkpt lat="45.625181280815625" lon="8.924351070605779"><ele>236.0</ele><time>2026-03-30T07:08:03Z</time></trkpt><trkpt lat="45.62524779917932" lon="8.924344183342416"><ele>236.0</ele><time>2026-03-30T07:08:04Z</time></trkpt><trkpt lat="45.625366822531774" lon="8.92431324865402"><ele>235.8</ele><time>2026-03-30T07:08:06Z</time></trkpt><trkpt lat="45.625461537975966" lon="8.924285291465925"><ele>235.60000000000002</ele><time>2026-03-30T07:08:08Z</time></trkpt><trkpt lat="45.62547886419956" lon="8.924392536272514"><ele>235.4</ele><time>2026-03-30T07:08:10Z</time></trkpt><trkpt lat="45.62543457923889" lon="8.924503372185978"><ele>235.2</ele><time>2026-03-30T07:08:11Z</time></trkpt><trkpt lat="45.62541352577195" lon="8.924634302851553"><ele>235.0</ele><time>2026-03-30T07:08:12Z</time></trkpt><trkpt lat="45.62540730476474" lon="8.9247802103952"><ele>235.0</ele><time>2026-03-30T07:08:13Z</time></trkpt><trkpt lat="45.6254167469306" lon="8.9249141540355"><ele>235.0</ele><time>2026-03-30T07:08:14Z</time></trkpt><trkpt lat="45.62542757162592" lon="8.925047936854192"><ele>235.0</ele><time>2026-03-30T07:08:15Z</time></trkpt><trkpt lat="45.62542008363893" lon="8.925148009425895"><ele>235.0</ele><time>2026-03-30T07:08:15.999Z</time></trkpt><trkpt lat="45.62539020339531" lon="8.925307579693243"><ele>235.0</ele><time>2026-03-30T07:08:17.999Z</time></trkpt><trkpt lat="45.62537974543582" lon="8.925432116796776"><ele>234.4</ele><time>2026-03-30T07:08:18.999Z</time></trkpt><trkpt lat="45.62537866119432" lon="8.925558106500953"><ele>233.8</ele><time>2026-03-30T07:08:19.999Z</time></trkpt><trkpt lat="45.6253488908677" lon="8.925691931340031"><ele>233.2</ele><time>2026-03-30T07:08:20.999Z</time></trkpt><trkpt lat="45.62532487876844" lon="8.925825861718753"><ele>232.6</ele><time>2026-03-30T07:08:21.999Z</time></trkpt><trkpt lat="45.62530036835596" lon="8.925969390320676"><ele>232.0</ele><time>2026-03-30T07:08:22.999Z</time></trkpt><trkpt lat="45.625277792238485" lon="8.926116601495474"><ele>232.0</ele><time>2026-03-30T07:08:23.999Z</time></trkpt><trkpt lat="45.62525320693183" lon="8.926260773845106"><ele>232.0</ele><time>2026-03-30T07:08:24.999Z</time></trkpt><trkpt lat="45.62522965309621" lon="8.926409057978736"><ele>232.0</ele><time>2026-03-30T07:08:25.999Z</time></trkpt><trkpt lat="45.6252029993481" lon="8.926552832554394"><ele>232.0</ele><time>2026-03-30T07:08:26.999Z</time></trkpt><trkpt lat="45.62518204967809" lon="8.926680126595802"><ele>232.0</ele><time>2026-03-30T07:08:27.999Z</time></trkpt><trkpt lat="45.625160272694835" lon="8.92680278915486"><ele>232.39999999999998</ele><time>2026-03-30T07:08:28.999Z</time></trkpt><trkpt lat="45.625141075773264" lon="8.926920533954702"><ele>232.79999999999998</ele><time>2026-03-30T07:08:29.999Z</time></trkpt><trkpt lat="45.62513202688778" lon="8.927023055782739"><ele>233.2</ele><time>2026-03-30T07:08:30.999Z</time></trkpt><trkpt lat="45.62513820034595" lon="8.927188871267731"><ele>233.6</ele><time>2026-03-30T07:08:32.999Z</time></trkpt><trkpt lat="45.62520177583833" lon="8.927379360460991"><ele>234.0</ele><time>2026-03-30T07:08:34.999Z</time></trkpt><trkpt lat="45.62524675374898" lon="8.927507837249179"><ele>234.0</ele><time>2026-03-30T07:08:35.999Z</time></trkpt><trkpt lat="45.62528213882308" lon="8.927623506119554"><ele>234.0</ele><time>2026-03-30T07:08:36.999Z</time></trkpt><trkpt lat="45.62531288945693" lon="8.927720649278507"><ele>234.0</ele><time>2026-03-30T07:08:37.999Z</time></trkpt><trkpt lat="45.62533896495199" lon="8.927805973941366"><ele>234.0</ele><time>2026-03-30T07:08:38.999Z</time></trkpt><trkpt lat="45.62534138652898" lon="8.92796246965395"><ele>234.0</ele><time>2026-03-30T07:08:40.999Z</time></trkpt><trkpt lat="45.62536302486584" lon="8.928057618680691"><ele>234.0</ele><time>2026-03-30T07:08:41.999Z</time></trkpt><trkpt lat="45.625390513872176" lon="8.928207918312696"><ele>233.79999999999998</ele><time>2026-03-30T07:08:43.999Z</time></trkpt><trkpt lat="45.62542089576465" lon="8.928313990571617"><ele>233.59999999999997</ele><time>2026-03-30T07:08:45.999Z</time></trkpt><trkpt lat="45.62543843837291" lon="8.928421764989569"><ele>233.4</ele><time>2026-03-30T07:08:47.999Z</time></trkpt><trkpt lat="45.62547210150822" lon="8.928590898780657"><ele>233.2</ele><time>2026-03-30T07:08:49.999Z</time></trkpt><trkpt lat="45.625497010573326" lon="8.928676713353456"><ele>233.0</ele><time>2026-03-30T07:08:50.999Z</time></trkpt><trkpt lat="45.62553518978015" lon="8.928840696310594"><ele>233.0</ele><time>2026-03-30T07:08:52.999Z</time></trkpt><trkpt lat="45.6255567799796" lon="8.928953284661839"><ele>233.0</ele><time>2026-03-30T07:08:53.999Z</time></trkpt><trkpt lat="45.62558212026667" lon="8.929137508614495"><ele>233.0</ele><time>2026-03-30T07:08:55.999Z</time></trkpt><trkpt lat="45.62560310782337" lon="8.929246908687483"><ele>233.0</ele><time>2026-03-30T07:08:57.999Z</time></trkpt><trkpt lat="45.62567094784753" lon="8.929328257294062"><ele>233.0</ele><time>2026-03-30T07:08:59.999Z</time></trkpt><trkpt lat="45.625786171318644" lon="8.92925955601967"><ele>233.00000000000003</ele><time>2026-03-30T07:09:01.999Z</time></trkpt><trkpt lat="45.62585700393663" lon="8.929237484342178"><ele>233.0</ele><time>2026-03-30T07:09:02.999Z</time></trkpt><trkpt lat="45.6259222463915" lon="8.929220774681907"><ele>233.0</ele><time>2026-03-30T07:09:03.999Z</time></trkpt><trkpt lat="45.62601410926429" lon="8.929162454133124"><ele>233.0</ele><time>2026-03-30T07:09:04.999Z</time></trkpt><trkpt lat="45.62609415461711" lon="8.929107021682428"><ele>233.00000000000003</ele><time>2026-03-30T07:09:05.999Z</time></trkpt><trkpt lat="45.62617042138707" lon="8.929055821255364"><ele>233.0</ele><time>2026-03-30T07:09:06.999Z</time></trkpt><trkpt lat="45.6262586957968" lon="8.929022471568288"><ele>233.66666666666669</ele><time>2026-03-30T07:09:07.999Z</time></trkpt><trkpt lat="45.62633767879202" lon="8.928994863267732"><ele>234.33333333333334</ele><time>2026-03-30T07:09:08.999Z</time></trkpt><trkpt lat="45.626395836128445" lon="8.92895715450788"><ele>235.0</ele><time>2026-03-30T07:09:09.999Z</time></trkpt><trkpt lat="45.626479088203084" lon="8.928930181139524"><ele>235.66666666666669</ele><time>2026-03-30T07:09:11.999Z</time></trkpt><trkpt lat="45.62652391070752" lon="8.92885726000328"><ele>236.33333333333334</ele><time>2026-03-30T07:09:13.999Z</time></trkpt><trkpt lat="45.62660440843669" lon="8.928796605888943"><ele>237.0</ele><time>2026-03-30T07:09:15.999Z</time></trkpt><trkpt lat="45.626708660750815" lon="8.928819634160785"><ele>237.0</ele><time>2026-03-30T07:09:17.999Z</time></trkpt><trkpt lat="45.62688181453184" lon="8.928803446427361"><ele>237.0</ele><time>2026-03-30T07:09:19.998Z</time></trkpt><trkpt lat="45.62698345797346" lon="8.928778943517885"><ele>237.0</ele><time>2026-03-30T07:09:20.998Z</time></trkpt><trkpt lat="45.62710317694649" lon="8.928764319515388"><ele>237.0</ele><time>2026-03-30T07:09:21.998Z</time></trkpt><trkpt lat="45.627217674314636" lon="8.928771750664772"><ele>237.0</ele><time>2026-03-30T07:09:22.998Z</time></trkpt><trkpt lat="45.627327146446625" lon="8.92879275602621"><ele>237.0</ele><time>2026-03-30T07:09:23.998Z</time></trkpt><trkpt lat="45.62742710515989" lon="8.92880749240195"><ele>237.0</ele><time>2026-03-30T07:09:24.998Z</time></trkpt><trkpt lat="45.62750668306003" lon="8.928813938661905"><ele>237.0</ele><time>2026-03-30T07:09:25.998Z</time></trkpt><trkpt lat="45.62756975611318" lon="8.928836056318714"><ele>237.0</ele><time>2026-03-30T07:09:26.998Z</time></trkpt><trkpt lat="45.62762478104527" lon="8.928880356782084"><ele>237.0</ele><time>2026-03-30T07:09:27.998Z</time></trkpt><trkpt lat="45.62767742628385" lon="8.928950505263755"><ele>237.0</ele><time>2026-03-30T07:09:28.998Z</time></trkpt><trkpt lat="45.62774546106312" lon="8.929013535364351"><ele>237.0</ele><time>2026-03-30T07:09:29.998Z</time></trkpt><trkpt lat="45.62780761246199" lon="8.929098567910508"><ele>237.0</ele><time>2026-03-30T07:09:30.998Z</time></trkpt><trkpt lat="45.62787285920385" lon="8.929158527562715"><ele>237.0</ele><time>2026-03-30T07:09:31.998Z</time></trkpt><trkpt lat="45.627930660528584" lon="8.929219892222983"><ele>237.0</ele><time>2026-03-30T07:09:32.998Z</time></trkpt><trkpt lat="45.627993579282794" lon="8.92930580077662"><ele>237.0</ele><time>2026-03-30T07:09:33.998Z</time></trkpt><trkpt lat="45.62807666716572" lon="8.929368569711214"><ele>237.39999999999998</ele><time>2026-03-30T07:09:34.998Z</time></trkpt><trkpt lat="45.628144241634715" lon="8.929481800980184"><ele>237.79999999999998</ele><time>2026-03-30T07:09:36.998Z</time></trkpt><trkpt lat="45.6281742165443" lon="8.92958445730849"><ele>238.2</ele><time>2026-03-30T07:09:37.998Z</time></trkpt><trkpt lat="45.628196487800324" lon="8.92975528326915"><ele>238.6</ele><time>2026-03-30T07:09:39Z</time></trkpt><trkpt lat="45.6282328061007" lon="8.929906052818744"><ele>239.0</ele><time>2026-03-30T07:09:40Z</time></trkpt><trkpt lat="45.62826707336437" lon="8.930037726895568"><ele>238.6</ele><time>2026-03-30T07:09:41Z</time></trkpt><trkpt lat="45.62829039967609" lon="8.930173396145126"><ele>238.2</ele><time>2026-03-30T07:09:42Z</time></trkpt><trkpt lat="45.6283234368222" lon="8.93033712035982"><ele>237.79999999999998</ele><time>2026-03-30T07:09:43Z</time></trkpt><trkpt lat="45.628358211225674" lon="8.930496613913798"><ele>237.39999999999998</ele><time>2026-03-30T07:09:44Z</time></trkpt><trkpt lat="45.62837094648432" lon="8.930603461865347"><ele>237.0</ele><time>2026-03-30T07:09:45Z</time></trkpt><trkpt lat="45.62842658938887" lon="8.930679052123947"><ele>237.0</ele><time>2026-03-30T07:09:46Z</time></trkpt><trkpt lat="45.62847208043092" lon="8.930807369242732"><ele>237.0</ele><time>2026-03-30T07:09:48Z</time></trkpt><trkpt lat="45.628521831385086" lon="8.930862612154218"><ele>237.0</ele><time>2026-03-30T07:09:49Z</time></trkpt><trkpt lat="45.62858954686788" lon="8.930849006472105"><ele>237.0</ele><time>2026-03-30T07:09:50Z</time></trkpt><trkpt lat="45.62876062738321" lon="8.93078646197726"><ele>237.0</ele><time>2026-03-30T07:09:52Z</time></trkpt><trkpt lat="45.62887611112312" lon="8.930777596143393"><ele>237.0</ele><time>2026-03-30T07:09:53Z</time></trkpt><trkpt lat="45.62894917853008" lon="8.930826030093508"><ele>237.0</ele><time>2026-03-30T07:09:54Z</time></trkpt><trkpt lat="45.62903872579094" lon="8.930868896465194"><ele>237.0</ele><time>2026-03-30T07:09:55Z</time></trkpt><trkpt lat="45.62912806849638" lon="8.930916180165065"><ele>237.0</ele><time>2026-03-30T07:09:56Z</time></trkpt><trkpt lat="45.62920981006247" lon="8.930898762425915"><ele>237.0</ele><time>2026-03-30T07:09:57Z</time></trkpt><trkpt lat="45.62929119625751" lon="8.930852130269667"><ele>237.0</ele><time>2026-03-30T07:09:58Z</time></trkpt><trkpt lat="45.629397725103836" lon="8.93081142801764"><ele>237.5</ele><time>2026-03-30T07:09:59Z</time></trkpt><trkpt lat="45.62951342156156" lon="8.930783680870048"><ele>238.0</ele><time>2026-03-30T07:10:00Z</time></trkpt><trkpt lat="45.62961823519559" lon="8.930743784278263"><ele>238.5</ele><time>2026-03-30T07:10:01Z</time></trkpt><trkpt lat="45.62973740006899" lon="8.930710017528861"><ele>239.0</ele><time>2026-03-30T07:10:02Z</time></trkpt><trkpt lat="45.62984958230247" lon="8.930684143311549"><ele>239.00000000000003</ele><time>2026-03-30T07:10:03Z</time></trkpt><trkpt lat="45.629947022819486" lon="8.930667711768997"><ele>239.0</ele><time>2026-03-30T07:10:04Z</time></trkpt><trkpt lat="45.63001740838051" lon="8.93064897773606"><ele>239.0</ele><time>2026-03-30T07:10:05Z</time></trkpt><trkpt lat="45.6300986024453" lon="8.930568747118146"><ele>239.0</ele><time>2026-03-30T07:10:06Z</time></trkpt><trkpt lat="45.630160660803526" lon="8.9305020079797"><ele>239.00000000000003</ele><time>2026-03-30T07:10:07Z</time></trkpt><trkpt lat="45.63023905627148" lon="8.930462314850526"><ele>239.0</ele><time>2026-03-30T07:10:08Z</time></trkpt><trkpt lat="45.630331883773735" lon="8.93044765880164"><ele>238.50000000000003</ele><time>2026-03-30T07:10:09Z</time></trkpt><trkpt lat="45.630427903437365" lon="8.930450637714792"><ele>238.0</ele><time>2026-03-30T07:10:10Z</time></trkpt><trkpt lat="45.63052433712642" lon="8.930442533704841"><ele>237.5</ele><time>2026-03-30T07:10:11Z</time></trkpt><trkpt lat="45.630607674758124" lon="8.930432170751276"><ele>237.0</ele><time>2026-03-30T07:10:12Z</time></trkpt><trkpt lat="45.63068429658374" lon="8.930426253213101"><ele>236.50000000000003</ele><time>2026-03-30T07:10:13Z</time></trkpt><trkpt lat="45.630754392697206" lon="8.930425665673551"><ele>236.0</ele><time>2026-03-30T07:10:14Z</time></trkpt><trkpt lat="45.63082820267849" lon="8.930434263275165"><ele>236.00000000000003</ele><time>2026-03-30T07:10:15Z</time></trkpt><trkpt lat="45.63089927507746" lon="8.930438161048926"><ele>236.0</ele><time>2026-03-30T07:10:18Z</time></trkpt><trkpt lat="45.6309622936707" lon="8.930429238023132"><ele>236.0</ele><time>2026-03-30T07:10:22Z</time></trkpt><trkpt lat="45.6310707053726" lon="8.930417457384777"><ele>236.0</ele><time>2026-03-30T07:10:23.999Z</time></trkpt><trkpt lat="45.63114464402724" lon="8.930401954999063"><ele>236.00000000000003</ele><time>2026-03-30T07:10:24.999Z</time></trkpt><trkpt lat="45.631210067439696" lon="8.930392439455998"><ele>236.0</ele><time>2026-03-30T07:10:25.999Z</time></trkpt><trkpt lat="45.63128400073097" lon="8.930377068991056"><ele>235.83333333333334</ele><time>2026-03-30T07:10:26.999Z</time></trkpt><trkpt lat="45.63140497949559" lon="8.93038899398104"><ele>235.66666666666669</ele><time>2026-03-30T07:10:28.999Z</time></trkpt><trkpt lat="45.63148163334934" lon="8.930381875633907"><ele>235.5</ele><time>2026-03-30T07:10:29.999Z</time></trkpt><trkpt lat="45.631548335667055" lon="8.93037471082536"><ele>235.33333333333331</ele><time>2026-03-30T07:10:30.999Z</time></trkpt><trkpt lat="45.63161315368334" lon="8.930367748405228"><ele>235.16666666666666</ele><time>2026-03-30T07:10:31.999Z</time></trkpt><trkpt lat="45.63169547747665" lon="8.930348335692267"><ele>235.0</ele><time>2026-03-30T07:10:32.999Z</time></trkpt><trkpt lat="45.631764974299635" lon="8.930338377553559"><ele>234.99999999999997</ele><time>2026-03-30T07:10:33.999Z</time></trkpt><trkpt lat="45.63183632642277" lon="8.930343776738622"><ele>235.0</ele><time>2026-03-30T07:10:34.999Z</time></trkpt><trkpt lat="45.63190922408212" lon="8.930335946722709"><ele>235.0</ele><time>2026-03-30T07:10:35.999Z</time></trkpt><trkpt lat="45.63199145641697" lon="8.930327114052538"><ele>235.0</ele><time>2026-03-30T07:10:36.999Z</time></trkpt><trkpt lat="45.63208975722696" lon="8.930287464722083"><ele>234.99999999999997</ele><time>2026-03-30T07:10:37.999Z</time></trkpt><trkpt lat="45.63219590551783" lon="8.9302554915587"><ele>235.0</ele><time>2026-03-30T07:10:38.999Z</time></trkpt><trkpt lat="45.63229177096991" lon="8.930250788259942"><ele>235.2</ele><time>2026-03-30T07:10:39.999Z</time></trkpt><trkpt lat="45.632388032953" lon="8.930243957455309"><ele>235.4</ele><time>2026-03-30T07:10:40.999Z</time></trkpt><trkpt lat="45.63249015447453" lon="8.930229489541363"><ele>235.60000000000002</ele><time>2026-03-30T07:10:41.999Z</time></trkpt><trkpt lat="45.632590307925085" lon="8.930200481184526"><ele>235.8</ele><time>2026-03-30T07:10:42.999Z</time></trkpt><trkpt lat="45.63268570732425" lon="8.930175047187538"><ele>236.0</ele><time>2026-03-30T07:10:43.999Z</time></trkpt><trkpt lat="45.63279478793706" lon="8.930161369379833"><ele>236.0</ele><time>2026-03-30T07:10:44.999Z</time></trkpt><trkpt lat="45.632917800118065" lon="8.93016042801645"><ele>236.00000000000003</ele><time>2026-03-30T07:10:45.999Z</time></trkpt><trkpt lat="45.63301003353694" lon="8.930168985147747"><ele>236.00000000000003</ele><time>2026-03-30T07:10:46.999Z</time></trkpt><trkpt lat="45.63309974505031" lon="8.930152197327219"><ele>236.0</ele><time>2026-03-30T07:10:47.999Z</time></trkpt><trkpt lat="45.63321774910567" lon="8.93010672136816"><ele>236.0</ele><time>2026-03-30T07:10:48.999Z</time></trkpt><trkpt lat="45.633317834503615" lon="8.930084961273051"><ele>236.60000000000002</ele><time>2026-03-30T07:10:49.999Z</time></trkpt><trkpt lat="45.633420841858694" lon="8.930052994639025"><ele>237.20000000000002</ele><time>2026-03-30T07:10:50.999Z</time></trkpt><trkpt lat="45.6335227851282" lon="8.930016379162147"><ele>237.79999999999998</ele><time>2026-03-30T07:10:51.999Z</time></trkpt><trkpt lat="45.633617285618776" lon="8.930018589854548"><ele>238.39999999999998</ele><time>2026-03-30T07:10:52.999Z</time></trkpt><trkpt lat="45.633726499003515" lon="8.929995247400447"><ele>239.0</ele><time>2026-03-30T07:10:53.999Z</time></trkpt><trkpt lat="45.63384873554839" lon="8.92995899045427"><ele>239.39999999999998</ele><time>2026-03-30T07:10:54.999Z</time></trkpt><trkpt lat="45.63395523656219" lon="8.929944748201184"><ele>239.79999999999998</ele><time>2026-03-30T07:10:55.999Z</time></trkpt><trkpt lat="45.63405163904077" lon="8.929938897362295"><ele>240.20000000000002</ele><time>2026-03-30T07:10:56.999Z</time></trkpt><trkpt lat="45.63412038980072" lon="8.929939053879263"><ele>240.60000000000002</ele><time>2026-03-30T07:10:57.999Z</time></trkpt><trkpt lat="45.63422990456731" lon="8.929947232100481"><ele>241.0</ele><time>2026-03-30T07:10:58.999Z</time></trkpt><trkpt lat="45.6343082038093" lon="8.929915097325775"><ele>241.0</ele><time>2026-03-30T07:10:59.999Z</time></trkpt><trkpt lat="45.63438541718132" lon="8.92987245514738"><ele>241.00000000000003</ele><time>2026-03-30T07:11:00.999Z</time></trkpt><trkpt lat="45.63447092154988" lon="8.929815687103662"><ele>241.00000000000003</ele><time>2026-03-30T07:11:01.999Z</time></trkpt><trkpt lat="45.63454472699306" lon="8.929756590083247"><ele>241.0</ele><time>2026-03-30T07:11:02.999Z</time></trkpt><trkpt lat="45.6346201410963" lon="8.929687114516062"><ele>241.0</ele><time>2026-03-30T07:11:03.999Z</time></trkpt><trkpt lat="45.63471415114166" lon="8.929614526159734"><ele>241.5</ele><time>2026-03-30T07:11:04.999Z</time></trkpt><trkpt lat="45.63481161944579" lon="8.929521622241586"><ele>242.0</ele><time>2026-03-30T07:11:05.999Z</time></trkpt><trkpt lat="45.63490368852981" lon="8.929408670504788"><ele>242.5</ele><time>2026-03-30T07:11:06.999Z</time></trkpt><trkpt lat="45.63501075081649" lon="8.929334435719067"><ele>243.0</ele><time>2026-03-30T07:11:07.999Z</time></trkpt><trkpt lat="45.635116147338145" lon="8.929234689803604"><ele>243.0</ele><time>2026-03-30T07:11:08.999Z</time></trkpt><trkpt lat="45.63523567156592" lon="8.929160042460728"><ele>243.0</ele><time>2026-03-30T07:11:09.999Z</time></trkpt><trkpt lat="45.635333683579766" lon="8.929075453628952"><ele>243.0</ele><time>2026-03-30T07:11:10.999Z</time></trkpt><trkpt lat="45.63544937981258" lon="8.929011294143194"><ele>243.0</ele><time>2026-03-30T07:11:11.999Z</time></trkpt><trkpt lat="45.63556077737723" lon="8.928950215959777"><ele>243.2</ele><time>2026-03-30T07:11:12.999Z</time></trkpt><trkpt lat="45.635645501264975" lon="8.928881221203811"><ele>243.4</ele><time>2026-03-30T07:11:13.999Z</time></trkpt><trkpt lat="45.63573867633056" lon="8.928791708539558"><ele>243.59999999999997</ele><time>2026-03-30T07:11:14.999Z</time></trkpt><trkpt lat="45.63581781391759" lon="8.928698085145966"><ele>243.79999999999998</ele><time>2026-03-30T07:11:15.999Z</time></trkpt><trkpt lat="45.635885796614254" lon="8.92859194905675"><ele>244.0</ele><time>2026-03-30T07:11:16.999Z</time></trkpt><trkpt lat="45.63596712353185" lon="8.928478315507892"><ele>244.0</ele><time>2026-03-30T07:11:17.999Z</time></trkpt><trkpt lat="45.6360488697237" lon="8.928353210588076"><ele>243.99999999999997</ele><time>2026-03-30T07:11:18.999Z</time></trkpt><trkpt lat="45.63613190048409" lon="8.928231132305559"><ele>243.99999999999997</ele><time>2026-03-30T07:11:19.999Z</time></trkpt><trkpt lat="45.63621088074068" lon="8.928137038302948"><ele>244.0</ele><time>2026-03-30T07:11:20.999Z</time></trkpt><trkpt lat="45.636292125949815" lon="8.928057625668721"><ele>244.0</ele><time>2026-03-30T07:11:21.999Z</time></trkpt><trkpt lat="45.63637278766493" lon="8.927965369584605"><ele>244.0</ele><time>2026-03-30T07:11:22.999Z</time></trkpt><trkpt lat="45.63644652098967" lon="8.927872361881477"><ele>243.99999999999997</ele><time>2026-03-30T07:11:23.999Z</time></trkpt><trkpt lat="45.63651788327237" lon="8.927819499904414"><ele>243.99999999999997</ele><time>2026-03-30T07:11:24.999Z</time></trkpt><trkpt lat="45.63660627503725" lon="8.927792550837447"><ele>244.0</ele><time>2026-03-30T07:11:25.999Z</time></trkpt><trkpt lat="45.636715589517095" lon="8.927757467222152"><ele>244.0</ele><time>2026-03-30T07:11:26.998Z</time></trkpt><trkpt lat="45.63679056077754" lon="8.927746274213197"><ele>244.0</ele><time>2026-03-30T07:11:27.998Z</time></trkpt><trkpt lat="45.63686154366664" lon="8.927727675771118"><ele>243.99999999999997</ele><time>2026-03-30T07:11:28.998Z</time></trkpt><trkpt lat="45.63695174733369" lon="8.92768685217948"><ele>243.99999999999997</ele><time>2026-03-30T07:11:29.998Z</time></trkpt><trkpt lat="45.63706819104646" lon="8.92760970141635"><ele>244.0</ele><time>2026-03-30T07:11:30.998Z</time></trkpt><trkpt lat="45.63719324640858" lon="8.9275571813483"><ele>244.0</ele><time>2026-03-30T07:11:31.998Z</time></trkpt><trkpt lat="45.63730247630527" lon="8.927513359782578"><ele>244.5</ele><time>2026-03-30T07:11:32.998Z</time></trkpt><trkpt lat="45.63740600132833" lon="8.927474635928085"><ele>245.0</ele><time>2026-03-30T07:11:33.998Z</time></trkpt><trkpt lat="45.63751937211548" lon="8.927424406152596"><ele>245.5</ele><time>2026-03-30T07:11:34.998Z</time></trkpt><trkpt lat="45.6376307193734" lon="8.927396444674686"><ele>246.0</ele><time>2026-03-30T07:11:35.998Z</time></trkpt><trkpt lat="45.63774319236883" lon="8.92736414152377"><ele>245.8</ele><time>2026-03-30T07:11:36.998Z</time></trkpt><trkpt lat="45.637854917492454" lon="8.927345295280611"><ele>245.60000000000002</ele><time>2026-03-30T07:11:37.998Z</time></trkpt><trkpt lat="45.637948489803314" lon="8.927306486290531"><ele>245.4</ele><time>2026-03-30T07:11:38.998Z</time></trkpt><trkpt lat="45.63804325999937" lon="8.927219393924382"><ele>245.2</ele><time>2026-03-30T07:11:39.998Z</time></trkpt><trkpt lat="45.6381536905578" lon="8.927145233309894"><ele>245.0</ele><time>2026-03-30T07:11:40.998Z</time></trkpt><trkpt lat="45.63825597303364" lon="8.927076999986097"><ele>245.00000000000003</ele><time>2026-03-30T07:11:41.998Z</time></trkpt><trkpt lat="45.63837359312292" lon="8.927015108270766"><ele>245.0</ele><time>2026-03-30T07:11:42.998Z</time></trkpt><trkpt lat="45.63843653903805" lon="8.926975716774887"><ele>245.0</ele><time>2026-03-30T07:11:43.998Z</time></trkpt><trkpt lat="45.63850603091" lon="8.926935336494873"><ele>245.0</ele><time>2026-03-30T07:11:45Z</time></trkpt><trkpt lat="45.63859425958385" lon="8.926887145180874"><ele>245.00000000000003</ele><time>2026-03-30T07:11:47Z</time></trkpt><trkpt lat="45.63866706607265" lon="8.926876102729143"><ele>245.0</ele><time>2026-03-30T07:11:49Z</time></trkpt><trkpt lat="45.638735217184596" lon="8.926821237504868"><ele>244.83333333333334</ele><time>2026-03-30T07:11:52Z</time></trkpt><trkpt lat="45.638758194852315" lon="8.926735329214491"><ele>244.66666666666669</ele><time>2026-03-30T07:11:54Z</time></trkpt><trkpt lat="45.63885472913232" lon="8.926675987440994"><ele>244.5</ele><time>2026-03-30T07:11:57Z</time></trkpt><trkpt lat="45.63891825548685" lon="8.926677120796688"><ele>244.33333333333331</ele><time>2026-03-30T07:11:58Z</time></trkpt><trkpt lat="45.63899871008768" lon="8.926646174156598"><ele>244.16666666666666</ele><time>2026-03-30T07:11:59Z</time></trkpt><trkpt lat="45.63907588660773" lon="8.92661099499314"><ele>244.0</ele><time>2026-03-30T07:12:00Z</time></trkpt><trkpt lat="45.63914573407869" lon="8.926577932982283"><ele>243.99999999999997</ele><time>2026-03-30T07:12:01Z</time></trkpt><trkpt lat="45.639206572035626" lon="8.926533828451413"><ele>244.0</ele><time>2026-03-30T07:12:02Z</time></trkpt><trkpt lat="45.63928721700735" lon="8.926460184606592"><ele>244.0</ele><time>2026-03-30T07:12:04Z</time></trkpt><trkpt lat="45.63934733930046" lon="8.926397135329973"><ele>244.0</ele><time>2026-03-30T07:12:06Z</time></trkpt><trkpt lat="45.639417247035425" lon="8.9263475091359"><ele>243.99999999999997</ele><time>2026-03-30T07:12:10Z</time></trkpt><trkpt lat="45.63947361730976" lon="8.926286536675605"><ele>244.0</ele><time>2026-03-30T07:12:16Z</time></trkpt><trkpt lat="45.6395470749521" lon="8.926291889883885"><ele>243.99999999999997</ele><time>2026-03-30T07:12:20Z</time></trkpt><trkpt lat="45.63960949689119" lon="8.926317100229731"><ele>244.0</ele><time>2026-03-30T07:12:43.999Z</time></trkpt><trkpt lat="45.63967027596072" lon="8.926362219582513"><ele>243.99999999999997</ele><time>2026-03-30T07:12:46.999Z</time></trkpt><trkpt lat="45.63974698345407" lon="8.926323236607116"><ele>243.99999999999997</ele><time>2026-03-30T07:12:51.999Z</time></trkpt><trkpt lat="45.63973242503263" lon="8.926235461859285"><ele>244.0</ele><time>2026-03-30T07:12:54.999Z</time></trkpt><trkpt lat="45.63969456544673" lon="8.926155524550975"><ele>243.99999999999997</ele><time>2026-03-30T07:12:57.999Z</time></trkpt><trkpt lat="45.639746235312685" lon="8.926093723125414"><ele>243.99999999999997</ele><time>2026-03-30T07:12:59.999Z</time></trkpt><trkpt lat="45.63986896342133" lon="8.926022757253477"><ele>244.0</ele><time>2026-03-30T07:13:01.999Z</time></trkpt><trkpt lat="45.63992927097848" lon="8.925964706480164"><ele>243.99999999999997</ele><time>2026-03-30T07:13:02.999Z</time></trkpt><trkpt lat="45.640051321598975" lon="8.925889550758042"><ele>243.99999999999997</ele><time>2026-03-30T07:13:04.999Z</time></trkpt><trkpt lat="45.64012357553821" lon="8.925829476276604"><ele>244.0</ele><time>2026-03-30T07:13:05.999Z</time></trkpt><trkpt lat="45.6402031692732" lon="8.925791050709266"><ele>244.0</ele><time>2026-03-30T07:13:06.999Z</time></trkpt><trkpt lat="45.64029402854282" lon="8.925756523398228"><ele>244.2</ele><time>2026-03-30T07:13:07.999Z</time></trkpt><trkpt lat="45.64038089204301" lon="8.925715201259962"><ele>244.39999999999998</ele><time>2026-03-30T07:13:08.999Z</time></trkpt><trkpt lat="45.64049679412235" lon="8.925651332739537"><ele>244.6</ele><time>2026-03-30T07:13:10.999Z</time></trkpt><trkpt lat="45.64057866319705" lon="8.925522105270922"><ele>244.8</ele><time>2026-03-30T07:13:12.999Z</time></trkpt><trkpt lat="45.64061036358151" lon="8.925395716772016"><ele>245.0</ele><time>2026-03-30T07:13:13.999Z</time></trkpt><trkpt lat="45.640634988374124" lon="8.925298265300338"><ele>245.0</ele><time>2026-03-30T07:13:14.999Z</time></trkpt><trkpt lat="45.640641065021235" lon="8.925132060517551"><ele>245.0</ele><time>2026-03-30T07:13:15.999Z</time></trkpt><trkpt lat="45.64065635261978" lon="8.9250142735047"><ele>245.0</ele><time>2026-03-30T07:13:16.999Z</time></trkpt><trkpt lat="45.64065227976324" lon="8.924862250077625"><ele>245.0</ele><time>2026-03-30T07:13:17.999Z</time></trkpt><trkpt lat="45.640638574607586" lon="8.92468739117382"><ele>245.0</ele><time>2026-03-30T07:13:18.999Z</time></trkpt><trkpt lat="45.640647344394715" lon="8.924519636776196"><ele>245.0</ele><time>2026-03-30T07:13:19.999Z</time></trkpt><trkpt lat="45.640650849638675" lon="8.924381004728764"><ele>245.0</ele><time>2026-03-30T07:13:20.999Z</time></trkpt><trkpt lat="45.640659523592895" lon="8.924260902663217"><ele>245.0</ele><time>2026-03-30T07:13:21.999Z</time></trkpt><trkpt lat="45.640647228793846" lon="8.924106950666081"><ele>245.0</ele><time>2026-03-30T07:13:22.999Z</time></trkpt><trkpt lat="45.64063841320124" lon="8.923960500014148"><ele>245.0</ele><time>2026-03-30T07:13:23.999Z</time></trkpt><trkpt lat="45.64063010551036" lon="8.923810704536594"><ele>245.0</ele><time>2026-03-30T07:13:24.999Z</time></trkpt><trkpt lat="45.64061254647338" lon="8.923692652440373"><ele>245.0</ele><time>2026-03-30T07:13:25.999Z</time></trkpt><trkpt lat="45.64059155156003" lon="8.923528148941179"><ele>245.0</ele><time>2026-03-30T07:13:26.999Z</time></trkpt><trkpt lat="45.64059660152334" lon="8.92340900633772"><ele>245.0</ele><time>2026-03-30T07:13:27.999Z</time></trkpt><trkpt lat="45.64059600875118" lon="8.923266933987811"><ele>245.0</ele><time>2026-03-30T07:13:28.999Z</time></trkpt><trkpt lat="45.64060655791422" lon="8.923128063038547"><ele>245.0</ele><time>2026-03-30T07:13:29.999Z</time></trkpt><trkpt lat="45.640593269379316" lon="8.922982610526194"><ele>245.0</ele><time>2026-03-30T07:13:30.999Z</time></trkpt><trkpt lat="45.64059930091675" lon="8.922826060389221"><ele>245.0</ele><time>2026-03-30T07:13:31.998Z</time></trkpt><trkpt lat="45.64057682623589" lon="8.922676073173644"><ele>245.0</ele><time>2026-03-30T07:13:32.998Z</time></trkpt><trkpt lat="45.64059623872113" lon="8.92255035241082"><ele>245.0</ele><time>2026-03-30T07:13:33.998Z</time></trkpt><trkpt lat="45.64057926706865" lon="8.922425642721972"><ele>244.8</ele><time>2026-03-30T07:13:34.998Z</time></trkpt><trkpt lat="45.64057076839314" lon="8.922322328776351"><ele>244.6</ele><time>2026-03-30T07:13:35.998Z</time></trkpt><trkpt lat="45.640573512649965" lon="8.922089346943359"><ele>244.39999999999998</ele><time>2026-03-30T07:13:37.998Z</time></trkpt><trkpt lat="45.640581972731184" lon="8.921999337952707"><ele>244.2</ele><time>2026-03-30T07:13:38.998Z</time></trkpt><trkpt lat="45.64058660324166" lon="8.921902764928202"><ele>244.0</ele><time>2026-03-30T07:13:39.998Z</time></trkpt><trkpt lat="45.64059459556101" lon="8.921739911641403"><ele>244.0</ele><time>2026-03-30T07:13:41.998Z</time></trkpt><trkpt lat="45.640662715281664" lon="8.92164176863693"><ele>243.99999999999997</ele><time>2026-03-30T07:13:43.998Z</time></trkpt><trkpt lat="45.64077822155024" lon="8.921610891759567"><ele>243.99999999999997</ele><time>2026-03-30T07:13:45.998Z</time></trkpt><trkpt lat="45.64089044957409" lon="8.921580496387465"><ele>244.0</ele><time>2026-03-30T07:13:46.998Z</time></trkpt><trkpt lat="45.64100450483502" lon="8.921548510339472"><ele>244.0</ele><time>2026-03-30T07:13:47.998Z</time></trkpt><trkpt lat="45.64112511342458" lon="8.921498482896395"><ele>244.25</ele><time>2026-03-30T07:13:48.998Z</time></trkpt><trkpt lat="45.641253706541946" lon="8.921442046726725"><ele>244.5</ele><time>2026-03-30T07:13:49.998Z</time></trkpt><trkpt lat="45.641384392879495" lon="8.921392246008521"><ele>244.75</ele><time>2026-03-30T07:13:51Z</time></trkpt><trkpt lat="45.6415121224222" lon="8.921340271892918"><ele>245.0</ele><time>2026-03-30T07:13:52Z</time></trkpt><trkpt lat="45.64163362259121" lon="8.921286843752931"><ele>245.0</ele><time>2026-03-30T07:13:53Z</time></trkpt><trkpt lat="45.641754788279925" lon="8.921249094792254"><ele>245.0</ele><time>2026-03-30T07:13:54Z</time></trkpt><trkpt lat="45.641871504620276" lon="8.921203559451902"><ele>245.0</ele><time>2026-03-30T07:13:55Z</time></trkpt><trkpt lat="45.64197714685853" lon="8.921166793966757"><ele>245.0</ele><time>2026-03-30T07:13:56Z</time></trkpt><trkpt lat="45.64207099045756" lon="8.921134719416639"><ele>245.00000000000003</ele><time>2026-03-30T07:13:57Z</time></trkpt><trkpt lat="45.64213662334592" lon="8.921113447598469"><ele>245.0</ele><time>2026-03-30T07:13:58Z</time></trkpt><trkpt lat="45.64222846816981" lon="8.921094610284003"><ele>245.0</ele><time>2026-03-30T07:14:00Z</time></trkpt><trkpt lat="45.6423149793284" lon="8.921085775564327"><ele>245.0</ele><time>2026-03-30T07:14:08Z</time></trkpt><trkpt lat="45.6423865142123" lon="8.921012055175428"><ele>245.00000000000003</ele><time>2026-03-30T07:14:10Z</time></trkpt><trkpt lat="45.64243403220131" lon="8.92095010485083"><ele>245.0</ele><time>2026-03-30T07:14:11Z</time></trkpt><trkpt lat="45.6424980722682" lon="8.92090599124189"><ele>244.83333333333334</ele><time>2026-03-30T07:14:12Z</time></trkpt><trkpt lat="45.64256464888248" lon="8.920867054440501"><ele>244.66666666666669</ele><time>2026-03-30T07:14:13Z</time></trkpt><trkpt lat="45.64263867205143" lon="8.920831693855956"><ele>244.5</ele><time>2026-03-30T07:14:14Z</time></trkpt><trkpt lat="45.64271570235901" lon="8.920799453325385"><ele>244.33333333333331</ele><time>2026-03-30T07:14:15Z</time></trkpt><trkpt lat="45.64280567083896" lon="8.920751555219367"><ele>244.16666666666666</ele><time>2026-03-30T07:14:16Z</time></trkpt><trkpt lat="45.64289444116753" lon="8.920708995430104"><ele>244.0</ele><time>2026-03-30T07:14:17Z</time></trkpt><trkpt lat="45.64299307091154" lon="8.920655188260287"><ele>244.0</ele><time>2026-03-30T07:14:18Z</time></trkpt><trkpt lat="45.64309582786259" lon="8.920596833518452"><ele>243.99999999999997</ele><time>2026-03-30T07:14:19Z</time></trkpt><trkpt lat="45.643197014611566" lon="8.92055752219764"><ele>243.99999999999997</ele><time>2026-03-30T07:14:20Z</time></trkpt><trkpt lat="45.64330187853091" lon="8.92050791118212"><ele>244.0</ele><time>2026-03-30T07:14:21Z</time></trkpt><trkpt lat="45.64340901338869" lon="8.920458128908045"><ele>244.0</ele><time>2026-03-30T07:14:22Z</time></trkpt><trkpt lat="45.643519171343975" lon="8.920402532439894"><ele>244.0</ele><time>2026-03-30T07:14:23Z</time></trkpt><trkpt lat="45.643629542612814" lon="8.920341719876994"><ele>244.0</ele><time>2026-03-30T07:14:24Z</time></trkpt><trkpt lat="45.64373777529501" lon="8.92028435611018"><ele>244.0</ele><time>2026-03-30T07:14:25Z</time></trkpt><trkpt lat="45.64384464839223" lon="8.920229683914318"><ele>244.0</ele><time>2026-03-30T07:14:26Z</time></trkpt><trkpt lat="45.643945949262545" lon="8.920185066110557"><ele>244.2</ele><time>2026-03-30T07:14:27Z</time></trkpt><trkpt lat="45.64405086111748" lon="8.92012959092711"><ele>244.39999999999998</ele><time>2026-03-30T07:14:28Z</time></trkpt><trkpt lat="45.64415201711299" lon="8.920078124833177"><ele>244.6</ele><time>2026-03-30T07:14:29Z</time></trkpt><trkpt lat="45.644247071775645" lon="8.920029589949086"><ele>244.8</ele><time>2026-03-30T07:14:30Z</time></trkpt><trkpt lat="45.6443350329064" lon="8.919983122285535"><ele>245.0</ele><time>2026-03-30T07:14:31Z</time></trkpt><trkpt lat="45.644430400021946" lon="8.919973945576436"><ele>245.2</ele><time>2026-03-30T07:14:32Z</time></trkpt><trkpt lat="45.6445152630505" lon="8.919933412533211"><ele>245.4</ele><time>2026-03-30T07:14:33Z</time></trkpt><trkpt lat="45.64461185391574" lon="8.91988507522066"><ele>245.60000000000002</ele><time>2026-03-30T07:14:34Z</time></trkpt><trkpt lat="45.64470708851491" lon="8.919836390021226"><ele>245.8</ele><time>2026-03-30T07:14:35Z</time></trkpt><trkpt lat="45.64480109830812" lon="8.919787049639412"><ele>246.0</ele><time>2026-03-30T07:14:35.999Z</time></trkpt><trkpt lat="45.64488764291858" lon="8.919739497408713"><ele>246.0</ele><time>2026-03-30T07:14:36.999Z</time></trkpt><trkpt lat="45.64496925380164" lon="8.919696273006258"><ele>246.0</ele><time>2026-03-30T07:14:37.999Z</time></trkpt><trkpt lat="45.64504264630184" lon="8.919670823825719"><ele>246.0</ele><time>2026-03-30T07:14:38.999Z</time></trkpt><trkpt lat="45.64509928421631" lon="8.919630941426911"><ele>246.0</ele><time>2026-03-30T07:14:39.999Z</time></trkpt><trkpt lat="45.64515987853073" lon="8.919655648566748"><ele>246.0</ele><time>2026-03-30T07:14:40.999Z</time></trkpt><trkpt lat="45.64524943705309" lon="8.919756161467541"><ele>246.0</ele><time>2026-03-30T07:14:42.999Z</time></trkpt><trkpt lat="45.64527858500317" lon="8.919841760436055"><ele>245.8</ele><time>2026-03-30T07:14:43.999Z</time></trkpt><trkpt lat="45.64529880246561" lon="8.919954380055705"><ele>245.60000000000002</ele><time>2026-03-30T07:14:44.999Z</time></trkpt><trkpt lat="45.64522259765235" lon="8.920126074686952"><ele>245.4</ele><time>2026-03-30T07:14:45.999Z</time></trkpt><trkpt lat="45.64525293642245" lon="8.920234891184826"><ele>245.2</ele><time>2026-03-30T07:14:46.999Z</time></trkpt><trkpt lat="45.64528519875829" lon="8.920350468321812"><ele>245.0</ele><time>2026-03-30T07:14:47.999Z</time></trkpt><trkpt lat="45.64532207702899" lon="8.920482581675715"><ele>245.4</ele><time>2026-03-30T07:14:48.999Z</time></trkpt><trkpt lat="45.64535877458496" lon="8.920615200498215"><ele>245.8</ele><time>2026-03-30T07:14:49.999Z</time></trkpt><trkpt lat="45.6453930822278" lon="8.920739019833517"><ele>246.2</ele><time>2026-03-30T07:14:50.999Z</time></trkpt><trkpt lat="45.64542364566199" lon="8.920849348452688"><ele>246.6</ele><time>2026-03-30T07:14:51.999Z</time></trkpt><trkpt lat="45.64558653936461" lon="8.920905947149116"><ele>247.0</ele><time>2026-03-30T07:14:52.999Z</time></trkpt><trkpt lat="45.6456275891001" lon="8.92103907507559"><ele>248.25</ele><time>2026-03-30T07:14:53.999Z</time></trkpt><trkpt lat="45.64566757690672" lon="8.921192798972305"><ele>249.5</ele><time>2026-03-30T07:14:54.999Z</time></trkpt><trkpt lat="45.64571108361367" lon="8.921348778681466"><ele>250.75</ele><time>2026-03-30T07:14:55.999Z</time></trkpt><trkpt lat="45.64575218549836" lon="8.921507440268334"><ele>252.0</ele><time>2026-03-30T07:14:56.999Z</time></trkpt><trkpt lat="45.64579447917718" lon="8.921668173722223"><ele>252.75</ele><time>2026-03-30T07:14:57.999Z</time></trkpt><trkpt lat="45.64583139006067" lon="8.921835206873661"><ele>253.5</ele><time>2026-03-30T07:14:58.999Z</time></trkpt><trkpt lat="45.645866669130065" lon="8.921998814690998"><ele>254.25</ele><time>2026-03-30T07:14:59.999Z</time></trkpt><trkpt lat="45.64590719132464" lon="8.922153341266483"><ele>255.0</ele><time>2026-03-30T07:15:00.999Z</time></trkpt><trkpt lat="45.64596335784531" lon="8.922301885275216"><ele>255.0</ele><time>2026-03-30T07:15:01.999Z</time></trkpt><trkpt lat="45.64602297560602" lon="8.922453024496823"><ele>255.0</ele><time>2026-03-30T07:15:02.999Z</time></trkpt><trkpt lat="45.6460798040527" lon="8.922607462326063"><ele>255.0</ele><time>2026-03-30T07:15:03.999Z</time></trkpt><trkpt lat="45.64613478246526" lon="8.922759057338356"><ele>255.0</ele><time>2026-03-30T07:15:04.999Z</time></trkpt><trkpt lat="45.64618412382925" lon="8.922910000245569"><ele>254.8</ele><time>2026-03-30T07:15:05.999Z</time></trkpt><trkpt lat="45.64622730933737" lon="8.92306317402579"><ele>254.6</ele><time>2026-03-30T07:15:06.999Z</time></trkpt><trkpt lat="45.646280365535915" lon="8.92320289167987"><ele>254.39999999999998</ele><time>2026-03-30T07:15:07.999Z</time></trkpt><trkpt lat="45.64633408783625" lon="8.92333581743923"><ele>254.2</ele><time>2026-03-30T07:15:08.999Z</time></trkpt><trkpt lat="45.64637430486542" lon="8.923446190790033"><ele>254.0</ele><time>2026-03-30T07:15:09.999Z</time></trkpt><trkpt lat="45.646413205989155" lon="8.92352474920858"><ele>253.50000000000003</ele><time>2026-03-30T07:15:10.999Z</time></trkpt><trkpt lat="45.64646642172676" lon="8.923586950563045"><ele>253.0</ele><time>2026-03-30T07:15:11.999Z</time></trkpt><trkpt lat="45.64652806510515" lon="8.923629594936264"><ele>252.5</ele><time>2026-03-30T07:15:12.999Z</time></trkpt><trkpt lat="45.6466009656" lon="8.923654447495135"><ele>252.0</ele><time>2026-03-30T07:15:13.999Z</time></trkpt><trkpt lat="45.64667617675821" lon="8.923652380921045"><ele>251.50000000000003</ele><time>2026-03-30T07:15:14.999Z</time></trkpt><trkpt lat="45.64676096539012" lon="8.923650631140335"><ele>251.0</ele><time>2026-03-30T07:15:15.999Z</time></trkpt><trkpt lat="45.646848813287676" lon="8.92362575286029"><ele>251.0</ele><time>2026-03-30T07:15:16.999Z</time></trkpt><trkpt lat="45.646952274559624" lon="8.923604189288483"><ele>251.0</ele><time>2026-03-30T07:15:17.999Z</time></trkpt><trkpt lat="45.647074911581186" lon="8.923591619792171"><ele>251.0</ele><time>2026-03-30T07:15:18.999Z</time></trkpt><trkpt lat="45.64719478309355" lon="8.923582896384778"><ele>251.0</ele><time>2026-03-30T07:15:19.999Z</time></trkpt><trkpt lat="45.64732307266676" lon="8.923567061252255"><ele>251.0</ele><time>2026-03-30T07:15:20.999Z</time></trkpt><trkpt lat="45.647439388290586" lon="8.923550801007991"><ele>251.0</ele><time>2026-03-30T07:15:21.999Z</time></trkpt><trkpt lat="45.647554576605415" lon="8.92355284994513"><ele>251.0</ele><time>2026-03-30T07:15:22.999Z</time></trkpt><trkpt lat="45.64766250269843" lon="8.923581680225109"><ele>251.0</ele><time>2026-03-30T07:15:23.999Z</time></trkpt><trkpt lat="45.647776438805465" lon="8.92360273174733"><ele>251.0</ele><time>2026-03-30T07:15:24.999Z</time></trkpt><trkpt lat="45.647889475966934" lon="8.923607458750645"><ele>251.00000000000003</ele><time>2026-03-30T07:15:25.999Z</time></trkpt><trkpt lat="45.64800624944903" lon="8.923611923333548"><ele>251.00000000000003</ele><time>2026-03-30T07:15:26.999Z</time></trkpt><trkpt lat="45.648109549680086" lon="8.923611584275104"><ele>251.0</ele><time>2026-03-30T07:15:27.999Z</time></trkpt><trkpt lat="45.64821351800383" lon="8.923611080097698"><ele>251.0</ele><time>2026-03-30T07:15:28.999Z</time></trkpt><trkpt lat="45.64831882415405" lon="8.923588557499654"><ele>251.0</ele><time>2026-03-30T07:15:29.999Z</time></trkpt><trkpt lat="45.64842436423979" lon="8.923552804825235"><ele>251.00000000000003</ele><time>2026-03-30T07:15:30.999Z</time></trkpt><trkpt lat="45.64854786605372" lon="8.92353766160085"><ele>251.00000000000003</ele><time>2026-03-30T07:15:31.999Z</time></trkpt><trkpt lat="45.648652385471834" lon="8.923526299686282"><ele>251.0</ele><time>2026-03-30T07:15:32.999Z</time></trkpt><trkpt lat="45.648754530529445" lon="8.923460358547203"><ele>251.0</ele><time>2026-03-30T07:15:33.999Z</time></trkpt><trkpt lat="45.64885211794932" lon="8.923432342377055"><ele>251.0</ele><time>2026-03-30T07:15:34.999Z</time></trkpt><trkpt lat="45.648955055469266" lon="8.923415757854526"><ele>251.00000000000003</ele><time>2026-03-30T07:15:35.999Z</time></trkpt><trkpt lat="45.649056702305735" lon="8.923416113151355"><ele>251.00000000000003</ele><time>2026-03-30T07:15:36.999Z</time></trkpt><trkpt lat="45.64916529552902" lon="8.923432056042806"><ele>251.0</ele><time>2026-03-30T07:15:37.999Z</time></trkpt><trkpt lat="45.649258493311656" lon="8.923421207135567"><ele>251.0</ele><time>2026-03-30T07:15:38.999Z</time></trkpt><trkpt lat="45.64935323093585" lon="8.923391380650646"><ele>251.4</ele><time>2026-03-30T07:15:39.999Z</time></trkpt><trkpt lat="45.64945734893923" lon="8.923339853193262"><ele>251.8</ele><time>2026-03-30T07:15:41.998Z</time></trkpt><trkpt lat="45.64952527297298" lon="8.9233269505984"><ele>252.20000000000002</ele><time>2026-03-30T07:15:43.998Z</time></trkpt><trkpt lat="45.649631287228985" lon="8.923203923962937"><ele>252.60000000000002</ele><time>2026-03-30T07:15:45.998Z</time></trkpt><trkpt lat="45.64971561627178" lon="8.923123560388326"><ele>253.0</ele><time>2026-03-30T07:15:46.998Z</time></trkpt><trkpt lat="45.6498341725194" lon="8.923006015872962"><ele>251.8</ele><time>2026-03-30T07:15:47.998Z</time></trkpt><trkpt lat="45.649935711272924" lon="8.922926854684917"><ele>250.60000000000002</ele><time>2026-03-30T07:15:48.998Z</time></trkpt><trkpt lat="45.6499964695807" lon="8.922860578052711"><ele>249.39999999999998</ele><time>2026-03-30T07:15:49.998Z</time></trkpt><trkpt lat="45.65008819502952" lon="8.92286107519832"><ele>248.2</ele><time>2026-03-30T07:15:51.998Z</time></trkpt><trkpt lat="45.65018408425219" lon="8.922813223021029"><ele>247.0</ele><time>2026-03-30T07:15:53.998Z</time></trkpt><trkpt lat="45.65024987723016" lon="8.922756956448643"><ele>247.8</ele><time>2026-03-30T07:15:54.998Z</time></trkpt><trkpt lat="45.650331695501556" lon="8.92267394612598"><ele>248.6</ele><time>2026-03-30T07:15:55.998Z</time></trkpt><trkpt lat="45.6504061068535" lon="8.922620560841212"><ele>249.40000000000003</ele><time>2026-03-30T07:15:57Z</time></trkpt><trkpt lat="45.65050436186327" lon="8.922571660024754"><ele>250.20000000000002</ele><time>2026-03-30T07:15:59Z</time></trkpt><trkpt lat="45.65055962575742" lon="8.922511712748042"><ele>251.0</ele><time>2026-03-30T07:16:01Z</time></trkpt><trkpt lat="45.65068532306054" lon="8.922470947370595"><ele>251.0</ele><time>2026-03-30T07:16:03Z</time></trkpt><trkpt lat="45.650771484972324" lon="8.922439568336967"><ele>251.00000000000003</ele><time>2026-03-30T07:16:04Z</time></trkpt><trkpt lat="45.650870973841315" lon="8.922407570546312"><ele>251.00000000000003</ele><time>2026-03-30T07:16:05Z</time></trkpt><trkpt lat="45.65095683029028" lon="8.922369018299596"><ele>251.0</ele><time>2026-03-30T07:16:06Z</time></trkpt><trkpt lat="45.6510372052926" lon="8.9223243061334"><ele>251.0</ele><time>2026-03-30T07:16:07Z</time></trkpt><trkpt lat="45.6511369863645" lon="8.922300864237844"><ele>251.0</ele><time>2026-03-30T07:16:08Z</time></trkpt><trkpt lat="45.651225093313414" lon="8.92228434467204"><ele>251.00000000000003</ele><time>2026-03-30T07:16:09Z</time></trkpt><trkpt lat="45.6513078538431" lon="8.922264237589102"><ele>251.00000000000003</ele><time>2026-03-30T07:16:10Z</time></trkpt><trkpt lat="45.651412304995034" lon="8.922194827753481"><ele>251.0</ele><time>2026-03-30T07:16:11Z</time></trkpt><trkpt lat="45.65151114837948" lon="8.922137487160425"><ele>251.0</ele><time>2026-03-30T07:16:12Z</time></trkpt><trkpt lat="45.65162317291876" lon="8.922085611645489"><ele>251.0</ele><time>2026-03-30T07:16:13Z</time></trkpt><trkpt lat="45.65172904479538" lon="8.922049783192703"><ele>251.00000000000003</ele><time>2026-03-30T07:16:14Z</time></trkpt><trkpt lat="45.65183566410879" lon="8.922002014869744"><ele>251.00000000000003</ele><time>2026-03-30T07:16:15Z</time></trkpt><trkpt lat="45.651918686348175" lon="8.921971043406053"><ele>251.0</ele><time>2026-03-30T07:16:16Z</time></trkpt><trkpt lat="45.65200106743265" lon="8.921969507857648"><ele>251.0</ele><time>2026-03-30T07:16:17Z</time></trkpt><trkpt lat="45.65204706355662" lon="8.921905123481206"><ele>251.16666666666669</ele><time>2026-03-30T07:16:19Z</time></trkpt><trkpt lat="45.65210183666007" lon="8.921858427447376"><ele>251.33333333333334</ele><time>2026-03-30T07:16:21Z</time></trkpt><trkpt lat="45.65220188801925" lon="8.921787294037973"><ele>251.5</ele><time>2026-03-30T07:16:23Z</time></trkpt><trkpt lat="45.65225983486763" lon="8.921726128585883"><ele>251.66666666666669</ele><time>2026-03-30T07:16:24Z</time></trkpt><trkpt lat="45.652308878538506" lon="8.921631675960853"><ele>251.83333333333334</ele><time>2026-03-30T07:16:25Z</time></trkpt><trkpt lat="45.65236722255202" lon="8.92156460498206"><ele>252.0</ele><time>2026-03-30T07:16:26Z</time></trkpt><trkpt lat="45.65242787319846" lon="8.921436794991662"><ele>252.25</ele><time>2026-03-30T07:16:27Z</time></trkpt><trkpt lat="45.65248757369606" lon="8.921292686780525"><ele>252.5</ele><time>2026-03-30T07:16:28Z</time></trkpt><trkpt lat="45.65254090190407" lon="8.92114143632208"><ele>252.75</ele><time>2026-03-30T07:16:29Z</time></trkpt><trkpt lat="45.652606876116884" lon="8.921007191022744"><ele>253.0</ele><time>2026-03-30T07:16:30Z</time></trkpt><trkpt lat="45.65267160049969" lon="8.920880548639305"><ele>253.25</ele><time>2026-03-30T07:16:31Z</time></trkpt><trkpt lat="45.65272851786001" lon="8.920763794347502"><ele>253.5</ele><time>2026-03-30T07:16:32Z</time></trkpt><trkpt lat="45.652785092289065" lon="8.920670819595752"><ele>253.75</ele><time>2026-03-30T07:16:33Z</time></trkpt><trkpt lat="45.65281288046036" lon="8.920587173292576"><ele>254.0</ele><time>2026-03-30T07:16:34Z</time></trkpt><trkpt lat="45.653034297034914" lon="8.920598696626682"><ele>253.6</ele><time>2026-03-30T07:16:39Z</time></trkpt><trkpt lat="45.65312401591477" lon="8.920583460854843"><ele>253.2</ele><time>2026-03-30T07:16:40Z</time></trkpt><trkpt lat="45.65321559132218" lon="8.920543344385155"><ele>252.79999999999998</ele><time>2026-03-30T07:16:41Z</time></trkpt><trkpt lat="45.6533050255932" lon="8.92048412081113"><ele>252.39999999999998</ele><time>2026-03-30T07:16:42Z</time></trkpt><trkpt lat="45.65340138725356" lon="8.920419988129217"><ele>252.0</ele><time>2026-03-30T07:16:42.999Z</time></trkpt><trkpt lat="45.653481463375" lon="8.920375199201878"><ele>252.0</ele><time>2026-03-30T07:16:43.999Z</time></trkpt><trkpt lat="45.65355544563181" lon="8.920334634633303"><ele>252.0</ele><time>2026-03-30T07:16:44.999Z</time></trkpt><trkpt lat="45.65362068517348" lon="8.920309909775462"><ele>252.0</ele><time>2026-03-30T07:16:45.999Z</time></trkpt><trkpt lat="45.65371500371547" lon="8.920257031058844"><ele>252.0</ele><time>2026-03-30T07:16:47.999Z</time></trkpt><trkpt lat="45.65380124065484" lon="8.920209746810036"><ele>252.0</ele><time>2026-03-30T07:16:49.999Z</time></trkpt><trkpt lat="45.653864249945585" lon="8.920171202253009"><ele>252.0</ele><time>2026-03-30T07:16:51.999Z</time></trkpt><trkpt lat="45.65379210275696" lon="8.919906962183621"><ele>252.8</ele><time>2026-03-30T07:17:29.999Z</time></trkpt><trkpt lat="45.65386131201304" lon="8.919804137366691"><ele>253.6</ele><time>2026-03-30T07:20:07.998Z</time></trkpt><trkpt lat="45.653981243493895" lon="8.919766795780237"><ele>254.40000000000003</ele><time>2026-03-30T07:20:10Z</time></trkpt><trkpt lat="45.65404600733837" lon="8.919731224218221"><ele>255.20000000000002</ele><time>2026-03-30T07:20:11Z</time></trkpt><trkpt lat="45.65410932433668" lon="8.919696890265605"><ele>256.0</ele><time>2026-03-30T07:20:12Z</time></trkpt><trkpt lat="45.654231944486476" lon="8.91990135292662"><ele>256.0</ele><time>2026-03-30T07:20:13Z</time></trkpt><trkpt lat="45.6543250765138" lon="8.91984798670148"><ele>256.0</ele><time>2026-03-30T07:20:15Z</time></trkpt><trkpt lat="45.654430235873086" lon="8.919787728606481"><ele>256.0</ele><time>2026-03-30T07:20:17Z</time></trkpt><trkpt lat="45.65438318115536" lon="8.919449895665288"><ele>256.0</ele><time>2026-03-30T07:20:18Z</time></trkpt><trkpt lat="45.654379105530616" lon="8.919351057596813"><ele>256.0</ele><time>2026-03-30T07:20:19Z</time></trkpt><trkpt lat="45.654471649810134" lon="8.919180353815007"><ele>256.0</ele><time>2026-03-30T07:20:21Z</time></trkpt><trkpt lat="45.654545663498624" lon="8.919067910023083"><ele>256.0</ele><time>2026-03-30T07:20:23Z</time></trkpt><trkpt lat="45.654581353558555" lon="8.918986414259114"><ele>256.0</ele><time>2026-03-30T07:20:24Z</time></trkpt><trkpt lat="45.6546111982178" lon="8.918900464780393"><ele>256.3333333333333</ele><time>2026-03-30T07:20:25Z</time></trkpt><trkpt lat="45.65465076911675" lon="8.918824236684785"><ele>256.66666666666663</ele><time>2026-03-30T07:20:26Z</time></trkpt><trkpt lat="45.65471421616508" lon="8.918746987276464"><ele>257.0</ele><time>2026-03-30T07:20:27Z</time></trkpt><trkpt lat="45.654778412699386" lon="8.918683296821627"><ele>257.3333333333333</ele><time>2026-03-30T07:20:28Z</time></trkpt><trkpt lat="45.65485383186634" lon="8.918626450343748"><ele>257.6666666666667</ele><time>2026-03-30T07:20:29Z</time></trkpt><trkpt lat="45.65492469923219" lon="8.918574171736733"><ele>258.0</ele><time>2026-03-30T07:20:30Z</time></trkpt><trkpt lat="45.65499266666249" lon="8.91852136049362"><ele>258.0</ele><time>2026-03-30T07:20:31Z</time></trkpt><trkpt lat="45.655056123018014" lon="8.918459335616017"><ele>258.0</ele><time>2026-03-30T07:20:32Z</time></trkpt><trkpt lat="45.65514416819641" lon="8.918405971313671"><ele>258.0</ele><time>2026-03-30T07:20:33Z</time></trkpt><trkpt lat="45.65523174102049" lon="8.918330717788399"><ele>258.0</ele><time>2026-03-30T07:20:34Z</time></trkpt><trkpt lat="45.65532054142316" lon="8.918253614395162"><ele>258.0</ele><time>2026-03-30T07:20:35Z</time></trkpt><trkpt lat="45.655417154508626" lon="8.918178232018764"><ele>258.6</ele><time>2026-03-30T07:20:36Z</time></trkpt><trkpt lat="45.65551968317088" lon="8.918089278893182"><ele>259.20000000000005</ele><time>2026-03-30T07:20:37Z</time></trkpt><trkpt lat="45.655604810261075" lon="8.917987018389688"><ele>259.8</ele><time>2026-03-30T07:20:38Z</time></trkpt><trkpt lat="45.65568739323468" lon="8.917877963618556"><ele>260.40000000000003</ele><time>2026-03-30T07:20:39Z</time></trkpt><trkpt lat="45.6557371632051" lon="8.91779448904525"><ele>261.0</ele><time>2026-03-30T07:20:40Z</time></trkpt><trkpt lat="45.655810268150375" lon="8.91766094241349"><ele>261.0</ele><time>2026-03-30T07:20:41Z</time></trkpt><trkpt lat="45.65590338529574" lon="8.917544306629267"><ele>261.0</ele><time>2026-03-30T07:20:42Z</time></trkpt><trkpt lat="45.655972619716174" lon="8.917402612520402"><ele>261.0</ele><time>2026-03-30T07:20:43Z</time></trkpt><trkpt lat="45.656040064060484" lon="8.917290802907111"><ele>261.0</ele><time>2026-03-30T07:20:44Z</time></trkpt><trkpt lat="45.65611370276347" lon="8.917196579793341"><ele>261.0</ele><time>2026-03-30T07:20:45Z</time></trkpt><trkpt lat="45.65617883202224" lon="8.917091844563146"><ele>261.0</ele><time>2026-03-30T07:20:46Z</time></trkpt><trkpt lat="45.65624813166238" lon="8.91700389343657"><ele>261.0</ele><time>2026-03-30T07:20:47Z</time></trkpt><trkpt lat="45.656320761030976" lon="8.916907611538614"><ele>261.0</ele><time>2026-03-30T07:20:48Z</time></trkpt><trkpt lat="45.65641380890697" lon="8.91681584742386"><ele>261.0</ele><time>2026-03-30T07:20:49Z</time></trkpt><trkpt lat="45.65650136908992" lon="8.916724236936016"><ele>261.0</ele><time>2026-03-30T07:20:50Z</time></trkpt><trkpt lat="45.656587060524025" lon="8.916640088301891"><ele>261.0</ele><time>2026-03-30T07:20:51Z</time></trkpt><trkpt lat="45.6566583139862" lon="8.916557108006225"><ele>261.0</ele><time>2026-03-30T07:20:52Z</time></trkpt><trkpt lat="45.656732215398236" lon="8.916478781773504"><ele>261.0</ele><time>2026-03-30T07:20:53Z</time></trkpt><trkpt lat="45.65682388679878" lon="8.91641276870316"><ele>261.0</ele><time>2026-03-30T07:20:54Z</time></trkpt><trkpt lat="45.65691740238997" lon="8.916342175494583"><ele>261.0</ele><time>2026-03-30T07:20:54.999Z</time></trkpt><trkpt lat="45.65702762130284" lon="8.916274118416071"><ele>261.0</ele><time>2026-03-30T07:20:55.999Z</time></trkpt><trkpt lat="45.65713900818956" lon="8.916206014317886"><ele>261.0</ele><time>2026-03-30T07:20:56.999Z</time></trkpt><trkpt lat="45.657231516877545" lon="8.91613883256752"><ele>261.0</ele><time>2026-03-30T07:20:57.999Z</time></trkpt><trkpt lat="45.657313748009656" lon="8.91608697875369"><ele>261.0</ele><time>2026-03-30T07:20:58.999Z</time></trkpt><trkpt lat="45.65738769916583" lon="8.916027390316012"><ele>261.0</ele><time>2026-03-30T07:20:59.999Z</time></trkpt><trkpt lat="45.6574309498378" lon="8.915960623225775"><ele>261.40000000000003</ele><time>2026-03-30T07:21:00.999Z</time></trkpt><trkpt lat="45.657511877818074" lon="8.915807907060119"><ele>261.8</ele><time>2026-03-30T07:21:02.999Z</time></trkpt><trkpt lat="45.65755191310787" lon="8.915734115221385"><ele>262.20000000000005</ele><time>2026-03-30T07:21:03.999Z</time></trkpt><trkpt lat="45.65762972944465" lon="8.915698242749027"><ele>262.6</ele><time>2026-03-30T07:21:04.999Z</time></trkpt><trkpt lat="45.65770710109339" lon="8.915671119437793"><ele>263.0</ele><time>2026-03-30T07:21:05.999Z</time></trkpt><trkpt lat="45.65780321044538" lon="8.915594693983566"><ele>263.0</ele><time>2026-03-30T07:21:07.999Z</time></trkpt><trkpt lat="45.657791677542285" lon="8.915482990674006"><ele>263.0</ele><time>2026-03-30T07:21:09.999Z</time></trkpt><trkpt lat="45.65773324188865" lon="8.91542742594917"><ele>263.0</ele><time>2026-03-30T07:21:10.999Z</time></trkpt><trkpt lat="45.65764801962324" lon="8.915404974581694"><ele>263.0</ele><time>2026-03-30T07:21:11.999Z</time></trkpt><trkpt lat="45.65756613828801" lon="8.91538183072702"><ele>263.0</ele><time>2026-03-30T07:21:12.999Z</time></trkpt><trkpt lat="45.65749620091787" lon="8.915332042585582"><ele>263.0</ele><time>2026-03-30T07:21:13.999Z</time></trkpt><trkpt lat="45.65741958644192" lon="8.915255258650395"><ele>263.2</ele><time>2026-03-30T07:21:14.999Z</time></trkpt><trkpt lat="45.65734936251356" lon="8.915171670312338"><ele>263.4</ele><time>2026-03-30T07:21:15.999Z</time></trkpt><trkpt lat="45.657286755709755" lon="8.915084668712474"><ele>263.59999999999997</ele><time>2026-03-30T07:21:16.999Z</time></trkpt><trkpt lat="45.65721383243039" lon="8.914980287752662"><ele>263.8</ele><time>2026-03-30T07:21:17.999Z</time></trkpt><trkpt lat="45.65716590187583" lon="8.914868153336068"><ele>264.0</ele><time>2026-03-30T07:21:18.999Z</time></trkpt><trkpt lat="45.65711345457746" lon="8.914746489330364"><ele>263.5</ele><time>2026-03-30T07:21:19.999Z</time></trkpt><trkpt lat="45.65706049168558" lon="8.914618843935253"><ele>263.0</ele><time>2026-03-30T07:21:20.999Z</time></trkpt><trkpt lat="45.65700153189646" lon="8.914459303219228"><ele>262.5</ele><time>2026-03-30T07:21:21.999Z</time></trkpt><trkpt lat="45.65693932557119" lon="8.914334240806095"><ele>262.0</ele><time>2026-03-30T07:21:22.999Z</time></trkpt><trkpt lat="45.65688062993002" lon="8.914192021662965"><ele>263.25</ele><time>2026-03-30T07:21:23.999Z</time></trkpt><trkpt lat="45.65681968072392" lon="8.914052718592464"><ele>264.5</ele><time>2026-03-30T07:21:24.999Z</time></trkpt><trkpt lat="45.656750871816115" lon="8.91390592694806"><ele>265.75</ele><time>2026-03-30T07:21:25.999Z</time></trkpt><trkpt lat="45.6566834282029" lon="8.913761935703894"><ele>267.0</ele><time>2026-03-30T07:21:26.999Z</time></trkpt><trkpt lat="45.65661868074255" lon="8.913622965531898"><ele>267.0</ele><time>2026-03-30T07:21:27.999Z</time></trkpt><trkpt lat="45.65655564862193" lon="8.91348411267532"><ele>267.0</ele><time>2026-03-30T07:21:28.999Z</time></trkpt><trkpt lat="45.65649246786716" lon="8.913335909310845"><ele>267.0</ele><time>2026-03-30T07:21:29.999Z</time></trkpt><trkpt lat="45.65642062972464" lon="8.91318676458327"><ele>267.0</ele><time>2026-03-30T07:21:30.999Z</time></trkpt><trkpt lat="45.65636188198582" lon="8.913048483835146"><ele>267.0</ele><time>2026-03-30T07:21:31.999Z</time></trkpt><trkpt lat="45.65630824150518" lon="8.912890651345645"><ele>267.0</ele><time>2026-03-30T07:21:32.999Z</time></trkpt><trkpt lat="45.65624975780869" lon="8.912739350205072"><ele>267.0</ele><time>2026-03-30T07:21:33.999Z</time></trkpt><trkpt lat="45.65620912548031" lon="8.912592689891753"><ele>267.0</ele><time>2026-03-30T07:21:34.999Z</time></trkpt><trkpt lat="45.65614907125741" lon="8.912437531374083"><ele>266.75</ele><time>2026-03-30T07:21:35.999Z</time></trkpt><trkpt lat="45.656103683777616" lon="8.912290645895535"><ele>266.5</ele><time>2026-03-30T07:21:36.999Z</time></trkpt><trkpt lat="45.65604500415383" lon="8.912132476287942"><ele>266.25</ele><time>2026-03-30T07:21:37.999Z</time></trkpt><trkpt lat="45.65600468782128" lon="8.911969564732514"><ele>266.0</ele><time>2026-03-30T07:21:38.999Z</time></trkpt><trkpt lat="45.655976614269726" lon="8.911822779697502"><ele>265.6</ele><time>2026-03-30T07:21:39.999Z</time></trkpt><trkpt lat="45.655940344026725" lon="8.911686849714725"><ele>265.20000000000005</ele><time>2026-03-30T07:21:40.999Z</time></trkpt><trkpt lat="45.655905600797624" lon="8.911573302596802"><ele>264.79999999999995</ele><time>2026-03-30T07:21:41.999Z</time></trkpt><trkpt lat="45.65586413247533" lon="8.911431137817901"><ele>264.4</ele><time>2026-03-30T07:21:42.999Z</time></trkpt><trkpt lat="45.65582409117386" lon="8.911338234899496"><ele>264.0</ele><time>2026-03-30T07:21:43.999Z</time></trkpt><trkpt lat="45.65578934439049" lon="8.91123622350633"><ele>264.0</ele><time>2026-03-30T07:21:44.999Z</time></trkpt><trkpt lat="45.655730050394794" lon="8.911076200228106"><ele>264.0</ele><time>2026-03-30T07:21:45.999Z</time></trkpt><trkpt lat="45.655696602292146" lon="8.910962425674217"><ele>264.0</ele><time>2026-03-30T07:21:46.999Z</time></trkpt><trkpt lat="45.65566491748247" lon="8.91088434095221"><ele>264.0</ele><time>2026-03-30T07:21:47.999Z</time></trkpt><trkpt lat="45.655625675226254" lon="8.910710714085189"><ele>264.0</ele><time>2026-03-30T07:21:49.999Z</time></trkpt><trkpt lat="45.65561567754075" lon="8.91056015018921"><ele>263.25</ele><time>2026-03-30T07:21:50.999Z</time></trkpt><trkpt lat="45.65559087219451" lon="8.910403645787046"><ele>262.5</ele><time>2026-03-30T07:21:51.999Z</time></trkpt><trkpt lat="45.655555248558606" lon="8.910248335087687"><ele>261.75</ele><time>2026-03-30T07:21:52.999Z</time></trkpt><trkpt lat="45.65551508519003" lon="8.910083799583585"><ele>261.0</ele><time>2026-03-30T07:21:53.999Z</time></trkpt><trkpt lat="45.65546862307556" lon="8.909912345967546"><ele>261.0</ele><time>2026-03-30T07:21:54.999Z</time></trkpt><trkpt lat="45.65542257305105" lon="8.909730330222015"><ele>261.0</ele><time>2026-03-30T07:21:55.999Z</time></trkpt><trkpt lat="45.65537760056782" lon="8.909556143721842"><ele>261.0</ele><time>2026-03-30T07:21:56.999Z</time></trkpt><trkpt lat="45.65534227573388" lon="8.90941999580736"><ele>261.0</ele><time>2026-03-30T07:21:57.999Z</time></trkpt><trkpt lat="45.65529421033185" lon="8.909276153695265"><ele>260.0</ele><time>2026-03-30T07:21:58.999Z</time></trkpt><trkpt lat="45.65528894770034" lon="8.909095076334868"><ele>259.0</ele><time>2026-03-30T07:21:59.999Z</time></trkpt><trkpt lat="45.65529621868721" lon="8.908942544426536"><ele>258.0</ele><time>2026-03-30T07:22:00.999Z</time></trkpt><trkpt lat="45.65529867943588" lon="8.908738015393455"><ele>257.0</ele><time>2026-03-30T07:22:01.999Z</time></trkpt><trkpt lat="45.65529927432807" lon="8.908553663683623"><ele>256.0</ele><time>2026-03-30T07:22:02.998Z</time></trkpt><trkpt lat="45.655285180118106" lon="8.908347047006474"><ele>255.0</ele><time>2026-03-30T07:22:03.998Z</time></trkpt><trkpt lat="45.65529049490551" lon="8.908148505664668"><ele>254.0</ele><time>2026-03-30T07:22:04.998Z</time></trkpt><trkpt lat="45.65529728523398" lon="8.907949794276044"><ele>253.0</ele><time>2026-03-30T07:22:05.998Z</time></trkpt><trkpt lat="45.65530326656963" lon="8.90774698437105"><ele>253.25</ele><time>2026-03-30T07:22:06.998Z</time></trkpt><trkpt lat="45.65531858037723" lon="8.907541679375077"><ele>253.5</ele><time>2026-03-30T07:22:07.998Z</time></trkpt><trkpt lat="45.65531704520345" lon="8.90734566869993"><ele>253.75</ele><time>2026-03-30T07:22:08.998Z</time></trkpt><trkpt lat="45.65532154745284" lon="8.907135299594742"><ele>254.0</ele><time>2026-03-30T07:22:09.998Z</time></trkpt><trkpt lat="45.65532301207286" lon="8.906926255571737"><ele>253.5</ele><time>2026-03-30T07:22:10.998Z</time></trkpt><trkpt lat="45.65532473112705" lon="8.906720758082711"><ele>253.0</ele><time>2026-03-30T07:22:11.998Z</time></trkpt><trkpt lat="45.65532641623717" lon="8.906518793273875"><ele>252.5</ele><time>2026-03-30T07:22:12.998Z</time></trkpt><trkpt lat="45.655329668951374" lon="8.906310660584744"><ele>252.0</ele><time>2026-03-30T07:22:13.998Z</time></trkpt><trkpt lat="45.65532852859493" lon="8.906116177832752"><ele>252.0</ele><time>2026-03-30T07:22:15Z</time></trkpt><trkpt lat="45.65532593368891" lon="8.905920657718925"><ele>252.0</ele><time>2026-03-30T07:22:16Z</time></trkpt><trkpt lat="45.6553168489281" lon="8.905727375808947"><ele>252.0</ele><time>2026-03-30T07:22:17Z</time></trkpt><trkpt lat="45.6553044961151" lon="8.905535290636"><ele>252.0</ele><time>2026-03-30T07:22:18Z</time></trkpt><trkpt lat="45.655284815512815" lon="8.905346948627106"><ele>252.0</ele><time>2026-03-30T07:22:19Z</time></trkpt><trkpt lat="45.65526146845737" lon="8.905164184119993"><ele>252.0</ele><time>2026-03-30T07:22:20Z</time></trkpt><trkpt lat="45.65523564080371" lon="8.904989519172178"><ele>252.0</ele><time>2026-03-30T07:22:21Z</time></trkpt><trkpt lat="45.65519853345373" lon="8.904823467704388"><ele>252.0</ele><time>2026-03-30T07:22:22Z</time></trkpt><trkpt lat="45.65514967411499" lon="8.904654162353978"><ele>252.0</ele><time>2026-03-30T07:22:23Z</time></trkpt><trkpt lat="45.655101096680866" lon="8.904482807517466"><ele>252.0</ele><time>2026-03-30T07:22:24Z</time></trkpt><trkpt lat="45.65504873695547" lon="8.904313564425653"><ele>252.0</ele><time>2026-03-30T07:22:25Z</time></trkpt><trkpt lat="45.655000316399075" lon="8.90414286509785"><ele>252.0</ele><time>2026-03-30T07:22:26Z</time></trkpt><trkpt lat="45.65495289611602" lon="8.903974668090259"><ele>252.2</ele><time>2026-03-30T07:22:27Z</time></trkpt><trkpt lat="45.65491085819701" lon="8.90381856426158"><ele>252.39999999999998</ele><time>2026-03-30T07:22:28Z</time></trkpt><trkpt lat="45.65487335488788" lon="8.903677491394067"><ele>252.60000000000002</ele><time>2026-03-30T07:22:29Z</time></trkpt><trkpt lat="45.6548583594778" lon="8.90356045562794"><ele>252.8</ele><time>2026-03-30T07:22:30Z</time></trkpt><trkpt lat="45.65483034362662" lon="8.903454492918152"><ele>253.0</ele><time>2026-03-30T07:22:31Z</time></trkpt><trkpt lat="45.654789944153215" lon="8.90337940395157"><ele>253.5</ele><time>2026-03-30T07:22:32Z</time></trkpt><trkpt lat="45.654805553184644" lon="8.90326635224002"><ele>254.0</ele><time>2026-03-30T07:22:34Z</time></trkpt><trkpt lat="45.655044960171935" lon="8.903171572489414"><ele>254.5</ele><time>2026-03-30T07:22:38Z</time></trkpt><trkpt lat="45.65514513955934" lon="8.903124580347075"><ele>255.0</ele><time>2026-03-30T07:22:39Z</time></trkpt><trkpt lat="45.65524486614907" lon="8.90307000490486"><ele>254.75</ele><time>2026-03-30T07:22:40Z</time></trkpt><trkpt lat="45.65534861566648" lon="8.903006000652121"><ele>254.5</ele><time>2026-03-30T07:22:41Z</time></trkpt><trkpt lat="45.65545472578527" lon="8.902945517512553"><ele>254.25</ele><time>2026-03-30T07:22:42Z</time></trkpt><trkpt lat="45.65556263084936" lon="8.902888815192263"><ele>254.0</ele><time>2026-03-30T07:22:43Z</time></trkpt><trkpt lat="45.65566924146609" lon="8.902833242522778"><ele>254.0</ele><time>2026-03-30T07:22:44Z</time></trkpt><trkpt lat="45.6557832553035" lon="8.902771864175458"><ele>253.99999999999997</ele><time>2026-03-30T07:22:45Z</time></trkpt><trkpt lat="45.65589044057919" lon="8.902714681609678"><ele>253.99999999999997</ele><time>2026-03-30T07:22:46Z</time></trkpt><trkpt lat="45.65598662940537" lon="8.902662051426619"><ele>254.0</ele><time>2026-03-30T07:22:47Z</time></trkpt><trkpt lat="45.656069684557316" lon="8.902624394942768"><ele>254.0</ele><time>2026-03-30T07:22:48Z</time></trkpt><trkpt lat="45.65614164860397" lon="8.90258437872717"><ele>254.50000000000003</ele><time>2026-03-30T07:22:49Z</time></trkpt><trkpt lat="45.656210914524415" lon="8.902476416696128"><ele>255.0</ele><time>2026-03-30T07:22:51Z</time></trkpt><trkpt lat="45.65619978993088" lon="8.902387511458365"><ele>255.5</ele><time>2026-03-30T07:22:52Z</time></trkpt><trkpt lat="45.656166774437736" lon="8.902271864647174"><ele>256.0</ele><time>2026-03-30T07:22:53Z</time></trkpt><trkpt lat="45.656118894352566" lon="8.902124315203926"><ele>256.5</ele><time>2026-03-30T07:22:54Z</time></trkpt><trkpt lat="45.65610224092977" lon="8.902017469794016"><ele>257.0</ele><time>2026-03-30T07:22:55Z</time></trkpt><trkpt lat="45.656133840480024" lon="8.901889984060045"><ele>257.0</ele><time>2026-03-30T07:22:57Z</time></trkpt><trkpt lat="45.65621861881528" lon="8.901864086052274"><ele>257.0</ele><time>2026-03-30T07:22:59Z</time></trkpt><trkpt lat="45.65628016750687" lon="8.901843169948986"><ele>257.0</ele><time>2026-03-30T07:23:01Z</time></trkpt><trkpt lat="45.65638948418662" lon="8.901737210948989"><ele>257.0</ele><time>2026-03-30T07:23:02.999Z</time></trkpt><trkpt lat="45.65647018846951" lon="8.901715149520403"><ele>257.0</ele><time>2026-03-30T07:23:03.999Z</time></trkpt><trkpt lat="45.656553850090816" lon="8.901686450342176"><ele>257.0</ele><time>2026-03-30T07:23:04.999Z</time></trkpt><trkpt lat="45.65662270392627" lon="8.90165920188614"><ele>257.0</ele><time>2026-03-30T07:23:05.999Z</time></trkpt><trkpt lat="45.65671411427968" lon="8.9016597155467"><ele>257.0</ele><time>2026-03-30T07:23:07.999Z</time></trkpt><trkpt lat="45.65677313289185" lon="8.901756081285967"><ele>257.0</ele><time>2026-03-30T07:23:09.999Z</time></trkpt><trkpt lat="45.6567979405185" lon="8.901850310504637"><ele>257.0</ele><time>2026-03-30T07:23:10.999Z</time></trkpt><trkpt lat="45.656803794319394" lon="8.901952887247289"><ele>257.0</ele><time>2026-03-30T07:23:11.999Z</time></trkpt><trkpt lat="45.65679948047608" lon="8.902054568880319"><ele>257.0</ele><time>2026-03-30T07:23:12.999Z</time></trkpt><trkpt lat="45.65680671950921" lon="8.902161512043666"><ele>257.0</ele><time>2026-03-30T07:23:13.999Z</time></trkpt><trkpt lat="45.65681888424072" lon="8.902290746490985"><ele>257.0</ele><time>2026-03-30T07:23:14.999Z</time></trkpt><trkpt lat="45.65683767194986" lon="8.902429550920594"><ele>257.0</ele><time>2026-03-30T07:23:15.999Z</time></trkpt><trkpt lat="45.656856019496516" lon="8.902586992773024"><ele>257.0</ele><time>2026-03-30T07:23:16.999Z</time></trkpt><trkpt lat="45.65688428528784" lon="8.902753396468254"><ele>257.0</ele><time>2026-03-30T07:23:17.999Z</time></trkpt><trkpt lat="45.656920898220925" lon="8.902937476052744"><ele>257.0</ele><time>2026-03-30T07:23:18.999Z</time></trkpt><trkpt lat="45.656956484032186" lon="8.903121324069165"><ele>257.0</ele><time>2026-03-30T07:23:19.999Z</time></trkpt><trkpt lat="45.65698840834923" lon="8.903303441156792"><ele>257.0</ele><time>2026-03-30T07:23:20.999Z</time></trkpt><trkpt lat="45.6570239382028" lon="8.903495166113318"><ele>256.75</ele><time>2026-03-30T07:23:21.999Z</time></trkpt><trkpt lat="45.65705893267843" lon="8.903681250122526"><ele>256.5</ele><time>2026-03-30T07:23:22.999Z</time></trkpt><trkpt lat="45.65708856706469" lon="8.903846651707944"><ele>256.25</ele><time>2026-03-30T07:23:23.999Z</time></trkpt><trkpt lat="45.657119992783905" lon="8.904000898098662"><ele>256.0</ele><time>2026-03-30T07:23:24.999Z</time></trkpt><trkpt lat="45.65713273709169" lon="8.904149774320555"><ele>255.60000000000002</ele><time>2026-03-30T07:23:25.999Z</time></trkpt><trkpt lat="45.65717903449015" lon="8.904287471935163"><ele>255.20000000000002</ele><time>2026-03-30T07:23:26.999Z</time></trkpt><trkpt lat="45.65719930054715" lon="8.904415493345867"><ele>254.79999999999998</ele><time>2026-03-30T07:23:27.999Z</time></trkpt><trkpt lat="45.657235007706724" lon="8.904562430974014"><ele>254.39999999999998</ele><time>2026-03-30T07:23:28.999Z</time></trkpt><trkpt lat="45.657274224442425" lon="8.904754148166091"><ele>254.0</ele><time>2026-03-30T07:23:29.999Z</time></trkpt><trkpt lat="45.65730537856536" lon="8.904947675639686"><ele>254.00000000000003</ele><time>2026-03-30T07:23:30.999Z</time></trkpt><trkpt lat="45.65734744237949" lon="8.905078025647848"><ele>254.0</ele><time>2026-03-30T07:23:31.999Z</time></trkpt><trkpt lat="45.65738019804279" lon="8.90522189418429"><ele>254.0</ele><time>2026-03-30T07:23:32.999Z</time></trkpt><trkpt lat="45.657405791598826" lon="8.90534752386778"><ele>254.0</ele><time>2026-03-30T07:23:33.999Z</time></trkpt><trkpt lat="45.657429868077955" lon="8.905446457039913"><ele>254.00000000000003</ele><time>2026-03-30T07:23:34.999Z</time></trkpt><trkpt lat="45.65746493975963" lon="8.905521976241827"><ele>254.0</ele><time>2026-03-30T07:23:35.999Z</time></trkpt><trkpt lat="45.65758728127547" lon="8.905595189718927"><ele>254.2</ele><time>2026-03-30T07:23:37.999Z</time></trkpt><trkpt lat="45.657674603832035" lon="8.905670128039723"><ele>254.39999999999998</ele><time>2026-03-30T07:23:39.999Z</time></trkpt><trkpt lat="45.657708955510536" lon="8.90576994003649"><ele>254.6</ele><time>2026-03-30T07:23:40.999Z</time></trkpt><trkpt lat="45.657735370100035" lon="8.90590092961956"><ele>254.8</ele><time>2026-03-30T07:23:41.999Z</time></trkpt><trkpt lat="45.657773765036524" lon="8.906047099804505"><ele>255.0</ele><time>2026-03-30T07:23:42.999Z</time></trkpt><trkpt lat="45.65782161440895" lon="8.906194786546571"><ele>255.0</ele><time>2026-03-30T07:23:43.999Z</time></trkpt><trkpt lat="45.65786705086635" lon="8.906360517156784"><ele>255.0</ele><time>2026-03-30T07:23:44.999Z</time></trkpt><trkpt lat="45.65791044797652" lon="8.906517029254982"><ele>255.0</ele><time>2026-03-30T07:23:45.999Z</time></trkpt><trkpt lat="45.65795052925433" lon="8.906668393880118"><ele>255.0</ele><time>2026-03-30T07:23:46.999Z</time></trkpt><trkpt lat="45.6579950909513" lon="8.90681000966651"><ele>256.0</ele><time>2026-03-30T07:23:47.999Z</time></trkpt><trkpt lat="45.65803035488107" lon="8.906939236572486"><ele>257.0</ele><time>2026-03-30T07:23:48.999Z</time></trkpt><trkpt lat="45.65806514012042" lon="8.90705112384471"><ele>258.0</ele><time>2026-03-30T07:23:49.999Z</time></trkpt><trkpt lat="45.658080908257375" lon="8.907160925845186"><ele>259.0</ele><time>2026-03-30T07:23:50.999Z</time></trkpt><trkpt lat="45.65808923183271" lon="8.907260059973753"><ele>260.0</ele><time>2026-03-30T07:23:51.999Z</time></trkpt><trkpt lat="45.65808008856818" lon="8.907438848076417"><ele>260.0</ele><time>2026-03-30T07:23:53.999Z</time></trkpt><trkpt lat="45.6580658488105" lon="8.907546994675165"><ele>260.0</ele><time>2026-03-30T07:23:54.999Z</time></trkpt><trkpt lat="45.6580612098268" lon="8.907651135630863"><ele>260.0</ele><time>2026-03-30T07:23:55.999Z</time></trkpt><trkpt lat="45.65807877215413" lon="8.907754336948598"><ele>260.0</ele><time>2026-03-30T07:23:56.999Z</time></trkpt><trkpt lat="45.65810936697206" lon="8.907844444433103"><ele>260.0</ele><time>2026-03-30T07:23:57.999Z</time></trkpt><trkpt lat="45.658196839416036" lon="8.907982546190715"><ele>260.0</ele><time>2026-03-30T07:23:59.999Z</time></trkpt><trkpt lat="45.658272630053816" lon="8.908026823369756"><ele>260.6</ele><time>2026-03-30T07:24:00.999Z</time></trkpt><trkpt lat="45.65835629415788" lon="8.908079779086826"><ele>261.2</ele><time>2026-03-30T07:24:01.999Z</time></trkpt><trkpt lat="45.65844212282787" lon="8.908161611175968"><ele>261.8</ele><time>2026-03-30T07:24:02.999Z</time></trkpt><trkpt lat="45.65851928456244" lon="8.908265127014472"><ele>262.4</ele><time>2026-03-30T07:24:03.999Z</time></trkpt><trkpt lat="45.658596488492776" lon="8.908363406509952"><ele>263.0</ele><time>2026-03-30T07:24:04.999Z</time></trkpt><trkpt lat="45.65865502469653" lon="8.908460800857535"><ele>263.5</ele><time>2026-03-30T07:24:05.999Z</time></trkpt><trkpt lat="45.65870260868507" lon="8.908563159628205"><ele>264.0</ele><time>2026-03-30T07:24:06.999Z</time></trkpt><trkpt lat="45.658737298942114" lon="8.90867579683443"><ele>264.5</ele><time>2026-03-30T07:24:07.998Z</time></trkpt><trkpt lat="45.65877190384142" lon="8.908803622553593"><ele>265.0</ele><time>2026-03-30T07:24:08.998Z</time></trkpt><trkpt lat="45.65878865990029" lon="8.908918266766626"><ele>265.5</ele><time>2026-03-30T07:24:09.998Z</time></trkpt><trkpt lat="45.6588064560205" lon="8.909026222191786"><ele>266.0</ele><time>2026-03-30T07:24:10.998Z</time></trkpt><trkpt lat="45.658814387949924" lon="8.909157607931393"><ele>266.0</ele><time>2026-03-30T07:24:11.998Z</time></trkpt><trkpt lat="45.65882892936907" lon="8.909261873405146"><ele>266.0</ele><time>2026-03-30T07:24:12.998Z</time></trkpt><trkpt lat="45.65882910025737" lon="8.909384865308255"><ele>266.0</ele><time>2026-03-30T07:24:14.998Z</time></trkpt><trkpt lat="45.658813486162444" lon="8.909476275845709"><ele>266.0</ele><time>2026-03-30T07:24:17.998Z</time></trkpt><trkpt lat="45.65880868514299" lon="8.909573458084619"><ele>266.0</ele><time>2026-03-30T07:24:26Z</time></trkpt><trkpt lat="45.6587803111953" lon="8.90975978127874"><ele>266.0</ele><time>2026-03-30T07:25:13.999Z</time></trkpt><trkpt lat="45.658739236288916" lon="8.909875986743362"><ele>266.0</ele><time>2026-03-30T07:25:14.999Z</time></trkpt><trkpt lat="45.658710266476966" lon="8.909977788621699"><ele>266.0</ele><time>2026-03-30T07:25:15.999Z</time></trkpt><trkpt lat="45.65868972007035" lon="8.91006946881441"><ele>266.0</ele><time>2026-03-30T07:25:16.999Z</time></trkpt><trkpt lat="45.65872318006134" lon="8.91019514083636"><ele>266.0</ele><time>2026-03-30T07:25:18.999Z</time></trkpt><trkpt lat="45.65875180925743" lon="8.910280579263791"><ele>266.0</ele><time>2026-03-30T07:25:19.999Z</time></trkpt><trkpt lat="45.658789579231026" lon="8.910372905798246"><ele>266.0</ele><time>2026-03-30T07:25:20.999Z</time></trkpt><trkpt lat="45.65881543027562" lon="8.910476899575091"><ele>266.0</ele><time>2026-03-30T07:25:21.999Z</time></trkpt><trkpt lat="45.65884315554424" lon="8.910597796386147"><ele>266.0</ele><time>2026-03-30T07:25:22.999Z</time></trkpt><trkpt lat="45.65888873859865" lon="8.91075327684513"><ele>266.0</ele><time>2026-03-30T07:25:23.999Z</time></trkpt><trkpt lat="45.658936653219385" lon="8.910895691754886"><ele>266.0</ele><time>2026-03-30T07:25:24.999Z</time></trkpt><trkpt lat="45.65898854692239" lon="8.911039017353309"><ele>266.0</ele><time>2026-03-30T07:25:25.999Z</time></trkpt><trkpt lat="45.659028464165836" lon="8.911178102411935"><ele>266.0</ele><time>2026-03-30T07:25:26.999Z</time></trkpt><trkpt lat="45.65908377520033" lon="8.911320041884816"><ele>266.0</ele><time>2026-03-30T07:25:27.999Z</time></trkpt><trkpt lat="45.65914589873399" lon="8.911463169184193"><ele>266.0</ele><time>2026-03-30T07:25:28.999Z</time></trkpt><trkpt lat="45.659198852024936" lon="8.911625319445438"><ele>266.0</ele><time>2026-03-30T07:25:29.999Z</time></trkpt><trkpt lat="45.65923223403955" lon="8.911758857386985"><ele>266.0</ele><time>2026-03-30T07:25:30.999Z</time></trkpt><trkpt lat="45.659232193325636" lon="8.911862317343154"><ele>266.0</ele><time>2026-03-30T07:25:31.999Z</time></trkpt><trkpt lat="45.65927826950873" lon="8.911998116068299"><ele>266.0</ele><time>2026-03-30T07:25:33.999Z</time></trkpt><trkpt lat="45.65940069739633" lon="8.912002795741342"><ele>266.0</ele><time>2026-03-30T07:25:35.999Z</time></trkpt><trkpt lat="45.65947384562437" lon="8.911962851674112"><ele>266.0</ele><time>2026-03-30T07:25:36.999Z</time></trkpt><trkpt lat="45.659584817707376" lon="8.911887781035002"><ele>266.0</ele><time>2026-03-30T07:25:37.999Z</time></trkpt><trkpt lat="45.65967095238109" lon="8.911867177964018"><ele>266.0</ele><time>2026-03-30T07:25:38.999Z</time></trkpt><trkpt lat="45.659764876838985" lon="8.91181812131429"><ele>266.0</ele><time>2026-03-30T07:25:39.999Z</time></trkpt><trkpt lat="45.65986049019794" lon="8.911775369503529"><ele>266.0</ele><time>2026-03-30T07:25:40.999Z</time></trkpt><trkpt lat="45.65995289193167" lon="8.91174503257901"><ele>266.0</ele><time>2026-03-30T07:25:41.999Z</time></trkpt><trkpt lat="45.66005701422339" lon="8.91170550104311"><ele>266.0</ele><time>2026-03-30T07:25:42.999Z</time></trkpt><trkpt lat="45.66015415075832" lon="8.911661876156415"><ele>266.0</ele><time>2026-03-30T07:25:43.999Z</time></trkpt><trkpt lat="45.66025586796564" lon="8.911619349898368"><ele>266.0</ele><time>2026-03-30T07:25:44.999Z</time></trkpt><trkpt lat="45.66035147033057" lon="8.911589257854088"><ele>266.0</ele><time>2026-03-30T07:25:45.999Z</time></trkpt><trkpt lat="45.660472765985894" lon="8.911563054426951"><ele>266.0</ele><time>2026-03-30T07:25:46.999Z</time></trkpt><trkpt lat="45.66058318473659" lon="8.911553042711756"><ele>266.0</ele><time>2026-03-30T07:25:47.999Z</time></trkpt><trkpt lat="45.66069144487107" lon="8.911525063488334"><ele>266.0</ele><time>2026-03-30T07:25:48.999Z</time></trkpt><trkpt lat="45.66079248147079" lon="8.911526843563838"><ele>266.0</ele><time>2026-03-30T07:25:49.999Z</time></trkpt><trkpt lat="45.66090348549" lon="8.91151371340089"><ele>266.0</ele><time>2026-03-30T07:25:50.999Z</time></trkpt><trkpt lat="45.661025775118276" lon="8.911503457594623"><ele>266.0</ele><time>2026-03-30T07:25:51.999Z</time></trkpt><trkpt lat="45.66114977174606" lon="8.911464413112336"><ele>265.5</ele><time>2026-03-30T07:25:52.999Z</time></trkpt><trkpt lat="45.66126663837428" lon="8.911430321361667"><ele>265.0</ele><time>2026-03-30T07:25:53.999Z</time></trkpt><trkpt lat="45.66137347964343" lon="8.911378126866481"><ele>264.5</ele><time>2026-03-30T07:25:54.999Z</time></trkpt><trkpt lat="45.66149483260363" lon="8.911340661349895"><ele>264.0</ele><time>2026-03-30T07:25:55.999Z</time></trkpt><trkpt lat="45.66164608562817" lon="8.911333592266816"><ele>264.0</ele><time>2026-03-30T07:25:56.999Z</time></trkpt><trkpt lat="45.66177372168891" lon="8.91129761107729"><ele>264.0</ele><time>2026-03-30T07:25:57.999Z</time></trkpt><trkpt lat="45.66190947746369" lon="8.911266787404516"><ele>264.0</ele><time>2026-03-30T07:25:58.999Z</time></trkpt><trkpt lat="45.6620437395835" lon="8.911217934601577"><ele>264.0</ele><time>2026-03-30T07:25:59.999Z</time></trkpt><trkpt lat="45.66217008998986" lon="8.911184613841153"><ele>264.5</ele><time>2026-03-30T07:26:00.999Z</time></trkpt><trkpt lat="45.66230232135511" lon="8.911162910004311"><ele>265.0</ele><time>2026-03-30T07:26:01.999Z</time></trkpt><trkpt lat="45.66242811082295" lon="8.911144085488665"><ele>265.5</ele><time>2026-03-30T07:26:02.999Z</time></trkpt><trkpt lat="45.66253591792356" lon="8.91112605836963"><ele>266.0</ele><time>2026-03-30T07:26:03.999Z</time></trkpt><trkpt lat="45.66263472650263" lon="8.911100636680164"><ele>266.0</ele><time>2026-03-30T07:26:04.999Z</time></trkpt><trkpt lat="45.66272282041493" lon="8.91108287603275"><ele>266.0</ele><time>2026-03-30T07:26:05.999Z</time></trkpt><trkpt lat="45.662808438946435" lon="8.911062291035531"><ele>266.0</ele><time>2026-03-30T07:26:06.999Z</time></trkpt><trkpt lat="45.662915556032644" lon="8.911052238440334"><ele>266.0</ele><time>2026-03-30T07:26:08.999Z</time></trkpt><trkpt lat="45.66298162253158" lon="8.911049886548971"><ele>266.0</ele><time>2026-03-30T07:26:09.999Z</time></trkpt><trkpt lat="45.66306150757635" lon="8.911022130330378"><ele>266.0</ele><time>2026-03-30T07:26:10.999Z</time></trkpt><trkpt lat="45.66314777512775" lon="8.910992751700398"><ele>266.2</ele><time>2026-03-30T07:26:12.998Z</time></trkpt><trkpt lat="45.66321230079069" lon="8.911094814588447"><ele>266.40000000000003</ele><time>2026-03-30T07:26:15.998Z</time></trkpt><trkpt lat="45.66323782271628" lon="8.911252929583013"><ele>266.6</ele><time>2026-03-30T07:26:17.998Z</time></trkpt><trkpt lat="45.66327188221032" lon="8.91138563055914"><ele>266.8</ele><time>2026-03-30T07:26:18.998Z</time></trkpt><trkpt lat="45.66329206144542" lon="8.911519372908476"><ele>267.0</ele><time>2026-03-30T07:26:19.998Z</time></trkpt><trkpt lat="45.66330966042866" lon="8.911672311309271"><ele>266.4</ele><time>2026-03-30T07:26:20.998Z</time></trkpt><trkpt lat="45.66333296246202" lon="8.911813645079214"><ele>265.79999999999995</ele><time>2026-03-30T07:26:21.998Z</time></trkpt><trkpt lat="45.66335801368327" lon="8.911952685914628"><ele>265.2</ele><time>2026-03-30T07:26:22.998Z</time></trkpt><trkpt lat="45.66338170047179" lon="8.912098390959205"><ele>264.59999999999997</ele><time>2026-03-30T07:26:23.998Z</time></trkpt><trkpt lat="45.663398604793336" lon="8.91225372690745"><ele>264.0</ele><time>2026-03-30T07:26:24.998Z</time></trkpt><trkpt lat="45.6634084606389" lon="8.912409762439879"><ele>264.0</ele><time>2026-03-30T07:26:26Z</time></trkpt><trkpt lat="45.66342160331027" lon="8.91255801658782"><ele>264.0</ele><time>2026-03-30T07:26:27Z</time></trkpt><trkpt lat="45.66344505204982" lon="8.91270392475333"><ele>264.0</ele><time>2026-03-30T07:26:28Z</time></trkpt><trkpt lat="45.66346958318342" lon="8.912855967993313"><ele>264.0</ele><time>2026-03-30T07:26:29Z</time></trkpt><trkpt lat="45.66348251554856" lon="8.912982375106592"><ele>264.0</ele><time>2026-03-30T07:26:30Z</time></trkpt><trkpt lat="45.663489751615835" lon="8.913120548728354"><ele>264.2</ele><time>2026-03-30T07:26:31Z</time></trkpt><trkpt lat="45.66348943743737" lon="8.913271345541261"><ele>264.4</ele><time>2026-03-30T07:26:32Z</time></trkpt><trkpt lat="45.66350115806216" lon="8.913417409140214"><ele>264.6</ele><time>2026-03-30T07:26:33Z</time></trkpt><trkpt lat="45.663518105182476" lon="8.913562164991125"><ele>264.8</ele><time>2026-03-30T07:26:34Z</time></trkpt><trkpt lat="45.663533730563664" lon="8.913709440884341"><ele>265.0</ele><time>2026-03-30T07:26:35Z</time></trkpt><trkpt lat="45.66353659036405" lon="8.913850907955293"><ele>265.0</ele><time>2026-03-30T07:26:36Z</time></trkpt><trkpt lat="45.66353284036474" lon="8.913971339947361"><ele>265.0</ele><time>2026-03-30T07:26:37Z</time></trkpt><trkpt lat="45.66354530618166" lon="8.914100343977566"><ele>265.0</ele><time>2026-03-30T07:26:38Z</time></trkpt><trkpt lat="45.66354171279955" lon="8.914210133941507"><ele>265.0</ele><time>2026-03-30T07:26:39Z</time></trkpt><trkpt lat="45.66356545794948" lon="8.914373163325555"><ele>265.0</ele><time>2026-03-30T07:26:41Z</time></trkpt><trkpt lat="45.663597397707726" lon="8.91445571689596"><ele>265.0</ele><time>2026-03-30T07:26:42Z</time></trkpt><trkpt lat="45.663623020430414" lon="8.914546545245408"><ele>265.4</ele><time>2026-03-30T07:26:44Z</time></trkpt><trkpt lat="45.663743641713964" lon="8.914531397147666"><ele>265.8</ele><time>2026-03-30T07:26:47Z</time></trkpt><trkpt lat="45.663816011973886" lon="8.914498362102046"><ele>266.2</ele><time>2026-03-30T07:26:48Z</time></trkpt><trkpt lat="45.663888543038844" lon="8.914480568666077"><ele>266.6</ele><time>2026-03-30T07:26:49Z</time></trkpt><trkpt lat="45.6639614783421" lon="8.9144600945499"><ele>267.0</ele><time>2026-03-30T07:26:50Z</time></trkpt><trkpt lat="45.66406441573859" lon="8.914405698384277"><ele>267.0</ele><time>2026-03-30T07:26:52Z</time></trkpt><trkpt lat="45.664130780209575" lon="8.91438491110005"><ele>267.0</ele><time>2026-03-30T07:26:54Z</time></trkpt><trkpt lat="45.664172349900575" lon="8.914306568442324"><ele>267.0</ele><time>2026-03-30T07:26:58Z</time></trkpt><trkpt lat="45.66423567697673" lon="8.91432200371102"><ele>267.0</ele><time>2026-03-30T07:27:02Z</time></trkpt><trkpt lat="45.66435461366313" lon="8.91457153170611"><ele>267.0</ele><time>2026-03-30T07:27:13.999Z</time></trkpt><trkpt lat="45.66433610354648" lon="8.914678850233347"><ele>267.0</ele><time>2026-03-30T07:27:14.999Z</time></trkpt><trkpt lat="45.664312428552655" lon="8.914795551211878"><ele>267.0</ele><time>2026-03-30T07:27:15.999Z</time></trkpt><trkpt lat="45.66430292883319" lon="8.914920638108695"><ele>267.0</ele><time>2026-03-30T07:27:16.999Z</time></trkpt><trkpt lat="45.664282385490274" lon="8.915062376463478"><ele>267.0</ele><time>2026-03-30T07:27:17.999Z</time></trkpt><trkpt lat="45.66426234942063" lon="8.915202758245222"><ele>267.0</ele><time>2026-03-30T07:27:18.999Z</time></trkpt><trkpt lat="45.66423653748448" lon="8.915349536375246"><ele>267.25</ele><time>2026-03-30T07:27:19.999Z</time></trkpt><trkpt lat="45.66420751705671" lon="8.915517341178292"><ele>267.5</ele><time>2026-03-30T07:27:20.999Z</time></trkpt><trkpt lat="45.664189574639416" lon="8.915688046399788"><ele>267.75</ele><time>2026-03-30T07:27:21.999Z</time></trkpt><trkpt lat="45.664181978070346" lon="8.915859901751139"><ele>268.0</ele><time>2026-03-30T07:27:22.999Z</time></trkpt><trkpt lat="45.66417325584764" lon="8.916039149463728"><ele>268.0</ele><time>2026-03-30T07:27:23.999Z</time></trkpt><trkpt lat="45.66416568024088" lon="8.916215779816763"><ele>268.0</ele><time>2026-03-30T07:27:24.999Z</time></trkpt><trkpt lat="45.66416533574071" lon="8.916404052224653"><ele>268.0</ele><time>2026-03-30T07:27:25.999Z</time></trkpt><trkpt lat="45.664173943155674" lon="8.91662605289547"><ele>268.0</ele><time>2026-03-30T07:27:26.999Z</time></trkpt><trkpt lat="45.66417538622402" lon="8.916867262053199"><ele>267.0</ele><time>2026-03-30T07:27:27.999Z</time></trkpt><trkpt lat="45.66415503912204" lon="8.917120858747671"><ele>266.0</ele><time>2026-03-30T07:27:28.999Z</time></trkpt><trkpt lat="45.664170505806545" lon="8.917390876816158"><ele>265.0</ele><time>2026-03-30T07:27:29.999Z</time></trkpt><trkpt lat="45.66418397498147" lon="8.917649843437434"><ele>264.75</ele><time>2026-03-30T07:27:30.999Z</time></trkpt><trkpt lat="45.66419784082946" lon="8.91787459554191"><ele>264.5</ele><time>2026-03-30T07:27:31.999Z</time></trkpt><trkpt lat="45.66423750267386" lon="8.91808074543331"><ele>264.25</ele><time>2026-03-30T07:27:32.999Z</time></trkpt><trkpt lat="45.664249398906826" lon="8.918281197431506"><ele>264.0</ele><time>2026-03-30T07:27:33.999Z</time></trkpt><trkpt lat="45.66426360898517" lon="8.918466559529685"><ele>263.8333333333333</ele><time>2026-03-30T07:27:34.999Z</time></trkpt><trkpt lat="45.66428142649041" lon="8.918634986744758"><ele>263.6666666666667</ele><time>2026-03-30T07:27:35.999Z</time></trkpt><trkpt lat="45.66428896767076" lon="8.918768649845541"><ele>263.5</ele><time>2026-03-30T07:27:36.999Z</time></trkpt><trkpt lat="45.664293085449046" lon="8.918884708975675"><ele>263.33333333333337</ele><time>2026-03-30T07:27:37.999Z</time></trkpt><trkpt lat="45.664309140572065" lon="8.918972587752224"><ele>263.1666666666667</ele><time>2026-03-30T07:27:38.999Z</time></trkpt><trkpt lat="45.66431879218387" lon="8.91909972859846"><ele>263.0</ele><time>2026-03-30T07:28:00.999Z</time></trkpt><trkpt lat="45.66446076920016" lon="8.919013607251198"><ele>262.2857142857143</ele><time>2026-03-30T07:28:15.999Z</time></trkpt><trkpt lat="45.66446023036026" lon="8.918887749421216"><ele>261.57142857142856</ele><time>2026-03-30T07:28:17.999Z</time></trkpt><trkpt lat="45.664498031331206" lon="8.918780849296802"><ele>260.85714285714283</ele><time>2026-03-30T07:28:19.998Z</time></trkpt><trkpt lat="45.66449555854214" lon="8.918688521604626"><ele>260.1428571428571</ele><time>2026-03-30T07:28:23.998Z</time></trkpt><trkpt lat="45.664503582893545" lon="8.918597237049152"><ele>259.42857142857144</ele><time>2026-03-30T07:28:26.998Z</time></trkpt><trkpt lat="45.66455673417145" lon="8.918533419178022"><ele>258.71428571428567</ele><time>2026-03-30T07:28:29.998Z</time></trkpt><trkpt lat="45.66461989573865" lon="8.918495645489166"><ele>258.0</ele><time>2026-03-30T07:28:37Z</time></trkpt><trkpt lat="45.66468418963103" lon="8.918454391524634"><ele>259.0</ele><time>2026-03-30T07:28:40Z</time></trkpt><trkpt lat="45.66476674372428" lon="8.918363441865127"><ele>260.0</ele><time>2026-03-30T07:28:42Z</time></trkpt><trkpt lat="45.66484420541536" lon="8.918261815145238"><ele>261.0</ele><time>2026-03-30T07:28:44Z</time></trkpt><trkpt lat="45.66492239948919" lon="8.918201189737394"><ele>262.0</ele><time>2026-03-30T07:28:45Z</time></trkpt><trkpt lat="45.66498426986496" lon="8.918141353295406"><ele>263.0</ele><time>2026-03-30T07:28:46Z</time></trkpt><trkpt lat="45.665060205043304" lon="8.918079087764307"><ele>263.0</ele><time>2026-03-30T07:28:47Z</time></trkpt><trkpt lat="45.665117893580074" lon="8.91800770728471"><ele>263.0</ele><time>2026-03-30T07:28:48Z</time></trkpt><trkpt lat="45.66518561146686" lon="8.917941261529322"><ele>263.0</ele><time>2026-03-30T07:28:49Z</time></trkpt><trkpt lat="45.665246126710464" lon="8.917883248506268"><ele>263.0</ele><time>2026-03-30T07:28:50Z</time></trkpt><trkpt lat="45.66531788065602" lon="8.917821500468452"><ele>263.0</ele><time>2026-03-30T07:28:51Z</time></trkpt><trkpt lat="45.66540809043115" lon="8.917756704296176"><ele>263.0</ele><time>2026-03-30T07:28:52Z</time></trkpt><trkpt lat="45.66549379332118" lon="8.917686917691842"><ele>262.83333333333337</ele><time>2026-03-30T07:28:53Z</time></trkpt><trkpt lat="45.66555222401619" lon="8.91763104631999"><ele>262.6666666666667</ele><time>2026-03-30T07:28:54Z</time></trkpt><trkpt lat="45.66563787798278" lon="8.917558825031632"><ele>262.5</ele><time>2026-03-30T07:28:55Z</time></trkpt><trkpt lat="45.66571324924353" lon="8.917488453408286"><ele>262.3333333333333</ele><time>2026-03-30T07:28:56Z</time></trkpt><trkpt lat="45.66578038189865" lon="8.917433277524143"><ele>262.16666666666663</ele><time>2026-03-30T07:28:57Z</time></trkpt><trkpt lat="45.6658509367838" lon="8.917382063268274"><ele>262.0</ele><time>2026-03-30T07:28:58Z</time></trkpt><trkpt lat="45.66591292890551" lon="8.917330600801693"><ele>262.0</ele><time>2026-03-30T07:28:59Z</time></trkpt><trkpt lat="45.66597077972544" lon="8.917282036607892"><ele>262.0</ele><time>2026-03-30T07:29:00Z</time></trkpt><trkpt lat="45.6660352152535" lon="8.917235877090498"><ele>262.0</ele><time>2026-03-30T07:29:01Z</time></trkpt><trkpt lat="45.666110744015185" lon="8.91719247841162"><ele>262.0</ele><time>2026-03-30T07:29:02Z</time></trkpt><trkpt lat="45.666185700344016" lon="8.917128417947835"><ele>262.0</ele><time>2026-03-30T07:29:03Z</time></trkpt><trkpt lat="45.66625601392985" lon="8.917075697150599"><ele>262.0</ele><time>2026-03-30T07:29:04Z</time></trkpt><trkpt lat="45.66632377405924" lon="8.917022067836154"><ele>262.2</ele><time>2026-03-30T07:29:05Z</time></trkpt><trkpt lat="45.66640435665275" lon="8.916981326564558"><ele>262.4</ele><time>2026-03-30T07:29:06Z</time></trkpt><trkpt lat="45.66648339700172" lon="8.916912826244724"><ele>262.6</ele><time>2026-03-30T07:29:07Z</time></trkpt><trkpt lat="45.66660471333988" lon="8.91681027723062"><ele>262.8</ele><time>2026-03-30T07:29:09Z</time></trkpt><trkpt lat="45.66669283925131" lon="8.916759329453225"><ele>263.0</ele><time>2026-03-30T07:29:10Z</time></trkpt><trkpt lat="45.66676430699206" lon="8.916713360733112"><ele>263.33333333333337</ele><time>2026-03-30T07:29:11Z</time></trkpt><trkpt lat="45.66686508764086" lon="8.916604367454799"><ele>263.6666666666667</ele><time>2026-03-30T07:29:13Z</time></trkpt><trkpt lat="45.66694312771305" lon="8.916555255104246"><ele>264.0</ele><time>2026-03-30T07:29:14Z</time></trkpt><trkpt lat="45.66699814905568" lon="8.916510924479766"><ele>264.3333333333333</ele><time>2026-03-30T07:29:15Z</time></trkpt><trkpt lat="45.66707492527513" lon="8.916436247225485"><ele>264.66666666666663</ele><time>2026-03-30T07:29:16Z</time></trkpt><trkpt lat="45.667133694289376" lon="8.91638029619543"><ele>265.0</ele><time>2026-03-30T07:29:17Z</time></trkpt><trkpt lat="45.66723258679595" lon="8.916324260881575"><ele>265.0</ele><time>2026-03-30T07:29:19Z</time></trkpt><trkpt lat="45.66733805419705" lon="8.916261096378939"><ele>265.0</ele><time>2026-03-30T07:29:20.999Z</time></trkpt><trkpt lat="45.66737639106415" lon="8.916184704264422"><ele>265.0</ele><time>2026-03-30T07:29:22.999Z</time></trkpt><trkpt lat="45.66741213408863" lon="8.916109682579672"><ele>265.0</ele><time>2026-03-30T07:29:25.999Z</time></trkpt><trkpt lat="45.667451761284454" lon="8.91602632891403"><ele>265.0</ele><time>2026-03-30T07:29:29.999Z</time></trkpt><trkpt lat="45.66753122192823" lon="8.916021174237018"><ele>265.0</ele><time>2026-03-30T07:29:40.999Z</time></trkpt><trkpt lat="45.66760066054573" lon="8.915924335981495"><ele>265.6</ele><time>2026-03-30T07:29:52.999Z</time></trkpt><trkpt lat="45.66767155085937" lon="8.91586099161769"><ele>266.2</ele><time>2026-03-30T07:29:54.999Z</time></trkpt><trkpt lat="45.66775327773843" lon="8.915769660009133"><ele>266.8</ele><time>2026-03-30T07:29:56.999Z</time></trkpt><trkpt lat="45.66786495975932" lon="8.915711921431429"><ele>267.4</ele><time>2026-03-30T07:29:58.999Z</time></trkpt><trkpt lat="45.66792985294098" lon="8.915695251462008"><ele>268.0</ele><time>2026-03-30T07:29:59.999Z</time></trkpt><trkpt lat="45.66808615453319" lon="8.915649986873404"><ele>268.0</ele><time>2026-03-30T07:30:02.999Z</time></trkpt><trkpt lat="45.66820527279731" lon="8.915607806423255"><ele>268.0</ele><time>2026-03-30T07:30:04.999Z</time></trkpt><trkpt lat="45.66826473195429" lon="8.915564686746233"><ele>268.0</ele><time>2026-03-30T07:30:05.999Z</time></trkpt><trkpt lat="45.6683503402654" lon="8.915501394227705"><ele>268.0</ele><time>2026-03-30T07:30:07.999Z</time></trkpt><trkpt lat="45.668468107303994" lon="8.915472316639224"><ele>268.0</ele><time>2026-03-30T07:30:09.999Z</time></trkpt><trkpt lat="45.66852563055963" lon="8.91542927328419"><ele>268.0</ele><time>2026-03-30T07:30:10.999Z</time></trkpt><trkpt lat="45.66859686946542" lon="8.915398596327318"><ele>268.0</ele><time>2026-03-30T07:30:11.999Z</time></trkpt><trkpt lat="45.66867433876418" lon="8.915369898928835"><ele>268.0</ele><time>2026-03-30T07:30:12.999Z</time></trkpt><trkpt lat="45.66875805277609" lon="8.915240510199247"><ele>268.0</ele><time>2026-03-30T07:30:14.999Z</time></trkpt><trkpt lat="45.66885462932693" lon="8.915143162377495"><ele>268.0</ele><time>2026-03-30T07:30:16.999Z</time></trkpt><trkpt lat="45.66898423622214" lon="8.9151147091987"><ele>268.0</ele><time>2026-03-30T07:30:18.999Z</time></trkpt><trkpt lat="45.66909408795687" lon="8.915063746766243"><ele>268.0</ele><time>2026-03-30T07:30:20.999Z</time></trkpt><trkpt lat="45.6692038045737" lon="8.915022396411981"><ele>268.0</ele><time>2026-03-30T07:30:21.999Z</time></trkpt><trkpt lat="45.669261742500034" lon="8.914970417755502"><ele>268.0</ele><time>2026-03-30T07:30:22.999Z</time></trkpt><trkpt lat="45.669344507402315" lon="8.914911065850463"><ele>268.0</ele><time>2026-03-30T07:30:24.999Z</time></trkpt><trkpt lat="45.669391109604256" lon="8.914839622362448"><ele>268.4</ele><time>2026-03-30T07:30:25.999Z</time></trkpt><trkpt lat="45.66946266685621" lon="8.91467756061361"><ele>268.8</ele><time>2026-03-30T07:30:27.998Z</time></trkpt><trkpt lat="45.66951136510056" lon="8.914566303137894"><ele>269.2</ele><time>2026-03-30T07:30:28.998Z</time></trkpt><trkpt lat="45.66955682348014" lon="8.914483065925332"><ele>269.6</ele><time>2026-03-30T07:30:29.998Z</time></trkpt><trkpt lat="45.66960259698563" lon="8.914381059470685"><ele>270.0</ele><time>2026-03-30T07:30:30.998Z</time></trkpt><trkpt lat="45.66964941608824" lon="8.914246078303576"><ele>269.8333333333333</ele><time>2026-03-30T07:30:31.998Z</time></trkpt><trkpt lat="45.66968396028462" lon="8.914139223508519"><ele>269.6666666666667</ele><time>2026-03-30T07:30:32.998Z</time></trkpt><trkpt lat="45.669734324945516" lon="8.914062884772248"><ele>269.5</ele><time>2026-03-30T07:30:33.998Z</time></trkpt><trkpt lat="45.66981007260937" lon="8.91391109080878"><ele>269.33333333333337</ele><time>2026-03-30T07:30:35.998Z</time></trkpt><trkpt lat="45.669848372532094" lon="8.9138256361885"><ele>269.1666666666667</ele><time>2026-03-30T07:30:36.998Z</time></trkpt><trkpt lat="45.6698890517019" lon="8.913724569904124"><ele>269.0</ele><time>2026-03-30T07:30:38Z</time></trkpt><trkpt lat="45.66991879609214" lon="8.913644992765205"><ele>269.0</ele><time>2026-03-30T07:30:39Z</time></trkpt><trkpt lat="45.66996715909912" lon="8.913517187635044"><ele>269.0</ele><time>2026-03-30T07:30:41Z</time></trkpt><trkpt lat="45.67002767440821" lon="8.913406549196829"><ele>269.0</ele><time>2026-03-30T07:30:43Z</time></trkpt><trkpt lat="45.670086811181015" lon="8.913291391265703"><ele>269.0</ele><time>2026-03-30T07:30:45Z</time></trkpt><trkpt lat="45.67014116323142" lon="8.913159485846283"><ele>269.0</ele><time>2026-03-30T07:30:47Z</time></trkpt><trkpt lat="45.67019626383331" lon="8.912994613290163"><ele>269.0</ele><time>2026-03-30T07:30:49Z</time></trkpt><trkpt lat="45.67022850657368" lon="8.91286854724391"><ele>269.0</ele><time>2026-03-30T07:30:51Z</time></trkpt><trkpt lat="45.670265626085815" lon="8.912769052054148"><ele>269.0</ele><time>2026-03-30T07:30:53Z</time></trkpt><trkpt lat="45.67029613600721" lon="8.912644250088954"><ele>269.0</ele><time>2026-03-30T07:30:55Z</time></trkpt><trkpt lat="45.67030389800171" lon="8.912542879814525"><ele>269.0</ele><time>2026-03-30T07:30:57Z</time></trkpt><trkpt lat="45.67034976498385" lon="8.912471258868692"><ele>269.0</ele><time>2026-03-30T07:30:58Z</time></trkpt><trkpt lat="45.670414717889564" lon="8.912354259227715"><ele>269.0</ele><time>2026-03-30T07:31:00Z</time></trkpt><trkpt lat="45.670450059953524" lon="8.912250814117266"><ele>269.0</ele><time>2026-03-30T07:31:02Z</time></trkpt><trkpt lat="45.67049402509342" lon="8.912162763707043"><ele>269.0</ele><time>2026-03-30T07:31:04Z</time></trkpt><trkpt lat="45.67055365063274" lon="8.912086235982729"><ele>269.0</ele><time>2026-03-30T07:31:07Z</time></trkpt><trkpt lat="45.67058942918139" lon="8.911983317706026"><ele>269.0</ele><time>2026-03-30T07:31:11Z</time></trkpt><trkpt lat="45.67063902418503" lon="8.911863287682845"><ele>269.0</ele><time>2026-03-30T07:31:14Z</time></trkpt><trkpt lat="45.67067287640815" lon="8.911761409407712"><ele>268.8</ele><time>2026-03-30T07:31:16Z</time></trkpt><trkpt lat="45.6707207285019" lon="8.911630585567154"><ele>268.59999999999997</ele><time>2026-03-30T07:31:18Z</time></trkpt><trkpt lat="45.67076505122368" lon="8.911510852857482"><ele>268.4</ele><time>2026-03-30T07:31:19.999Z</time></trkpt><trkpt lat="45.670802400696076" lon="8.911417664333303"><ele>268.2</ele><time>2026-03-30T07:31:21.999Z</time></trkpt><trkpt lat="45.670838962869944" lon="8.91129315089202"><ele>268.0</ele><time>2026-03-30T07:31:23.999Z</time></trkpt><trkpt lat="45.670906810206496" lon="8.91121001118459"><ele>268.0</ele><time>2026-03-30T07:31:25.999Z</time></trkpt><trkpt lat="45.6709580855716" lon="8.911103381205894"><ele>268.0</ele><time>2026-03-30T07:31:27.999Z</time></trkpt><trkpt lat="45.671018094192796" lon="8.910998198085213"><ele>268.0</ele><time>2026-03-30T07:31:29.999Z</time></trkpt><trkpt lat="45.67111109178557" lon="8.910909993550993"><ele>268.0</ele><time>2026-03-30T07:31:31.999Z</time></trkpt><trkpt lat="45.67119042481423" lon="8.910798510488004"><ele>268.0</ele><time>2026-03-30T07:31:33.999Z</time></trkpt><trkpt lat="45.671270847518656" lon="8.910735091860387"><ele>267.57142857142856</ele><time>2026-03-30T07:31:35.999Z</time></trkpt><trkpt lat="45.67134405460172" lon="8.910664131556501"><ele>267.1428571428571</ele><time>2026-03-30T07:31:37.999Z</time></trkpt><trkpt lat="45.67141337040381" lon="8.910619923587848"><ele>266.71428571428567</ele><time>2026-03-30T07:31:40.999Z</time></trkpt><trkpt lat="45.67147607735295" lon="8.910644442930174"><ele>266.2857142857143</ele><time>2026-03-30T07:31:42.999Z</time></trkpt><trkpt lat="45.67155773094165" lon="8.910648259446882"><ele>265.85714285714283</ele><time>2026-03-30T07:31:44.999Z</time></trkpt><trkpt lat="45.6716182794725" lon="8.910614966557576"><ele>265.4285714285714</ele><time>2026-03-30T07:31:46.999Z</time></trkpt><trkpt lat="45.67168387933847" lon="8.910602917155995"><ele>265.0</ele><time>2026-03-30T07:31:48.999Z</time></trkpt><trkpt lat="45.671682821277635" lon="8.910504447766359"><ele>265.0</ele><time>2026-03-30T07:31:51.999Z</time></trkpt><trkpt lat="45.67168504270204" lon="8.91038344259184"><ele>265.0</ele><time>2026-03-30T07:31:55.999Z</time></trkpt><trkpt lat="45.6717469187082" lon="8.910287534153046"><ele>265.0</ele><time>2026-03-30T07:31:57.999Z</time></trkpt><trkpt lat="45.671816381046135" lon="8.910235157917592"><ele>265.0</ele><time>2026-03-30T07:31:59.999Z</time></trkpt><trkpt lat="45.67188013753002" lon="8.91015232502791"><ele>265.0</ele><time>2026-03-30T07:32:01.999Z</time></trkpt><trkpt lat="45.67196082107873" lon="8.910075422392158"><ele>265.0</ele><time>2026-03-30T07:32:03.999Z</time></trkpt><trkpt lat="45.67203187406343" lon="8.910020971134852"><ele>265.66666666666663</ele><time>2026-03-30T07:32:05.999Z</time></trkpt><trkpt lat="45.67210540496351" lon="8.909994465690264"><ele>266.3333333333333</ele><time>2026-03-30T07:33:21Z</time></trkpt><trkpt lat="45.67217300555248" lon="8.909942873543054"><ele>267.0</ele><time>2026-03-30T07:33:25Z</time></trkpt><trkpt lat="45.67223400745074" lon="8.909912986316327"><ele>267.6666666666667</ele><time>2026-03-30T07:33:27Z</time></trkpt><trkpt lat="45.672356231450166" lon="8.90986134675668"><ele>268.33333333333337</ele><time>2026-03-30T07:33:29Z</time></trkpt><trkpt lat="45.67245215135075" lon="8.90980620756214"><ele>269.0</ele><time>2026-03-30T07:33:30.999Z</time></trkpt><trkpt lat="45.67253316543581" lon="8.90976658934107"><ele>269.0</ele><time>2026-03-30T07:33:31.999Z</time></trkpt><trkpt lat="45.67263005603214" lon="8.909718949967347"><ele>269.0</ele><time>2026-03-30T07:33:32.999Z</time></trkpt><trkpt lat="45.67271492400854" lon="8.909688768039098"><ele>269.0</ele><time>2026-03-30T07:33:33.999Z</time></trkpt><trkpt lat="45.67280319434215" lon="8.909640337858324"><ele>269.0</ele><time>2026-03-30T07:33:34.999Z</time></trkpt><trkpt lat="45.672882053725836" lon="8.909593642266579"><ele>269.0</ele><time>2026-03-30T07:33:35.999Z</time></trkpt><trkpt lat="45.6729700034651" lon="8.909551943062434"><ele>268.33333333333337</ele><time>2026-03-30T07:33:36.999Z</time></trkpt><trkpt lat="45.67305690170618" lon="8.909525987536766"><ele>267.6666666666667</ele><time>2026-03-30T07:33:37.999Z</time></trkpt><trkpt lat="45.67313321987821" lon="8.909497499316982"><ele>267.0</ele><time>2026-03-30T07:33:38.999Z</time></trkpt><trkpt lat="45.67319709630558" lon="8.909460200364332"><ele>266.3333333333333</ele><time>2026-03-30T07:33:39.999Z</time></trkpt><trkpt lat="45.67326763830009" lon="8.909422916372566"><ele>265.66666666666663</ele><time>2026-03-30T07:33:40.999Z</time></trkpt><trkpt lat="45.67335011972953" lon="8.90937090084678"><ele>265.0</ele><time>2026-03-30T07:33:41.999Z</time></trkpt><trkpt lat="45.673423122067724" lon="8.909313544832075"><ele>265.0</ele><time>2026-03-30T07:33:42.999Z</time></trkpt><trkpt lat="45.67349927812397" lon="8.909259651547677"><ele>265.0</ele><time>2026-03-30T07:33:43.999Z</time></trkpt><trkpt lat="45.67362752947479" lon="8.909198374220184"><ele>265.0</ele><time>2026-03-30T07:33:45.999Z</time></trkpt><trkpt lat="45.673723761718826" lon="8.909185477657033"><ele>265.0</ele><time>2026-03-30T07:33:46.999Z</time></trkpt><trkpt lat="45.673799708895274" lon="8.909162252549917"><ele>265.0</ele><time>2026-03-30T07:33:47.999Z</time></trkpt><trkpt lat="45.67386439471696" lon="8.909149738849983"><ele>265.66666666666663</ele><time>2026-03-30T07:33:48.999Z</time></trkpt><trkpt lat="45.67395519314977" lon="8.909103372617743"><ele>266.3333333333333</ele><time>2026-03-30T07:33:50.999Z</time></trkpt><trkpt lat="45.67401275665249" lon="8.909065909836762"><ele>267.0</ele><time>2026-03-30T07:33:51.999Z</time></trkpt><trkpt lat="45.67409096749494" lon="8.909018960115217"><ele>267.6666666666667</ele><time>2026-03-30T07:33:53.999Z</time></trkpt><trkpt lat="45.674211011760754" lon="8.908974607799774"><ele>268.33333333333337</ele><time>2026-03-30T07:33:55.999Z</time></trkpt><trkpt lat="45.674279293746125" lon="8.908915920217447"><ele>269.0</ele><time>2026-03-30T07:33:56.999Z</time></trkpt><trkpt lat="45.67438086975932" lon="8.908828721115276"><ele>268.5</ele><time>2026-03-30T07:33:58.999Z</time></trkpt><trkpt lat="45.67448117919195" lon="8.908805094879531"><ele>268.0</ele><time>2026-03-30T07:33:59.999Z</time></trkpt><trkpt lat="45.67454519980712" lon="8.908765676028665"><ele>267.5</ele><time>2026-03-30T07:34:00.999Z</time></trkpt><trkpt lat="45.67461538691537" lon="8.908717028847187"><ele>267.0</ele><time>2026-03-30T07:34:01.999Z</time></trkpt><trkpt lat="45.67470360355751" lon="8.908651245351251"><ele>266.5</ele><time>2026-03-30T07:34:02.999Z</time></trkpt><trkpt lat="45.67478369418187" lon="8.908603408636411"><ele>266.0</ele><time>2026-03-30T07:34:03.999Z</time></trkpt><trkpt lat="45.67486264896871" lon="8.908549587963845"><ele>266.0</ele><time>2026-03-30T07:34:04.999Z</time></trkpt><trkpt lat="45.674942167521664" lon="8.908501285419328"><ele>266.0</ele><time>2026-03-30T07:34:05.999Z</time></trkpt><trkpt lat="45.675024752746296" lon="8.908467922393456"><ele>266.0</ele><time>2026-03-30T07:34:06.999Z</time></trkpt><trkpt lat="45.675130716618824" lon="8.908408155567738"><ele>266.0</ele><time>2026-03-30T07:34:08.999Z</time></trkpt><trkpt lat="45.67523136428937" lon="8.90828309223493"><ele>266.0</ele><time>2026-03-30T07:34:10.999Z</time></trkpt><trkpt lat="45.67532797736238" lon="8.908257649070329"><ele>266.5</ele><time>2026-03-30T07:34:11.999Z</time></trkpt><trkpt lat="45.675400846946786" lon="8.908243983595844"><ele>267.0</ele><time>2026-03-30T07:34:12.999Z</time></trkpt><trkpt lat="45.67551692443684" lon="8.908230456488665"><ele>267.5</ele><time>2026-03-30T07:34:14.999Z</time></trkpt><trkpt lat="45.67557418468477" lon="8.908190051547274"><ele>268.0</ele><time>2026-03-30T07:34:15.999Z</time></trkpt><trkpt lat="45.675676061401774" lon="8.908158827850944"><ele>268.5</ele><time>2026-03-30T07:34:17.999Z</time></trkpt><trkpt lat="45.67573932298511" lon="8.908126526602286"><ele>269.0</ele><time>2026-03-30T07:34:18.999Z</time></trkpt><trkpt lat="45.675799275365996" lon="8.908078686845863"><ele>269.0</ele><time>2026-03-30T07:34:19.999Z</time></trkpt><trkpt lat="45.6758863403536" lon="8.9080094788691"><ele>269.0</ele><time>2026-03-30T07:34:21.999Z</time></trkpt><trkpt lat="45.675992613336796" lon="8.907946944240292"><ele>269.0</ele><time>2026-03-30T07:34:23.999Z</time></trkpt><trkpt lat="45.676066084665166" lon="8.9079258679255"><ele>269.0</ele><time>2026-03-30T07:34:24.999Z</time></trkpt><trkpt lat="45.676152528187565" lon="8.907912693147576"><ele>269.0</ele><time>2026-03-30T07:34:25.999Z</time></trkpt><trkpt lat="45.67629656414714" lon="8.90782146321693"><ele>269.8</ele><time>2026-03-30T07:34:27.999Z</time></trkpt><trkpt lat="45.67635735493956" lon="8.907795841007667"><ele>270.59999999999997</ele><time>2026-03-30T07:34:28.999Z</time></trkpt><trkpt lat="45.676429553672975" lon="8.907707972394306"><ele>271.4</ele><time>2026-03-30T07:34:30.999Z</time></trkpt><trkpt lat="45.676545897631385" lon="8.907677213686656"><ele>272.2</ele><time>2026-03-30T07:34:32.999Z</time></trkpt><trkpt lat="45.67660412827226" lon="8.907641951789286"><ele>273.0</ele><time>2026-03-30T07:34:33.999Z</time></trkpt><trkpt lat="45.676728535952684" lon="8.907580287151376"><ele>273.0</ele><time>2026-03-30T07:34:35.999Z</time></trkpt><trkpt lat="45.676859813888264" lon="8.90752679315013"><ele>273.0</ele><time>2026-03-30T07:34:37.998Z</time></trkpt><trkpt lat="45.676922189840376" lon="8.907486967679414"><ele>273.0</ele><time>2026-03-30T07:34:38.998Z</time></trkpt><trkpt lat="45.677047360576715" lon="8.907408814871442"><ele>273.0</ele><time>2026-03-30T07:34:40.998Z</time></trkpt><trkpt lat="45.67710361945033" lon="8.907364465410199"><ele>273.0</ele><time>2026-03-30T07:34:41.998Z</time></trkpt><trkpt lat="45.67717445727014" lon="8.907312848643155"><ele>273.0</ele><time>2026-03-30T07:34:43.998Z</time></trkpt><trkpt lat="45.677246006748256" lon="8.907277574632046"><ele>273.0</ele><time>2026-03-30T07:34:44.998Z</time></trkpt><trkpt lat="45.67730701742907" lon="8.90725260172995"><ele>273.0</ele><time>2026-03-30T07:34:45.998Z</time></trkpt><trkpt lat="45.67740960163124" lon="8.907209467991475"><ele>273.0</ele><time>2026-03-30T07:34:47.998Z</time></trkpt><trkpt lat="45.67750876647308" lon="8.907113663320317"><ele>273.0</ele><time>2026-03-30T07:34:50Z</time></trkpt><trkpt lat="45.677575138300995" lon="8.907058921540376"><ele>273.0</ele><time>2026-03-30T07:34:51Z</time></trkpt><trkpt lat="45.67764607678754" lon="8.907017592181253"><ele>273.0</ele><time>2026-03-30T07:34:52Z</time></trkpt><trkpt lat="45.677720796673235" lon="8.906983966592668"><ele>273.0</ele><time>2026-03-30T07:34:53Z</time></trkpt><trkpt lat="45.67778457704732" lon="8.906949104461797"><ele>273.0</ele><time>2026-03-30T07:34:54Z</time></trkpt><trkpt lat="45.677858692433226" lon="8.906919654668997"><ele>273.0</ele><time>2026-03-30T07:34:55Z</time></trkpt><trkpt lat="45.67796952989836" lon="8.906872027452096"><ele>273.0</ele><time>2026-03-30T07:34:57Z</time></trkpt><trkpt lat="45.67808321378963" lon="8.906842382446962"><ele>273.0</ele><time>2026-03-30T07:34:59Z</time></trkpt><trkpt lat="45.67821350949598" lon="8.906764065643642"><ele>273.0</ele><time>2026-03-30T07:35:01Z</time></trkpt><trkpt lat="45.67833311129061" lon="8.906691861569078"><ele>273.0</ele><time>2026-03-30T07:35:03Z</time></trkpt><trkpt lat="45.678434243594864" lon="8.906640617666842"><ele>273.0</ele><time>2026-03-30T07:35:05Z</time></trkpt><trkpt lat="45.67851639691471" lon="8.906609559512312"><ele>272.8</ele><time>2026-03-30T07:35:06Z</time></trkpt><trkpt lat="45.67862935265163" lon="8.90655729737234"><ele>272.6</ele><time>2026-03-30T07:35:08Z</time></trkpt><trkpt lat="45.6787012147339" lon="8.90650442931727"><ele>272.4</ele><time>2026-03-30T07:35:09Z</time></trkpt><trkpt lat="45.67879970531476" lon="8.906454588507607"><ele>272.2</ele><time>2026-03-30T07:35:11Z</time></trkpt><trkpt lat="45.67886538613877" lon="8.906441019762813"><ele>272.0</ele><time>2026-03-30T07:35:12Z</time></trkpt><trkpt lat="45.67895202152899" lon="8.90642898485397"><ele>272.0</ele><time>2026-03-30T07:35:13Z</time></trkpt><trkpt lat="45.6790295180826" lon="8.906391686291292"><ele>272.0</ele><time>2026-03-30T07:35:14Z</time></trkpt><trkpt lat="45.6791069401855" lon="8.906325806085725"><ele>272.0</ele><time>2026-03-30T07:35:15Z</time></trkpt><trkpt lat="45.67918996216662" lon="8.90624284133551"><ele>272.0</ele><time>2026-03-30T07:35:16Z</time></trkpt><trkpt lat="45.67928282011315" lon="8.90618734724467"><ele>272.0</ele><time>2026-03-30T07:35:17Z</time></trkpt><trkpt lat="45.67934819147839" lon="8.906164914895898"><ele>272.0</ele><time>2026-03-30T07:35:18Z</time></trkpt><trkpt lat="45.679420809103476" lon="8.906114097802806"><ele>272.2</ele><time>2026-03-30T07:35:19Z</time></trkpt><trkpt lat="45.6794713008464" lon="8.906055275193104"><ele>272.4</ele><time>2026-03-30T07:35:20Z</time></trkpt><trkpt lat="45.67954530362908" lon="8.90601944668423"><ele>272.6</ele><time>2026-03-30T07:35:21Z</time></trkpt><trkpt lat="45.679670399344126" lon="8.90600215619684"><ele>272.8</ele><time>2026-03-30T07:35:23Z</time></trkpt><trkpt lat="45.6797634236804" lon="8.905951174830003"><ele>273.0</ele><time>2026-03-30T07:35:25Z</time></trkpt><trkpt lat="45.67984247073768" lon="8.905908052519932"><ele>273.0</ele><time>2026-03-30T07:35:26Z</time></trkpt><trkpt lat="45.67991402506586" lon="8.905873036247058"><ele>273.0</ele><time>2026-03-30T07:35:27Z</time></trkpt><trkpt lat="45.680004639316785" lon="8.905829993917742"><ele>273.0</ele><time>2026-03-30T07:35:29Z</time></trkpt><trkpt lat="45.6800849963663" lon="8.905771059726574"><ele>273.0</ele><time>2026-03-30T07:35:30Z</time></trkpt><trkpt lat="45.68015712225642" lon="8.90572958208737"><ele>273.0</ele><time>2026-03-30T07:35:31Z</time></trkpt><trkpt lat="45.680221348051816" lon="8.905693530020866"><ele>273.0</ele><time>2026-03-30T07:35:32Z</time></trkpt><trkpt lat="45.68029190649466" lon="8.905666476454837"><ele>272.8333333333333</ele><time>2026-03-30T07:35:33Z</time></trkpt><trkpt lat="45.68035201679347" lon="8.905622279669213"><ele>272.6666666666667</ele><time>2026-03-30T07:35:34Z</time></trkpt><trkpt lat="45.6804151811652" lon="8.90558658306616"><ele>272.5</ele><time>2026-03-30T07:35:35Z</time></trkpt><trkpt lat="45.680517208641156" lon="8.905576456047884"><ele>272.33333333333337</ele><time>2026-03-30T07:35:36.999Z</time></trkpt><trkpt lat="45.68059366135084" lon="8.905492266322085"><ele>272.1666666666667</ele><time>2026-03-30T07:35:38.999Z</time></trkpt><trkpt lat="45.68069673860831" lon="8.905449334904425"><ele>272.0</ele><time>2026-03-30T07:35:40.999Z</time></trkpt><trkpt lat="45.68076588755381" lon="8.905412935977102"><ele>272.0</ele><time>2026-03-30T07:35:42.999Z</time></trkpt><trkpt lat="45.68083023173369" lon="8.905372824194961"><ele>272.0</ele><time>2026-03-30T07:35:44.999Z</time></trkpt><trkpt lat="45.68088657179769" lon="8.905316245640243"><ele>272.0</ele><time>2026-03-30T07:35:59.999Z</time></trkpt><trkpt lat="45.68094571670242" lon="8.905265960782064"><ele>272.0</ele><time>2026-03-30T07:36:09.999Z</time></trkpt><trkpt lat="45.681042007321125" lon="8.905194149003146"><ele>272.0</ele><time>2026-03-30T07:36:13.999Z</time></trkpt><trkpt lat="45.68111185904514" lon="8.905172600443223"><ele>272.0</ele><time>2026-03-30T07:36:17.999Z</time></trkpt><trkpt lat="45.681206846971655" lon="8.905150813905225"><ele>271.8</ele><time>2026-03-30T07:36:37.999Z</time></trkpt><trkpt lat="45.681282862707235" lon="8.905130854991743"><ele>271.6</ele><time>2026-03-30T07:36:39.999Z</time></trkpt><trkpt lat="45.68139469228703" lon="8.905095665429394"><ele>271.40000000000003</ele><time>2026-03-30T07:36:41.999Z</time></trkpt><trkpt lat="45.68146420446763" lon="8.905063724755301"><ele>271.2</ele><time>2026-03-30T07:36:43.998Z</time></trkpt><trkpt lat="45.68158391574544" lon="8.90499386069979"><ele>271.0</ele><time>2026-03-30T07:36:45.998Z</time></trkpt><trkpt lat="45.68170536705769" lon="8.904910208910126"><ele>271.16666666666663</ele><time>2026-03-30T07:36:47.998Z</time></trkpt><trkpt lat="45.681778388212194" lon="8.904845733373698"><ele>271.3333333333333</ele><time>2026-03-30T07:36:48.998Z</time></trkpt><trkpt lat="45.68185534271752" lon="8.90483091618991"><ele>271.5</ele><time>2026-03-30T07:36:49.998Z</time></trkpt><trkpt lat="45.68194136421792" lon="8.904809052472137"><ele>271.6666666666667</ele><time>2026-03-30T07:36:50.998Z</time></trkpt><trkpt lat="45.682036375241964" lon="8.904764078814022"><ele>271.83333333333337</ele><time>2026-03-30T07:36:52.998Z</time></trkpt><trkpt lat="45.68211505181882" lon="8.904718610522156"><ele>272.0</ele><time>2026-03-30T07:36:53.998Z</time></trkpt><trkpt lat="45.68217441028856" lon="8.90466929002734"><ele>272.0</ele><time>2026-03-30T07:36:55Z</time></trkpt><trkpt lat="45.682231145538914" lon="8.904630106001434"><ele>272.0</ele><time>2026-03-30T07:36:56Z</time></trkpt><trkpt lat="45.68234936630633" lon="8.90455863314403"><ele>272.0</ele><time>2026-03-30T07:36:58Z</time></trkpt><trkpt lat="45.68241152713627" lon="8.904526594653804"><ele>272.0</ele><time>2026-03-30T07:36:59Z</time></trkpt><trkpt lat="45.68248804670158" lon="8.904472944461327"><ele>272.0</ele><time>2026-03-30T07:37:00Z</time></trkpt><trkpt lat="45.68262165831652" lon="8.904406733766471"><ele>272.0</ele><time>2026-03-30T07:37:02Z</time></trkpt><trkpt lat="45.68271996432959" lon="8.904357656237332"><ele>272.0</ele><time>2026-03-30T07:37:04Z</time></trkpt><trkpt lat="45.68283138222406" lon="8.904357371136994"><ele>272.0</ele><time>2026-03-30T07:37:06Z</time></trkpt><trkpt lat="45.68294333804295" lon="8.904265378567509"><ele>272.0</ele><time>2026-03-30T07:37:08Z</time></trkpt><trkpt lat="45.68301579490808" lon="8.904236211623983"><ele>272.0</ele><time>2026-03-30T07:37:09Z</time></trkpt><trkpt lat="45.68313220760519" lon="8.904178394748557"><ele>272.83333333333337</ele><time>2026-03-30T07:37:11Z</time></trkpt><trkpt lat="45.68321275310444" lon="8.904135979912255"><ele>273.6666666666667</ele><time>2026-03-30T07:37:12Z</time></trkpt><trkpt lat="45.68327605090239" lon="8.904096413965675"><ele>274.5</ele><time>2026-03-30T07:37:13Z</time></trkpt><trkpt lat="45.68334159669651" lon="8.904074748037507"><ele>275.3333333333333</ele><time>2026-03-30T07:37:14Z</time></trkpt><trkpt lat="45.68340845365125" lon="8.904049020816899"><ele>276.16666666666663</ele><time>2026-03-30T07:37:15Z</time></trkpt><trkpt lat="45.68351079309737" lon="8.903997586617201"><ele>277.0</ele><time>2026-03-30T07:37:17Z</time></trkpt><trkpt lat="45.6835809782397" lon="8.903961447266632"><ele>277.0</ele><time>2026-03-30T07:37:20Z</time></trkpt><trkpt lat="45.683648621188205" lon="8.903931919172642"><ele>277.0</ele><time>2026-03-30T07:37:22Z</time></trkpt><trkpt lat="45.68371933270233" lon="8.903889128682097"><ele>277.0</ele><time>2026-03-30T07:37:24Z</time></trkpt><trkpt lat="45.683779565277426" lon="8.903860511245764"><ele>277.0</ele><time>2026-03-30T07:37:25Z</time></trkpt><trkpt lat="45.68385962692831" lon="8.903817379529023"><ele>277.0</ele><time>2026-03-30T07:37:27Z</time></trkpt><trkpt lat="45.68394951390318" lon="8.903759290165327"><ele>277.0</ele><time>2026-03-30T07:37:30Z</time></trkpt><trkpt lat="45.68404844303417" lon="8.903722904626546"><ele>277.0</ele><time>2026-03-30T07:37:32Z</time></trkpt><trkpt lat="45.684121219286006" lon="8.903686902214801"><ele>277.0</ele><time>2026-03-30T07:37:34Z</time></trkpt><trkpt lat="45.68419731479995" lon="8.903670776925544"><ele>277.0</ele><time>2026-03-30T07:37:36Z</time></trkpt><trkpt lat="45.68428204852915" lon="8.903604135417368"><ele>277.0</ele><time>2026-03-30T07:37:39Z</time></trkpt><trkpt lat="45.684365169978626" lon="8.903566212872303"><ele>277.0</ele><time>2026-03-30T07:37:41Z</time></trkpt><trkpt lat="45.68447404598358" lon="8.903511831159605"><ele>277.0</ele><time>2026-03-30T07:37:43Z</time></trkpt><trkpt lat="45.684562264969465" lon="8.903451430433877"><ele>277.0</ele><time>2026-03-30T07:37:44.999Z</time></trkpt><trkpt lat="45.68463505129105" lon="8.90342920695547"><ele>277.0</ele><time>2026-03-30T07:37:46.999Z</time></trkpt><trkpt lat="45.6847448407997" lon="8.903348543109276"><ele>277.0</ele><time>2026-03-30T07:37:48.999Z</time></trkpt><trkpt lat="45.684803461795624" lon="8.903313798616505"><ele>277.0</ele><time>2026-03-30T07:37:50.999Z</time></trkpt><trkpt lat="45.68486912580357" lon="8.903275745976943"><ele>277.0</ele><time>2026-03-30T07:37:52.999Z</time></trkpt><trkpt lat="45.68494232001326" lon="8.903221659126103"><ele>277.0</ele><time>2026-03-30T07:37:54.999Z</time></trkpt><trkpt lat="45.685052608709825" lon="8.903189220000648"><ele>277.0</ele><time>2026-03-30T07:37:56.999Z</time></trkpt><trkpt lat="45.685127313181155" lon="8.903138342876673"><ele>277.0</ele><time>2026-03-30T07:37:58.999Z</time></trkpt><trkpt lat="45.68519329669826" lon="8.903121182584336"><ele>277.0</ele><time>2026-03-30T07:37:59.999Z</time></trkpt><trkpt lat="45.68525611032945" lon="8.903075892314007"><ele>277.0</ele><time>2026-03-30T07:38:00.999Z</time></trkpt><trkpt lat="45.68536293025645" lon="8.903044146671494"><ele>277.0</ele><time>2026-03-30T07:38:02.999Z</time></trkpt><trkpt lat="45.68546954304206" lon="8.903023707810569"><ele>276.8</ele><time>2026-03-30T07:38:04.999Z</time></trkpt><trkpt lat="45.685558641801904" lon="8.902988165591864"><ele>276.6</ele><time>2026-03-30T07:38:06.999Z</time></trkpt><trkpt lat="45.68566164658675" lon="8.90292447370308"><ele>276.40000000000003</ele><time>2026-03-30T07:38:08.999Z</time></trkpt><trkpt lat="45.685762187683935" lon="8.90287773687281"><ele>276.2</ele><time>2026-03-30T07:38:10.999Z</time></trkpt><trkpt lat="45.685865850597075" lon="8.902831984390907"><ele>276.0</ele><time>2026-03-30T07:38:12.999Z</time></trkpt><trkpt lat="45.68592709558518" lon="8.902791008229794"><ele>276.0</ele><time>2026-03-30T07:38:14.999Z</time></trkpt><trkpt lat="45.68599301456204" lon="8.90275378079453"><ele>276.0</ele><time>2026-03-30T07:38:16.999Z</time></trkpt><trkpt lat="45.68608409090778" lon="8.902714054993226"><ele>276.0</ele><time>2026-03-30T07:38:19.999Z</time></trkpt><trkpt lat="45.686153941668465" lon="8.902684527080543"><ele>276.0</ele><time>2026-03-30T07:38:21.999Z</time></trkpt><trkpt lat="45.686220347856484" lon="8.90264556790415"><ele>276.0</ele><time>2026-03-30T07:38:24.999Z</time></trkpt><trkpt lat="45.686286575377366" lon="8.902619387529626"><ele>276.0</ele><time>2026-03-30T07:38:26.999Z</time></trkpt><trkpt lat="45.68639893346883" lon="8.90259192851825"><ele>276.1666666666667</ele><time>2026-03-30T07:38:28.999Z</time></trkpt><trkpt lat="45.68646768657924" lon="8.902542836212206"><ele>276.3333333333333</ele><time>2026-03-30T07:38:30.999Z</time></trkpt><trkpt lat="45.686530390372795" lon="8.902511781486583"><ele>276.5</ele><time>2026-03-30T07:38:31.999Z</time></trkpt><trkpt lat="45.68662143804409" lon="8.902439974430868"><ele>276.66666666666663</ele><time>2026-03-30T07:38:33.999Z</time></trkpt><trkpt lat="45.686729238018565" lon="8.902413271936561"><ele>276.8333333333333</ele><time>2026-03-30T07:38:35.999Z</time></trkpt><trkpt lat="45.68680389570032" lon="8.902353733356362"><ele>277.0</ele><time>2026-03-30T07:38:37.999Z</time></trkpt><trkpt lat="45.68688588033527" lon="8.902284649242961"><ele>277.2</ele><time>2026-03-30T07:38:41.999Z</time></trkpt><trkpt lat="45.68695584048472" lon="8.90222399671711"><ele>277.4</ele><time>2026-03-30T07:38:43.999Z</time></trkpt><trkpt lat="45.68701566181823" lon="8.902187258083892"><ele>277.6</ele><time>2026-03-30T07:38:46.999Z</time></trkpt><trkpt lat="45.68709828151182" lon="8.90212920251615"><ele>277.8</ele><time>2026-03-30T07:38:48.999Z</time></trkpt><trkpt lat="45.68718014148029" lon="8.902079426327228"><ele>278.0</ele><time>2026-03-30T07:38:50.998Z</time></trkpt><trkpt lat="45.68730326425417" lon="8.902032544695272"><ele>278.0</ele><time>2026-03-30T07:38:52.998Z</time></trkpt><trkpt lat="45.68739855105693" lon="8.902029502779726"><ele>278.0</ele><time>2026-03-30T07:38:55.998Z</time></trkpt><trkpt lat="45.687474631280516" lon="8.902000697008587"><ele>278.0</ele><time>2026-03-30T07:38:57.998Z</time></trkpt><trkpt lat="45.687568083670314" lon="8.901923914895079"><ele>278.0</ele><time>2026-03-30T07:39:02Z</time></trkpt><trkpt lat="45.68763245187897" lon="8.90189396608432"><ele>278.0</ele><time>2026-03-30T07:39:04Z</time></trkpt><trkpt lat="45.68771580194652" lon="8.901871209137822"><ele>278.0</ele><time>2026-03-30T07:39:05Z</time></trkpt><trkpt lat="45.68778185614168" lon="8.901834586275877"><ele>278.33333333333337</ele><time>2026-03-30T07:39:07Z</time></trkpt><trkpt lat="45.68786390305161" lon="8.90181939258211"><ele>278.6666666666667</ele><time>2026-03-30T07:39:09Z</time></trkpt><trkpt lat="45.687939259007415" lon="8.901760070497367"><ele>279.0</ele><time>2026-03-30T07:39:11Z</time></trkpt><trkpt lat="45.68801302954826" lon="8.901703949336985"><ele>279.3333333333333</ele><time>2026-03-30T07:39:13Z</time></trkpt><trkpt lat="45.68808045128062" lon="8.90169296064519"><ele>279.66666666666663</ele><time>2026-03-30T07:39:15Z</time></trkpt><trkpt lat="45.68815013305009" lon="8.90165518612125"><ele>280.0</ele><time>2026-03-30T07:39:17Z</time></trkpt><trkpt lat="45.688207642555206" lon="8.901611585143401"><ele>280.0</ele><time>2026-03-30T07:39:19Z</time></trkpt><trkpt lat="45.688282329861934" lon="8.901564884675443"><ele>280.0</ele><time>2026-03-30T07:39:21Z</time></trkpt><trkpt lat="45.68839314171941" lon="8.901508196875916"><ele>280.0</ele><time>2026-03-30T07:39:24Z</time></trkpt><trkpt lat="45.68853327215197" lon="8.901475540616005"><ele>280.0</ele><time>2026-03-30T07:39:28Z</time></trkpt><trkpt lat="45.688610964193984" lon="8.901436578661487"><ele>280.0</ele><time>2026-03-30T07:39:31Z</time></trkpt><trkpt lat="45.688732875676024" lon="8.901416590074618"><ele>280.0</ele><time>2026-03-30T07:39:35Z</time></trkpt><trkpt lat="45.6887992006141" lon="8.901388076037588"><ele>280.0</ele><time>2026-03-30T07:39:37Z</time></trkpt><trkpt lat="45.68886822659209" lon="8.901343874118577"><ele>280.0</ele><time>2026-03-30T07:39:39Z</time></trkpt><trkpt lat="45.68893286805339" lon="8.901288563353202"><ele>280.0</ele><time>2026-03-30T07:39:41Z</time></trkpt><trkpt lat="45.68901376836483" lon="8.901228164392311"><ele>280.0</ele><time>2026-03-30T07:39:44Z</time></trkpt><trkpt lat="45.6890747711918" lon="8.901191174377738"><ele>280.0</ele><time>2026-03-30T07:39:45.999Z</time></trkpt><trkpt lat="45.68914977609834" lon="8.901122084596638"><ele>280.0</ele><time>2026-03-30T07:39:48.999Z</time></trkpt><trkpt lat="45.689230382784196" lon="8.901093120893766"><ele>280.0</ele><time>2026-03-30T07:39:50.999Z</time></trkpt><trkpt lat="45.68930508578961" lon="8.901065918157462"><ele>280.0</ele><time>2026-03-30T07:39:52.999Z</time></trkpt><trkpt lat="45.68941258699793" lon="8.901043023624492"><ele>280.0</ele><time>2026-03-30T07:39:55.999Z</time></trkpt><trkpt lat="45.689478724538965" lon="8.901008458404151"><ele>280.0</ele><time>2026-03-30T07:39:57.999Z</time></trkpt><trkpt lat="45.689561979838615" lon="8.90094581193008"><ele>280.0</ele><time>2026-03-30T07:40:00.999Z</time></trkpt><trkpt lat="45.689632743738535" lon="8.900920415164688"><ele>280.4</ele><time>2026-03-30T07:40:03.999Z</time></trkpt><trkpt lat="45.689713940886946" lon="8.900876257570811"><ele>280.8</ele><time>2026-03-30T07:40:05.999Z</time></trkpt><trkpt lat="45.68982054086887" lon="8.90083579813049"><ele>281.2</ele><time>2026-03-30T07:40:07.999Z</time></trkpt><trkpt lat="45.689930624048365" lon="8.90079197583235"><ele>281.6</ele><time>2026-03-30T07:40:09.999Z</time></trkpt><trkpt lat="45.690019029553646" lon="8.900758854271551"><ele>282.0</ele><time>2026-03-30T07:40:11.999Z</time></trkpt><trkpt lat="45.69008496946436" lon="8.900700566958532"><ele>282.0</ele><time>2026-03-30T07:40:13.999Z</time></trkpt><trkpt lat="45.69020863998606" lon="8.900688105367323"><ele>282.0</ele><time>2026-03-30T07:40:20.999Z</time></trkpt><trkpt lat="45.69026984129032" lon="8.90075167840197"><ele>282.0</ele><time>2026-03-30T07:40:23.999Z</time></trkpt><trkpt lat="45.690371797947726" lon="8.900741303416376"><ele>282.0</ele><time>2026-03-30T07:40:28.999Z</time></trkpt><trkpt lat="45.69044059454853" lon="8.900728862666284"><ele>282.0</ele><time>2026-03-30T07:40:31.999Z</time></trkpt><trkpt lat="45.69050565687942" lon="8.900728275873073"><ele>282.0</ele><time>2026-03-30T07:40:35.999Z</time></trkpt><trkpt lat="45.69057712748742" lon="8.900717493637877"><ele>281.8333333333333</ele><time>2026-03-30T07:40:39.999Z</time></trkpt><trkpt lat="45.69064472706904" lon="8.900672604083308"><ele>281.6666666666667</ele><time>2026-03-30T07:40:50.998Z</time></trkpt><trkpt lat="45.69071036766781" lon="8.900602128604127"><ele>281.5</ele><time>2026-03-30T07:40:52.998Z</time></trkpt><trkpt lat="45.690796671070636" lon="8.90058703328065"><ele>281.33333333333337</ele><time>2026-03-30T07:40:55.998Z</time></trkpt><trkpt lat="45.69086652750045" lon="8.900586948056958"><ele>281.1666666666667</ele><time>2026-03-30T07:40:57.998Z</time></trkpt><trkpt lat="45.690937071060794" lon="8.900584604368522"><ele>281.0</ele><time>2026-03-30T07:40:59.998Z</time></trkpt><trkpt lat="45.691016506547044" lon="8.900587853957454"><ele>281.0</ele><time>2026-03-30T07:41:01.998Z</time></trkpt><trkpt lat="45.691099448072684" lon="8.900603970065342"><ele>281.0</ele><time>2026-03-30T07:41:03.998Z</time></trkpt><trkpt lat="45.691186447797186" lon="8.900649531214725"><ele>281.0</ele><time>2026-03-30T07:41:05.998Z</time></trkpt><trkpt lat="45.691259621425175" lon="8.900667787279007"><ele>281.0</ele><time>2026-03-30T07:41:08Z</time></trkpt><trkpt lat="45.69132827668375" lon="8.900638963354858"><ele>281.0</ele><time>2026-03-30T07:41:10Z</time></trkpt><trkpt lat="45.69136566128534" lon="8.900566108697205"><ele>281.0</ele><time>2026-03-30T07:41:12Z</time></trkpt><trkpt lat="45.691419982877385" lon="8.900506425098348"><ele>281.0</ele><time>2026-03-30T07:41:14Z</time></trkpt><trkpt lat="45.691518006717295" lon="8.900462023712777"><ele>281.0</ele><time>2026-03-30T07:41:17Z</time></trkpt><trkpt lat="45.69156363299737" lon="8.900390935427906"><ele>281.0</ele><time>2026-03-30T07:41:19Z</time></trkpt><trkpt lat="45.69168096271868" lon="8.90038661039905"><ele>281.0</ele><time>2026-03-30T07:41:25Z</time></trkpt><trkpt lat="45.691774063239635" lon="8.900410868998302"><ele>281.0</ele><time>2026-03-30T07:41:31Z</time></trkpt><trkpt lat="45.69200500532933" lon="8.900426144731648"><ele>281.8</ele><time>2026-03-30T07:41:36Z</time></trkpt><trkpt lat="45.69218543961962" lon="8.900385015083229"><ele>282.6</ele><time>2026-03-30T07:41:45Z</time></trkpt><trkpt lat="45.6922526433085" lon="8.900409533576061"><ele>283.4</ele><time>2026-03-30T07:42:43.999Z</time></trkpt><trkpt lat="45.69231689888019" lon="8.900466447891338"><ele>284.2</ele><time>2026-03-30T07:42:46.999Z</time></trkpt><trkpt lat="45.69239249149984" lon="8.900531613186713"><ele>285.0</ele><time>2026-03-30T07:42:49.999Z</time></trkpt><trkpt lat="45.69248840987589" lon="8.900617022857606"><ele>285.0</ele><time>2026-03-30T07:42:51.999Z</time></trkpt><trkpt lat="45.69258007678255" lon="8.900725849708028"><ele>285.0</ele><time>2026-03-30T07:42:53.999Z</time></trkpt><trkpt lat="45.69262501824813" lon="8.900805202587929"><ele>285.0</ele><time>2026-03-30T07:42:54.999Z</time></trkpt><trkpt lat="45.69270435069129" lon="8.900887866403624"><ele>285.0</ele><time>2026-03-30T07:42:56.998Z</time></trkpt><trkpt lat="45.69281416003333" lon="8.900949259297583"><ele>285.0</ele><time>2026-03-30T07:42:58.998Z</time></trkpt><trkpt lat="45.69290242268877" lon="8.901016167485116"><ele>285.4</ele><time>2026-03-30T07:42:59.998Z</time></trkpt><trkpt lat="45.692960673533676" lon="8.901090389643553"><ele>285.8</ele><time>2026-03-30T07:43:00.998Z</time></trkpt><trkpt lat="45.69303341279917" lon="8.901145814518197"><ele>286.2</ele><time>2026-03-30T07:43:02.998Z</time></trkpt><trkpt lat="45.69311510200113" lon="8.9011114128791"><ele>286.6</ele><time>2026-03-30T07:43:03.998Z</time></trkpt><trkpt lat="45.693238845104055" lon="8.901147749908397"><ele>287.0</ele><time>2026-03-30T07:43:05.998Z</time></trkpt><trkpt lat="45.693327801350634" lon="8.901156876327452"><ele>287.0</ele><time>2026-03-30T07:43:06.998Z</time></trkpt><trkpt lat="45.69341431214525" lon="8.901170517262171"><ele>287.0</ele><time>2026-03-30T07:43:07.998Z</time></trkpt><trkpt lat="45.6934999804315" lon="8.901228448791592"><ele>287.0</ele><time>2026-03-30T07:43:09.998Z</time></trkpt><trkpt lat="45.69358053758929" lon="8.901324441337515"><ele>287.0</ele><time>2026-03-30T07:43:11.998Z</time></trkpt><trkpt lat="45.693642724526455" lon="8.90134690672422"><ele>287.0</ele><time>2026-03-30T07:43:13Z</time></trkpt><trkpt lat="45.69373822199903" lon="8.901387576752665"><ele>286.6666666666667</ele><time>2026-03-30T07:43:15Z</time></trkpt><trkpt lat="45.69383690285061" lon="8.901402132308297"><ele>286.33333333333337</ele><time>2026-03-30T07:43:17Z</time></trkpt><trkpt lat="45.69390973420649" lon="8.901410810353946"><ele>286.0</ele><time>2026-03-30T07:43:19Z</time></trkpt><trkpt lat="45.69398322932215" lon="8.901422169330937"><ele>285.6666666666667</ele><time>2026-03-30T07:43:24Z</time></trkpt><trkpt lat="45.69405098898144" lon="8.901430319427904"><ele>285.3333333333333</ele><time>2026-03-30T07:43:32Z</time></trkpt><trkpt lat="45.69411819632916" lon="8.90141640223672"><ele>285.0</ele><time>2026-03-30T07:43:35Z</time></trkpt><trkpt lat="45.69420106961331" lon="8.901422224297043"><ele>285.0</ele><time>2026-03-30T07:43:38Z</time></trkpt><trkpt lat="45.69426615440674" lon="8.901405910478864"><ele>285.0</ele><time>2026-03-30T07:44:11.999Z</time></trkpt><trkpt lat="45.694322698797606" lon="8.901364297277606"><ele>285.0</ele><time>2026-03-30T07:44:20.999Z</time></trkpt><trkpt lat="45.69434939143799" lon="8.901278868688033"><ele>285.0</ele><time>2026-03-30T07:44:27.999Z</time></trkpt><trkpt lat="45.694383635513724" lon="8.901196471503376"><ele>285.0</ele><time>2026-03-30T07:44:39.999Z</time></trkpt><trkpt lat="45.69448152713044" lon="8.901180549380115"><ele>285.0</ele><time>2026-03-30T07:44:48.999Z</time></trkpt><trkpt lat="45.69456280514708" lon="8.90112555497008"><ele>285.5</ele><time>2026-03-30T07:44:50.999Z</time></trkpt><trkpt lat="45.69463843934512" lon="8.901090284574027"><ele>286.0</ele><time>2026-03-30T07:44:52.999Z</time></trkpt><trkpt lat="45.694748956169505" lon="8.901143872117345"><ele>286.5</ele><time>2026-03-30T07:44:58.999Z</time></trkpt><trkpt lat="45.69481276257234" lon="8.901127350518772"><ele>287.0</ele><time>2026-03-30T07:45:02.998Z</time></trkpt><trkpt lat="45.694839273499326" lon="8.901215773543823"><ele>287.5</ele><time>2026-03-30T07:45:05.998Z</time></trkpt><trkpt lat="45.694869727505846" lon="8.901310369740298"><ele>288.0</ele><time>2026-03-30T07:45:07.998Z</time></trkpt><trkpt lat="45.69490013200093" lon="8.901405670036796"><ele>288.0</ele><time>2026-03-30T07:45:09.998Z</time></trkpt><trkpt lat="45.6949655209409" lon="8.901420372145573"><ele>288.0</ele><time>2026-03-30T07:45:16.998Z</time></trkpt><trkpt lat="45.69503851842522" lon="8.901423332131506"><ele>288.0</ele><time>2026-03-30T07:45:22Z</time></trkpt><trkpt lat="45.695096661772965" lon="8.901388498746782"><ele>288.0</ele><time>2026-03-30T07:45:31Z</time></trkpt><trkpt lat="45.69517409534966" lon="8.901368600956939"><ele>288.0</ele><time>2026-03-30T07:45:55Z</time></trkpt><trkpt lat="45.6952528129916" lon="8.901345757314083"><ele>288.0</ele><time>2026-03-30T07:45:57Z</time></trkpt><trkpt lat="45.69535373991384" lon="8.90130898251222"><ele>288.0</ele><time>2026-03-30T07:45:59Z</time></trkpt><trkpt lat="45.69547245925735" lon="8.901264324840675"><ele>288.0</ele><time>2026-03-30T07:46:01Z</time></trkpt><trkpt lat="45.6955670318534" lon="8.90127077499103"><ele>288.0</ele><time>2026-03-30T07:46:02Z</time></trkpt><trkpt lat="45.695654689735534" lon="8.901235641597333"><ele>288.0</ele><time>2026-03-30T07:46:03.999Z</time></trkpt><trkpt lat="45.69574636574897" lon="8.90122600055494"><ele>288.0</ele><time>2026-03-30T07:46:05.999Z</time></trkpt><trkpt lat="45.695866457443515" lon="8.901177362990175"><ele>287.75</ele><time>2026-03-30T07:46:07.999Z</time></trkpt><trkpt lat="45.6960987457914" lon="8.901160482649367"><ele>287.5</ele><time>2026-03-30T07:46:09.999Z</time></trkpt><trkpt lat="45.69618828600232" lon="8.901126814542462"><ele>287.25</ele><time>2026-03-30T07:46:11.999Z</time></trkpt><trkpt lat="45.69629556048462" lon="8.901073990220386"><ele>287.0</ele><time>2026-03-30T07:46:13.999Z</time></trkpt><trkpt lat="45.69641974545637" lon="8.901020290601373"><ele>287.0</ele><time>2026-03-30T07:46:15.999Z</time></trkpt><trkpt lat="45.696500704152385" lon="8.900964832999824"><ele>287.0</ele><time>2026-03-30T07:46:17.999Z</time></trkpt><trkpt lat="45.69656180585128" lon="8.900913225689125"><ele>287.0</ele><time>2026-03-30T07:46:19.999Z</time></trkpt><trkpt lat="45.696615750472745" lon="8.90083478044084"><ele>287.0</ele><time>2026-03-30T07:46:22.999Z</time></trkpt><trkpt lat="45.696590561185815" lon="8.900708433142087"><ele>287.0</ele><time>2026-03-30T07:46:24.999Z</time></trkpt><trkpt lat="45.69656412234723" lon="8.900611185042456"><ele>287.0</ele><time>2026-03-30T07:46:25.999Z</time></trkpt><trkpt lat="45.696527747493434" lon="8.900482181706641"><ele>287.0</ele><time>2026-03-30T07:46:27.999Z</time></trkpt><trkpt lat="45.6965582678659" lon="8.900392517632408"><ele>287.0</ele><time>2026-03-30T07:46:29.999Z</time></trkpt><trkpt lat="45.696548930639885" lon="8.900295311286285"><ele>287.0</ele><time>2026-03-30T07:46:31.999Z</time></trkpt><trkpt lat="45.69652673906843" lon="8.900190659884206"><ele>287.0</ele><time>2026-03-30T07:46:34.999Z</time></trkpt><trkpt lat="45.696507170046615" lon="8.900101380520022"><ele>287.0</ele><time>2026-03-30T07:46:37.999Z</time></trkpt><trkpt lat="45.696471577361294" lon="8.899968309847555"><ele>287.0</ele><time>2026-03-30T07:46:39.999Z</time></trkpt><trkpt lat="45.696437561539696" lon="8.899832724553551"><ele>286.83333333333337</ele><time>2026-03-30T07:46:41.999Z</time></trkpt><trkpt lat="45.69641102055343" lon="8.899746893112091"><ele>286.6666666666667</ele><time>2026-03-30T07:46:42.999Z</time></trkpt><trkpt lat="45.69639519113538" lon="8.899642249902085"><ele>286.5</ele><time>2026-03-30T07:46:43.999Z</time></trkpt><trkpt lat="45.69638369753966" lon="8.899535728404484"><ele>286.3333333333333</ele><time>2026-03-30T07:46:44.999Z</time></trkpt><trkpt lat="45.69636808365322" lon="8.899427116345588"><ele>286.16666666666663</ele><time>2026-03-30T07:46:45.999Z</time></trkpt><trkpt lat="45.69634652847839" lon="8.89931577912965"><ele>286.0</ele><time>2026-03-30T07:46:46.999Z</time></trkpt><trkpt lat="45.69631582967363" lon="8.899197779338003"><ele>286.0</ele><time>2026-03-30T07:46:47.999Z</time></trkpt><trkpt lat="45.69627651729831" lon="8.89908839505244"><ele>286.0</ele><time>2026-03-30T07:46:48.999Z</time></trkpt><trkpt lat="45.6962408830399" lon="8.898988856907177"><ele>286.0</ele><time>2026-03-30T07:46:49.999Z</time></trkpt><trkpt lat="45.69620701966127" lon="8.898876300657907"><ele>286.0</ele><time>2026-03-30T07:46:50.999Z</time></trkpt><trkpt lat="45.696179633211905" lon="8.898736616397812"><ele>286.0</ele><time>2026-03-30T07:46:51.999Z</time></trkpt><trkpt lat="45.696167895592666" lon="8.89861671354249"><ele>286.0</ele><time>2026-03-30T07:46:52.999Z</time></trkpt><trkpt lat="45.69614380702763" lon="8.898502717052143"><ele>286.3333333333333</ele><time>2026-03-30T07:46:53.999Z</time></trkpt><trkpt lat="45.696116838529406" lon="8.898408232027988"><ele>286.66666666666663</ele><time>2026-03-30T07:46:54.999Z</time></trkpt><trkpt lat="45.6960824966757" lon="8.898297069069503"><ele>287.0</ele><time>2026-03-30T07:46:55.999Z</time></trkpt><trkpt lat="45.69606433963145" lon="8.898181467975729"><ele>287.3333333333333</ele><time>2026-03-30T07:46:56.999Z</time></trkpt><trkpt lat="45.69606246242091" lon="8.89807627933251"><ele>287.6666666666667</ele><time>2026-03-30T07:46:57.999Z</time></trkpt><trkpt lat="45.69603820740309" lon="8.897954587536352"><ele>288.0</ele><time>2026-03-30T07:46:58.999Z</time></trkpt><trkpt lat="45.69600856571143" lon="8.897850318987734"><ele>287.8</ele><time>2026-03-30T07:46:59.999Z</time></trkpt><trkpt lat="45.695971496129715" lon="8.897743034021786"><ele>287.6</ele><time>2026-03-30T07:47:00.999Z</time></trkpt><trkpt lat="45.6959500838709" lon="8.897631922494272"><ele>287.4</ele><time>2026-03-30T07:47:01.999Z</time></trkpt><trkpt lat="45.69591932304439" lon="8.897528306439987"><ele>287.2</ele><time>2026-03-30T07:47:02.999Z</time></trkpt><trkpt lat="45.6958853060161" lon="8.897379542834111"><ele>287.0</ele><time>2026-03-30T07:47:04.999Z</time></trkpt><trkpt lat="45.695813244877385" lon="8.897151744285834"><ele>287.0</ele><time>2026-03-30T07:47:06.999Z</time></trkpt><trkpt lat="45.695770397517435" lon="8.897011829263016"><ele>287.0</ele><time>2026-03-30T07:47:07.998Z</time></trkpt><trkpt lat="45.69575389791584" lon="8.896914505520451"><ele>287.0</ele><time>2026-03-30T07:47:08.998Z</time></trkpt><trkpt lat="45.695717889432" lon="8.89677381308175"><ele>287.0</ele><time>2026-03-30T07:47:10.998Z</time></trkpt><trkpt lat="45.69568397721247" lon="8.89667767557306"><ele>287.0</ele><time>2026-03-30T07:47:11.998Z</time></trkpt><trkpt lat="45.695657970263774" lon="8.896554683932223"><ele>287.0</ele><time>2026-03-30T07:47:12.998Z</time></trkpt><trkpt lat="45.695611128314425" lon="8.89633719967177"><ele>286.4</ele><time>2026-03-30T07:47:14.998Z</time></trkpt><trkpt lat="45.69557434118294" lon="8.89621124523858"><ele>285.79999999999995</ele><time>2026-03-30T07:47:15.998Z</time></trkpt><trkpt lat="45.69554844810955" lon="8.896075402658173"><ele>285.2</ele><time>2026-03-30T07:47:16.998Z</time></trkpt><trkpt lat="45.69551733002159" lon="8.89596195910539"><ele>284.59999999999997</ele><time>2026-03-30T07:47:17.998Z</time></trkpt><trkpt lat="45.69549267227521" lon="8.895844680178556"><ele>284.0</ele><time>2026-03-30T07:47:18.998Z</time></trkpt><trkpt lat="45.69545651764027" lon="8.895725962803779"><ele>284.1666666666667</ele><time>2026-03-30T07:47:19.998Z</time></trkpt><trkpt lat="45.695413632640474" lon="8.895598575886124"><ele>284.33333333333337</ele><time>2026-03-30T07:47:20.998Z</time></trkpt><trkpt lat="45.69538142240124" lon="8.895477117458832"><ele>284.5</ele><time>2026-03-30T07:47:21.998Z</time></trkpt><trkpt lat="45.69535940532909" lon="8.895359328791722"><ele>284.6666666666667</ele><time>2026-03-30T07:47:22.998Z</time></trkpt><trkpt lat="45.695323044461176" lon="8.89525299288675"><ele>284.8333333333333</ele><time>2026-03-30T07:47:23.998Z</time></trkpt><trkpt lat="45.695278130884844" lon="8.895156541143201"><ele>285.0</ele><time>2026-03-30T07:47:25Z</time></trkpt><trkpt lat="45.69523557207607" lon="8.895068024439665"><ele>285.0</ele><time>2026-03-30T07:47:26Z</time></trkpt><trkpt lat="45.695217335523594" lon="8.894967091773555"><ele>285.0</ele><time>2026-03-30T07:47:27Z</time></trkpt><trkpt lat="45.69518324116426" lon="8.894783876389354"><ele>285.0</ele><time>2026-03-30T07:47:28Z</time></trkpt><trkpt lat="45.695132231557366" lon="8.89470347576933"><ele>285.0</ele><time>2026-03-30T07:47:30Z</time></trkpt><trkpt lat="45.69518213303231" lon="8.894600002819846"><ele>285.0</ele><time>2026-03-30T07:47:33Z</time></trkpt><trkpt lat="45.69518056241315" lon="8.894288477804873"><ele>285.3333333333333</ele><time>2026-03-30T07:47:35Z</time></trkpt><trkpt lat="45.69511498914952" lon="8.894058772802772"><ele>285.66666666666663</ele><time>2026-03-30T07:47:36Z</time></trkpt><trkpt lat="45.69500735286973" lon="8.89387460857689"><ele>286.0</ele><time>2026-03-30T07:47:37Z</time></trkpt><trkpt lat="45.69491869925403" lon="8.89369610060391"><ele>286.0</ele><time>2026-03-30T07:47:38Z</time></trkpt><trkpt lat="45.69485371857422" lon="8.893550219179119"><ele>286.0</ele><time>2026-03-30T07:47:39Z</time></trkpt><trkpt lat="45.69481472970374" lon="8.893410480517645"><ele>286.0</ele><time>2026-03-30T07:47:40Z</time></trkpt><trkpt lat="45.69479734240825" lon="8.893281453254598"><ele>286.0</ele><time>2026-03-30T07:47:41Z</time></trkpt><trkpt lat="45.69479102868561" lon="8.893148197334934"><ele>286.0</ele><time>2026-03-30T07:47:42Z</time></trkpt><trkpt lat="45.69478345102024" lon="8.893014930716216"><ele>286.0</ele><time>2026-03-30T07:47:43Z</time></trkpt><trkpt lat="45.6947624208533" lon="8.892903343519441"><ele>286.0</ele><time>2026-03-30T07:47:44Z</time></trkpt><trkpt lat="45.694738793787955" lon="8.892785378265387"><ele>286.0</ele><time>2026-03-30T07:47:45Z</time></trkpt><trkpt lat="45.69471097007495" lon="8.892652475287639"><ele>286.0</ele><time>2026-03-30T07:47:46Z</time></trkpt><trkpt lat="45.69468455827312" lon="8.892533741512343"><ele>286.0</ele><time>2026-03-30T07:47:47Z</time></trkpt><trkpt lat="45.694674163659734" lon="8.892434938985911"><ele>286.0</ele><time>2026-03-30T07:47:48Z</time></trkpt><trkpt lat="45.694652891355425" lon="8.892301463171503"><ele>285.8</ele><time>2026-03-30T07:47:49Z</time></trkpt><trkpt lat="45.69460815679411" lon="8.892182087071884"><ele>285.6</ele><time>2026-03-30T07:47:50Z</time></trkpt><trkpt lat="45.69457601061745" lon="8.89203634790214"><ele>285.4</ele><time>2026-03-30T07:47:51Z</time></trkpt><trkpt lat="45.69453936511067" lon="8.891893144513226"><ele>285.2</ele><time>2026-03-30T07:47:52Z</time></trkpt><trkpt lat="45.69449980416753" lon="8.891758820497218"><ele>285.0</ele><time>2026-03-30T07:47:53Z</time></trkpt><trkpt lat="45.69447216186744" lon="8.891611152964662"><ele>285.4</ele><time>2026-03-30T07:47:54Z</time></trkpt><trkpt lat="45.69444167456643" lon="8.891485626270272"><ele>285.8</ele><time>2026-03-30T07:47:55Z</time></trkpt><trkpt lat="45.694401467846916" lon="8.89133511992681"><ele>286.2</ele><time>2026-03-30T07:47:56Z</time></trkpt><trkpt lat="45.69437537681503" lon="8.891206916386144"><ele>286.6</ele><time>2026-03-30T07:47:57Z</time></trkpt><trkpt lat="45.694366545898134" lon="8.89106699599207"><ele>287.0</ele><time>2026-03-30T07:47:58Z</time></trkpt><trkpt lat="45.69430438863583" lon="8.890940837477089"><ele>287.6</ele><time>2026-03-30T07:47:59Z</time></trkpt><trkpt lat="45.69425555940506" lon="8.890809345260275"><ele>288.2</ele><time>2026-03-30T07:48:00Z</time></trkpt><trkpt lat="45.69422494460522" lon="8.890687235174207"><ele>288.8</ele><time>2026-03-30T07:48:01Z</time></trkpt><trkpt lat="45.69417414392188" lon="8.8905491363511"><ele>289.4</ele><time>2026-03-30T07:48:02Z</time></trkpt><trkpt lat="45.694135785715815" lon="8.890402504272775"><ele>290.0</ele><time>2026-03-30T07:48:03Z</time></trkpt><trkpt lat="45.69409993026227" lon="8.890254357501462"><ele>290.0</ele><time>2026-03-30T07:48:04Z</time></trkpt><trkpt lat="45.694059242065876" lon="8.890116437112553"><ele>290.0</ele><time>2026-03-30T07:48:05Z</time></trkpt><trkpt lat="45.694022608709496" lon="8.889966131755695"><ele>290.0</ele><time>2026-03-30T07:48:06Z</time></trkpt><trkpt lat="45.69399105637834" lon="8.889818422800756"><ele>290.0</ele><time>2026-03-30T07:48:07Z</time></trkpt><trkpt lat="45.693959642757186" lon="8.889672769944825"><ele>290.0</ele><time>2026-03-30T07:48:08Z</time></trkpt><trkpt lat="45.69392645193929" lon="8.889531766680467"><ele>289.8</ele><time>2026-03-30T07:48:09Z</time></trkpt><trkpt lat="45.69388910584838" lon="8.889383335216744"><ele>289.6</ele><time>2026-03-30T07:48:10Z</time></trkpt><trkpt lat="45.693848881998264" lon="8.889252876033165"><ele>289.4</ele><time>2026-03-30T07:48:11Z</time></trkpt><trkpt lat="45.6937930759263" lon="8.8891178551114"><ele>289.2</ele><time>2026-03-30T07:48:12Z</time></trkpt><trkpt lat="45.693744320248875" lon="8.888993549397584"><ele>289.0</ele><time>2026-03-30T07:48:13Z</time></trkpt><trkpt lat="45.693699845972404" lon="8.888850996462416"><ele>289.0</ele><time>2026-03-30T07:48:13.999Z</time></trkpt><trkpt lat="45.69365488602819" lon="8.88869969439373"><ele>289.0</ele><time>2026-03-30T07:48:14.999Z</time></trkpt><trkpt lat="45.69364366753399" lon="8.888534023490484"><ele>289.0</ele><time>2026-03-30T07:48:15.999Z</time></trkpt><trkpt lat="45.69357758678563" lon="8.88838153232696"><ele>289.0</ele><time>2026-03-30T07:48:16.999Z</time></trkpt><trkpt lat="45.69353067298773" lon="8.888251224729675"><ele>288.0</ele><time>2026-03-30T07:48:17.999Z</time></trkpt><trkpt lat="45.693476255224866" lon="8.888104825640907"><ele>287.0</ele><time>2026-03-30T07:48:18.999Z</time></trkpt><trkpt lat="45.69339322435124" lon="8.887932854644806"><ele>286.0</ele><time>2026-03-30T07:48:19.999Z</time></trkpt><trkpt lat="45.693333127931865" lon="8.887787171265138"><ele>285.0</ele><time>2026-03-30T07:48:20.999Z</time></trkpt><trkpt lat="45.69329347155925" lon="8.887637628266138"><ele>285.75</ele><time>2026-03-30T07:48:21.999Z</time></trkpt><trkpt lat="45.6932471634849" lon="8.887506641342293"><ele>286.5</ele><time>2026-03-30T07:48:22.999Z</time></trkpt><trkpt lat="45.693217051071855" lon="8.887354441027513"><ele>287.25</ele><time>2026-03-30T07:48:23.999Z</time></trkpt><trkpt lat="45.693119753931214" lon="8.88721267480326"><ele>288.0</ele><time>2026-03-30T07:48:24.999Z</time></trkpt><trkpt lat="45.69304879167025" lon="8.88707826205702"><ele>288.0</ele><time>2026-03-30T07:48:25.999Z</time></trkpt><trkpt lat="45.692994995548226" lon="8.886967667673153"><ele>288.0</ele><time>2026-03-30T07:48:26.999Z</time></trkpt><trkpt lat="45.69295512245358" lon="8.886863978245358"><ele>288.0</ele><time>2026-03-30T07:48:27.999Z</time></trkpt><trkpt lat="45.69291482865588" lon="8.886757758930349"><ele>288.0</ele><time>2026-03-30T07:48:28.999Z</time></trkpt><trkpt lat="45.692856428854824" lon="8.886628159014167"><ele>288.0</ele><time>2026-03-30T07:48:30.999Z</time></trkpt><trkpt lat="45.692813299889806" lon="8.886506973291596"><ele>287.8</ele><time>2026-03-30T07:48:34.999Z</time></trkpt><trkpt lat="45.6927918956788" lon="8.886398243299515"><ele>287.6</ele><time>2026-03-30T07:48:36.999Z</time></trkpt><trkpt lat="45.69275379803953" lon="8.886218574210172"><ele>287.4</ele><time>2026-03-30T07:48:38.999Z</time></trkpt><trkpt lat="45.69273515173097" lon="8.886107439156051"><ele>287.2</ele><time>2026-03-30T07:48:39.999Z</time></trkpt><trkpt lat="45.69271070230348" lon="8.885986299519114"><ele>287.0</ele><time>2026-03-30T07:48:40.999Z</time></trkpt><trkpt lat="45.69267768343733" lon="8.885861652680374"><ele>286.2</ele><time>2026-03-30T07:48:41.999Z</time></trkpt><trkpt lat="45.692641066605496" lon="8.885743785629883"><ele>285.4</ele><time>2026-03-30T07:48:42.999Z</time></trkpt><trkpt lat="45.69259567372066" lon="8.885626102203771"><ele>284.6</ele><time>2026-03-30T07:48:43.999Z</time></trkpt><trkpt lat="45.692562437040884" lon="8.885508393198933"><ele>283.8</ele><time>2026-03-30T07:48:44.999Z</time></trkpt><trkpt lat="45.69252551394803" lon="8.885389905404615"><ele>283.0</ele><time>2026-03-30T07:48:45.999Z</time></trkpt><trkpt lat="45.69248550504068" lon="8.885266269750963"><ele>283.0</ele><time>2026-03-30T07:48:46.999Z</time></trkpt><trkpt lat="45.692444433702" lon="8.885148052212507"><ele>283.0</ele><time>2026-03-30T07:48:47.999Z</time></trkpt><trkpt lat="45.69241706864579" lon="8.885013221522234"><ele>283.0</ele><time>2026-03-30T07:48:48.999Z</time></trkpt><trkpt lat="45.69238206766752" lon="8.884891735807077"><ele>283.0</ele><time>2026-03-30T07:48:49.999Z</time></trkpt><trkpt lat="45.69234953303037" lon="8.884788964836394"><ele>283.0</ele><time>2026-03-30T07:48:50.999Z</time></trkpt><trkpt lat="45.69231694046173" lon="8.884676433762802"><ele>283.0</ele><time>2026-03-30T07:48:51.999Z</time></trkpt><trkpt lat="45.692284442525846" lon="8.884556519909461"><ele>283.6</ele><time>2026-03-30T07:48:52.999Z</time></trkpt><trkpt lat="45.69224730183509" lon="8.884435901540611"><ele>284.20000000000005</ele><time>2026-03-30T07:48:53.999Z</time></trkpt><trkpt lat="45.69221061116318" lon="8.884312544831849"><ele>284.8</ele><time>2026-03-30T07:48:54.999Z</time></trkpt><trkpt lat="45.69217541480944" lon="8.884194922313377"><ele>285.40000000000003</ele><time>2026-03-30T07:48:55.999Z</time></trkpt><trkpt lat="45.69213958818871" lon="8.884079753039817"><ele>286.0</ele><time>2026-03-30T07:48:56.999Z</time></trkpt><trkpt lat="45.69209874802112" lon="8.883957642544415"><ele>286.2</ele><time>2026-03-30T07:48:57.999Z</time></trkpt><trkpt lat="45.69208754806378" lon="8.883847535159374"><ele>286.40000000000003</ele><time>2026-03-30T07:48:58.999Z</time></trkpt><trkpt lat="45.69205260277721" lon="8.883728536969322"><ele>286.6</ele><time>2026-03-30T07:48:59.999Z</time></trkpt><trkpt lat="45.69204094034264" lon="8.883604556742151"><ele>286.8</ele><time>2026-03-30T07:49:00.999Z</time></trkpt><trkpt lat="45.692003898724074" lon="8.883486411383558"><ele>287.0</ele><time>2026-03-30T07:49:01.999Z</time></trkpt><trkpt lat="45.69192576311033" lon="8.88337807509061"><ele>286.4</ele><time>2026-03-30T07:49:02.999Z</time></trkpt><trkpt lat="45.69184537335673" lon="8.88326310672543"><ele>285.79999999999995</ele><time>2026-03-30T07:49:03.999Z</time></trkpt><trkpt lat="45.69178928511064" lon="8.883143916769123"><ele>285.2</ele><time>2026-03-30T07:49:04.999Z</time></trkpt><trkpt lat="45.69172837850131" lon="8.883023101789448"><ele>284.59999999999997</ele><time>2026-03-30T07:49:05.999Z</time></trkpt><trkpt lat="45.691663174950726" lon="8.88289753188467"><ele>284.0</ele><time>2026-03-30T07:49:06.999Z</time></trkpt><trkpt lat="45.691609267596164" lon="8.882771354802374"><ele>284.0</ele><time>2026-03-30T07:49:07.999Z</time></trkpt><trkpt lat="45.691561918651615" lon="8.88266037094191"><ele>284.0</ele><time>2026-03-30T07:49:08.999Z</time></trkpt><trkpt lat="45.69152236172323" lon="8.882549770182797"><ele>284.0</ele><time>2026-03-30T07:49:09.999Z</time></trkpt><trkpt lat="45.691490019831214" lon="8.88246901111706"><ele>284.0</ele><time>2026-03-30T07:49:10.999Z</time></trkpt><trkpt lat="45.69145614920044" lon="8.88239117322914"><ele>284.0</ele><time>2026-03-30T07:49:11.999Z</time></trkpt><trkpt lat="45.69133903115409" lon="8.882206093887737"><ele>284.0</ele><time>2026-03-30T07:49:12.999Z</time></trkpt><trkpt lat="45.69127035936851" lon="8.882074288693962"><ele>284.0</ele><time>2026-03-30T07:49:13.999Z</time></trkpt><trkpt lat="45.69122818833146" lon="8.881973210382595"><ele>284.0</ele><time>2026-03-30T07:49:14.999Z</time></trkpt><trkpt lat="45.691199520687384" lon="8.881851179923364"><ele>284.0</ele><time>2026-03-30T07:49:15.999Z</time></trkpt><trkpt lat="45.69111926059361" lon="8.88168710954565"><ele>284.0</ele><time>2026-03-30T07:49:16.999Z</time></trkpt><trkpt lat="45.6910688669337" lon="8.881558224929474"><ele>283.0</ele><time>2026-03-30T07:49:17.999Z</time></trkpt><trkpt lat="45.69101968952289" lon="8.881473206347374"><ele>282.0</ele><time>2026-03-30T07:49:18.999Z</time></trkpt><trkpt lat="45.69092419898865" lon="8.881409754783668"><ele>281.0</ele><time>2026-03-30T07:49:20.998Z</time></trkpt><trkpt lat="45.690774007903514" lon="8.881343165317512"><ele>280.0</ele><time>2026-03-30T07:49:22.998Z</time></trkpt><trkpt lat="45.69067108824242" lon="8.881353441078348"><ele>279.0</ele><time>2026-03-30T07:49:23.998Z</time></trkpt><trkpt lat="45.69056679429751" lon="8.881366731417991"><ele>279.0</ele><time>2026-03-30T07:49:24.998Z</time></trkpt><trkpt lat="45.69046288680849" lon="8.881400167513046"><ele>279.0</ele><time>2026-03-30T07:49:25.998Z</time></trkpt><trkpt lat="45.69035311968669" lon="8.881414146785655"><ele>279.0</ele><time>2026-03-30T07:49:26.998Z</time></trkpt><trkpt lat="45.6902427652482" lon="8.881426199031148"><ele>279.0</ele><time>2026-03-30T07:49:27.998Z</time></trkpt><trkpt lat="45.69013497769821" lon="8.881443200230402"><ele>279.0</ele><time>2026-03-30T07:49:28.998Z</time></trkpt><trkpt lat="45.69002024887198" lon="8.881438540690406"><ele>279.4</ele><time>2026-03-30T07:49:29.998Z</time></trkpt><trkpt lat="45.689931458955165" lon="8.881469269223581"><ele>279.79999999999995</ele><time>2026-03-30T07:49:31Z</time></trkpt><trkpt lat="45.68984725544641" lon="8.88145909113864"><ele>280.20000000000005</ele><time>2026-03-30T07:49:32Z</time></trkpt><trkpt lat="45.68972796527095" lon="8.881486500078436"><ele>280.6</ele><time>2026-03-30T07:49:34Z</time></trkpt><trkpt lat="45.68965080880951" lon="8.881519982095512"><ele>281.0</ele><time>2026-03-30T07:49:36Z</time></trkpt><trkpt lat="45.68968822722976" lon="8.88141661461029"><ele>281.0</ele><time>2026-03-30T07:49:40Z</time></trkpt><trkpt lat="45.68973841645898" lon="8.881318545424671"><ele>281.0</ele><time>2026-03-30T07:49:41Z</time></trkpt><trkpt lat="45.68979500364059" lon="8.881201696740492"><ele>281.0</ele><time>2026-03-30T07:49:42Z</time></trkpt><trkpt lat="45.68986142516615" lon="8.881050691818684"><ele>281.0</ele><time>2026-03-30T07:49:43Z</time></trkpt><trkpt lat="45.68991090280904" lon="8.880908791265716"><ele>281.0</ele><time>2026-03-30T07:49:44Z</time></trkpt><trkpt lat="45.68995008843839" lon="8.880748691470188"><ele>280.6</ele><time>2026-03-30T07:49:45Z</time></trkpt><trkpt lat="45.6899775923052" lon="8.880581944404081"><ele>280.20000000000005</ele><time>2026-03-30T07:49:46Z</time></trkpt><trkpt lat="45.69000919334369" lon="8.88042307682491"><ele>279.79999999999995</ele><time>2026-03-30T07:49:47Z</time></trkpt><trkpt lat="45.690032396337756" lon="8.880301479177755"><ele>279.4</ele><time>2026-03-30T07:49:48Z</time></trkpt><trkpt lat="45.690069852559226" lon="8.88016378597773"><ele>279.0</ele><time>2026-03-30T07:49:49Z</time></trkpt><trkpt lat="45.69010980058494" lon="8.880034443622527"><ele>277.4</ele><time>2026-03-30T07:49:50Z</time></trkpt><trkpt lat="45.69016731413668" lon="8.879936009581437"><ele>275.79999999999995</ele><time>2026-03-30T07:49:51Z</time></trkpt><trkpt lat="45.69023881824257" lon="8.879857456739755"><ele>274.20000000000005</ele><time>2026-03-30T07:49:52Z</time></trkpt><trkpt lat="45.69033034870837" lon="8.87982264895219"><ele>272.6</ele><time>2026-03-30T07:49:53Z</time></trkpt><trkpt lat="45.690425205716465" lon="8.879745535705048"><ele>271.0</ele><time>2026-03-30T07:49:54Z</time></trkpt><trkpt lat="45.69051120320961" lon="8.87967922341403"><ele>271.0</ele><time>2026-03-30T07:49:55Z</time></trkpt><trkpt lat="45.69060815121804" lon="8.879645524350527"><ele>271.0</ele><time>2026-03-30T07:49:56Z</time></trkpt><trkpt lat="45.69069593394185" lon="8.87957661748946"><ele>271.0</ele><time>2026-03-30T07:49:57Z</time></trkpt><trkpt lat="45.690795702203935" lon="8.879520914985596"><ele>271.0</ele><time>2026-03-30T07:49:58Z</time></trkpt><trkpt lat="45.69089687397826" lon="8.879489792094631"><ele>271.0</ele><time>2026-03-30T07:49:59Z</time></trkpt><trkpt lat="45.69097997520196" lon="8.879418830868252"><ele>271.0</ele><time>2026-03-30T07:50:00Z</time></trkpt><trkpt lat="45.691063778503626" lon="8.879370884289626"><ele>271.0</ele><time>2026-03-30T07:50:01Z</time></trkpt><trkpt lat="45.69113741952031" lon="8.87935369302182"><ele>271.0</ele><time>2026-03-30T07:50:02Z</time></trkpt><trkpt lat="45.69120778193691" lon="8.879292389334667"><ele>271.0</ele><time>2026-03-30T07:50:03Z</time></trkpt><trkpt lat="45.69126802924489" lon="8.87926241663363"><ele>271.0</ele><time>2026-03-30T07:50:04Z</time></trkpt><trkpt lat="45.69134045171688" lon="8.879229940239082"><ele>271.0</ele><time>2026-03-30T07:50:05Z</time></trkpt><trkpt lat="45.691432346200635" lon="8.87917714681774"><ele>269.2857142857143</ele><time>2026-03-30T07:50:07Z</time></trkpt><trkpt lat="45.69150430920325" lon="8.879129873482942"><ele>267.57142857142856</ele><time>2026-03-30T07:50:09Z</time></trkpt><trkpt lat="45.6915682437212" lon="8.879119610360041"><ele>265.8571428571429</ele><time>2026-03-30T07:50:11Z</time></trkpt><trkpt lat="45.69162331415473" lon="8.879052860987342"><ele>264.1428571428571</ele><time>2026-03-30T07:50:18.999Z</time></trkpt><trkpt lat="45.69163372306234" lon="8.878962011797292"><ele>262.42857142857144</ele><time>2026-03-30T07:50:29.999Z</time></trkpt><trkpt lat="45.69165977769278" lon="8.878852142778147"><ele>260.7142857142857</ele><time>2026-03-30T07:50:38.999Z</time></trkpt><trkpt lat="45.69166236372245" lon="8.878760452641481"><ele>259.0</ele><time>2026-03-30T07:50:41.999Z</time></trkpt><trkpt lat="45.691670937367476" lon="8.87865678702561"><ele>259.0</ele><time>2026-03-30T07:50:45.999Z</time></trkpt><trkpt lat="45.69158726666129" lon="8.878583915677693"><ele>259.0</ele><time>2026-03-30T07:50:54.999Z</time></trkpt><trkpt lat="45.69152520781596" lon="8.87853679290092"><ele>259.0</ele><time>2026-03-30T07:50:56.999Z</time></trkpt><trkpt lat="45.69150939159766" lon="8.878440865118332"><ele>259.0</ele><time>2026-03-30T07:51:18.999Z</time></trkpt><trkpt lat="45.69152809173154" lon="8.878344468514523"><ele>259.0</ele><time>2026-03-30T07:51:21.999Z</time></trkpt><trkpt lat="45.69159961006716" lon="8.87824714902289"><ele>259.0</ele><time>2026-03-30T07:51:24.998Z</time></trkpt><trkpt lat="45.69169538539317" lon="8.878263152092359"><ele>255.79999999999998</ele><time>2026-03-30T07:52:00Z</time></trkpt><trkpt lat="45.69187903334247" lon="8.878242691906896"><ele>252.59999999999997</ele><time>2026-03-30T07:53:15.999Z</time></trkpt><trkpt lat="45.691943849816575" lon="8.87822558635285"><ele>249.4</ele><time>2026-03-30T07:53:16.999Z</time></trkpt><trkpt lat="45.69201637414952" lon="8.878213604274647"><ele>246.2</ele><time>2026-03-30T07:53:17.999Z</time></trkpt><trkpt lat="45.692083077363186" lon="8.87820157000257"><ele>243.0</ele><time>2026-03-30T07:53:18.999Z</time></trkpt><trkpt lat="45.69216541424367" lon="8.878153629177197"><ele>243.0</ele><time>2026-03-30T07:53:20.999Z</time></trkpt><trkpt lat="45.69219908792413" lon="8.878055869911172"><ele>243.0</ele><time>2026-03-30T07:53:22.999Z</time></trkpt><trkpt lat="45.692201011031464" lon="8.877963878526156"><ele>243.0</ele><time>2026-03-30T07:53:23.999Z</time></trkpt><trkpt lat="45.69218053095142" lon="8.877858705093011"><ele>243.0</ele><time>2026-03-30T07:53:24.999Z</time></trkpt><trkpt lat="45.692143013342964" lon="8.877744775747969"><ele>243.0</ele><time>2026-03-30T07:53:25.999Z</time></trkpt><trkpt lat="45.69212591706959" lon="8.877599786530665"><ele>243.0</ele><time>2026-03-30T07:53:26.999Z</time></trkpt><trkpt lat="45.69209581732302" lon="8.877460159281174"><ele>241.60000000000002</ele><time>2026-03-30T07:53:27.999Z</time></trkpt><trkpt lat="45.69206396298124" lon="8.877309774595398"><ele>240.20000000000002</ele><time>2026-03-30T07:53:28.999Z</time></trkpt><trkpt lat="45.69205525691599" lon="8.877152250911058"><ele>238.8</ele><time>2026-03-30T07:53:29.999Z</time></trkpt><trkpt lat="45.692034858231196" lon="8.877026754644229"><ele>237.4</ele><time>2026-03-30T07:53:30.998Z</time></trkpt><trkpt lat="45.69201509719901" lon="8.876905087260809"><ele>236.0</ele><time>2026-03-30T07:53:31.998Z</time></trkpt><trkpt lat="45.691997344494375" lon="8.87679515289343"><ele>235.8</ele><time>2026-03-30T07:53:32.998Z</time></trkpt><trkpt lat="45.69197795774414" lon="8.87666911132185"><ele>235.60000000000002</ele><time>2026-03-30T07:53:33.998Z</time></trkpt><trkpt lat="45.69195926442081" lon="8.876542594429127"><ele>235.4</ele><time>2026-03-30T07:53:34.998Z</time></trkpt><trkpt lat="45.69193811616129" lon="8.876409327735013"><ele>235.2</ele><time>2026-03-30T07:53:35.998Z</time></trkpt><trkpt lat="45.69190006258847" lon="8.876274958279938"><ele>235.0</ele><time>2026-03-30T07:53:36.998Z</time></trkpt><trkpt lat="45.691885353438174" lon="8.876156146491088"><ele>234.99999999999997</ele><time>2026-03-30T07:53:37.998Z</time></trkpt><trkpt lat="45.691877910209605" lon="8.876058547339293"><ele>235.0</ele><time>2026-03-30T07:53:38.998Z</time></trkpt><trkpt lat="45.69187438933902" lon="8.875963841031778"><ele>235.0</ele><time>2026-03-30T07:53:39.998Z</time></trkpt><trkpt lat="45.69189605356556" lon="8.875797309196551"><ele>235.0</ele><time>2026-03-30T07:53:41.998Z</time></trkpt><trkpt lat="45.69193462878962" lon="8.875711224660472"><ele>234.99999999999997</ele><time>2026-03-30T07:53:43Z</time></trkpt><trkpt lat="45.69197357198541" lon="8.875621456559557"><ele>235.0</ele><time>2026-03-30T07:53:44Z</time></trkpt><trkpt lat="45.69204206904214" lon="8.875551279273406"><ele>235.8</ele><time>2026-03-30T07:53:45Z</time></trkpt><trkpt lat="45.69211349329162" lon="8.875500678423046"><ele>236.6</ele><time>2026-03-30T07:53:46Z</time></trkpt><trkpt lat="45.692197090894545" lon="8.875460038834028"><ele>237.39999999999998</ele><time>2026-03-30T07:53:47Z</time></trkpt><trkpt lat="45.6922943584697" lon="8.875446438295324"><ele>238.2</ele><time>2026-03-30T07:53:48Z</time></trkpt><trkpt lat="45.69239782712957" lon="8.875446277067777"><ele>239.0</ele><time>2026-03-30T07:53:49Z</time></trkpt><trkpt lat="45.69248723017056" lon="8.875466638825843"><ele>239.0</ele><time>2026-03-30T07:53:50Z</time></trkpt><trkpt lat="45.69256738666924" lon="8.875484196521741"><ele>238.99999999999997</ele><time>2026-03-30T07:53:51Z</time></trkpt><trkpt lat="45.692637816086865" lon="8.875495542960982"><ele>238.99999999999997</ele><time>2026-03-30T07:53:52Z</time></trkpt><trkpt lat="45.69270181342836" lon="8.875484249572365"><ele>239.0</ele><time>2026-03-30T07:53:53Z</time></trkpt><trkpt lat="45.69279013992561" lon="8.875464722610666"><ele>239.0</ele><time>2026-03-30T07:53:55Z</time></trkpt><trkpt lat="45.69277255247581" lon="8.875204691476021"><ele>239.00000000000003</ele><time>2026-03-30T07:53:59Z</time></trkpt><trkpt lat="45.69272197885292" lon="8.875142283776524"><ele>239.0</ele><time>2026-03-30T07:54:00Z</time></trkpt><trkpt lat="45.69266651971086" lon="8.87507956075085"><ele>239.0</ele><time>2026-03-30T07:54:01Z</time></trkpt><trkpt lat="45.69260662773812" lon="8.8749935358392"><ele>239.0</ele><time>2026-03-30T07:54:02Z</time></trkpt><trkpt lat="45.69254058090057" lon="8.874888890962623"><ele>239.00000000000003</ele><time>2026-03-30T07:54:03Z</time></trkpt><trkpt lat="45.69246442906945" lon="8.87478645977825"><ele>239.0</ele><time>2026-03-30T07:54:04Z</time></trkpt><trkpt lat="45.692377003728744" lon="8.874684328231368"><ele>241.75</ele><time>2026-03-30T07:54:05Z</time></trkpt><trkpt lat="45.692284170573735" lon="8.874592687451651"><ele>244.5</ele><time>2026-03-30T07:54:06Z</time></trkpt><trkpt lat="45.69217977716556" lon="8.874497903478288"><ele>247.25</ele><time>2026-03-30T07:54:07Z</time></trkpt><trkpt lat="45.69207727552059" lon="8.874420132807863"><ele>250.0</ele><time>2026-03-30T07:54:08Z</time></trkpt><trkpt lat="45.69196181449812" lon="8.87435628761954"><ele>248.0</ele><time>2026-03-30T07:54:09Z</time></trkpt><trkpt lat="45.69183322791851" lon="8.874322495652676"><ele>246.0</ele><time>2026-03-30T07:54:10Z</time></trkpt><trkpt lat="45.6917067159962" lon="8.874268323653103"><ele>244.0</ele><time>2026-03-30T07:54:11Z</time></trkpt><trkpt lat="45.69157664090258" lon="8.87424860905884"><ele>242.0</ele><time>2026-03-30T07:54:12Z</time></trkpt><trkpt lat="45.69144662867913" lon="8.874219404905801"><ele>245.6</ele><time>2026-03-30T07:54:13Z</time></trkpt><trkpt lat="45.69132145382366" lon="8.874190425721272"><ele>249.2</ele><time>2026-03-30T07:54:14Z</time></trkpt><trkpt lat="45.69122332534625" lon="8.874167325949164"><ele>252.8</ele><time>2026-03-30T07:54:15Z</time></trkpt><trkpt lat="45.69113785288094" lon="8.874153318331107"><ele>256.4</ele><time>2026-03-30T07:54:16Z</time></trkpt><trkpt lat="45.69106133570466" lon="8.874115625402888"><ele>260.0</ele><time>2026-03-30T07:54:17Z</time></trkpt><trkpt lat="45.690974315723444" lon="8.874094163839738"><ele>260.0</ele><time>2026-03-30T07:54:18Z</time></trkpt><trkpt lat="45.69087647706179" lon="8.874090107698567"><ele>260.0</ele><time>2026-03-30T07:54:19Z</time></trkpt><trkpt lat="45.690787213265956" lon="8.874054990637202"><ele>260.0</ele><time>2026-03-30T07:54:20Z</time></trkpt><trkpt lat="45.6906954604339" lon="8.874018300206876"><ele>260.0</ele><time>2026-03-30T07:54:21Z</time></trkpt><trkpt lat="45.690604786213946" lon="8.873959048071592"><ele>260.0</ele><time>2026-03-30T07:54:22Z</time></trkpt><trkpt lat="45.69051921442391" lon="8.873881518083042"><ele>260.0</ele><time>2026-03-30T07:54:23Z</time></trkpt><trkpt lat="45.69045458338975" lon="8.873765258440178"><ele>260.0</ele><time>2026-03-30T07:54:24Z</time></trkpt><trkpt lat="45.6904030517318" lon="8.873676548267253"><ele>260.0</ele><time>2026-03-30T07:54:25Z</time></trkpt><trkpt lat="45.690374326818066" lon="8.873578331375025"><ele>260.0</ele><time>2026-03-30T07:54:26Z</time></trkpt><trkpt lat="45.69034897858657" lon="8.873461113928709"><ele>260.0</ele><time>2026-03-30T07:54:27Z</time></trkpt><trkpt lat="45.69033278149932" lon="8.873329557732774"><ele>260.0</ele><time>2026-03-30T07:54:28Z</time></trkpt><trkpt lat="45.69030560581454" lon="8.873189810406474"><ele>262.33333333333337</ele><time>2026-03-30T07:54:29Z</time></trkpt><trkpt lat="45.69028237510996" lon="8.873060839683927"><ele>264.6666666666667</ele><time>2026-03-30T07:54:29.999Z</time></trkpt><trkpt lat="45.690259612893236" lon="8.872926523640665"><ele>267.0</ele><time>2026-03-30T07:54:30.999Z</time></trkpt><trkpt lat="45.69023214679729" lon="8.872830464161472"><ele>269.3333333333333</ele><time>2026-03-30T07:54:31.999Z</time></trkpt><trkpt lat="45.69022345366386" lon="8.87273017176678"><ele>271.66666666666663</ele><time>2026-03-30T07:54:32.999Z</time></trkpt><trkpt lat="45.690228966662616" lon="8.872583181780113"><ele>274.0</ele><time>2026-03-30T07:54:34.999Z</time></trkpt><trkpt lat="45.69028025648289" lon="8.87248786191515"><ele>274.4</ele><time>2026-03-30T07:54:36.999Z</time></trkpt><trkpt lat="45.69038313223959" lon="8.872487399054394"><ele>274.79999999999995</ele><time>2026-03-30T07:54:37.999Z</time></trkpt><trkpt lat="45.69048441115185" lon="8.87249887354916"><ele>275.20000000000005</ele><time>2026-03-30T07:54:38.999Z</time></trkpt><trkpt lat="45.6905776547733" lon="8.87250877344668"><ele>275.6</ele><time>2026-03-30T07:54:39.999Z</time></trkpt><trkpt lat="45.69067365258867" lon="8.872533230148091"><ele>276.0</ele><time>2026-03-30T07:54:40.999Z</time></trkpt><trkpt lat="45.69075251445714" lon="8.87253754153799"><ele>276.0</ele><time>2026-03-30T07:54:41.999Z</time></trkpt><trkpt lat="45.69082564271698" lon="8.872502478897548"><ele>276.0</ele><time>2026-03-30T07:54:42.999Z</time></trkpt><trkpt lat="45.690925418263" lon="8.872412120716323"><ele>276.0</ele><time>2026-03-30T07:54:44.999Z</time></trkpt><trkpt lat="45.691046442778145" lon="8.872499806868788"><ele>276.0</ele><time>2026-03-30T07:54:45.999Z</time></trkpt><trkpt lat="45.691127342696326" lon="8.87250141791645"><ele>276.0</ele><time>2026-03-30T07:54:46.999Z</time></trkpt><trkpt lat="45.69121650227186" lon="8.872492597947776"><ele>275.8</ele><time>2026-03-30T07:54:47.999Z</time></trkpt><trkpt lat="45.69132428955977" lon="8.872505558444056"><ele>275.6</ele><time>2026-03-30T07:54:48.999Z</time></trkpt><trkpt lat="45.69141350950823" lon="8.872480323482012"><ele>275.4</ele><time>2026-03-30T07:54:49.999Z</time></trkpt><trkpt lat="45.691519157786765" lon="8.872456964020389"><ele>275.2</ele><time>2026-03-30T07:54:50.999Z</time></trkpt><trkpt lat="45.691647167336065" lon="8.872472352637296"><ele>275.0</ele><time>2026-03-30T07:54:51.999Z</time></trkpt><trkpt lat="45.69173637670044" lon="8.872478715800064"><ele>275.0</ele><time>2026-03-30T07:54:52.999Z</time></trkpt><trkpt lat="45.69183355297398" lon="8.87248035140935"><ele>275.0</ele><time>2026-03-30T07:54:53.999Z</time></trkpt><trkpt lat="45.69194725703501" lon="8.872474926871627"><ele>275.0</ele><time>2026-03-30T07:54:54.999Z</time></trkpt><trkpt lat="45.69206242313668" lon="8.872486892780602"><ele>275.0</ele><time>2026-03-30T07:54:55.999Z</time></trkpt><trkpt lat="45.69217937434367" lon="8.872452574080379"><ele>275.0</ele><time>2026-03-30T07:54:56.999Z</time></trkpt><trkpt lat="45.69229903731192" lon="8.872459741190015"><ele>274.75</ele><time>2026-03-30T07:54:57.999Z</time></trkpt><trkpt lat="45.69242890512272" lon="8.872435518946483"><ele>274.5</ele><time>2026-03-30T07:54:58.999Z</time></trkpt><trkpt lat="45.692549547301915" lon="8.872427000300906"><ele>274.25</ele><time>2026-03-30T07:54:59.999Z</time></trkpt><trkpt lat="45.69265754998576" lon="8.872404559514965"><ele>274.0</ele><time>2026-03-30T07:55:00.999Z</time></trkpt><trkpt lat="45.69277138428874" lon="8.872395717165391"><ele>274.4</ele><time>2026-03-30T07:55:01.999Z</time></trkpt><trkpt lat="45.692884222490356" lon="8.872383923382033"><ele>274.79999999999995</ele><time>2026-03-30T07:55:02.999Z</time></trkpt><trkpt lat="45.692991572794895" lon="8.87237849703639"><ele>275.20000000000005</ele><time>2026-03-30T07:55:03.999Z</time></trkpt><trkpt lat="45.69308920033527" lon="8.872391177810654"><ele>275.6</ele><time>2026-03-30T07:55:04.999Z</time></trkpt><trkpt lat="45.69318841249099" lon="8.872387304153179"><ele>276.0</ele><time>2026-03-30T07:55:05.999Z</time></trkpt><trkpt lat="45.693292422171595" lon="8.872376391209452"><ele>276.0</ele><time>2026-03-30T07:55:06.999Z</time></trkpt><trkpt lat="45.693400748626274" lon="8.872364833486749"><ele>276.0</ele><time>2026-03-30T07:55:07.999Z</time></trkpt><trkpt lat="45.69351278594537" lon="8.87233170866065"><ele>276.0</ele><time>2026-03-30T07:55:08.999Z</time></trkpt><trkpt lat="45.69362982034801" lon="8.872324162508752"><ele>276.0</ele><time>2026-03-30T07:55:09.999Z</time></trkpt><trkpt lat="45.69374712522105" lon="8.872306722874974"><ele>276.6</ele><time>2026-03-30T07:55:10.999Z</time></trkpt><trkpt lat="45.69386009424449" lon="8.872300847620394"><ele>277.20000000000005</ele><time>2026-03-30T07:55:11.999Z</time></trkpt><trkpt lat="45.69397557869107" lon="8.872286318489447"><ele>277.79999999999995</ele><time>2026-03-30T07:55:12.999Z</time></trkpt><trkpt lat="45.69407989222544" lon="8.872263189560437"><ele>278.4</ele><time>2026-03-30T07:55:13.999Z</time></trkpt><trkpt lat="45.694176083728046" lon="8.87222155789368"><ele>279.0</ele><time>2026-03-30T07:55:14.999Z</time></trkpt><trkpt lat="45.69426821072745" lon="8.872151455131245"><ele>279.0</ele><time>2026-03-30T07:55:15.999Z</time></trkpt><trkpt lat="45.69435497009197" lon="8.87206189708829"><ele>279.0</ele><time>2026-03-30T07:55:16.999Z</time></trkpt><trkpt lat="45.694438591089465" lon="8.871958831986934"><ele>279.0</ele><time>2026-03-30T07:55:17.999Z</time></trkpt><trkpt lat="45.69451484407984" lon="8.871844529412336"><ele>279.0</ele><time>2026-03-30T07:55:18.999Z</time></trkpt><trkpt lat="45.694579740887434" lon="8.871717376392516"><ele>279.0</ele><time>2026-03-30T07:55:19.999Z</time></trkpt><trkpt lat="45.69462967510105" lon="8.871583302234903"><ele>279.8</ele><time>2026-03-30T07:55:20.999Z</time></trkpt><trkpt lat="45.69466862068412" lon="8.871442706923778"><ele>280.59999999999997</ele><time>2026-03-30T07:55:21.999Z</time></trkpt><trkpt lat="45.69469913682846" lon="8.871299122490807"><ele>281.4</ele><time>2026-03-30T07:55:22.999Z</time></trkpt><trkpt lat="45.694716127834454" lon="8.871161223537525"><ele>282.2</ele><time>2026-03-30T07:55:23.999Z</time></trkpt><trkpt lat="45.69471937226492" lon="8.871046584845077"><ele>283.0</ele><time>2026-03-30T07:55:24.999Z</time></trkpt><trkpt lat="45.69471033036222" lon="8.870951139483319"><ele>282.5</ele><time>2026-03-30T07:55:25.999Z</time></trkpt><trkpt lat="45.694697870045296" lon="8.870861880716326"><ele>282.0</ele><time>2026-03-30T07:55:26.999Z</time></trkpt><trkpt lat="45.694711743718" lon="8.870706211937463"><ele>281.5</ele><time>2026-03-30T07:55:28.999Z</time></trkpt><trkpt lat="45.69481286243907" lon="8.870632062274113"><ele>281.0</ele><time>2026-03-30T07:55:30.999Z</time></trkpt><trkpt lat="45.69488883661636" lon="8.870629700393428"><ele>280.5</ele><time>2026-03-30T07:55:31.999Z</time></trkpt><trkpt lat="45.694964013460286" lon="8.870594338664256"><ele>280.0</ele><time>2026-03-30T07:55:32.999Z</time></trkpt><trkpt lat="45.695062147295204" lon="8.870593296911004"><ele>280.0</ele><time>2026-03-30T07:55:33.999Z</time></trkpt><trkpt lat="45.69516119002787" lon="8.870583830701984"><ele>280.0</ele><time>2026-03-30T07:55:34.999Z</time></trkpt><trkpt lat="45.69527557510837" lon="8.87056084044005"><ele>280.0</ele><time>2026-03-30T07:55:35.999Z</time></trkpt><trkpt lat="45.695385302848784" lon="8.870530712211549"><ele>280.0</ele><time>2026-03-30T07:55:36.998Z</time></trkpt><trkpt lat="45.695500783826326" lon="8.870503722122884"><ele>280.0</ele><time>2026-03-30T07:55:37.998Z</time></trkpt><trkpt lat="45.69560790833803" lon="8.870479250226742"><ele>280.2857142857143</ele><time>2026-03-30T07:55:38.998Z</time></trkpt><trkpt lat="45.69569225079542" lon="8.870457605502116"><ele>280.57142857142856</ele><time>2026-03-30T07:55:39.998Z</time></trkpt><trkpt lat="45.69575781215775" lon="8.870442602975368"><ele>280.8571428571429</ele><time>2026-03-30T07:55:40.998Z</time></trkpt><trkpt lat="45.69582710227922" lon="8.870455355685529"><ele>281.1428571428571</ele><time>2026-03-30T07:55:41.998Z</time></trkpt><trkpt lat="45.69588928078331" lon="8.870526942194578"><ele>281.42857142857144</ele><time>2026-03-30T07:55:42.998Z</time></trkpt><trkpt lat="45.69594727125771" lon="8.87058971314181"><ele>281.7142857142857</ele><time>2026-03-30T07:55:43.998Z</time></trkpt><trkpt lat="45.69600857184714" lon="8.870637928355624"><ele>282.0</ele><time>2026-03-30T07:55:44.998Z</time></trkpt><trkpt lat="45.69606789610754" lon="8.870733025566544"><ele>282.2</ele><time>2026-03-30T07:55:45.998Z</time></trkpt><trkpt lat="45.696136902376445" lon="8.870828845471646"><ele>282.4</ele><time>2026-03-30T07:55:46.998Z</time></trkpt><trkpt lat="45.69622750359333" lon="8.87089743837285"><ele>282.6</ele><time>2026-03-30T07:55:47.998Z</time></trkpt><trkpt lat="45.696313549122486" lon="8.870989528362491"><ele>282.8</ele><time>2026-03-30T07:55:49Z</time></trkpt><trkpt lat="45.69641853440903" lon="8.871037720243606"><ele>283.0</ele><time>2026-03-30T07:55:50Z</time></trkpt><trkpt lat="45.69651577387032" lon="8.87107615107251"><ele>281.8</ele><time>2026-03-30T07:55:51Z</time></trkpt><trkpt lat="45.69661074413074" lon="8.8711148754547"><ele>280.6</ele><time>2026-03-30T07:55:52Z</time></trkpt><trkpt lat="45.69670296169172" lon="8.871162944319794"><ele>279.4</ele><time>2026-03-30T07:55:53Z</time></trkpt><trkpt lat="45.69679122117149" lon="8.871180219880568"><ele>278.2</ele><time>2026-03-30T07:55:54Z</time></trkpt><trkpt lat="45.696873355394885" lon="8.871177844024471"><ele>277.0</ele><time>2026-03-30T07:55:55Z</time></trkpt><trkpt lat="45.69696536506824" lon="8.87115774149526"><ele>276.75</ele><time>2026-03-30T07:55:56Z</time></trkpt><trkpt lat="45.697066190923145" lon="8.87109118409329"><ele>276.5</ele><time>2026-03-30T07:55:57Z</time></trkpt><trkpt lat="45.69717871416106" lon="8.871049280442676"><ele>276.25</ele><time>2026-03-30T07:55:58Z</time></trkpt><trkpt lat="45.697294754839" lon="8.87102180932401"><ele>276.0</ele><time>2026-03-30T07:55:59Z</time></trkpt><trkpt lat="45.69742887245647" lon="8.870968685556274"><ele>276.25</ele><time>2026-03-30T07:56:00Z</time></trkpt><trkpt lat="45.6975315286211" lon="8.870926351721765"><ele>276.5</ele><time>2026-03-30T07:56:01Z</time></trkpt><trkpt lat="45.69765825005603" lon="8.870873656188863"><ele>276.75</ele><time>2026-03-30T07:56:02Z</time></trkpt><trkpt lat="45.697781301028975" lon="8.870817791900697"><ele>277.0</ele><time>2026-03-30T07:56:03Z</time></trkpt><trkpt lat="45.6978831770587" lon="8.870747173108706"><ele>277.0</ele><time>2026-03-30T07:56:04Z</time></trkpt><trkpt lat="45.69798815391369" lon="8.870710734478608"><ele>277.0</ele><time>2026-03-30T07:56:05Z</time></trkpt><trkpt lat="45.69809948981675" lon="8.870658105340873"><ele>277.0</ele><time>2026-03-30T07:56:06Z</time></trkpt><trkpt lat="45.69821387980194" lon="8.870606054486968"><ele>277.0</ele><time>2026-03-30T07:56:07Z</time></trkpt><trkpt lat="45.69833379407876" lon="8.870548089939415"><ele>277.0</ele><time>2026-03-30T07:56:08Z</time></trkpt><trkpt lat="45.69844488296169" lon="8.870486430220835"><ele>277.0</ele><time>2026-03-30T07:56:09Z</time></trkpt><trkpt lat="45.698555806174866" lon="8.87045423874416"><ele>277.0</ele><time>2026-03-30T07:56:10Z</time></trkpt><trkpt lat="45.69863577228729" lon="8.870392290167262"><ele>277.0</ele><time>2026-03-30T07:56:11Z</time></trkpt><trkpt lat="45.698704431994535" lon="8.870341191240714"><ele>277.0</ele><time>2026-03-30T07:56:12Z</time></trkpt><trkpt lat="45.69876508170209" lon="8.870308363070222"><ele>276.8</ele><time>2026-03-30T07:56:13Z</time></trkpt><trkpt lat="45.6988625836015" lon="8.870265981021566"><ele>276.6</ele><time>2026-03-30T07:56:15Z</time></trkpt><trkpt lat="45.698952685659755" lon="8.870263246564443"><ele>276.40000000000003</ele><time>2026-03-30T07:56:17Z</time></trkpt><trkpt lat="45.69901020380064" lon="8.87022615239637"><ele>276.2</ele><time>2026-03-30T07:56:18Z</time></trkpt><trkpt lat="45.69909666151059" lon="8.87022652517104"><ele>276.0</ele><time>2026-03-30T07:56:19Z</time></trkpt><trkpt lat="45.69918555530115" lon="8.870128792997205"><ele>276.6</ele><time>2026-03-30T07:56:20Z</time></trkpt><trkpt lat="45.69928807445061" lon="8.87008203197414"><ele>277.20000000000005</ele><time>2026-03-30T07:56:21Z</time></trkpt><trkpt lat="45.699393132685984" lon="8.870037612255926"><ele>277.79999999999995</ele><time>2026-03-30T07:56:22Z</time></trkpt><trkpt lat="45.699499357911506" lon="8.870004728145137"><ele>278.4</ele><time>2026-03-30T07:56:23Z</time></trkpt><trkpt lat="45.699591976767465" lon="8.869981236168725"><ele>279.0</ele><time>2026-03-30T07:56:24Z</time></trkpt><trkpt lat="45.69967347913387" lon="8.869965547731047"><ele>279.0</ele><time>2026-03-30T07:56:25Z</time></trkpt><trkpt lat="45.69974550504098" lon="8.86996646698876"><ele>279.0</ele><time>2026-03-30T07:56:26Z</time></trkpt><trkpt lat="45.699858317861874" lon="8.870041434715796"><ele>279.0</ele><time>2026-03-30T07:56:28Z</time></trkpt><trkpt lat="45.699910334180665" lon="8.870105289279916"><ele>279.0</ele><time>2026-03-30T07:56:29Z</time></trkpt><trkpt lat="45.69995967845741" lon="8.870186524774743"><ele>279.0</ele><time>2026-03-30T07:56:30Z</time></trkpt><trkpt lat="45.700004907929454" lon="8.87027892991045"><ele>279.0</ele><time>2026-03-30T07:56:31Z</time></trkpt><trkpt lat="45.70003466517211" lon="8.870374628017728"><ele>278.0</ele><time>2026-03-30T07:56:32Z</time></trkpt><trkpt lat="45.700061478334916" lon="8.87045860564953"><ele>277.0</ele><time>2026-03-30T07:56:33Z</time></trkpt><trkpt lat="45.70011038383477" lon="8.870590059320708"><ele>276.0</ele><time>2026-03-30T07:56:34.999Z</time></trkpt><trkpt lat="45.70019553783474" lon="8.870711908032566"><ele>275.0</ele><time>2026-03-30T07:56:36.999Z</time></trkpt><trkpt lat="45.70025205103345" lon="8.870765167704047"><ele>274.0</ele><time>2026-03-30T07:56:37.999Z</time></trkpt><trkpt lat="45.70035292694358" lon="8.870862030820202"><ele>273.5</ele><time>2026-03-30T07:56:39.999Z</time></trkpt><trkpt lat="45.70042970408551" lon="8.870937134367963"><ele>273.0</ele><time>2026-03-30T07:56:41.999Z</time></trkpt><trkpt lat="45.70050062936087" lon="8.870919973865202"><ele>272.5</ele><time>2026-03-30T07:56:44.999Z</time></trkpt><trkpt lat="45.700538261196655" lon="8.87083821492327"><ele>272.0</ele><time>2026-03-30T07:56:46.999Z</time></trkpt><trkpt lat="45.70060856732274" lon="8.870792473329551"><ele>271.5</ele><time>2026-03-30T07:56:48.999Z</time></trkpt><trkpt lat="45.700714645657335" lon="8.8707263483742"><ele>271.0</ele><time>2026-03-30T07:56:50.999Z</time></trkpt><trkpt lat="45.70077200756109" lon="8.870678875928903"><ele>271.0</ele><time>2026-03-30T07:56:51.999Z</time></trkpt><trkpt lat="45.700880546745765" lon="8.870603000704072"><ele>271.0</ele><time>2026-03-30T07:56:53.999Z</time></trkpt><trkpt lat="45.70097813427284" lon="8.870524171774726"><ele>271.0</ele><time>2026-03-30T07:56:55.999Z</time></trkpt><trkpt lat="45.70102587311025" lon="8.870452923228981"><ele>271.0</ele><time>2026-03-30T07:56:59.999Z</time></trkpt><trkpt lat="45.70109433181937" lon="8.87042613228151"><ele>271.0</ele><time>2026-03-30T07:57:01.999Z</time></trkpt><trkpt lat="45.70114155431785" lon="8.870343518822466"><ele>271.0</ele><time>2026-03-30T07:57:05.999Z</time></trkpt><trkpt lat="45.70119882312968" lon="8.87029493087521"><ele>271.7142857142857</ele><time>2026-03-30T07:57:14.999Z</time></trkpt><trkpt lat="45.701269898153015" lon="8.870233656232871"><ele>272.42857142857144</ele><time>2026-03-30T07:57:17.999Z</time></trkpt><trkpt lat="45.70130953022271" lon="8.870137538841043"><ele>273.14285714285717</ele><time>2026-03-30T07:57:20.999Z</time></trkpt><trkpt lat="45.70134875680308" lon="8.87006023369034"><ele>273.8571428571429</ele><time>2026-03-30T07:57:22.999Z</time></trkpt><trkpt lat="45.70139982346142" lon="8.869969025730013"><ele>274.5714285714286</ele><time>2026-03-30T07:57:24.999Z</time></trkpt><trkpt lat="45.70139312806818" lon="8.869874629282634"><ele>275.2857142857143</ele><time>2026-03-30T07:57:27.999Z</time></trkpt><trkpt lat="45.70139317402871" lon="8.869780285318644"><ele>276.0</ele><time>2026-03-30T07:57:47.998Z</time></trkpt><trkpt lat="45.70140095365023" lon="8.86968602494658"><ele>276.0</ele><time>2026-03-30T07:57:49.998Z</time></trkpt><trkpt lat="45.701408893033474" lon="8.869577725356987"><ele>276.0</ele><time>2026-03-30T07:58:37Z</time></trkpt><trkpt lat="45.70141023870675" lon="8.869475394323239"><ele>276.0</ele><time>2026-03-30T07:58:39Z</time></trkpt><trkpt lat="45.70137755685047" lon="8.869320415472743"><ele>276.0</ele><time>2026-03-30T07:58:41Z</time></trkpt><trkpt lat="45.70132600612433" lon="8.869249638984206"><ele>276.0</ele><time>2026-03-30T07:58:42Z</time></trkpt><trkpt lat="45.70130697241988" lon="8.869096180500271"><ele>276.0</ele><time>2026-03-30T07:58:43.999Z</time></trkpt><trkpt lat="45.701375958635325" lon="8.86904069075379"><ele>278.0</ele><time>2026-03-30T07:58:45.999Z</time></trkpt><trkpt lat="45.70144706051456" lon="8.868973628306026"><ele>280.0</ele><time>2026-03-30T07:58:46.999Z</time></trkpt><trkpt lat="45.70152116253258" lon="8.868912954281157"><ele>282.0</ele><time>2026-03-30T07:58:47.999Z</time></trkpt><trkpt lat="45.701601724042305" lon="8.868860763034217"><ele>284.0</ele><time>2026-03-30T07:58:48.999Z</time></trkpt><trkpt lat="45.70168895019124" lon="8.868776812533177"><ele>286.0</ele><time>2026-03-30T07:58:49.999Z</time></trkpt><trkpt lat="45.7017293220073" lon="8.868706484793098"><ele>288.0</ele><time>2026-03-30T07:58:50.999Z</time></trkpt><trkpt lat="45.701777822557084" lon="8.868646659668206"><ele>288.0</ele><time>2026-03-30T07:58:51.999Z</time></trkpt><trkpt lat="45.701862132709856" lon="8.868593081156968"><ele>288.0</ele><time>2026-03-30T07:58:52.999Z</time></trkpt><trkpt lat="45.701905331654146" lon="8.868456635405398"><ele>288.0</ele><time>2026-03-30T07:58:54.999Z</time></trkpt><trkpt lat="45.70186385787052" lon="8.868293594242528"><ele>288.0</ele><time>2026-03-30T07:58:56.999Z</time></trkpt><trkpt lat="45.701834596451064" lon="8.868177765738812"><ele>288.0</ele><time>2026-03-30T07:58:57.999Z</time></trkpt><trkpt lat="45.701811359956125" lon="8.868044882000975"><ele>288.0</ele><time>2026-03-30T07:58:58.999Z</time></trkpt><trkpt lat="45.7017748416902" lon="8.867885841213589"><ele>288.0</ele><time>2026-03-30T07:58:59.999Z</time></trkpt><trkpt lat="45.70172788761133" lon="8.867724297076496"><ele>288.0</ele><time>2026-03-30T07:59:00.999Z</time></trkpt><trkpt lat="45.701687355922076" lon="8.867578006416618"><ele>288.0</ele><time>2026-03-30T07:59:01.999Z</time></trkpt><trkpt lat="45.70167265941375" lon="8.867444798039317"><ele>288.0</ele><time>2026-03-30T07:59:02.999Z</time></trkpt><trkpt lat="45.70165302493431" lon="8.86732545254149"><ele>288.0</ele><time>2026-03-30T07:59:03.999Z</time></trkpt><trkpt lat="45.70161236046592" lon="8.867225341897145"><ele>288.0</ele><time>2026-03-30T07:59:04.999Z</time></trkpt><trkpt lat="45.701590868448605" lon="8.867124074112407"><ele>288.0</ele><time>2026-03-30T07:59:05.999Z</time></trkpt><trkpt lat="45.70156252104593" lon="8.867012342688879"><ele>288.0</ele><time>2026-03-30T07:59:06.999Z</time></trkpt><trkpt lat="45.70152503783583" lon="8.866905980614233"><ele>288.0</ele><time>2026-03-30T07:59:07.999Z</time></trkpt><trkpt lat="45.701518301910255" lon="8.86680390609584"><ele>288.0</ele><time>2026-03-30T07:59:09.999Z</time></trkpt><trkpt lat="45.701578378040566" lon="8.866725359435012"><ele>288.2</ele><time>2026-03-30T07:59:11.999Z</time></trkpt><trkpt lat="45.70169635222497" lon="8.866721108678298"><ele>288.4</ele><time>2026-03-30T07:59:13.999Z</time></trkpt><trkpt lat="45.70175070292463" lon="8.866643986010875"><ele>288.59999999999997</ele><time>2026-03-30T07:59:15.999Z</time></trkpt><trkpt lat="45.70176485539072" lon="8.866531278554094"><ele>288.8</ele><time>2026-03-30T07:59:18.999Z</time></trkpt><trkpt lat="45.70175831668992" lon="8.866431701819893"><ele>289.0</ele><time>2026-03-30T07:59:20.999Z</time></trkpt><trkpt lat="45.70171032104697" lon="8.866226923398344"><ele>289.0</ele><time>2026-03-30T07:59:22.999Z</time></trkpt><trkpt lat="45.7016762852805" lon="8.866086566570964"><ele>289.0</ele><time>2026-03-30T07:59:23.999Z</time></trkpt><trkpt lat="45.70166266752333" lon="8.86594521405978"><ele>289.0</ele><time>2026-03-30T07:59:24.999Z</time></trkpt><trkpt lat="45.70166042081363" lon="8.865801678446083"><ele>289.0</ele><time>2026-03-30T07:59:25.999Z</time></trkpt><trkpt lat="45.70165611237588" lon="8.865689461468879"><ele>289.0</ele><time>2026-03-30T07:59:26.999Z</time></trkpt><trkpt lat="45.701616189502815" lon="8.865594236773367"><ele>289.4</ele><time>2026-03-30T07:59:27.999Z</time></trkpt><trkpt lat="45.70156681400323" lon="8.86549146497907"><ele>289.79999999999995</ele><time>2026-03-30T07:59:29.999Z</time></trkpt><trkpt lat="45.70164156344413" lon="8.865408109627708"><ele>290.20000000000005</ele><time>2026-03-30T07:59:31.999Z</time></trkpt><trkpt lat="45.701730488419344" lon="8.86536966682956"><ele>290.6</ele><time>2026-03-30T07:59:33.999Z</time></trkpt><trkpt lat="45.70187607673182" lon="8.86540907033835"><ele>291.0</ele><time>2026-03-30T07:59:37.999Z</time></trkpt><trkpt lat="45.70194883956942" lon="8.865441145586248"><ele>291.40000000000003</ele><time>2026-03-30T07:59:39.999Z</time></trkpt><trkpt lat="45.70202619304912" lon="8.865439295153983"><ele>291.8</ele><time>2026-03-30T07:59:41.999Z</time></trkpt><trkpt lat="45.70211996802699" lon="8.865466017770741"><ele>292.20000000000005</ele><time>2026-03-30T07:59:42.999Z</time></trkpt><trkpt lat="45.70224312263735" lon="8.865450955751195"><ele>292.6</ele><time>2026-03-30T07:59:43.999Z</time></trkpt><trkpt lat="45.70235104780761" lon="8.865446169584537"><ele>293.0</ele><time>2026-03-30T07:59:45.999Z</time></trkpt><trkpt lat="45.70246963906332" lon="8.865429823761586"><ele>293.0</ele><time>2026-03-30T07:59:47.999Z</time></trkpt><trkpt lat="45.70256826625271" lon="8.865417102392756"><ele>293.0</ele><time>2026-03-30T07:59:49.999Z</time></trkpt><trkpt lat="45.70262803526207" lon="8.86530944404904"><ele>293.0</ele><time>2026-03-30T08:02:22Z</time></trkpt><trkpt lat="45.702703923753" lon="8.86527422718367"><ele>293.0</ele><time>2026-03-30T08:02:26Z</time></trkpt><trkpt lat="45.702771058116134" lon="8.865273272056362"><ele>293.0</ele><time>2026-03-30T08:02:27Z</time></trkpt><trkpt lat="45.702843380624095" lon="8.865284435517715"><ele>293.0</ele><time>2026-03-30T08:02:28Z</time></trkpt><trkpt lat="45.702930793949214" lon="8.865389600009749"><ele>293.4</ele><time>2026-03-30T08:02:29Z</time></trkpt><trkpt lat="45.703019972209404" lon="8.865385004162627"><ele>293.8</ele><time>2026-03-30T08:02:30Z</time></trkpt><trkpt lat="45.703113627141214" lon="8.865380262320274"><ele>294.2</ele><time>2026-03-30T08:02:31Z</time></trkpt><trkpt lat="45.70321097397846" lon="8.865375979738424"><ele>294.6</ele><time>2026-03-30T08:02:32Z</time></trkpt><trkpt lat="45.70330855645589" lon="8.8653531922252"><ele>295.0</ele><time>2026-03-30T08:02:33Z</time></trkpt><trkpt lat="45.70339918093862" lon="8.865369586562064"><ele>295.0</ele><time>2026-03-30T08:02:34Z</time></trkpt><trkpt lat="45.70348917211547" lon="8.86534102654498"><ele>295.0</ele><time>2026-03-30T08:02:35Z</time></trkpt><trkpt lat="45.70358275312568" lon="8.865332357928187"><ele>295.0</ele><time>2026-03-30T08:02:36Z</time></trkpt><trkpt lat="45.7036757348749" lon="8.865308946888868"><ele>295.0</ele><time>2026-03-30T08:02:37Z</time></trkpt><trkpt lat="45.70376891416731" lon="8.865281669178422"><ele>295.0</ele><time>2026-03-30T08:02:38Z</time></trkpt><trkpt lat="45.70386383119907" lon="8.865255504117947"><ele>295.0</ele><time>2026-03-30T08:02:39Z</time></trkpt><trkpt lat="45.7039603124976" lon="8.865239153446465"><ele>295.0</ele><time>2026-03-30T08:02:40Z</time></trkpt><trkpt lat="45.70405997205393" lon="8.86521538546587"><ele>295.0</ele><time>2026-03-30T08:02:41Z</time></trkpt><trkpt lat="45.70414747896543" lon="8.86519068076622"><ele>295.0</ele><time>2026-03-30T08:02:42Z</time></trkpt><trkpt lat="45.70422082668651" lon="8.865203705319265"><ele>295.0</ele><time>2026-03-30T08:02:43Z</time></trkpt><trkpt lat="45.70429208883243" lon="8.86519688333675"><ele>295.0</ele><time>2026-03-30T08:02:44Z</time></trkpt><trkpt lat="45.70439916036796" lon="8.865183194632278"><ele>295.75</ele><time>2026-03-30T08:02:46Z</time></trkpt><trkpt lat="45.70438507479275" lon="8.864908588096592"><ele>296.5</ele><time>2026-03-30T08:02:49Z</time></trkpt><trkpt lat="45.70439329977646" lon="8.864760633520543"><ele>297.25</ele><time>2026-03-30T08:02:50Z</time></trkpt><trkpt lat="45.70437559523215" lon="8.864610303957702"><ele>298.0</ele><time>2026-03-30T08:02:51Z</time></trkpt><trkpt lat="45.70435385869343" lon="8.864433355996827"><ele>297.6</ele><time>2026-03-30T08:02:51.999Z</time></trkpt><trkpt lat="45.70434166342187" lon="8.864256539279168"><ele>297.20000000000005</ele><time>2026-03-30T08:02:52.999Z</time></trkpt><trkpt lat="45.70432370711225" lon="8.864098663838233"><ele>296.8</ele><time>2026-03-30T08:02:53.999Z</time></trkpt><trkpt lat="45.704307433493994" lon="8.863937023357188"><ele>296.40000000000003</ele><time>2026-03-30T08:02:54.999Z</time></trkpt><trkpt lat="45.70429759815286" lon="8.863796481988297"><ele>296.0</ele><time>2026-03-30T08:02:55.999Z</time></trkpt><trkpt lat="45.704290927119615" lon="8.863663289808715"><ele>296.0</ele><time>2026-03-30T08:02:56.999Z</time></trkpt><trkpt lat="45.704284444908616" lon="8.863525853718398"><ele>296.0</ele><time>2026-03-30T08:02:57.999Z</time></trkpt><trkpt lat="45.70427672079401" lon="8.863394557219163"><ele>296.0</ele><time>2026-03-30T08:02:58.999Z</time></trkpt><trkpt lat="45.704268771165275" lon="8.863280143959484"><ele>296.0</ele><time>2026-03-30T08:02:59.999Z</time></trkpt><trkpt lat="45.70426240432614" lon="8.863185108260971"><ele>296.0</ele><time>2026-03-30T08:03:00.999Z</time></trkpt><trkpt lat="45.70413724560799" lon="8.863073789883092"><ele>296.5</ele><time>2026-03-30T08:03:02.999Z</time></trkpt><trkpt lat="45.70404296227218" lon="8.862481597031147"><ele>297.0</ele><time>2026-03-30T08:03:06.999Z</time></trkpt><trkpt lat="45.70388581425651" lon="8.86250868680003"><ele>297.0</ele><time>2026-03-30T08:03:08.999Z</time></trkpt><trkpt lat="45.70377142502025" lon="8.862528405554205"><ele>297.0</ele><time>2026-03-30T08:03:09.999Z</time></trkpt><trkpt lat="45.703619358265975" lon="8.862554619269227"><ele>297.0</ele><time>2026-03-30T08:03:10.999Z</time></trkpt><trkpt lat="45.70354726515695" lon="8.862576922174002"><ele>297.0</ele><time>2026-03-30T08:03:12.999Z</time></trkpt><trkpt lat="45.70394999351759" lon="8.862803484136952"><ele>297.0</ele><time>2026-03-30T08:03:13.999Z</time></trkpt><trkpt lat="45.70394743443999" lon="8.862658592798248"><ele>297.0</ele><time>2026-03-30T08:03:14.999Z</time></trkpt><trkpt lat="45.703947663787154" lon="8.862542188654661"><ele>297.0</ele><time>2026-03-30T08:03:15.999Z</time></trkpt><trkpt lat="45.70393728945187" lon="8.862423296911874"><ele>297.0</ele><time>2026-03-30T08:03:16.999Z</time></trkpt><trkpt lat="45.70391895925214" lon="8.86221322929419"><ele>297.0</ele><time>2026-03-30T08:03:17.999Z</time></trkpt><trkpt lat="45.70389636829179" lon="8.861954332461313"><ele>297.25</ele><time>2026-03-30T08:03:18.999Z</time></trkpt><trkpt lat="45.703878350491756" lon="8.861744527349273"><ele>297.5</ele><time>2026-03-30T08:03:19.999Z</time></trkpt><trkpt lat="45.70385891520529" lon="8.861524521509951"><ele>297.75</ele><time>2026-03-30T08:03:20.999Z</time></trkpt><trkpt lat="45.70384097803837" lon="8.86132203983239"><ele>298.0</ele><time>2026-03-30T08:03:21.999Z</time></trkpt><trkpt lat="45.703818913963396" lon="8.861079336680728"><ele>297.5</ele><time>2026-03-30T08:03:22.999Z</time></trkpt><trkpt lat="45.70379741716692" lon="8.860842873556647"><ele>297.0</ele><time>2026-03-30T08:03:23.999Z</time></trkpt><trkpt lat="45.70339118387806" lon="8.860699094474452"><ele>297.0</ele><time>2026-03-30T08:03:24.999Z</time></trkpt><trkpt lat="45.703366253751646" lon="8.860476392546067"><ele>297.0</ele><time>2026-03-30T08:03:25.999Z</time></trkpt><trkpt lat="45.70332816403195" lon="8.860262892447565"><ele>297.0</ele><time>2026-03-30T08:03:26.999Z</time></trkpt><trkpt lat="45.703327178823194" lon="8.860044283372426"><ele>296.5</ele><time>2026-03-30T08:03:27.999Z</time></trkpt><trkpt lat="45.70331148869077" lon="8.859847895203137"><ele>296.0</ele><time>2026-03-30T08:03:28.999Z</time></trkpt><trkpt lat="45.70327908433641" lon="8.859661421951403"><ele>295.5</ele><time>2026-03-30T08:03:29.999Z</time></trkpt><trkpt lat="45.70326580442707" lon="8.8595006024013"><ele>295.0</ele><time>2026-03-30T08:03:30.999Z</time></trkpt><trkpt lat="45.70324733416607" lon="8.859346065480777"><ele>295.25</ele><time>2026-03-30T08:03:31.999Z</time></trkpt><trkpt lat="45.70322553099964" lon="8.859205051357112"><ele>295.5</ele><time>2026-03-30T08:03:32.999Z</time></trkpt><trkpt lat="45.703173660878264" lon="8.8590805476459"><ele>295.75</ele><time>2026-03-30T08:03:33.999Z</time></trkpt><trkpt lat="45.703083696900535" lon="8.85896965802933"><ele>296.0</ele><time>2026-03-30T08:03:34.999Z</time></trkpt><trkpt lat="45.702960061802195" lon="8.858901810047081"><ele>296.0</ele><time>2026-03-30T08:03:35.999Z</time></trkpt><trkpt lat="45.70286020066069" lon="8.858800429953893"><ele>296.0</ele><time>2026-03-30T08:03:36.999Z</time></trkpt><trkpt lat="45.70277232944289" lon="8.858734128653143"><ele>296.0</ele><time>2026-03-30T08:03:37.999Z</time></trkpt><trkpt lat="45.702684174477284" lon="8.858664067304378"><ele>296.0</ele><time>2026-03-30T08:03:38.999Z</time></trkpt><trkpt lat="45.70260679523893" lon="8.85859635310027"><ele>296.0</ele><time>2026-03-30T08:03:39.999Z</time></trkpt><trkpt lat="45.70254227598513" lon="8.85851366177146"><ele>295.6</ele><time>2026-03-30T08:03:40.999Z</time></trkpt><trkpt lat="45.702486911204765" lon="8.858422932966475"><ele>295.20000000000005</ele><time>2026-03-30T08:03:41.999Z</time></trkpt><trkpt lat="45.702430643453276" lon="8.858306498037697"><ele>294.79999999999995</ele><time>2026-03-30T08:03:42.999Z</time></trkpt><trkpt lat="45.70238086879521" lon="8.858172525533776"><ele>294.4</ele><time>2026-03-30T08:03:43.999Z</time></trkpt><trkpt lat="45.702334316729406" lon="8.858034094564344"><ele>294.0</ele><time>2026-03-30T08:03:44.999Z</time></trkpt><trkpt lat="45.702279086125095" lon="8.857919047595221"><ele>294.0</ele><time>2026-03-30T08:03:45.999Z</time></trkpt><trkpt lat="45.702247105110175" lon="8.857812011725697"><ele>294.0</ele><time>2026-03-30T08:03:46.999Z</time></trkpt><trkpt lat="45.70221532817162" lon="8.857730155104349"><ele>294.0</ele><time>2026-03-30T08:03:47.999Z</time></trkpt><trkpt lat="45.70217336169711" lon="8.857604792857027"><ele>294.0</ele><time>2026-03-30T08:03:49.999Z</time></trkpt><trkpt lat="45.702338571514716" lon="8.85748969140624"><ele>294.0</ele><time>2026-03-30T08:03:59.998Z</time></trkpt><trkpt lat="45.70241271760484" lon="8.857422781359974"><ele>294.1666666666667</ele><time>2026-03-30T08:04:00.998Z</time></trkpt><trkpt lat="45.70249224204947" lon="8.857370313675489"><ele>294.3333333333333</ele><time>2026-03-30T08:04:01.998Z</time></trkpt><trkpt lat="45.70257859856285" lon="8.857329395613435"><ele>294.5</ele><time>2026-03-30T08:04:02.998Z</time></trkpt><trkpt lat="45.702673834623795" lon="8.85730005262319"><ele>294.66666666666663</ele><time>2026-03-30T08:04:03.998Z</time></trkpt><trkpt lat="45.70275108820089" lon="8.857286395313873"><ele>294.8333333333333</ele><time>2026-03-30T08:04:04.998Z</time></trkpt><trkpt lat="45.70283820081577" lon="8.857278123933225"><ele>295.0</ele><time>2026-03-30T08:04:05.998Z</time></trkpt><trkpt lat="45.70290232302301" lon="8.857232215392319"><ele>295.3333333333333</ele><time>2026-03-30T08:04:06.998Z</time></trkpt><trkpt lat="45.70296490331627" lon="8.857162390219274"><ele>295.66666666666663</ele><time>2026-03-30T08:04:07.998Z</time></trkpt><trkpt lat="45.70301731947701" lon="8.857069812466154"><ele>296.0</ele><time>2026-03-30T08:04:08.998Z</time></trkpt><trkpt lat="45.703084875083114" lon="8.857004841296423"><ele>296.3333333333333</ele><time>2026-03-30T08:04:09.998Z</time></trkpt><trkpt lat="45.70313249412683" lon="8.85692818436075"><ele>296.6666666666667</ele><time>2026-03-30T08:04:10.998Z</time></trkpt><trkpt lat="45.70323060621994" lon="8.85684901667174"><ele>297.0</ele><time>2026-03-30T08:04:13Z</time></trkpt><trkpt lat="45.70329354983719" lon="8.856825695224932"><ele>297.0</ele><time>2026-03-30T08:04:14Z</time></trkpt><trkpt lat="45.703387991942854" lon="8.856743846954231"><ele>297.0</ele><time>2026-03-30T08:04:16Z</time></trkpt><trkpt lat="45.70340109955983" lon="8.85661064272489"><ele>297.0</ele><time>2026-03-30T08:04:18Z</time></trkpt><trkpt lat="45.703399529916666" lon="8.856497997320604"><ele>297.0</ele><time>2026-03-30T08:04:19Z</time></trkpt><trkpt lat="45.70338333161892" lon="8.856332234366798"><ele>297.0</ele><time>2026-03-30T08:04:21Z</time></trkpt><trkpt lat="45.70337384960523" lon="8.8562302057425"><ele>297.0</ele><time>2026-03-30T08:04:23Z</time></trkpt><trkpt lat="45.70338230220844" lon="8.856058543911939"><ele>297.0</ele><time>2026-03-30T08:04:25Z</time></trkpt><trkpt lat="45.70345425713517" lon="8.855926068355325"><ele>297.0</ele><time>2026-03-30T08:04:27Z</time></trkpt><trkpt lat="45.70346484510915" lon="8.855784655376166"><ele>297.0</ele><time>2026-03-30T08:04:29Z</time></trkpt><trkpt lat="45.703432776006984" lon="8.855666309784194"><ele>297.0</ele><time>2026-03-30T08:04:31Z</time></trkpt><trkpt lat="45.70346202787965" lon="8.855557441264882"><ele>296.8333333333333</ele><time>2026-03-30T08:04:33Z</time></trkpt><trkpt lat="45.70352428550661" lon="8.855419214715246"><ele>296.6666666666667</ele><time>2026-03-30T08:04:35Z</time></trkpt><trkpt lat="45.70351279509007" lon="8.85524245819593"><ele>296.5</ele><time>2026-03-30T08:04:37Z</time></trkpt><trkpt lat="45.70351892049602" lon="8.855150870141067"><ele>296.33333333333337</ele><time>2026-03-30T08:04:38Z</time></trkpt><trkpt lat="45.70351770658907" lon="8.85505771508462"><ele>296.1666666666667</ele><time>2026-03-30T08:04:39Z</time></trkpt><trkpt lat="45.703567079884095" lon="8.854985569759721"><ele>296.0</ele><time>2026-03-30T08:04:41Z</time></trkpt><trkpt lat="45.70368557594883" lon="8.854916165135824"><ele>296.0</ele><time>2026-03-30T08:04:47Z</time></trkpt><trkpt lat="45.70373991433588" lon="8.854863380148245"><ele>296.0</ele><time>2026-03-30T08:04:48Z</time></trkpt><trkpt lat="45.70381640630608" lon="8.85481207065041"><ele>296.0</ele><time>2026-03-30T08:04:51Z</time></trkpt><trkpt lat="45.7038688518229" lon="8.85487973206775"><ele>296.0</ele><time>2026-03-30T08:04:53Z</time></trkpt><trkpt lat="45.70395157667052" lon="8.854838639727449"><ele>296.0</ele><time>2026-03-30T08:04:55Z</time></trkpt><trkpt lat="45.70401625486307" lon="8.854794358712798"><ele>296.0</ele><time>2026-03-30T08:04:56Z</time></trkpt><trkpt lat="45.704105181270805" lon="8.854768492319828"><ele>296.0</ele><time>2026-03-30T08:04:57Z</time></trkpt><trkpt lat="45.70420562051909" lon="8.854737544679828"><ele>296.0</ele><time>2026-03-30T08:04:58Z</time></trkpt><trkpt lat="45.704286310948525" lon="8.854702276188345"><ele>296.0</ele><time>2026-03-30T08:04:59Z</time></trkpt><trkpt lat="45.70439757847639" lon="8.854694065931128"><ele>296.0</ele><time>2026-03-30T08:04:59.999Z</time></trkpt><trkpt lat="45.704491998946146" lon="8.8546908164773"><ele>296.0</ele><time>2026-03-30T08:05:00.999Z</time></trkpt><trkpt lat="45.70459893949365" lon="8.854724218030713"><ele>296.1666666666667</ele><time>2026-03-30T08:05:01.999Z</time></trkpt><trkpt lat="45.70466198304841" lon="8.854742605329397"><ele>296.33333333333337</ele><time>2026-03-30T08:05:02.999Z</time></trkpt><trkpt lat="45.704816572661954" lon="8.854793279441378"><ele>296.5</ele><time>2026-03-30T08:05:04.999Z</time></trkpt><trkpt lat="45.70486816574848" lon="8.854862874053177"><ele>296.6666666666667</ele><time>2026-03-30T08:05:05.999Z</time></trkpt><trkpt lat="45.70492978207261" lon="8.854804546368177"><ele>296.8333333333333</ele><time>2026-03-30T08:05:09.999Z</time></trkpt><trkpt lat="45.7049916426711" lon="8.854783543595644"><ele>297.0</ele><time>2026-03-30T08:05:11.999Z</time></trkpt><trkpt lat="45.70505630919953" lon="8.854845665473112"><ele>297.0</ele><time>2026-03-30T08:05:14.999Z</time></trkpt><trkpt lat="45.705091399144166" lon="8.854946712834376"><ele>297.0</ele><time>2026-03-30T08:05:16.999Z</time></trkpt><trkpt lat="45.70518790515954" lon="8.854925616002488"><ele>297.0</ele><time>2026-03-30T08:05:18.999Z</time></trkpt><trkpt lat="45.705258772069335" lon="8.854919796412139"><ele>297.0</ele><time>2026-03-30T08:05:19.999Z</time></trkpt><trkpt lat="45.705359589717055" lon="8.854954491663735"><ele>297.0</ele><time>2026-03-30T08:05:20.999Z</time></trkpt><trkpt lat="45.705468351847955" lon="8.85497483403844"><ele>297.0</ele><time>2026-03-30T08:05:21.999Z</time></trkpt><trkpt lat="45.705539005495524" lon="8.85499533586415"><ele>297.0</ele><time>2026-03-30T08:05:22.999Z</time></trkpt><trkpt lat="45.70561624197876" lon="8.854972274222451"><ele>297.0</ele><time>2026-03-30T08:05:23.999Z</time></trkpt><trkpt lat="45.70569058095799" lon="8.854959025689567"><ele>297.0</ele><time>2026-03-30T08:05:25.999Z</time></trkpt><trkpt lat="45.70575225629903" lon="8.855032365466055"><ele>297.0</ele><time>2026-03-30T08:05:30.999Z</time></trkpt><trkpt lat="45.70580082051334" lon="8.855150815880195"><ele>297.0</ele><time>2026-03-30T08:05:32.999Z</time></trkpt><trkpt lat="45.70589015365847" lon="8.85527683350994"><ele>297.0</ele><time>2026-03-30T08:05:34.999Z</time></trkpt><trkpt lat="45.70599012203352" lon="8.855351307870325"><ele>297.0</ele><time>2026-03-30T08:05:36.999Z</time></trkpt><trkpt lat="45.70617871263607" lon="8.85539996748197"><ele>297.0</ele><time>2026-03-30T08:05:41.999Z</time></trkpt><trkpt lat="45.70625270165621" lon="8.855353674775571"><ele>297.0</ele><time>2026-03-30T08:05:44.999Z</time></trkpt><trkpt lat="45.70635945052477" lon="8.855423521801528"><ele>297.5</ele><time>2026-03-30T08:05:46.999Z</time></trkpt><trkpt lat="45.706445838508095" lon="8.855473056523161"><ele>298.0</ele><time>2026-03-30T08:05:47.999Z</time></trkpt><trkpt lat="45.706508679646895" lon="8.855564615346385"><ele>298.5</ele><time>2026-03-30T08:05:49.999Z</time></trkpt><trkpt lat="45.70658541163444" lon="8.855606508630848"><ele>299.0</ele><time>2026-03-30T08:05:52.999Z</time></trkpt><trkpt lat="45.70660984034103" lon="8.855521800577511"><ele>299.5</ele><time>2026-03-30T08:05:55.999Z</time></trkpt><trkpt lat="45.70662456468584" lon="8.855428209926982"><ele>300.0</ele><time>2026-03-30T08:06:02.999Z</time></trkpt><trkpt lat="45.70660629127499" lon="8.855331456812026"><ele>300.0</ele><time>2026-03-30T08:06:04.999Z</time></trkpt><trkpt lat="45.706583073131746" lon="8.855242097154637"><ele>300.0</ele><time>2026-03-30T08:06:08.999Z</time></trkpt><trkpt lat="45.70662549934093" lon="8.855153610864066"><ele>300.0</ele><time>2026-03-30T08:06:13.998Z</time></trkpt><trkpt lat="45.706575760998845" lon="8.855077686417216"><ele>300.0</ele><time>2026-03-30T08:06:19Z</time></trkpt><trkpt lat="45.70657424428557" lon="8.854968058163195"><ele>300.0</ele><time>2026-03-30T08:06:24Z</time></trkpt><trkpt lat="45.706626262362455" lon="8.854904643793503"><ele>300.0</ele><time>2026-03-30T08:07:07.999Z</time></trkpt><trkpt lat="45.70671694757955" lon="8.854863079965025"><ele>301.4285714285714</ele><time>2026-03-30T08:07:15.999Z</time></trkpt><trkpt lat="45.70677440901642" lon="8.854822741231372"><ele>302.85714285714283</ele><time>2026-03-30T08:07:37.999Z</time></trkpt><trkpt lat="45.70677179316956" lon="8.854693622462376"><ele>304.2857142857143</ele><time>2026-03-30T08:07:41.999Z</time></trkpt><trkpt lat="45.706796792738814" lon="8.854604972959422"><ele>305.71428571428567</ele><time>2026-03-30T08:07:43.999Z</time></trkpt><trkpt lat="45.706736298496544" lon="8.854563676608592"><ele>307.1428571428571</ele><time>2026-03-30T08:07:46.999Z</time></trkpt><trkpt lat="45.706681597264804" lon="8.854463237288961"><ele>308.57142857142856</ele><time>2026-03-30T08:07:53.999Z</time></trkpt><trkpt lat="45.70666190994831" lon="8.854367081163343"><ele>310.0</ele><time>2026-03-30T08:07:56.999Z</time></trkpt><trkpt lat="45.70667722515177" lon="8.854259891441208"><ele>312.2857142857143</ele><time>2026-03-30T08:08:03.999Z</time></trkpt><trkpt lat="45.706733961256795" lon="8.854198639538687"><ele>314.57142857142856</ele><time>2026-03-30T08:08:07.999Z</time></trkpt><trkpt lat="45.70671538578258" lon="8.85411127210568"><ele>316.8571428571429</ele><time>2026-03-30T08:09:06Z</time></trkpt><trkpt lat="45.70671781009627" lon="8.854015104797"><ele>319.1428571428571</ele><time>2026-03-30T08:09:16.999Z</time></trkpt><trkpt lat="45.706781829575725" lon="8.853947833324462"><ele>321.4285714285714</ele><time>2026-03-30T08:09:20.999Z</time></trkpt><trkpt lat="45.706760701630756" lon="8.854042126558502"><ele>323.7142857142857</ele><time>2026-03-30T08:10:05.999Z</time></trkpt><trkpt lat="45.70674417785164" lon="8.854135838566835"><ele>326.0</ele><time>2026-03-30T08:10:14.999Z</time></trkpt><trkpt lat="45.70673782151707" lon="8.854027598470704"><ele>326.0</ele><time>2026-03-30T08:10:43Z</time></trkpt><trkpt lat="45.70677374000684" lon="8.853948738815317"><ele>326.0</ele><time>2026-03-30T08:10:47Z</time></trkpt><trkpt lat="45.70681170136897" lon="8.853856047699898"><ele>326.0</ele><time>2026-03-30T08:10:53Z</time></trkpt><trkpt lat="45.70682335706093" lon="8.853756550149916"><ele>326.0</ele><time>2026-03-30T08:13:06Z</time></trkpt><trkpt lat="45.7068037150003" lon="8.853645876099982"><ele>326.0</ele><time>2026-03-30T08:13:12Z</time></trkpt><trkpt lat="45.70679720985436" lon="8.853529595622483"><ele>326.0</ele><time>2026-03-30T08:13:15Z</time></trkpt><trkpt lat="45.70689758471614" lon="8.853487969997074"><ele>326.5</ele><time>2026-03-30T08:13:20Z</time></trkpt><trkpt lat="45.70695782321508" lon="8.853429208111052"><ele>327.0</ele><time>2026-03-30T08:13:22Z</time></trkpt><trkpt lat="45.706992772897955" lon="8.85333464710252"><ele>327.5</ele><time>2026-03-30T08:13:25Z</time></trkpt><trkpt lat="45.70706493007698" lon="8.853341144464046"><ele>328.0</ele><time>2026-03-30T08:13:27Z</time></trkpt><trkpt lat="45.707060751204395" lon="8.853481230981163"><ele>328.5</ele><time>2026-03-30T08:13:28.999Z</time></trkpt><trkpt lat="45.707100485772585" lon="8.853590880889659"><ele>329.0</ele><time>2026-03-30T08:13:31.999Z</time></trkpt><trkpt lat="45.707166406102324" lon="8.853705419086959"><ele>329.0</ele><time>2026-03-30T08:13:35.999Z</time></trkpt><trkpt lat="45.70724949752731" lon="8.853828519039121"><ele>329.0</ele><time>2026-03-30T08:13:37.999Z</time></trkpt><trkpt lat="45.70729349318408" lon="8.853908064117714"><ele>329.0</ele><time>2026-03-30T08:13:38.999Z</time></trkpt><trkpt lat="45.70735479398287" lon="8.85405698246407"><ele>329.0</ele><time>2026-03-30T08:13:40.999Z</time></trkpt><trkpt lat="45.70737827175202" lon="8.854237031237384"><ele>329.0</ele><time>2026-03-30T08:13:42.999Z</time></trkpt><trkpt lat="45.70743591904485" lon="8.854394921695858"><ele>328.83333333333337</ele><time>2026-03-30T08:13:44.999Z</time></trkpt><trkpt lat="45.70746084601517" lon="8.85448259991132"><ele>328.6666666666667</ele><time>2026-03-30T08:13:45.999Z</time></trkpt><trkpt lat="45.7075346822298" lon="8.854589407922038"><ele>328.5</ele><time>2026-03-30T08:13:47.999Z</time></trkpt><trkpt lat="45.7076082088994" lon="8.854629088875722"><ele>328.3333333333333</ele><time>2026-03-30T08:13:49.999Z</time></trkpt><trkpt lat="45.70768186373309" lon="8.85469564159509"><ele>328.16666666666663</ele><time>2026-03-30T08:13:51.999Z</time></trkpt><trkpt lat="45.707728654876135" lon="8.854763411945573"><ele>328.0</ele><time>2026-03-30T08:13:52.999Z</time></trkpt><trkpt lat="45.707825314445884" lon="8.854874946075562"><ele>328.0</ele><time>2026-03-30T08:13:54.999Z</time></trkpt><trkpt lat="45.70789783779206" lon="8.854989895240065"><ele>328.0</ele><time>2026-03-30T08:13:56.999Z</time></trkpt><trkpt lat="45.70796908101732" lon="8.855072606717599"><ele>328.0</ele><time>2026-03-30T08:13:58.999Z</time></trkpt><trkpt lat="45.708075775239976" lon="8.855129743843191"><ele>328.0</ele><time>2026-03-30T08:14:00.999Z</time></trkpt><trkpt lat="45.70814709886679" lon="8.855235565439395"><ele>328.0</ele><time>2026-03-30T08:14:02.999Z</time></trkpt><trkpt lat="45.708241960953664" lon="8.85532458326774"><ele>324.8333333333333</ele><time>2026-03-30T08:14:04.999Z</time></trkpt><trkpt lat="45.708319698632295" lon="8.855424437434506"><ele>321.66666666666663</ele><time>2026-03-30T08:14:06.999Z</time></trkpt><trkpt lat="45.708362886908596" lon="8.855490408026915"><ele>318.5</ele><time>2026-03-30T08:14:07.999Z</time></trkpt><trkpt lat="45.70840396994284" lon="8.855579294475362"><ele>315.3333333333333</ele><time>2026-03-30T08:14:08.999Z</time></trkpt><trkpt lat="45.70843795728668" lon="8.855685778517806"><ele>312.1666666666667</ele><time>2026-03-30T08:14:10.999Z</time></trkpt><trkpt lat="45.708503944049646" lon="8.855787229468117"><ele>309.0</ele><time>2026-03-30T08:14:12.999Z</time></trkpt><trkpt lat="45.70857111953136" lon="8.85594609163383"><ele>308.1666666666667</ele><time>2026-03-30T08:14:14.999Z</time></trkpt><trkpt lat="45.70860051235746" lon="8.856028233423107"><ele>307.3333333333333</ele><time>2026-03-30T08:14:15.999Z</time></trkpt><trkpt lat="45.70863145700911" lon="8.856114250069458"><ele>306.5</ele><time>2026-03-30T08:14:16.999Z</time></trkpt><trkpt lat="45.70866808770674" lon="8.856208078373333"><ele>305.66666666666663</ele><time>2026-03-30T08:14:18.999Z</time></trkpt><trkpt lat="45.70870726738671" lon="8.85630801252817"><ele>304.8333333333333</ele><time>2026-03-30T08:14:20.999Z</time></trkpt><trkpt lat="45.70876598221498" lon="8.856384756850016"><ele>304.0</ele><time>2026-03-30T08:14:22.999Z</time></trkpt><trkpt lat="45.70890500553508" lon="8.856359780091648"><ele>304.0</ele><time>2026-03-30T08:14:26.999Z</time></trkpt><trkpt lat="45.708991075275996" lon="8.856447562181295"><ele>304.0</ele><time>2026-03-30T08:14:56Z</time></trkpt><trkpt lat="45.70906975162281" lon="8.856521366373531"><ele>304.0</ele><time>2026-03-30T08:14:58Z</time></trkpt><trkpt lat="45.709146457821774" lon="8.856539780825102"><ele>304.0</ele><time>2026-03-30T08:14:59Z</time></trkpt><trkpt lat="45.709225753239856" lon="8.856556394115175"><ele>304.0</ele><time>2026-03-30T08:15:00Z</time></trkpt><trkpt lat="45.70932597617814" lon="8.856530530176085"><ele>304.8</ele><time>2026-03-30T08:15:01Z</time></trkpt><trkpt lat="45.70943586002049" lon="8.856532721448756"><ele>305.59999999999997</ele><time>2026-03-30T08:15:02Z</time></trkpt><trkpt lat="45.709551767742674" lon="8.856540583493388"><ele>306.4</ele><time>2026-03-30T08:15:03Z</time></trkpt><trkpt lat="45.70965454910482" lon="8.856552899096306"><ele>307.2</ele><time>2026-03-30T08:15:04Z</time></trkpt><trkpt lat="45.70976189660217" lon="8.856609760748393"><ele>308.0</ele><time>2026-03-30T08:15:05Z</time></trkpt><trkpt lat="45.709867823016225" lon="8.856652241775333"><ele>308.0</ele><time>2026-03-30T08:15:06Z</time></trkpt><trkpt lat="45.70996112747198" lon="8.856680144265715"><ele>308.0</ele><time>2026-03-30T08:15:07Z</time></trkpt><trkpt lat="45.7100673610997" lon="8.856696441784111"><ele>308.0</ele><time>2026-03-30T08:15:08Z</time></trkpt><trkpt lat="45.71016014752323" lon="8.856704734436555"><ele>308.0</ele><time>2026-03-30T08:15:09Z</time></trkpt><trkpt lat="45.71025517443467" lon="8.856714872047071"><ele>308.0</ele><time>2026-03-30T08:15:10Z</time></trkpt><trkpt lat="45.71033104238407" lon="8.856720517212809"><ele>308.4</ele><time>2026-03-30T08:15:11Z</time></trkpt><trkpt lat="45.71041533084323" lon="8.856730230915087"><ele>308.8</ele><time>2026-03-30T08:15:12Z</time></trkpt><trkpt lat="45.71051100353148" lon="8.856741194507997"><ele>309.2</ele><time>2026-03-30T08:15:13Z</time></trkpt><trkpt lat="45.710608286104325" lon="8.856797814085267"><ele>309.6</ele><time>2026-03-30T08:15:14Z</time></trkpt><trkpt lat="45.71067067213052" lon="8.856873248130368"><ele>310.0</ele><time>2026-03-30T08:15:15Z</time></trkpt><trkpt lat="45.71075546550738" lon="8.856936135699124"><ele>309.16666666666663</ele><time>2026-03-30T08:15:16Z</time></trkpt><trkpt lat="45.710849656092456" lon="8.856996706522525"><ele>308.3333333333333</ele><time>2026-03-30T08:15:17Z</time></trkpt><trkpt lat="45.71093029355165" lon="8.8570400729682"><ele>307.5</ele><time>2026-03-30T08:15:18Z</time></trkpt><trkpt lat="45.71099638297522" lon="8.857093557423324"><ele>306.6666666666667</ele><time>2026-03-30T08:15:19Z</time></trkpt><trkpt lat="45.71105667611812" lon="8.857185755626041"><ele>305.83333333333337</ele><time>2026-03-30T08:15:21Z</time></trkpt><trkpt lat="45.71104149791418" lon="8.857277782723727"><ele>305.0</ele><time>2026-03-30T08:15:23Z</time></trkpt><trkpt lat="45.71109270368718" lon="8.85739066075075"><ele>304.8</ele><time>2026-03-30T08:15:26Z</time></trkpt><trkpt lat="45.71114275581959" lon="8.8574690089134"><ele>304.6</ele><time>2026-03-30T08:15:28Z</time></trkpt><trkpt lat="45.711173415367604" lon="8.857606963826848"><ele>304.4</ele><time>2026-03-30T08:15:31Z</time></trkpt><trkpt lat="45.7111727815919" lon="8.857729716705956"><ele>304.2</ele><time>2026-03-30T08:15:32Z</time></trkpt><trkpt lat="45.711177061350185" lon="8.857845372354724"><ele>304.0</ele><time>2026-03-30T08:15:32.999Z</time></trkpt><trkpt lat="45.71121063890274" lon="8.858027940393642"><ele>303.3333333333333</ele><time>2026-03-30T08:15:34.999Z</time></trkpt><trkpt lat="45.71122897810115" lon="8.858164029808709"><ele>302.66666666666663</ele><time>2026-03-30T08:15:36.999Z</time></trkpt><trkpt lat="45.71128741947548" lon="8.858230927453262"><ele>302.0</ele><time>2026-03-30T08:15:38.999Z</time></trkpt><trkpt lat="45.71135222447396" lon="8.85825685363538"><ele>301.3333333333333</ele><time>2026-03-30T08:15:39.999Z</time></trkpt><trkpt lat="45.71143475065605" lon="8.858267688607109"><ele>300.6666666666667</ele><time>2026-03-30T08:15:40.999Z</time></trkpt><trkpt lat="45.71153055064827" lon="8.858265645219275"><ele>300.0</ele><time>2026-03-30T08:15:41.999Z</time></trkpt><trkpt lat="45.71165430920023" lon="8.858245202552611"><ele>300.0</ele><time>2026-03-30T08:15:42.999Z</time></trkpt><trkpt lat="45.71180389523978" lon="8.858376807042347"><ele>300.0</ele><time>2026-03-30T08:15:43.999Z</time></trkpt><trkpt lat="45.7119430628814" lon="8.8583466332204"><ele>300.0</ele><time>2026-03-30T08:15:44.999Z</time></trkpt><trkpt lat="45.712081807992824" lon="8.858315140061341"><ele>300.25</ele><time>2026-03-30T08:15:45.999Z</time></trkpt><trkpt lat="45.71221652749713" lon="8.858283604400924"><ele>300.5</ele><time>2026-03-30T08:15:46.999Z</time></trkpt><trkpt lat="45.712364179190836" lon="8.858242321765047"><ele>300.75</ele><time>2026-03-30T08:15:47.999Z</time></trkpt><trkpt lat="45.712490641747" lon="8.858195231424036"><ele>301.0</ele><time>2026-03-30T08:15:48.999Z</time></trkpt><trkpt lat="45.712625377753774" lon="8.858133934805949"><ele>301.25</ele><time>2026-03-30T08:15:49.999Z</time></trkpt><trkpt lat="45.71275043723042" lon="8.85806262496092"><ele>301.5</ele><time>2026-03-30T08:15:50.999Z</time></trkpt><trkpt lat="45.712870763799216" lon="8.857986244839553"><ele>301.75</ele><time>2026-03-30T08:15:51.999Z</time></trkpt><trkpt lat="45.713002225586365" lon="8.857892131539113"><ele>302.0</ele><time>2026-03-30T08:15:52.999Z</time></trkpt><trkpt lat="45.713125705180246" lon="8.857791701390253"><ele>302.0</ele><time>2026-03-30T08:15:53.999Z</time></trkpt><trkpt lat="45.71323424797121" lon="8.857702169805092"><ele>302.0</ele><time>2026-03-30T08:15:54.999Z</time></trkpt><trkpt lat="45.71332695131819" lon="8.857623840034499"><ele>302.0</ele><time>2026-03-30T08:15:55.999Z</time></trkpt><trkpt lat="45.71340988988681" lon="8.857553618717505"><ele>302.0</ele><time>2026-03-30T08:15:56.999Z</time></trkpt><trkpt lat="45.71349030422146" lon="8.857488907957633"><ele>302.0</ele><time>2026-03-30T08:15:57.999Z</time></trkpt><trkpt lat="45.71357093753906" lon="8.857424020997513"><ele>302.0</ele><time>2026-03-30T08:15:58.999Z</time></trkpt><trkpt lat="45.71367865722026" lon="8.857336327995881"><ele>302.0</ele><time>2026-03-30T08:15:59.999Z</time></trkpt><trkpt lat="45.71378626279115" lon="8.85724511895854"><ele>302.0</ele><time>2026-03-30T08:16:00.999Z</time></trkpt><trkpt lat="45.71389399887635" lon="8.857154460890195"><ele>302.0</ele><time>2026-03-30T08:16:01.999Z</time></trkpt><trkpt lat="45.71400285263197" lon="8.857064270972634"><ele>302.0</ele><time>2026-03-30T08:16:02.999Z</time></trkpt><trkpt lat="45.714112230661776" lon="8.856973646671346"><ele>302.0</ele><time>2026-03-30T08:16:03.999Z</time></trkpt><trkpt lat="45.7142136813058" lon="8.856889590537705"><ele>302.0</ele><time>2026-03-30T08:16:04.999Z</time></trkpt><trkpt lat="45.714305630913685" lon="8.856813406417547"><ele>302.0</ele><time>2026-03-30T08:16:05.999Z</time></trkpt><trkpt lat="45.71439602261227" lon="8.85673851309186"><ele>303.0</ele><time>2026-03-30T08:16:06.999Z</time></trkpt><trkpt lat="45.71448278336242" lon="8.856665367368604"><ele>304.0</ele><time>2026-03-30T08:16:07.999Z</time></trkpt><trkpt lat="45.71456646193609" lon="8.85659333148899"><ele>305.0</ele><time>2026-03-30T08:16:08.999Z</time></trkpt><trkpt lat="45.714640076058906" lon="8.856529611261735"><ele>306.0</ele><time>2026-03-30T08:16:09.999Z</time></trkpt><trkpt lat="45.714718937416286" lon="8.856461013109353"><ele>307.0</ele><time>2026-03-30T08:16:10.999Z</time></trkpt><trkpt lat="45.714818798599254" lon="8.856374148100254"><ele>307.0</ele><time>2026-03-30T08:16:11.999Z</time></trkpt><trkpt lat="45.71492667124843" lon="8.856276619066426"><ele>307.0</ele><time>2026-03-30T08:16:12.999Z</time></trkpt><trkpt lat="45.71503848207685" lon="8.856186166448508"><ele>307.0</ele><time>2026-03-30T08:16:13.999Z</time></trkpt><trkpt lat="45.71514485475933" lon="8.856093690045851"><ele>307.0</ele><time>2026-03-30T08:16:14.999Z</time></trkpt><trkpt lat="45.71521879452396" lon="8.856029985595217"><ele>307.3333333333333</ele><time>2026-03-30T08:16:15.999Z</time></trkpt><trkpt lat="45.71529623586324" lon="8.855972283829868"><ele>307.66666666666663</ele><time>2026-03-30T08:16:16.999Z</time></trkpt><trkpt lat="45.715404724805886" lon="8.85592368684778"><ele>308.0</ele><time>2026-03-30T08:16:18.999Z</time></trkpt><trkpt lat="45.71546745498196" lon="8.855948151422336"><ele>308.3333333333333</ele><time>2026-03-30T08:16:25.999Z</time></trkpt><trkpt lat="45.71549138504048" lon="8.856035893547595"><ele>308.6666666666667</ele><time>2026-03-30T08:16:26.999Z</time></trkpt><trkpt lat="45.715544226855954" lon="8.85610522761819"><ele>309.0</ele><time>2026-03-30T08:16:27.999Z</time></trkpt><trkpt lat="45.71558943490373" lon="8.856189646292494"><ele>309.2</ele><time>2026-03-30T08:16:28.999Z</time></trkpt><trkpt lat="45.71564826364945" lon="8.856296029388991"><ele>309.4</ele><time>2026-03-30T08:16:29.999Z</time></trkpt><trkpt lat="45.71569660024006" lon="8.856417422910516"><ele>309.6</ele><time>2026-03-30T08:16:30.999Z</time></trkpt><trkpt lat="45.715728220187266" lon="8.856564207319261"><ele>309.8</ele><time>2026-03-30T08:16:31.999Z</time></trkpt><trkpt lat="45.71576288224362" lon="8.856735361434506"><ele>310.0</ele><time>2026-03-30T08:16:32.999Z</time></trkpt><trkpt lat="45.715813303121934" lon="8.85694421903656"><ele>310.0</ele><time>2026-03-30T08:16:33.999Z</time></trkpt><trkpt lat="45.71586080107549" lon="8.857124532797148"><ele>310.0</ele><time>2026-03-30T08:16:34.999Z</time></trkpt><trkpt lat="45.715894294476534" lon="8.857343940440774"><ele>310.0</ele><time>2026-03-30T08:16:35.999Z</time></trkpt><trkpt lat="45.715953044432915" lon="8.85753398023306"><ele>310.0</ele><time>2026-03-30T08:16:36.999Z</time></trkpt><trkpt lat="45.715998019222404" lon="8.857731492859907"><ele>309.0</ele><time>2026-03-30T08:16:37.999Z</time></trkpt><trkpt lat="45.71604496211134" lon="8.857938040221793"><ele>308.0</ele><time>2026-03-30T08:16:38.999Z</time></trkpt><trkpt lat="45.7160959591582" lon="8.858149433295068"><ele>307.0</ele><time>2026-03-30T08:16:39.999Z</time></trkpt><trkpt lat="45.71614104549868" lon="8.858363320760954"><ele>308.0</ele><time>2026-03-30T08:16:40.999Z</time></trkpt><trkpt lat="45.716187622996536" lon="8.858569036822313"><ele>309.0</ele><time>2026-03-30T08:16:41.999Z</time></trkpt><trkpt lat="45.71623215821495" lon="8.858768172291647"><ele>310.0</ele><time>2026-03-30T08:16:42.999Z</time></trkpt><trkpt lat="45.71627554572792" lon="8.858956254709943"><ele>311.0</ele><time>2026-03-30T08:16:43.998Z</time></trkpt><trkpt lat="45.71631348881187" lon="8.859144377729404"><ele>311.0</ele><time>2026-03-30T08:16:44.998Z</time></trkpt><trkpt lat="45.71635000874249" lon="8.859321088237254"><ele>311.0</ele><time>2026-03-30T08:16:45.998Z</time></trkpt><trkpt lat="45.716390352379584" lon="8.859488653449326"><ele>311.0</ele><time>2026-03-30T08:16:46.998Z</time></trkpt><trkpt lat="45.71642361801823" lon="8.859641785656727"><ele>311.0</ele><time>2026-03-30T08:16:47.998Z</time></trkpt><trkpt lat="45.71646508947765" lon="8.85983475018779"><ele>311.0</ele><time>2026-03-30T08:16:49Z</time></trkpt><trkpt lat="45.71652158105532" lon="8.860055869367889"><ele>311.0</ele><time>2026-03-30T08:16:50Z</time></trkpt><trkpt lat="45.7165834167585" lon="8.860294209942438"><ele>311.0</ele><time>2026-03-30T08:16:51Z</time></trkpt><trkpt lat="45.716639215743314" lon="8.860536418146495"><ele>311.0</ele><time>2026-03-30T08:16:52Z</time></trkpt><trkpt lat="45.716676590476965" lon="8.860775984026242"><ele>311.0</ele><time>2026-03-30T08:16:53Z</time></trkpt><trkpt lat="45.7167315505659" lon="8.860967576338803"><ele>311.0</ele><time>2026-03-30T08:16:54Z</time></trkpt><trkpt lat="45.71676056609724" lon="8.86116212892615"><ele>311.2</ele><time>2026-03-30T08:16:55Z</time></trkpt><trkpt lat="45.71680543972621" lon="8.861321118777429"><ele>311.40000000000003</ele><time>2026-03-30T08:16:56Z</time></trkpt><trkpt lat="45.716834424488624" lon="8.861455134933333"><ele>311.6</ele><time>2026-03-30T08:16:57Z</time></trkpt><trkpt lat="45.716866176365436" lon="8.861582706998684"><ele>311.8</ele><time>2026-03-30T08:16:58Z</time></trkpt><trkpt lat="45.71689826566295" lon="8.861708041508884"><ele>312.0</ele><time>2026-03-30T08:16:59Z</time></trkpt><trkpt lat="45.71692647803877" lon="8.861850101244842"><ele>312.4</ele><time>2026-03-30T08:17:00Z</time></trkpt><trkpt lat="45.716933940308564" lon="8.861988549119657"><ele>312.79999999999995</ele><time>2026-03-30T08:17:01Z</time></trkpt><trkpt lat="45.71693998456791" lon="8.862136151353365"><ele>313.2</ele><time>2026-03-30T08:17:02Z</time></trkpt><trkpt lat="45.716932339512944" lon="8.86225575943403"><ele>313.59999999999997</ele><time>2026-03-30T08:17:03Z</time></trkpt><trkpt lat="45.71692601740508" lon="8.862382783961833"><ele>314.0</ele><time>2026-03-30T08:17:04Z</time></trkpt><trkpt lat="45.71691715545007" lon="8.862501833565615"><ele>314.0</ele><time>2026-03-30T08:17:05Z</time></trkpt><trkpt lat="45.71689355769068" lon="8.86264858727413"><ele>311.0</ele><time>2026-03-30T08:17:07Z</time></trkpt><trkpt lat="45.71688428954426" lon="8.862750150863148"><ele>311.0</ele><time>2026-03-30T08:17:10Z</time></trkpt><trkpt lat="45.716881099684606" lon="8.86286300326885"><ele>311.0</ele><time>2026-03-30T08:17:49.999Z</time></trkpt><trkpt lat="45.71689553030114" lon="8.86277459143322"><ele>311.0</ele><time>2026-03-30T08:19:19Z</time></trkpt></trkseg><trkseg><trkpt lat="45.71692288199991" lon="8.862841555908266"><ele>312.0</ele><time>2026-03-30T08:33:50.999Z</time></trkpt><trkpt lat="45.7169403249182" lon="8.862705527223355"><ele>312.0</ele><time>2026-03-30T08:33:52.999Z</time></trkpt><trkpt lat="45.71696931133558" lon="8.86257436385678"><ele>312.0</ele><time>2026-03-30T08:33:54.999Z</time></trkpt><trkpt lat="45.71696317207524" lon="8.862478778098058"><ele>312.0</ele><time>2026-03-30T08:33:55.999Z</time></trkpt><trkpt lat="45.71696152328682" lon="8.862381085188646"><ele>312.0</ele><time>2026-03-30T08:33:56.999Z</time></trkpt><trkpt lat="45.71697736398934" lon="8.8622883092777"><ele>312.0</ele><time>2026-03-30T08:33:57.999Z</time></trkpt><trkpt lat="45.71697418024214" lon="8.862169487121697"><ele>312.0</ele><time>2026-03-30T08:33:58.999Z</time></trkpt><trkpt lat="45.71694563893206" lon="8.862020866570825"><ele>312.0</ele><time>2026-03-30T08:33:59.999Z</time></trkpt><trkpt lat="45.71695327215613" lon="8.861895360823535"><ele>312.0</ele><time>2026-03-30T08:34:00.999Z</time></trkpt><trkpt lat="45.7169485123521" lon="8.861768272377825"><ele>312.0</ele><time>2026-03-30T08:34:01.999Z</time></trkpt><trkpt lat="45.71690578890167" lon="8.861620340487335"><ele>312.0</ele><time>2026-03-30T08:34:02.999Z</time></trkpt><trkpt lat="45.716871920653" lon="8.861462371332099"><ele>312.0</ele><time>2026-03-30T08:34:03.999Z</time></trkpt><trkpt lat="45.716826069936346" lon="8.861294598174053"><ele>312.0</ele><time>2026-03-30T08:34:04.999Z</time></trkpt><trkpt lat="45.716740791271775" lon="8.861136598848391"><ele>312.0</ele><time>2026-03-30T08:34:05.999Z</time></trkpt><trkpt lat="45.71674724428011" lon="8.861016716817156"><ele>312.0</ele><time>2026-03-30T08:34:06.999Z</time></trkpt><trkpt lat="45.71672496960728" lon="8.86090285541825"><ele>312.0</ele><time>2026-03-30T08:34:07.999Z</time></trkpt><trkpt lat="45.716696495551325" lon="8.860775807536644"><ele>311.8</ele><time>2026-03-30T08:34:08.999Z</time></trkpt><trkpt lat="45.716662466854366" lon="8.860640706475628"><ele>311.6</ele><time>2026-03-30T08:34:09.999Z</time></trkpt><trkpt lat="45.71662726271855" lon="8.860504848565272"><ele>311.40000000000003</ele><time>2026-03-30T08:34:10.999Z</time></trkpt><trkpt lat="45.71659725012806" lon="8.860363324377166"><ele>311.2</ele><time>2026-03-30T08:34:11.999Z</time></trkpt><trkpt lat="45.71656682780375" lon="8.860225031784637"><ele>311.0</ele><time>2026-03-30T08:34:12.999Z</time></trkpt><trkpt lat="45.716532879913885" lon="8.860087525417676"><ele>311.0</ele><time>2026-03-30T08:34:13.999Z</time></trkpt><trkpt lat="45.71650277962913" lon="8.859950491479498"><ele>311.0</ele><time>2026-03-30T08:34:14.999Z</time></trkpt><trkpt lat="45.716472903576246" lon="8.859817449842103"><ele>311.0</ele><time>2026-03-30T08:34:15.999Z</time></trkpt><trkpt lat="45.71644316833356" lon="8.859694587954676"><ele>311.0</ele><time>2026-03-30T08:34:16.999Z</time></trkpt><trkpt lat="45.71641286292046" lon="8.8595693582014"><ele>311.0</ele><time>2026-03-30T08:34:17.999Z</time></trkpt><trkpt lat="45.716390498143916" lon="8.859449437819602"><ele>311.0</ele><time>2026-03-30T08:34:18.999Z</time></trkpt><trkpt lat="45.7163617605223" lon="8.859324265223679"><ele>311.0</ele><time>2026-03-30T08:34:19.999Z</time></trkpt><trkpt lat="45.716335225036026" lon="8.859198119029532"><ele>311.0</ele><time>2026-03-30T08:34:20.999Z</time></trkpt><trkpt lat="45.716305364495945" lon="8.859068261597484"><ele>311.0</ele><time>2026-03-30T08:34:21.999Z</time></trkpt><trkpt lat="45.71627485677856" lon="8.858935184274015"><ele>311.0</ele><time>2026-03-30T08:34:22.999Z</time></trkpt><trkpt lat="45.71623885123314" lon="8.858800340463123"><ele>311.0</ele><time>2026-03-30T08:34:23.999Z</time></trkpt><trkpt lat="45.71621332677557" lon="8.858680156821665"><ele>311.0</ele><time>2026-03-30T08:34:24.999Z</time></trkpt><trkpt lat="45.71618670817827" lon="8.85855834936515"><ele>311.0</ele><time>2026-03-30T08:34:25.999Z</time></trkpt><trkpt lat="45.7161630440062" lon="8.858442628145822"><ele>311.0</ele><time>2026-03-30T08:34:26.999Z</time></trkpt><trkpt lat="45.716139667418176" lon="8.85832213657275"><ele>311.0</ele><time>2026-03-30T08:34:27.999Z</time></trkpt><trkpt lat="45.716108120122215" lon="8.858209120075056"><ele>311.0</ele><time>2026-03-30T08:34:28.999Z</time></trkpt><trkpt lat="45.71608028337815" lon="8.858097983399384"><ele>310.8</ele><time>2026-03-30T08:34:29.999Z</time></trkpt><trkpt lat="45.71607377329284" lon="8.857972185932445"><ele>310.6</ele><time>2026-03-30T08:34:30.999Z</time></trkpt><trkpt lat="45.7160306624422" lon="8.857856651470206"><ele>310.4</ele><time>2026-03-30T08:34:31.999Z</time></trkpt><trkpt lat="45.71600418191651" lon="8.8577305136444"><ele>310.2</ele><time>2026-03-30T08:34:32.999Z</time></trkpt><trkpt lat="45.71597943563214" lon="8.857602964630706"><ele>310.0</ele><time>2026-03-30T08:34:33.999Z</time></trkpt><trkpt lat="45.715948693839955" lon="8.857476088800368"><ele>310.0</ele><time>2026-03-30T08:34:34.999Z</time></trkpt><trkpt lat="45.71591855889889" lon="8.857342170158729"><ele>310.0</ele><time>2026-03-30T08:34:35.999Z</time></trkpt><trkpt lat="45.71397581350284" lon="8.854945503146551"><ele>311.0</ele><time>2026-03-30T08:35:37Z</time></trkpt><trkpt lat="45.7139311513775" lon="8.855043774010127"><ele>312.0</ele><time>2026-03-30T08:36:00.999Z</time></trkpt><trkpt lat="45.71385964336349" lon="8.855042175009691"><ele>313.0</ele><time>2026-03-30T08:36:02.999Z</time></trkpt><trkpt lat="45.71381142291894" lon="8.854968216978811"><ele>314.0</ele><time>2026-03-30T08:36:04.999Z</time></trkpt><trkpt lat="45.71380773836885" lon="8.854833852993956"><ele>315.0</ele><time>2026-03-30T08:36:06.999Z</time></trkpt><trkpt lat="45.713773674183045" lon="8.85474586527091"><ele>316.0</ele><time>2026-03-30T08:36:08.999Z</time></trkpt><trkpt lat="45.71370535472708" lon="8.854660634874257"><ele>316.0</ele><time>2026-03-30T08:36:10.999Z</time></trkpt><trkpt lat="45.7136136185254" lon="8.854662772185455"><ele>316.0</ele><time>2026-03-30T08:36:12.999Z</time></trkpt><trkpt lat="45.71356545912454" lon="8.854588301107883"><ele>316.0</ele><time>2026-03-30T08:36:14.999Z</time></trkpt><trkpt lat="45.7135287153345" lon="8.85450526101049"><ele>316.0</ele><time>2026-03-30T08:36:16.999Z</time></trkpt><trkpt lat="45.71345166717787" lon="8.854465470139113"><ele>316.0</ele><time>2026-03-30T08:36:19.999Z</time></trkpt><trkpt lat="45.71339891816597" lon="8.854394179396696"><ele>316.0</ele><time>2026-03-30T08:36:21.999Z</time></trkpt><trkpt lat="45.713297606336205" lon="8.854397618338364"><ele>320.0</ele><time>2026-03-30T08:36:24.999Z</time></trkpt><trkpt lat="45.71321219897682" lon="8.854364735082921"><ele>324.0</ele><time>2026-03-30T08:36:26.999Z</time></trkpt><trkpt lat="45.71314506426108" lon="8.85433537513657"><ele>328.0</ele><time>2026-03-30T08:36:29.999Z</time></trkpt><trkpt lat="45.713076366454885" lon="8.854301839903508"><ele>332.0</ele><time>2026-03-30T08:36:34.999Z</time></trkpt><trkpt lat="45.712765945795375" lon="8.854417840942558"><ele>334.0</ele><time>2026-03-30T08:36:46.999Z</time></trkpt><trkpt lat="45.71278636975732" lon="8.854286267699921"><ele>336.0</ele><time>2026-03-30T08:36:53.999Z</time></trkpt><trkpt lat="45.712703400071376" lon="8.854586934115396"><ele>338.0</ele><time>2026-03-30T08:37:47Z</time></trkpt><trkpt lat="45.71272616265242" lon="8.854672719348768"><ele>340.0</ele><time>2026-03-30T08:41:55Z</time></trkpt><trkpt lat="45.71269914632234" lon="8.854780240156163"><ele>340.75</ele><time>2026-03-30T08:42:03Z</time></trkpt><trkpt lat="45.712494749414645" lon="8.854881648773972"><ele>341.5</ele><time>2026-03-30T08:42:09Z</time></trkpt><trkpt lat="45.712403312346844" lon="8.854892566314584"><ele>342.25</ele><time>2026-03-30T08:42:10.999Z</time></trkpt><trkpt lat="45.712302999673675" lon="8.85484464961504"><ele>343.0</ele><time>2026-03-30T08:42:12.999Z</time></trkpt><trkpt lat="45.71219470701206" lon="8.854799289749748"><ele>343.0</ele><time>2026-03-30T08:42:14.999Z</time></trkpt><trkpt lat="45.712109885583445" lon="8.854704123824341"><ele>343.0</ele><time>2026-03-30T08:42:16.999Z</time></trkpt><trkpt lat="45.71201425620251" lon="8.854667729472277"><ele>343.0</ele><time>2026-03-30T08:42:18.999Z</time></trkpt><trkpt lat="45.71190115444008" lon="8.85464973468887"><ele>343.0</ele><time>2026-03-30T08:42:20.999Z</time></trkpt><trkpt lat="45.711832101350005" lon="8.854603720424633"><ele>343.0</ele><time>2026-03-30T08:42:21.999Z</time></trkpt><trkpt lat="45.71172605255206" lon="8.854601254868857"><ele>343.79999999999995</ele><time>2026-03-30T08:42:23.999Z</time></trkpt><trkpt lat="45.71160841451779" lon="8.854564040320321"><ele>344.6</ele><time>2026-03-30T08:42:25.999Z</time></trkpt><trkpt lat="45.71151027301069" lon="8.854531172910178"><ele>345.4</ele><time>2026-03-30T08:42:26.999Z</time></trkpt><trkpt lat="45.711442288232234" lon="8.854505802980052"><ele>346.20000000000005</ele><time>2026-03-30T08:42:27.999Z</time></trkpt><trkpt lat="45.711374394041215" lon="8.854484717145304"><ele>347.0</ele><time>2026-03-30T08:42:28.999Z</time></trkpt><trkpt lat="45.71127519524373" lon="8.854438208048396"><ele>347.0</ele><time>2026-03-30T08:42:30.999Z</time></trkpt><trkpt lat="45.71118645846189" lon="8.854465865650216"><ele>347.0</ele><time>2026-03-30T08:42:32.999Z</time></trkpt><trkpt lat="45.71112672238125" lon="8.854434978576505"><ele>347.0</ele><time>2026-03-30T08:42:33.999Z</time></trkpt><trkpt lat="45.711083996822786" lon="8.8543545805939"><ele>347.0</ele><time>2026-03-30T08:42:34.999Z</time></trkpt><trkpt lat="45.71087830073499" lon="8.853850876598862"><ele>347.8</ele><time>2026-03-30T08:42:39.999Z</time></trkpt><trkpt lat="45.71078799288492" lon="8.853807252440015"><ele>348.6</ele><time>2026-03-30T08:42:45.999Z</time></trkpt><trkpt lat="45.71069929615605" lon="8.853914878683502"><ele>349.40000000000003</ele><time>2026-03-30T08:42:47.999Z</time></trkpt><trkpt lat="45.71058377186332" lon="8.853966244454885"><ele>350.20000000000005</ele><time>2026-03-30T08:42:49.999Z</time></trkpt><trkpt lat="45.710480188529814" lon="8.853966320345624"><ele>351.0</ele><time>2026-03-30T08:42:51.999Z</time></trkpt><trkpt lat="45.71034311287666" lon="8.853967349765645"><ele>351.0</ele><time>2026-03-30T08:42:53.999Z</time></trkpt><trkpt lat="45.71025617725706" lon="8.85395664605972"><ele>351.0</ele><time>2026-03-30T08:42:54.999Z</time></trkpt><trkpt lat="45.71013633781409" lon="8.853932991162985"><ele>351.0</ele><time>2026-03-30T08:42:56.999Z</time></trkpt><trkpt lat="45.71005772411868" lon="8.85396417740706"><ele>351.0</ele><time>2026-03-30T08:42:58.999Z</time></trkpt><trkpt lat="45.70998590748309" lon="8.854012054246839"><ele>351.0</ele><time>2026-03-30T08:43:01.999Z</time></trkpt><trkpt lat="45.70990333830845" lon="8.854035009947175"><ele>350.0</ele><time>2026-03-30T08:43:03.999Z</time></trkpt><trkpt lat="45.70983401541616" lon="8.854075439551236"><ele>349.0</ele><time>2026-03-30T08:43:08.999Z</time></trkpt><trkpt lat="45.70833199218342" lon="8.852664069392146"><ele>347.3333333333333</ele><time>2026-03-30T08:44:37.999Z</time></trkpt><trkpt lat="45.70833931381098" lon="8.85255153686093"><ele>345.66666666666663</ele><time>2026-03-30T08:44:38.999Z</time></trkpt><trkpt lat="45.70832431516517" lon="8.852397298292844"><ele>344.0</ele><time>2026-03-30T08:44:40.999Z</time></trkpt><trkpt lat="45.70828262586746" lon="8.852313955348512"><ele>342.3333333333333</ele><time>2026-03-30T08:44:41.999Z</time></trkpt><trkpt lat="45.708224340533405" lon="8.852229199022862"><ele>340.6666666666667</ele><time>2026-03-30T08:44:42.999Z</time></trkpt><trkpt lat="45.70816021344906" lon="8.85216810648676"><ele>339.0</ele><time>2026-03-30T08:44:43.999Z</time></trkpt><trkpt lat="45.708074394601766" lon="8.852108797933768"><ele>339.0</ele><time>2026-03-30T08:44:44.999Z</time></trkpt><trkpt lat="45.708009515158416" lon="8.85208090220323"><ele>339.0</ele><time>2026-03-30T08:44:45.999Z</time></trkpt><trkpt lat="45.70794208780284" lon="8.852070582294216"><ele>339.0</ele><time>2026-03-30T08:44:46.999Z</time></trkpt><trkpt lat="45.70784222186212" lon="8.852047477306131"><ele>339.0</ele><time>2026-03-30T08:44:47.999Z</time></trkpt><trkpt lat="45.707761701752226" lon="8.85203995904663"><ele>339.0</ele><time>2026-03-30T08:44:48.999Z</time></trkpt><trkpt lat="45.707693983798926" lon="8.85201060726217"><ele>339.0</ele><time>2026-03-30T08:44:49.999Z</time></trkpt><trkpt lat="45.7076127554947" lon="8.852003012175773"><ele>338.1666666666667</ele><time>2026-03-30T08:44:50.999Z</time></trkpt><trkpt lat="45.70752290261039" lon="8.852006774752919"><ele>337.3333333333333</ele><time>2026-03-30T08:44:52.999Z</time></trkpt><trkpt lat="45.70748624190046" lon="8.85189293595159"><ele>336.5</ele><time>2026-03-30T08:44:54.999Z</time></trkpt><trkpt lat="45.7074747717371" lon="8.851790920445914"><ele>335.66666666666663</ele><time>2026-03-30T08:44:55.999Z</time></trkpt><trkpt lat="45.707475458078676" lon="8.85166599309565"><ele>334.8333333333333</ele><time>2026-03-30T08:44:57.999Z</time></trkpt><trkpt lat="45.707404270820795" lon="8.851623093799919"><ele>334.0</ele><time>2026-03-30T08:45:00.999Z</time></trkpt><trkpt lat="45.70727650140627" lon="8.851605708589833"><ele>334.0</ele><time>2026-03-30T08:45:02.999Z</time></trkpt><trkpt lat="45.707181942579346" lon="8.851599655155674"><ele>334.0</ele><time>2026-03-30T08:45:03.999Z</time></trkpt><trkpt lat="45.707103779660905" lon="8.851597203810368"><ele>334.0</ele><time>2026-03-30T08:45:04.999Z</time></trkpt><trkpt lat="45.70702108151123" lon="8.851611247469801"><ele>334.0</ele><time>2026-03-30T08:45:05.999Z</time></trkpt><trkpt lat="45.70695609676992" lon="8.851590163271606"><ele>334.0</ele><time>2026-03-30T08:45:06.999Z</time></trkpt><trkpt lat="45.70687300314806" lon="8.851533034899223"><ele>334.0</ele><time>2026-03-30T08:45:08.999Z</time></trkpt><trkpt lat="45.706771919732816" lon="8.85154665983267"><ele>333.66666666666663</ele><time>2026-03-30T08:45:11.999Z</time></trkpt><trkpt lat="45.706711674766304" lon="8.851583901350248"><ele>333.3333333333333</ele><time>2026-03-30T08:45:13.999Z</time></trkpt><trkpt lat="45.70665164623748" lon="8.851615213919118"><ele>333.0</ele><time>2026-03-30T08:45:17.999Z</time></trkpt><trkpt lat="45.70656483232938" lon="8.851652097372284"><ele>332.6666666666667</ele><time>2026-03-30T08:45:21.999Z</time></trkpt><trkpt lat="45.706483433684085" lon="8.851641083447605"><ele>332.33333333333337</ele><time>2026-03-30T08:45:23.999Z</time></trkpt><trkpt lat="45.706388548970544" lon="8.851551555603706"><ele>332.0</ele><time>2026-03-30T08:45:25.999Z</time></trkpt><trkpt lat="45.70628847254626" lon="8.85153492225447"><ele>332.0</ele><time>2026-03-30T08:45:27.999Z</time></trkpt><trkpt lat="45.70618745763201" lon="8.851537764294289"><ele>332.0</ele><time>2026-03-30T08:45:30Z</time></trkpt><trkpt lat="45.706116875291656" lon="8.851545431530562"><ele>332.0</ele><time>2026-03-30T08:45:32Z</time></trkpt><trkpt lat="45.70604556956801" lon="8.85160177285934"><ele>332.0</ele><time>2026-03-30T08:45:33Z</time></trkpt><trkpt lat="45.70591618830924" lon="8.851607728603744"><ele>332.0</ele><time>2026-03-30T08:45:35Z</time></trkpt><trkpt lat="45.70340743050275" lon="8.852063099779846"><ele>329.20000000000005</ele><time>2026-03-30T08:46:46.999Z</time></trkpt><trkpt lat="45.70334004118424" lon="8.852174031237816"><ele>326.40000000000003</ele><time>2026-03-30T08:47:12.999Z</time></trkpt><trkpt lat="45.703279007501536" lon="8.852237775038173"><ele>323.6</ele><time>2026-03-30T08:47:14.999Z</time></trkpt><trkpt lat="45.70318327330763" lon="8.852198427738818"><ele>320.8</ele><time>2026-03-30T08:47:17.999Z</time></trkpt><trkpt lat="45.70313121190465" lon="8.852085870324588"><ele>318.0</ele><time>2026-03-30T08:47:19.999Z</time></trkpt><trkpt lat="45.70306262324067" lon="8.85195038684676"><ele>318.0</ele><time>2026-03-30T08:47:21.999Z</time></trkpt><trkpt lat="45.703010763236115" lon="8.851806142079225"><ele>318.0</ele><time>2026-03-30T08:47:23.999Z</time></trkpt><trkpt lat="45.702981398352456" lon="8.85169344882826"><ele>318.0</ele><time>2026-03-30T08:47:25.999Z</time></trkpt><trkpt lat="45.702951336922226" lon="8.851550945530878"><ele>318.0</ele><time>2026-03-30T08:47:27.999Z</time></trkpt><trkpt lat="45.702944162352274" lon="8.851425473620717"><ele>318.0</ele><time>2026-03-30T08:47:29.999Z</time></trkpt><trkpt lat="45.70287733137546" lon="8.851328159618637"><ele>321.0</ele><time>2026-03-30T08:47:32.999Z</time></trkpt><trkpt lat="45.70277411933601" lon="8.851377396257595"><ele>324.0</ele><time>2026-03-30T08:47:35Z</time></trkpt><trkpt lat="45.70252970681922" lon="8.851814286354397"><ele>321.3333333333333</ele><time>2026-03-30T08:47:45Z</time></trkpt><trkpt lat="45.70254994143003" lon="8.851921012366793"><ele>318.6666666666667</ele><time>2026-03-30T08:47:46Z</time></trkpt><trkpt lat="45.7025822378151" lon="8.852039759574343"><ele>316.0</ele><time>2026-03-30T08:47:47Z</time></trkpt><trkpt lat="45.70260809964565" lon="8.852152820467138"><ele>313.33333333333337</ele><time>2026-03-30T08:47:48Z</time></trkpt><trkpt lat="45.70264511348371" lon="8.852253234091005"><ele>310.6666666666667</ele><time>2026-03-30T08:47:49Z</time></trkpt><trkpt lat="45.702655707425755" lon="8.852344195584786"><ele>308.0</ele><time>2026-03-30T08:47:50Z</time></trkpt><trkpt lat="45.70269867844306" lon="8.852456728991884"><ele>308.0</ele><time>2026-03-30T08:47:51Z</time></trkpt><trkpt lat="45.70269894951395" lon="8.852556810748121"><ele>308.0</ele><time>2026-03-30T08:47:52Z</time></trkpt><trkpt lat="45.702739603263936" lon="8.852716515557141"><ele>308.0</ele><time>2026-03-30T08:47:54Z</time></trkpt><trkpt lat="45.70275632161828" lon="8.852842404615444"><ele>308.0</ele><time>2026-03-30T08:47:56Z</time></trkpt><trkpt lat="45.702682600478134" lon="8.852879498177543"><ele>308.0</ele><time>2026-03-30T08:47:58Z</time></trkpt><trkpt lat="45.702611423792696" lon="8.852883026085555"><ele>308.0</ele><time>2026-03-30T08:47:59Z</time></trkpt><trkpt lat="45.702519087602965" lon="8.852904665397697"><ele>307.4</ele><time>2026-03-30T08:48:00Z</time></trkpt><trkpt lat="45.70242981146548" lon="8.852924913372716"><ele>306.8</ele><time>2026-03-30T08:48:01Z</time></trkpt><trkpt lat="45.70234505649415" lon="8.852963594040816"><ele>306.2</ele><time>2026-03-30T08:48:02Z</time></trkpt><trkpt lat="45.702277639149074" lon="8.85303432621147"><ele>305.6</ele><time>2026-03-30T08:48:03Z</time></trkpt><trkpt lat="45.70218029168265" lon="8.85307254783227"><ele>305.0</ele><time>2026-03-30T08:48:05Z</time></trkpt><trkpt lat="45.70206838683209" lon="8.853004536784193"><ele>305.0</ele><time>2026-03-30T08:48:07Z</time></trkpt><trkpt lat="45.701999601694354" lon="8.852977522239124"><ele>305.0</ele><time>2026-03-30T08:48:08Z</time></trkpt><trkpt lat="45.70191884679199" lon="8.852983883695517"><ele>305.0</ele><time>2026-03-30T08:48:09Z</time></trkpt><trkpt lat="45.701843738268344" lon="8.852987766261396"><ele>305.0</ele><time>2026-03-30T08:48:10Z</time></trkpt><trkpt lat="45.701765591606154" lon="8.853013004720781"><ele>305.0</ele><time>2026-03-30T08:48:11Z</time></trkpt><trkpt lat="45.70167997703223" lon="8.853080480403058"><ele>305.0</ele><time>2026-03-30T08:48:12Z</time></trkpt><trkpt lat="45.70160748016516" lon="8.853104787556994"><ele>304.83333333333337</ele><time>2026-03-30T08:48:13Z</time></trkpt><trkpt lat="45.70151467096349" lon="8.85306797146612"><ele>304.6666666666667</ele><time>2026-03-30T08:48:15Z</time></trkpt><trkpt lat="45.70145763065345" lon="8.853015561354797"><ele>304.5</ele><time>2026-03-30T08:48:18Z</time></trkpt><trkpt lat="45.70150331027134" lon="8.8528656772452"><ele>304.3333333333333</ele><time>2026-03-30T08:48:20Z</time></trkpt><trkpt lat="45.70150626086405" lon="8.852753740112679"><ele>304.16666666666663</ele><time>2026-03-30T08:48:21Z</time></trkpt><trkpt lat="45.701518336419184" lon="8.852657851112705"><ele>304.0</ele><time>2026-03-30T08:48:22Z</time></trkpt><trkpt lat="45.701507603919055" lon="8.852565364660714"><ele>304.0</ele><time>2026-03-30T08:48:23Z</time></trkpt><trkpt lat="45.701502974415945" lon="8.852453730025454"><ele>304.0</ele><time>2026-03-30T08:48:24Z</time></trkpt><trkpt lat="45.70152411833162" lon="8.852340101604515"><ele>304.0</ele><time>2026-03-30T08:48:25Z</time></trkpt><trkpt lat="45.70151893542282" lon="8.852165352547765"><ele>304.0</ele><time>2026-03-30T08:48:27Z</time></trkpt><trkpt lat="45.701540196234326" lon="8.852078438693958"><ele>304.0</ele><time>2026-03-30T08:48:28Z</time></trkpt><trkpt lat="45.70160412724713" lon="8.852005702492066"><ele>304.0</ele><time>2026-03-30T08:48:29Z</time></trkpt><trkpt lat="45.701618820246665" lon="8.85185108127813"><ele>304.4</ele><time>2026-03-30T08:48:30.999Z</time></trkpt><trkpt lat="45.70158406554166" lon="8.851766455434422"><ele>304.79999999999995</ele><time>2026-03-30T08:48:31.999Z</time></trkpt><trkpt lat="45.70154109398305" lon="8.851687317579463"><ele>305.20000000000005</ele><time>2026-03-30T08:48:32.999Z</time></trkpt><trkpt lat="45.701488589688786" lon="8.85163016869291"><ele>305.6</ele><time>2026-03-30T08:48:33.999Z</time></trkpt><trkpt lat="45.701446479941445" lon="8.851517197685196"><ele>306.0</ele><time>2026-03-30T08:48:35.999Z</time></trkpt><trkpt lat="45.700577346102094" lon="8.849894253725946"><ele>306.0</ele><time>2026-03-30T08:49:42Z</time></trkpt><trkpt lat="45.70055098479374" lon="8.849996103454062"><ele>306.0</ele><time>2026-03-30T08:49:51Z</time></trkpt><trkpt lat="45.70050867195933" lon="8.850068072857683"><ele>306.0</ele><time>2026-03-30T08:49:54Z</time></trkpt><trkpt lat="45.70044189098241" lon="8.850035542404134"><ele>306.0</ele><time>2026-03-30T08:49:59Z</time></trkpt><trkpt lat="45.7003977599792" lon="8.849964674990972"><ele>306.0</ele><time>2026-03-30T08:50:13Z</time></trkpt><trkpt lat="45.70034109685465" lon="8.849907107502267"><ele>306.0</ele><time>2026-03-30T08:50:21Z</time></trkpt><trkpt lat="45.70025277094989" lon="8.849910228879118"><ele>306.0</ele><time>2026-03-30T08:50:23Z</time></trkpt><trkpt lat="45.700219639958775" lon="8.8498267241814"><ele>306.0</ele><time>2026-03-30T08:50:27Z</time></trkpt><trkpt lat="45.700293960472834" lon="8.849749476080177"><ele>306.0</ele><time>2026-03-30T08:50:29Z</time></trkpt><trkpt lat="45.70040335959217" lon="8.849715459046774"><ele>306.0</ele><time>2026-03-30T08:50:31Z</time></trkpt><trkpt lat="45.70050753766833" lon="8.849646590868547"><ele>306.0</ele><time>2026-03-30T08:50:33Z</time></trkpt><trkpt lat="45.700614993367125" lon="8.849594852648481"><ele>306.0</ele><time>2026-03-30T08:50:34.999Z</time></trkpt><trkpt lat="45.700675036071985" lon="8.84955871754913"><ele>324.0</ele><time>2026-03-30T08:50:35.999Z</time></trkpt><trkpt lat="45.70257433805246" lon="8.847925862780805"><ele>324.0</ele><time>2026-03-30T08:51:36.999Z</time></trkpt><trkpt lat="45.70264196159002" lon="8.847855747875983"><ele>324.0</ele><time>2026-03-30T08:52:01Z</time></trkpt><trkpt lat="45.70267279729794" lon="8.847723125285233"><ele>324.0</ele><time>2026-03-30T08:52:04Z</time></trkpt><trkpt lat="45.70270539625328" lon="8.847632230588765"><ele>324.0</ele><time>2026-03-30T08:52:07Z</time></trkpt><trkpt lat="45.702787455624765" lon="8.847607367359872"><ele>324.0</ele><time>2026-03-30T08:52:10Z</time></trkpt><trkpt lat="45.70277763236072" lon="8.847513254167227"><ele>324.0</ele><time>2026-03-30T08:52:16Z</time></trkpt><trkpt lat="45.70273659592649" lon="8.847436089218808"><ele>324.0</ele><time>2026-03-30T08:52:19Z</time></trkpt><trkpt lat="45.70275370813377" lon="8.847347213647177"><ele>324.0</ele><time>2026-03-30T08:52:22Z</time></trkpt><trkpt lat="45.7027472245608" lon="8.84725537782249"><ele>324.0</ele><time>2026-03-30T08:52:29Z</time></trkpt><trkpt lat="45.70268198223917" lon="8.847196105137323"><ele>324.0</ele><time>2026-03-30T08:52:32Z</time></trkpt><trkpt lat="45.70260722224108" lon="8.847142661011755"><ele>324.0</ele><time>2026-03-30T08:52:34Z</time></trkpt><trkpt lat="45.70253175967685" lon="8.847086712389796"><ele>324.0</ele><time>2026-03-30T08:52:36Z</time></trkpt><trkpt lat="45.70211602942381" lon="8.846715706887036"><ele>324.0</ele><time>2026-03-30T08:52:46.999Z</time></trkpt><trkpt lat="45.702045032888336" lon="8.846644458193328"><ele>324.0</ele><time>2026-03-30T08:52:48.999Z</time></trkpt><trkpt lat="45.70195029204292" lon="8.84664952018222"><ele>324.0</ele><time>2026-03-30T08:52:50.999Z</time></trkpt><trkpt lat="45.701867240286205" lon="8.846696107490162"><ele>324.0</ele><time>2026-03-30T08:52:52.999Z</time></trkpt><trkpt lat="45.70177829215534" lon="8.846731531665657"><ele>324.0</ele><time>2026-03-30T08:52:54.999Z</time></trkpt><trkpt lat="45.70167785674341" lon="8.846767656796581"><ele>324.1666666666667</ele><time>2026-03-30T08:52:57.999Z</time></trkpt><trkpt lat="45.70159183730075" lon="8.846795317925737"><ele>324.3333333333333</ele><time>2026-03-30T08:52:59.999Z</time></trkpt><trkpt lat="45.70151896687553" lon="8.846760842632262"><ele>324.5</ele><time>2026-03-30T08:53:01.999Z</time></trkpt><trkpt lat="45.70145338197046" lon="8.846777986461902"><ele>324.66666666666663</ele><time>2026-03-30T08:53:03.999Z</time></trkpt><trkpt lat="45.70138368322034" lon="8.846861586235796"><ele>324.8333333333333</ele><time>2026-03-30T08:53:05.999Z</time></trkpt><trkpt lat="45.70133920613454" lon="8.846950215244766"><ele>325.0</ele><time>2026-03-30T08:53:07.999Z</time></trkpt><trkpt lat="45.701250972971984" lon="8.846970576632778"><ele>325.0</ele><time>2026-03-30T08:53:09.999Z</time></trkpt><trkpt lat="45.70116812139566" lon="8.846962059852787"><ele>325.0</ele><time>2026-03-30T08:53:11.999Z</time></trkpt><trkpt lat="45.701047461718574" lon="8.846923240720347"><ele>325.0</ele><time>2026-03-30T08:53:13.999Z</time></trkpt><trkpt lat="45.70097667242333" lon="8.846874983542136"><ele>325.0</ele><time>2026-03-30T08:53:14.999Z</time></trkpt><trkpt lat="45.70090817298236" lon="8.846877809949024"><ele>325.0</ele><time>2026-03-30T08:53:15.999Z</time></trkpt><trkpt lat="45.70083959487259" lon="8.846859502110776"><ele>325.0</ele><time>2026-03-30T08:53:16.999Z</time></trkpt><trkpt lat="45.70076839834862" lon="8.846866259359107"><ele>324.0</ele><time>2026-03-30T08:53:17.999Z</time></trkpt><trkpt lat="45.700678872860664" lon="8.846909332332102"><ele>323.0</ele><time>2026-03-30T08:53:18.999Z</time></trkpt><trkpt lat="45.70060254213678" lon="8.846902854204389"><ele>322.0</ele><time>2026-03-30T08:53:19.999Z</time></trkpt><trkpt lat="45.70051606153136" lon="8.846903182988283"><ele>321.0</ele><time>2026-03-30T08:53:20.999Z</time></trkpt><trkpt lat="45.70042304786229" lon="8.846931130989853"><ele>320.0</ele><time>2026-03-30T08:53:21.999Z</time></trkpt><trkpt lat="45.700326565452805" lon="8.846969776735781"><ele>318.33333333333337</ele><time>2026-03-30T08:53:22.999Z</time></trkpt><trkpt lat="45.70023919712348" lon="8.847002887114538"><ele>316.6666666666667</ele><time>2026-03-30T08:53:23.999Z</time></trkpt><trkpt lat="45.70015613035914" lon="8.847023791464402"><ele>315.0</ele><time>2026-03-30T08:53:24.999Z</time></trkpt><trkpt lat="45.700076262538225" lon="8.84703031736429"><ele>313.3333333333333</ele><time>2026-03-30T08:53:25.999Z</time></trkpt><trkpt lat="45.7000020067844" lon="8.847056320031815"><ele>311.66666666666663</ele><time>2026-03-30T08:53:26.999Z</time></trkpt><trkpt lat="45.69993858239143" lon="8.847058838896542"><ele>310.0</ele><time>2026-03-30T08:53:27.999Z</time></trkpt><trkpt lat="45.69983869484445" lon="8.84714996861012"><ele>310.0</ele><time>2026-03-30T08:53:29.999Z</time></trkpt><trkpt lat="45.699784514878054" lon="8.847225906076272"><ele>310.0</ele><time>2026-03-30T08:53:30.999Z</time></trkpt><trkpt lat="45.69971601793764" lon="8.847336054279989"><ele>310.0</ele><time>2026-03-30T08:53:32.999Z</time></trkpt><trkpt lat="45.699622578327485" lon="8.84740405642155"><ele>310.0</ele><time>2026-03-30T08:53:34.999Z</time></trkpt><trkpt lat="45.699551487342454" lon="8.84740382266541"><ele>310.0</ele><time>2026-03-30T08:53:35.999Z</time></trkpt><trkpt lat="45.69710353153424" lon="8.84472021875308"><ele>308.8333333333333</ele><time>2026-03-30T08:54:39Z</time></trkpt><trkpt lat="45.697030926490726" lon="8.844681472072802"><ele>307.66666666666663</ele><time>2026-03-30T08:55:05.999Z</time></trkpt><trkpt lat="45.69695686862228" lon="8.844712818313461"><ele>306.5</ele><time>2026-03-30T08:55:09.999Z</time></trkpt><trkpt lat="45.69687082771404" lon="8.844690016605385"><ele>305.3333333333333</ele><time>2026-03-30T08:55:14.999Z</time></trkpt><trkpt lat="45.69677852990135" lon="8.844641021110638"><ele>304.1666666666667</ele><time>2026-03-30T08:55:16.999Z</time></trkpt><trkpt lat="45.69668226952445" lon="8.844607938156647"><ele>303.0</ele><time>2026-03-30T08:55:18.999Z</time></trkpt><trkpt lat="45.69660804469777" lon="8.844529572314228"><ele>303.5</ele><time>2026-03-30T08:55:20.999Z</time></trkpt><trkpt lat="45.696542692433816" lon="8.844478490340158"><ele>304.0</ele><time>2026-03-30T08:55:22.999Z</time></trkpt><trkpt lat="45.69647693172387" lon="8.844394581364961"><ele>304.5</ele><time>2026-03-30T08:55:24.999Z</time></trkpt><trkpt lat="45.6964175458726" lon="8.844303836864903"><ele>305.0</ele><time>2026-03-30T08:55:27.999Z</time></trkpt><trkpt lat="45.696312809762176" lon="8.844249841303016"><ele>305.5</ele><time>2026-03-30T08:55:29.999Z</time></trkpt><trkpt lat="45.69624420620648" lon="8.844208468006743"><ele>306.0</ele><time>2026-03-30T08:55:31.999Z</time></trkpt><trkpt lat="45.69615765039443" lon="8.844091949447959"><ele>303.3333333333333</ele><time>2026-03-30T08:55:33.999Z</time></trkpt><trkpt lat="45.69608410749072" lon="8.843988698731426"><ele>300.66666666666663</ele><time>2026-03-30T08:55:35.999Z</time></trkpt><trkpt lat="45.69579870089683" lon="8.843747349249057"><ele>298.0</ele><time>2026-03-30T08:55:46.999Z</time></trkpt><trkpt lat="45.69571054809457" lon="8.843737218522746"><ele>298.0</ele><time>2026-03-30T08:55:49.999Z</time></trkpt><trkpt lat="45.69566606996282" lon="8.843630197978092"><ele>298.0</ele><time>2026-03-30T08:55:52.999Z</time></trkpt><trkpt lat="45.69561161373707" lon="8.843565697544896"><ele>298.0</ele><time>2026-03-30T08:55:54.999Z</time></trkpt><trkpt lat="45.695532336863714" lon="8.843560489837648"><ele>298.0</ele><time>2026-03-30T08:55:56.999Z</time></trkpt><trkpt lat="45.69543737782872" lon="8.843540682741056"><ele>298.0</ele><time>2026-03-30T08:55:59Z</time></trkpt><trkpt lat="45.69534509638577" lon="8.843548575275877"><ele>298.0</ele><time>2026-03-30T08:56:01Z</time></trkpt><trkpt lat="45.69528930836698" lon="8.843479793747749"><ele>298.16666666666663</ele><time>2026-03-30T08:56:03Z</time></trkpt><trkpt lat="45.69520250278498" lon="8.843414599116889"><ele>298.3333333333333</ele><time>2026-03-30T08:56:05Z</time></trkpt><trkpt lat="45.695109170414966" lon="8.843355523690894"><ele>298.5</ele><time>2026-03-30T08:56:07Z</time></trkpt><trkpt lat="45.6950293838837" lon="8.84329450043012"><ele>298.6666666666667</ele><time>2026-03-30T08:56:09Z</time></trkpt><trkpt lat="45.69498645200558" lon="8.843228447858285"><ele>298.83333333333337</ele><time>2026-03-30T08:56:11Z</time></trkpt><trkpt lat="45.694946250144085" lon="8.843132292744984"><ele>299.0</ele><time>2026-03-30T08:56:13Z</time></trkpt><trkpt lat="45.694888597543944" lon="8.843053568697083"><ele>299.0</ele><time>2026-03-30T08:56:15Z</time></trkpt><trkpt lat="45.69480769417941" lon="8.843053477553015"><ele>299.0</ele><time>2026-03-30T08:56:17Z</time></trkpt><trkpt lat="45.694743805205086" lon="8.84305356925871"><ele>299.0</ele><time>2026-03-30T08:56:32Z</time></trkpt><trkpt lat="45.69229148941981" lon="8.84029948761277"><ele>300.83333333333337</ele><time>2026-03-30T08:57:46.999Z</time></trkpt><trkpt lat="45.69230172927739" lon="8.840159315715736"><ele>302.6666666666667</ele><time>2026-03-30T08:57:48.999Z</time></trkpt><trkpt lat="45.69235287383778" lon="8.840037711346053"><ele>304.5</ele><time>2026-03-30T08:57:51.999Z</time></trkpt><trkpt lat="45.6923852744466" lon="8.839922010654035"><ele>306.3333333333333</ele><time>2026-03-30T08:57:53.999Z</time></trkpt><trkpt lat="45.692404266925315" lon="8.839821116813185"><ele>308.16666666666663</ele><time>2026-03-30T08:57:54.999Z</time></trkpt><trkpt lat="45.692422627048686" lon="8.839714751524143"><ele>310.0</ele><time>2026-03-30T08:57:55.999Z</time></trkpt><trkpt lat="45.69243102726137" lon="8.839591808278673"><ele>311.8</ele><time>2026-03-30T08:57:56.999Z</time></trkpt><trkpt lat="45.692445291314066" lon="8.839475061446848"><ele>313.6</ele><time>2026-03-30T08:57:57.999Z</time></trkpt><trkpt lat="45.69246366445137" lon="8.839342792451209"><ele>315.4</ele><time>2026-03-30T08:57:58.999Z</time></trkpt><trkpt lat="45.69247504613188" lon="8.839218721536973"><ele>317.2</ele><time>2026-03-30T08:57:59.999Z</time></trkpt><trkpt lat="45.69250044413532" lon="8.839062106660304"><ele>319.0</ele><time>2026-03-30T08:58:01.999Z</time></trkpt><trkpt lat="45.69250795999635" lon="8.838937052165576"><ele>319.16666666666663</ele><time>2026-03-30T08:58:03.999Z</time></trkpt><trkpt lat="45.69250653626158" lon="8.83882385068684"><ele>319.3333333333333</ele><time>2026-03-30T08:58:06Z</time></trkpt><trkpt lat="45.6924848761501" lon="8.838722239218665"><ele>319.5</ele><time>2026-03-30T08:58:07Z</time></trkpt><trkpt lat="45.69246927679369" lon="8.838615648230512"><ele>319.6666666666667</ele><time>2026-03-30T08:58:08Z</time></trkpt><trkpt lat="45.69246266982649" lon="8.838489284039124"><ele>319.83333333333337</ele><time>2026-03-30T08:58:09Z</time></trkpt><trkpt lat="45.692470771982414" lon="8.838388187628006"><ele>320.0</ele><time>2026-03-30T08:58:10Z</time></trkpt><trkpt lat="45.69246135050917" lon="8.838220537900312"><ele>319.33333333333337</ele><time>2026-03-30T08:58:12Z</time></trkpt><trkpt lat="45.69244293665089" lon="8.838113195660487"><ele>318.6666666666667</ele><time>2026-03-30T08:58:13Z</time></trkpt><trkpt lat="45.69241337893173" lon="8.838007843101536"><ele>318.0</ele><time>2026-03-30T08:58:14Z</time></trkpt><trkpt lat="45.692418050167255" lon="8.837826318772946"><ele>317.3333333333333</ele><time>2026-03-30T08:58:16Z</time></trkpt><trkpt lat="45.69240984814152" lon="8.837722107410565"><ele>316.66666666666663</ele><time>2026-03-30T08:58:17Z</time></trkpt><trkpt lat="45.6924047245492" lon="8.83762553477342"><ele>316.0</ele><time>2026-03-30T08:58:18Z</time></trkpt><trkpt lat="45.69249057492692" lon="8.837483740846924"><ele>315.66666666666663</ele><time>2026-03-30T08:58:20Z</time></trkpt><trkpt lat="45.69255099042143" lon="8.837387366775008"><ele>315.3333333333333</ele><time>2026-03-30T08:58:21Z</time></trkpt><trkpt lat="45.6926045114023" lon="8.837288442382404"><ele>315.0</ele><time>2026-03-30T08:58:22Z</time></trkpt><trkpt lat="45.69263128462626" lon="8.837193613855563"><ele>314.6666666666667</ele><time>2026-03-30T08:58:23Z</time></trkpt><trkpt lat="45.69266565492724" lon="8.837092478626987"><ele>314.33333333333337</ele><time>2026-03-30T08:58:24Z</time></trkpt><trkpt lat="45.69267999377726" lon="8.836991638231012"><ele>314.0</ele><time>2026-03-30T08:58:25Z</time></trkpt><trkpt lat="45.69276340906421" lon="8.836863786672028"><ele>314.0</ele><time>2026-03-30T08:58:27Z</time></trkpt><trkpt lat="45.69281750882026" lon="8.836808786183747"><ele>314.0</ele><time>2026-03-30T08:58:28Z</time></trkpt><trkpt lat="45.69293265740271" lon="8.8367171500563"><ele>314.0</ele><time>2026-03-30T08:58:30Z</time></trkpt><trkpt lat="45.69300701689675" lon="8.836704783990875"><ele>314.0</ele><time>2026-03-30T08:58:31Z</time></trkpt><trkpt lat="45.69308317211678" lon="8.836696621570006"><ele>314.0</ele><time>2026-03-30T08:58:32Z</time></trkpt><trkpt lat="45.69316579244844" lon="8.836660107608319"><ele>314.0</ele><time>2026-03-30T08:58:33Z</time></trkpt><trkpt lat="45.6932288713807" lon="8.836619431225289"><ele>313.0</ele><time>2026-03-30T08:58:34Z</time></trkpt><trkpt lat="45.69331530590479" lon="8.836534962544373"><ele>312.0</ele><time>2026-03-30T08:58:36Z</time></trkpt><trkpt lat="45.69378052125043" lon="8.836380204737429"><ele>310.5</ele><time>2026-03-30T08:58:45Z</time></trkpt><trkpt lat="45.69387739823157" lon="8.83637501412291"><ele>309.0</ele><time>2026-03-30T08:58:47Z</time></trkpt><trkpt lat="45.69400383947254" lon="8.836329688488785"><ele>307.5</ele><time>2026-03-30T08:58:49Z</time></trkpt><trkpt lat="45.69411857702832" lon="8.836305153572715"><ele>306.0</ele><time>2026-03-30T08:58:51Z</time></trkpt><trkpt lat="45.69421898898539" lon="8.83622985667398"><ele>306.0</ele><time>2026-03-30T08:58:53Z</time></trkpt><trkpt lat="45.6942807136856" lon="8.836207663048613"><ele>306.0</ele><time>2026-03-30T08:58:54Z</time></trkpt><trkpt lat="45.694384142487266" lon="8.836116204932713"><ele>306.0</ele><time>2026-03-30T08:58:56Z</time></trkpt><trkpt lat="45.69444900931293" lon="8.836099631482455"><ele>306.0</ele><time>2026-03-30T08:58:57Z</time></trkpt><trkpt lat="45.694569729475205" lon="8.836067601142565"><ele>306.0</ele><time>2026-03-30T08:58:58.999Z</time></trkpt><trkpt lat="45.694686681200196" lon="8.836053529640079"><ele>305.0</ele><time>2026-03-30T08:59:00.999Z</time></trkpt><trkpt lat="45.6947710739832" lon="8.836051211312743"><ele>304.0</ele><time>2026-03-30T08:59:02.999Z</time></trkpt><trkpt lat="45.694841231086365" lon="8.835984562366889"><ele>303.0</ele><time>2026-03-30T08:59:04.999Z</time></trkpt><trkpt lat="45.694898975642865" lon="8.835929345824892"><ele>302.0</ele><time>2026-03-30T08:59:06.999Z</time></trkpt><trkpt lat="45.69511352047742" lon="8.836134887186434"><ele>302.0</ele><time>2026-03-30T08:59:13.999Z</time></trkpt><trkpt lat="45.69517299258954" lon="8.836266774997299"><ele>302.0</ele><time>2026-03-30T08:59:15.999Z</time></trkpt><trkpt lat="45.69522540460333" lon="8.83633828075558"><ele>302.0</ele><time>2026-03-30T08:59:16.999Z</time></trkpt><trkpt lat="45.695300542965164" lon="8.83641860918712"><ele>302.0</ele><time>2026-03-30T08:59:18.999Z</time></trkpt><trkpt lat="45.69540744866616" lon="8.836391074411543"><ele>302.0</ele><time>2026-03-30T08:59:20.999Z</time></trkpt><trkpt lat="45.69545131820858" lon="8.836312758057257"><ele>302.2</ele><time>2026-03-30T08:59:21.999Z</time></trkpt><trkpt lat="45.695487291461795" lon="8.836154828579476"><ele>302.4</ele><time>2026-03-30T08:59:23.999Z</time></trkpt><trkpt lat="45.69551628241454" lon="8.836067719307456"><ele>302.6</ele><time>2026-03-30T08:59:24.999Z</time></trkpt><trkpt lat="45.695590073521025" lon="8.835957243517628"><ele>302.8</ele><time>2026-03-30T08:59:26.999Z</time></trkpt><trkpt lat="45.69565627103394" lon="8.835908221196657"><ele>303.0</ele><time>2026-03-30T08:59:27.999Z</time></trkpt><trkpt lat="45.69574431508797" lon="8.835867145315392"><ele>303.0</ele><time>2026-03-30T08:59:28.999Z</time></trkpt><trkpt lat="45.695832637871625" lon="8.835852118398375"><ele>303.0</ele><time>2026-03-30T08:59:29.999Z</time></trkpt><trkpt lat="45.69590291915964" lon="8.835836352954892"><ele>303.0</ele><time>2026-03-30T08:59:30.999Z</time></trkpt><trkpt lat="45.69598215052074" lon="8.835783954594788"><ele>303.0</ele><time>2026-03-30T08:59:32.999Z</time></trkpt><trkpt lat="45.69603528786301" lon="8.83569825206878"><ele>303.0</ele><time>2026-03-30T08:59:34.999Z</time></trkpt><trkpt lat="45.69606625142539" lon="8.835614279311601"><ele>303.0</ele><time>2026-03-30T08:59:35.999Z</time></trkpt><trkpt lat="45.696488818462" lon="8.835126195373551"><ele>303.4</ele><time>2026-03-30T09:00:47Z</time></trkpt><trkpt lat="45.69661715451752" lon="8.83512285157838"><ele>303.8</ele><time>2026-03-30T09:00:54Z</time></trkpt><trkpt lat="45.69665227372784" lon="8.835031468930616"><ele>304.2</ele><time>2026-03-30T09:00:56Z</time></trkpt><trkpt lat="45.696720012213206" lon="8.83493476507065"><ele>304.6</ele><time>2026-03-30T09:00:59.999Z</time></trkpt><trkpt lat="45.69679951192135" lon="8.8348575815994"><ele>305.0</ele><time>2026-03-30T09:01:01.999Z</time></trkpt><trkpt lat="45.69686662046771" lon="8.83481765503979"><ele>305.25</ele><time>2026-03-30T09:01:03.999Z</time></trkpt><trkpt lat="45.6969618639904" lon="8.834786311675014"><ele>305.5</ele><time>2026-03-30T09:01:06.999Z</time></trkpt><trkpt lat="45.697026048171786" lon="8.834788344811724"><ele>305.75</ele><time>2026-03-30T09:01:10.999Z</time></trkpt><trkpt lat="45.697116588317215" lon="8.834809497077728"><ele>306.0</ele><time>2026-03-30T09:01:24.999Z</time></trkpt><trkpt lat="45.69717310337472" lon="8.83430606380241"><ele>313.0</ele><time>2026-03-30T09:02:47Z</time></trkpt><trkpt lat="45.697789054435276" lon="8.834302845647457"><ele>312.8333333333333</ele><time>2026-03-30T09:09:40.999Z</time></trkpt><trkpt lat="45.697868121746964" lon="8.834356333240038"><ele>312.66666666666663</ele><time>2026-03-30T09:09:41.999Z</time></trkpt><trkpt lat="45.69794491868413" lon="8.834432951904756"><ele>312.5</ele><time>2026-03-30T09:09:42.999Z</time></trkpt><trkpt lat="45.69802258697681" lon="8.834494855875755"><ele>312.3333333333333</ele><time>2026-03-30T09:09:43.999Z</time></trkpt><trkpt lat="45.698102143870344" lon="8.83455269942211"><ele>312.1666666666667</ele><time>2026-03-30T09:09:44.999Z</time></trkpt><trkpt lat="45.69817242069081" lon="8.834616552646139"><ele>312.0</ele><time>2026-03-30T09:09:45.999Z</time></trkpt><trkpt lat="45.69825636795612" lon="8.834678680885377"><ele>312.0</ele><time>2026-03-30T09:09:46.999Z</time></trkpt><trkpt lat="45.69831800675788" lon="8.834742777507278"><ele>312.0</ele><time>2026-03-30T09:09:47.999Z</time></trkpt><trkpt lat="45.69837690521499" lon="8.83479472179099"><ele>312.0</ele><time>2026-03-30T09:09:48.999Z</time></trkpt><trkpt lat="45.69844240378965" lon="8.83484220752423"><ele>312.0</ele><time>2026-03-30T09:09:49.999Z</time></trkpt><trkpt lat="45.69852153952376" lon="8.834884774255427"><ele>312.0</ele><time>2026-03-30T09:09:50.999Z</time></trkpt><trkpt lat="45.698637866886955" lon="8.834883832345989"><ele>312.0</ele><time>2026-03-30T09:09:52.999Z</time></trkpt><trkpt lat="45.69870279647365" lon="8.834792256617353"><ele>312.8</ele><time>2026-03-30T09:09:54.999Z</time></trkpt><trkpt lat="45.698703586635" lon="8.834691288583215"><ele>313.6</ele><time>2026-03-30T09:09:55.999Z</time></trkpt><trkpt lat="45.69868811080214" lon="8.834560604441048"><ele>314.40000000000003</ele><time>2026-03-30T09:09:56.999Z</time></trkpt><trkpt lat="45.698660216304646" lon="8.834369453566458"><ele>315.2</ele><time>2026-03-30T09:09:57.999Z</time></trkpt><trkpt lat="45.69864157549654" lon="8.834192059430892"><ele>316.0</ele><time>2026-03-30T09:09:58.999Z</time></trkpt><trkpt lat="45.69863328622507" lon="8.834069905127192"><ele>316.40000000000003</ele><time>2026-03-30T09:09:59.999Z</time></trkpt><trkpt lat="45.69866371272892" lon="8.83396744596928"><ele>316.8</ele><time>2026-03-30T09:10:01.999Z</time></trkpt><trkpt lat="45.69876654595763" lon="8.833910677451783"><ele>317.20000000000005</ele><time>2026-03-30T09:10:03.999Z</time></trkpt><trkpt lat="45.69885100653839" lon="8.833903391384991"><ele>317.6</ele><time>2026-03-30T09:10:04.999Z</time></trkpt><trkpt lat="45.69894222711278" lon="8.833889675733316"><ele>318.0</ele><time>2026-03-30T09:10:05.999Z</time></trkpt><trkpt lat="45.699035018639805" lon="8.833862928135757"><ele>318.0</ele><time>2026-03-30T09:10:06.999Z</time></trkpt><trkpt lat="45.69912347194658" lon="8.833832622304865"><ele>318.0</ele><time>2026-03-30T09:10:07.999Z</time></trkpt><trkpt lat="45.69921211998902" lon="8.833809797014482"><ele>318.0</ele><time>2026-03-30T09:10:08.999Z</time></trkpt><trkpt lat="45.699311583699846" lon="8.833776204377763"><ele>318.0</ele><time>2026-03-30T09:10:09.999Z</time></trkpt><trkpt lat="45.699415276855184" lon="8.833750898844103"><ele>318.0</ele><time>2026-03-30T09:10:10.999Z</time></trkpt><trkpt lat="45.699523979283455" lon="8.833723280500752"><ele>318.8</ele><time>2026-03-30T09:10:11.999Z</time></trkpt><trkpt lat="45.69963246783928" lon="8.833697524888388"><ele>319.6</ele><time>2026-03-30T09:10:12.999Z</time></trkpt><trkpt lat="45.69974257920915" lon="8.833653225510796"><ele>320.40000000000003</ele><time>2026-03-30T09:10:13.999Z</time></trkpt><trkpt lat="45.6998414742879" lon="8.833610686733248"><ele>321.20000000000005</ele><time>2026-03-30T09:10:14.999Z</time></trkpt><trkpt lat="45.69994215560421" lon="8.833569217448744"><ele>322.0</ele><time>2026-03-30T09:10:15.999Z</time></trkpt><trkpt lat="45.70002788009039" lon="8.833526675537339"><ele>322.0</ele><time>2026-03-30T09:10:16.999Z</time></trkpt><trkpt lat="45.70011435914552" lon="8.833494181425545"><ele>322.0</ele><time>2026-03-30T09:10:17.999Z</time></trkpt><trkpt lat="45.70020925524108" lon="8.83346456645606"><ele>322.0</ele><time>2026-03-30T09:10:18.999Z</time></trkpt><trkpt lat="45.70030889174101" lon="8.833432685444365"><ele>322.0</ele><time>2026-03-30T09:10:19.999Z</time></trkpt><trkpt lat="45.70041426560334" lon="8.833414188669924"><ele>322.0</ele><time>2026-03-30T09:10:20.999Z</time></trkpt><trkpt lat="45.70052305360352" lon="8.833378560085663"><ele>322.0</ele><time>2026-03-30T09:10:21.999Z</time></trkpt><trkpt lat="45.700620139522385" lon="8.833347225874943"><ele>322.0</ele><time>2026-03-30T09:10:22.999Z</time></trkpt><trkpt lat="45.70069952939015" lon="8.833320308132617"><ele>322.0</ele><time>2026-03-30T09:10:23.999Z</time></trkpt><trkpt lat="45.70078405304269" lon="8.83330499762615"><ele>322.0</ele><time>2026-03-30T09:10:25.999Z</time></trkpt><trkpt lat="45.70079639776569" lon="8.83348533626624"><ele>322.0</ele><time>2026-03-30T09:10:28.999Z</time></trkpt><trkpt lat="45.70078440623417" lon="8.833583786785073"><ele>322.3333333333333</ele><time>2026-03-30T09:10:29.999Z</time></trkpt><trkpt lat="45.70079172023915" lon="8.833716817709945"><ele>322.66666666666663</ele><time>2026-03-30T09:10:30.999Z</time></trkpt><trkpt lat="45.70081049546914" lon="8.833841428837973"><ele>323.0</ele><time>2026-03-30T09:10:31.999Z</time></trkpt><trkpt lat="45.70081781602889" lon="8.833959434975183"><ele>323.3333333333333</ele><time>2026-03-30T09:10:32.999Z</time></trkpt><trkpt lat="45.70081921788201" lon="8.834056936662073"><ele>323.6666666666667</ele><time>2026-03-30T09:10:33.999Z</time></trkpt><trkpt lat="45.70083877806203" lon="8.834181959388804"><ele>324.0</ele><time>2026-03-30T09:10:34.999Z</time></trkpt><trkpt lat="45.70084047705908" lon="8.834319958227006"><ele>312.0</ele><time>2026-03-30T09:10:35.999Z</time></trkpt><trkpt lat="45.70122504488182" lon="8.835348050789936"><ele>312.0</ele><time>2026-03-30T09:10:46Z</time></trkpt><trkpt lat="45.70132040977424" lon="8.83544654484083"><ele>312.0</ele><time>2026-03-30T09:10:48Z</time></trkpt><trkpt lat="45.70138507250892" lon="8.83549335404421"><ele>312.0</ele><time>2026-03-30T09:10:49Z</time></trkpt><trkpt lat="45.70144614842163" lon="8.835565185366711"><ele>312.0</ele><time>2026-03-30T09:10:50Z</time></trkpt><trkpt lat="45.70150100657071" lon="8.835643275224756"><ele>312.0</ele><time>2026-03-30T09:10:51Z</time></trkpt><trkpt lat="45.70155140146615" lon="8.835711589481694"><ele>312.0</ele><time>2026-03-30T09:10:52Z</time></trkpt><trkpt lat="45.70159941432872" lon="8.835770857291223"><ele>312.0</ele><time>2026-03-30T09:10:53Z</time></trkpt><trkpt lat="45.70168618090127" lon="8.835880794424854"><ele>312.0</ele><time>2026-03-30T09:10:55Z</time></trkpt><trkpt lat="45.70177336359831" lon="8.83599706670025"><ele>312.0</ele><time>2026-03-30T09:10:57Z</time></trkpt><trkpt lat="45.70184591218712" lon="8.836097934710176"><ele>312.0</ele><time>2026-03-30T09:10:59Z</time></trkpt><trkpt lat="45.70183093350798" lon="8.836231269070748"><ele>312.0</ele><time>2026-03-30T09:11:01Z</time></trkpt><trkpt lat="45.70181003373181" lon="8.836358300696867"><ele>312.3333333333333</ele><time>2026-03-30T09:11:03Z</time></trkpt><trkpt lat="45.70186828576308" lon="8.83640634641214"><ele>312.6666666666667</ele><time>2026-03-30T09:11:05Z</time></trkpt><trkpt lat="45.70197999934553" lon="8.836484697597829"><ele>313.0</ele><time>2026-03-30T09:11:07Z</time></trkpt><trkpt lat="45.70203835927175" lon="8.836523120885376"><ele>313.33333333333337</ele><time>2026-03-30T09:11:08Z</time></trkpt><trkpt lat="45.70211738814021" lon="8.836549459719146"><ele>313.6666666666667</ele><time>2026-03-30T09:11:10Z</time></trkpt><trkpt lat="45.7021838502084" lon="8.836574213891858"><ele>314.0</ele><time>2026-03-30T09:11:19Z</time></trkpt><trkpt lat="45.702291935076325" lon="8.836612592810326"><ele>315.6</ele><time>2026-03-30T09:11:24Z</time></trkpt><trkpt lat="45.70241486285288" lon="8.83667121080534"><ele>317.2</ele><time>2026-03-30T09:11:26Z</time></trkpt><trkpt lat="45.70252945066852" lon="8.836707493531721"><ele>318.8</ele><time>2026-03-30T09:11:28Z</time></trkpt><trkpt lat="45.70259067747203" lon="8.836738072019232"><ele>320.40000000000003</ele><time>2026-03-30T09:11:29Z</time></trkpt><trkpt lat="45.70265637452615" lon="8.8367597407227"><ele>322.0</ele><time>2026-03-30T09:11:30Z</time></trkpt><trkpt lat="45.70272647425374" lon="8.836773202169104"><ele>323.25</ele><time>2026-03-30T09:11:30.999Z</time></trkpt><trkpt lat="45.70280299978212" lon="8.836786175534028"><ele>324.5</ele><time>2026-03-30T09:11:32.999Z</time></trkpt><trkpt lat="45.70288195360124" lon="8.836805019872855"><ele>325.75</ele><time>2026-03-30T09:11:34.999Z</time></trkpt><trkpt lat="45.70294881022967" lon="8.836830205969077"><ele>327.0</ele><time>2026-03-30T09:11:35.999Z</time></trkpt><trkpt lat="45.705058400805754" lon="8.836941162062251"><ele>327.8</ele><time>2026-03-30T09:12:36.999Z</time></trkpt><trkpt lat="45.70518216734652" lon="8.836909140251105"><ele>328.6</ele><time>2026-03-30T09:12:38.999Z</time></trkpt><trkpt lat="45.70527140871881" lon="8.836884805745658"><ele>329.40000000000003</ele><time>2026-03-30T09:12:40.999Z</time></trkpt><trkpt lat="45.70538094293403" lon="8.83689159389478"><ele>330.20000000000005</ele><time>2026-03-30T09:12:42.999Z</time></trkpt><trkpt lat="45.70548693962808" lon="8.836807693313457"><ele>331.0</ele><time>2026-03-30T09:13:45.999Z</time></trkpt><trkpt lat="45.705555820602115" lon="8.836786818942512"><ele>331.0</ele><time>2026-03-30T09:13:49.999Z</time></trkpt><trkpt lat="45.70561339740336" lon="8.836737515721419"><ele>331.0</ele><time>2026-03-30T09:13:51.999Z</time></trkpt><trkpt lat="45.70571322283643" lon="8.836659330115413"><ele>331.0</ele><time>2026-03-30T09:13:53.999Z</time></trkpt><trkpt lat="45.705813494061246" lon="8.836610268499742"><ele>331.0</ele><time>2026-03-30T09:13:55.999Z</time></trkpt><trkpt lat="45.70587888332188" lon="8.836600634290548"><ele>331.0</ele><time>2026-03-30T09:13:56.999Z</time></trkpt><trkpt lat="45.70596631559472" lon="8.836591434627277"><ele>331.0</ele><time>2026-03-30T09:13:58.999Z</time></trkpt><trkpt lat="45.7060155532757" lon="8.8364922104756"><ele>330.0</ele><time>2026-03-30T09:13:59.999Z</time></trkpt><trkpt lat="45.70608422618754" lon="8.836412953915964"><ele>329.0</ele><time>2026-03-30T09:14:01.999Z</time></trkpt><trkpt lat="45.706175710320586" lon="8.83644275657239"><ele>328.0</ele><time>2026-03-30T09:14:03.999Z</time></trkpt><trkpt lat="45.706288122481496" lon="8.836536066186957"><ele>327.0</ele><time>2026-03-30T09:14:05.999Z</time></trkpt><trkpt lat="45.706386785420804" lon="8.836655252380323"><ele>326.0</ele><time>2026-03-30T09:14:07.999Z</time></trkpt><trkpt lat="45.7064592287751" lon="8.836670753700732"><ele>326.0</ele><time>2026-03-30T09:14:08.999Z</time></trkpt><trkpt lat="45.706547797305056" lon="8.836740251550102"><ele>326.0</ele><time>2026-03-30T09:14:10.999Z</time></trkpt><trkpt lat="45.70660243656202" lon="8.836802875405093"><ele>326.0</ele><time>2026-03-30T09:14:12.999Z</time></trkpt><trkpt lat="45.706649456037894" lon="8.836870538617786"><ele>326.0</ele><time>2026-03-30T09:14:13.999Z</time></trkpt><trkpt lat="45.706738430920296" lon="8.836929844776026"><ele>326.0</ele><time>2026-03-30T09:14:14.999Z</time></trkpt><trkpt lat="45.70685000590265" lon="8.83703208080692"><ele>325.8</ele><time>2026-03-30T09:14:16.999Z</time></trkpt><trkpt lat="45.70689929194711" lon="8.837089564119873"><ele>325.6</ele><time>2026-03-30T09:14:17.999Z</time></trkpt><trkpt lat="45.70697543642041" lon="8.837195637452842"><ele>325.4</ele><time>2026-03-30T09:14:19.999Z</time></trkpt><trkpt lat="45.707017779585016" lon="8.837294662665707"><ele>325.2</ele><time>2026-03-30T09:14:22.999Z</time></trkpt><trkpt lat="45.70705324408398" lon="8.837393762335473"><ele>325.0</ele><time>2026-03-30T09:14:24.999Z</time></trkpt><trkpt lat="45.70771668673867" lon="8.835725307348978"><ele>326.66666666666663</ele><time>2026-03-30T09:16:46.999Z</time></trkpt><trkpt lat="45.707784502403484" lon="8.83565744862356"><ele>328.3333333333333</ele><time>2026-03-30T09:16:48.999Z</time></trkpt><trkpt lat="45.707807849164226" lon="8.835556992377823"><ele>330.0</ele><time>2026-03-30T09:16:50.999Z</time></trkpt><trkpt lat="45.70782927717971" lon="8.835440538681526"><ele>331.6666666666667</ele><time>2026-03-30T09:16:52.999Z</time></trkpt><trkpt lat="45.70790113790389" lon="8.835395079994061"><ele>333.33333333333337</ele><time>2026-03-30T09:17:23Z</time></trkpt><trkpt lat="45.70798543176434" lon="8.835390552705064"><ele>335.0</ele><time>2026-03-30T09:17:42Z</time></trkpt><trkpt lat="45.70808839040518" lon="8.835459636859268"><ele>335.0</ele><time>2026-03-30T09:17:44Z</time></trkpt><trkpt lat="45.708210594115634" lon="8.835494835188193"><ele>335.0</ele><time>2026-03-30T09:17:46Z</time></trkpt><trkpt lat="45.70829585610085" lon="8.835515773030691"><ele>335.0</ele><time>2026-03-30T09:17:47Z</time></trkpt><trkpt lat="45.70837722194744" lon="8.835530535777314"><ele>335.0</ele><time>2026-03-30T09:17:48Z</time></trkpt><trkpt lat="45.70844953783603" lon="8.8355561557447"><ele>335.0</ele><time>2026-03-30T09:17:49Z</time></trkpt><trkpt lat="45.70850733643972" lon="8.835594185542083"><ele>335.0</ele><time>2026-03-30T09:17:50Z</time></trkpt><trkpt lat="45.70856440539097" lon="8.83564446473706"><ele>336.33333333333337</ele><time>2026-03-30T09:17:51Z</time></trkpt><trkpt lat="45.70866960745689" lon="8.835675684949923"><ele>337.6666666666667</ele><time>2026-03-30T09:17:53Z</time></trkpt><trkpt lat="45.70874337942599" lon="8.835685862457382"><ele>339.0</ele><time>2026-03-30T09:17:53.999Z</time></trkpt><trkpt lat="45.70882022200816" lon="8.835716731663883"><ele>340.3333333333333</ele><time>2026-03-30T09:17:54.999Z</time></trkpt><trkpt lat="45.70888514380222" lon="8.835776829627962"><ele>341.66666666666663</ele><time>2026-03-30T09:17:55.999Z</time></trkpt><trkpt lat="45.70895937418212" lon="8.835842462062965"><ele>343.0</ele><time>2026-03-30T09:17:56.999Z</time></trkpt><trkpt lat="45.709026061288114" lon="8.835895891720261"><ele>343.0</ele><time>2026-03-30T09:17:57.999Z</time></trkpt><trkpt lat="45.70909282166898" lon="8.835936834593282"><ele>343.0</ele><time>2026-03-30T09:17:58.999Z</time></trkpt><trkpt lat="45.709199980921774" lon="8.835966528372579"><ele>343.0</ele><time>2026-03-30T09:18:00.999Z</time></trkpt><trkpt lat="45.70928960689658" lon="8.83592535700913"><ele>343.0</ele><time>2026-03-30T09:18:01.999Z</time></trkpt><trkpt lat="45.70938170239618" lon="8.835871659807792"><ele>343.0</ele><time>2026-03-30T09:18:02.999Z</time></trkpt><trkpt lat="45.709478461249326" lon="8.835847632190838"><ele>342.59999999999997</ele><time>2026-03-30T09:18:03.999Z</time></trkpt><trkpt lat="45.70956736187781" lon="8.835778625222416"><ele>342.2</ele><time>2026-03-30T09:18:04.999Z</time></trkpt><trkpt lat="45.70965038561273" lon="8.83570869713669"><ele>341.8</ele><time>2026-03-30T09:18:05.999Z</time></trkpt><trkpt lat="45.709736309183974" lon="8.835614337321429"><ele>341.4</ele><time>2026-03-30T09:18:06.999Z</time></trkpt><trkpt lat="45.709816075579376" lon="8.835574875351456"><ele>341.0</ele><time>2026-03-30T09:18:07.999Z</time></trkpt><trkpt lat="45.70988810706757" lon="8.83552208877415"><ele>341.0</ele><time>2026-03-30T09:18:08.999Z</time></trkpt><trkpt lat="45.70995097086252" lon="8.835460935217883"><ele>341.0</ele><time>2026-03-30T09:18:09.999Z</time></trkpt><trkpt lat="45.71006738059519" lon="8.835445320702613"><ele>341.0</ele><time>2026-03-30T09:18:11.999Z</time></trkpt><trkpt lat="45.710149345094734" lon="8.835511882165505"><ele>341.0</ele><time>2026-03-30T09:18:13.999Z</time></trkpt><trkpt lat="45.71017427700562" lon="8.835621922584977"><ele>341.0</ele><time>2026-03-30T09:18:14.999Z</time></trkpt><trkpt lat="45.71018908700623" lon="8.835736654294633"><ele>341.0</ele><time>2026-03-30T09:18:15.999Z</time></trkpt><trkpt lat="45.71020444364347" lon="8.835828781961505"><ele>341.0</ele><time>2026-03-30T09:18:16.999Z</time></trkpt><trkpt lat="45.71021467016199" lon="8.835926024948517"><ele>341.0</ele><time>2026-03-30T09:18:17.999Z</time></trkpt><trkpt lat="45.71022857030637" lon="8.836022884349545"><ele>341.0</ele><time>2026-03-30T09:18:18.999Z</time></trkpt><trkpt lat="45.71017758863993" lon="8.836112749563386"><ele>341.0</ele><time>2026-03-30T09:18:19.999Z</time></trkpt><trkpt lat="45.71016183199545" lon="8.836267415630314"><ele>341.0</ele><time>2026-03-30T09:18:20.999Z</time></trkpt><trkpt lat="45.71009593046522" lon="8.836426323090711"><ele>340.4</ele><time>2026-03-30T09:18:22.999Z</time></trkpt><trkpt lat="45.71007021425125" lon="8.83652503801419"><ele>339.8</ele><time>2026-03-30T09:18:23.999Z</time></trkpt><trkpt lat="45.71005874544886" lon="8.83669032873248"><ele>339.2</ele><time>2026-03-30T09:18:24.999Z</time></trkpt><trkpt lat="45.71011458181357" lon="8.836848861686597"><ele>338.59999999999997</ele><time>2026-03-30T09:18:26.999Z</time></trkpt><trkpt lat="45.71012515427235" lon="8.8369417124706"><ele>338.0</ele><time>2026-03-30T09:18:27.999Z</time></trkpt><trkpt lat="45.710171824912116" lon="8.837024768220564"><ele>337.0</ele><time>2026-03-30T09:18:28.999Z</time></trkpt><trkpt lat="45.7102082805847" lon="8.837211481278999"><ele>336.0</ele><time>2026-03-30T09:18:30.999Z</time></trkpt><trkpt lat="45.71023110755716" lon="8.837295862986249"><ele>335.0</ele><time>2026-03-30T09:18:31.999Z</time></trkpt><trkpt lat="45.710310973157256" lon="8.837400826577529"><ele>334.0</ele><time>2026-03-30T09:18:33.999Z</time></trkpt><trkpt lat="45.710360884718106" lon="8.837546936821509"><ele>333.0</ele><time>2026-03-30T09:18:35.999Z</time></trkpt><trkpt lat="45.71090326505233" lon="8.837859476774959"><ele>332.5714285714286</ele><time>2026-03-30T09:18:44.999Z</time></trkpt><trkpt lat="45.71096987958378" lon="8.837890928224105"><ele>332.1428571428571</ele><time>2026-03-30T09:18:45.999Z</time></trkpt><trkpt lat="45.711031208529825" lon="8.837940013147678"><ele>331.7142857142857</ele><time>2026-03-30T09:18:46.999Z</time></trkpt><trkpt lat="45.71108820812704" lon="8.83799520694805"><ele>331.28571428571433</ele><time>2026-03-30T09:18:47.999Z</time></trkpt><trkpt lat="45.71116349388161" lon="8.838011704948528"><ele>330.8571428571429</ele><time>2026-03-30T09:18:48.999Z</time></trkpt><trkpt lat="45.711230516304724" lon="8.838039922323322"><ele>330.42857142857144</ele><time>2026-03-30T09:18:49.999Z</time></trkpt><trkpt lat="45.711289579235874" lon="8.83809181230814"><ele>330.0</ele><time>2026-03-30T09:18:50.999Z</time></trkpt><trkpt lat="45.71134903175215" lon="8.838165176789142"><ele>330.0</ele><time>2026-03-30T09:18:51.999Z</time></trkpt><trkpt lat="45.71138912972926" lon="8.838244948918367"><ele>330.0</ele><time>2026-03-30T09:18:52.999Z</time></trkpt><trkpt lat="45.71148838563482" lon="8.838327633565175"><ele>330.0</ele><time>2026-03-30T09:18:54.999Z</time></trkpt><trkpt lat="45.711561670743635" lon="8.838348163274272"><ele>330.0</ele><time>2026-03-30T09:18:55.999Z</time></trkpt><trkpt lat="45.7116375460678" lon="8.838356995128937"><ele>330.0</ele><time>2026-03-30T09:18:56.999Z</time></trkpt><trkpt lat="45.711732916419905" lon="8.83846828654052"><ele>330.0</ele><time>2026-03-30T09:18:58.999Z</time></trkpt><trkpt lat="45.711790220659914" lon="8.838535796826806"><ele>330.0</ele><time>2026-03-30T09:18:59.999Z</time></trkpt><trkpt lat="45.7118395842171" lon="8.838604917427222"><ele>330.0</ele><time>2026-03-30T09:19:00.999Z</time></trkpt><trkpt lat="45.71192528346897" lon="8.838697221169639"><ele>330.0</ele><time>2026-03-30T09:19:02.999Z</time></trkpt><trkpt lat="45.71200171844602" lon="8.838723926736044"><ele>330.0</ele><time>2026-03-30T09:19:03.999Z</time></trkpt><trkpt lat="45.712070308557436" lon="8.838756994532643"><ele>330.0</ele><time>2026-03-30T09:19:05Z</time></trkpt><trkpt lat="45.71217089839099" lon="8.83879302363939"><ele>330.8</ele><time>2026-03-30T09:19:07Z</time></trkpt><trkpt lat="45.7122401333992" lon="8.838781808216337"><ele>331.6</ele><time>2026-03-30T09:19:08Z</time></trkpt><trkpt lat="45.712368349298025" lon="8.838760490337235"><ele>332.4</ele><time>2026-03-30T09:19:10Z</time></trkpt><trkpt lat="45.71245949586599" lon="8.83876778131524"><ele>333.2</ele><time>2026-03-30T09:19:12Z</time></trkpt><trkpt lat="45.7125465930839" lon="8.83869380664323"><ele>334.0</ele><time>2026-03-30T09:19:14Z</time></trkpt><trkpt lat="45.71263094893546" lon="8.838591258740044"><ele>334.0</ele><time>2026-03-30T09:19:16Z</time></trkpt><trkpt lat="45.71269730346817" lon="8.838584915412508"><ele>334.0</ele><time>2026-03-30T09:19:17Z</time></trkpt><trkpt lat="45.712759936080204" lon="8.838563217389792"><ele>334.0</ele><time>2026-03-30T09:19:18Z</time></trkpt><trkpt lat="45.71283029123012" lon="8.838537737143664"><ele>334.0</ele><time>2026-03-30T09:19:19Z</time></trkpt><trkpt lat="45.7129029313541" lon="8.83852237402305"><ele>334.0</ele><time>2026-03-30T09:19:20Z</time></trkpt><trkpt lat="45.712997299432956" lon="8.83851636307787"><ele>334.0</ele><time>2026-03-30T09:19:22Z</time></trkpt><trkpt lat="45.713082309250666" lon="8.838416235459057"><ele>334.2</ele><time>2026-03-30T09:19:24Z</time></trkpt><trkpt lat="45.71315068485799" lon="8.838489870120215"><ele>334.4</ele><time>2026-03-30T09:19:26Z</time></trkpt><trkpt lat="45.71319156419773" lon="8.838643533013071"><ele>334.6</ele><time>2026-03-30T09:19:28Z</time></trkpt><trkpt lat="45.71320146413255" lon="8.83877709590044"><ele>334.8</ele><time>2026-03-30T09:19:30Z</time></trkpt><trkpt lat="45.71326138403831" lon="8.838877394128136"><ele>335.0</ele><time>2026-03-30T09:19:32Z</time></trkpt><trkpt lat="45.71335716837525" lon="8.838913271944213"><ele>335.0</ele><time>2026-03-30T09:19:33Z</time></trkpt><trkpt lat="45.71349673420636" lon="8.83897451046711"><ele>335.0</ele><time>2026-03-30T09:19:35Z</time></trkpt><trkpt lat="45.71356160634313" lon="8.839052572941144"><ele>335.0</ele><time>2026-03-30T09:19:36Z</time></trkpt><trkpt lat="45.713805850265594" lon="8.83966802258387"><ele>335.0</ele><time>2026-03-30T09:19:47Z</time></trkpt><trkpt lat="45.713691759390585" lon="8.839655582373855"><ele>335.0</ele><time>2026-03-30T09:19:49Z</time></trkpt><trkpt lat="45.71361850278089" lon="8.839609970327826"><ele>335.0</ele><time>2026-03-30T09:19:51Z</time></trkpt><trkpt lat="45.71357102006931" lon="8.839528555531732"><ele>335.0</ele><time>2026-03-30T09:19:53Z</time></trkpt><trkpt lat="45.71350232635506" lon="8.839506736800073"><ele>335.0</ele><time>2026-03-30T09:19:55Z</time></trkpt><trkpt lat="45.71344572274423" lon="8.839598000161885"><ele>335.0</ele><time>2026-03-30T09:19:58Z</time></trkpt><trkpt lat="45.71344569699327" lon="8.839690697230884"><ele>335.0</ele><time>2026-03-30T09:20:00Z</time></trkpt><trkpt lat="45.71334908081553" lon="8.839707318558057"><ele>335.0</ele><time>2026-03-30T09:20:01.999Z</time></trkpt><trkpt lat="45.713308795024105" lon="8.839929991363116"><ele>335.0</ele><time>2026-03-30T09:20:10.999Z</time></trkpt><trkpt lat="45.71330839000016" lon="8.840032658634263"><ele>335.0</ele><time>2026-03-30T09:20:12.999Z</time></trkpt><trkpt lat="45.71323423036336" lon="8.840065743274348"><ele>335.0</ele><time>2026-03-30T09:20:14.999Z</time></trkpt><trkpt lat="45.71317321866246" lon="8.840146572108207"><ele>336.4</ele><time>2026-03-30T09:20:17.999Z</time></trkpt><trkpt lat="45.713193654177665" lon="8.840285079466367"><ele>337.8</ele><time>2026-03-30T09:20:19.999Z</time></trkpt><trkpt lat="45.71319501963789" lon="8.84038021912584"><ele>339.20000000000005</ele><time>2026-03-30T09:20:21.999Z</time></trkpt><trkpt lat="45.713205779345806" lon="8.840514340902265"><ele>340.6</ele><time>2026-03-30T09:20:23.999Z</time></trkpt><trkpt lat="45.71315192235596" lon="8.840652052024174"><ele>342.0</ele><time>2026-03-30T09:20:25.999Z</time></trkpt><trkpt lat="45.71311356434683" lon="8.840757893864932"><ele>342.0</ele><time>2026-03-30T09:20:27.999Z</time></trkpt><trkpt lat="45.71314611428288" lon="8.84085514397127"><ele>342.0</ele><time>2026-03-30T09:20:30.999Z</time></trkpt><trkpt lat="45.713231991588735" lon="8.840750989350692"><ele>342.0</ele><time>2026-03-30T09:20:33.999Z</time></trkpt><trkpt lat="45.71336973280904" lon="8.840774852333736"><ele>342.0</ele><time>2026-03-30T09:20:35.999Z</time></trkpt><trkpt lat="45.71381043256407" lon="8.840846172506621"><ele>341.8333333333333</ele><time>2026-03-30T09:20:46.999Z</time></trkpt><trkpt lat="45.71386091154316" lon="8.840910671684183"><ele>341.6666666666667</ele><time>2026-03-30T09:20:48.999Z</time></trkpt><trkpt lat="45.71396493934303" lon="8.840914424375972"><ele>341.5</ele><time>2026-03-30T09:20:51.999Z</time></trkpt><trkpt lat="45.714018476419334" lon="8.840962038438652"><ele>341.33333333333337</ele><time>2026-03-30T09:20:52.999Z</time></trkpt><trkpt lat="45.714047211837226" lon="8.841092793517884"><ele>341.1666666666667</ele><time>2026-03-30T09:20:54.999Z</time></trkpt><trkpt lat="45.71411544634285" lon="8.841177768352479"><ele>341.0</ele><time>2026-03-30T09:20:56.999Z</time></trkpt><trkpt lat="45.71424711650238" lon="8.84119733888604"><ele>341.0</ele><time>2026-03-30T09:20:58.999Z</time></trkpt><trkpt lat="45.71432270310583" lon="8.841230369348587"><ele>341.0</ele><time>2026-03-30T09:20:59.999Z</time></trkpt><trkpt lat="45.71439436643593" lon="8.84121473224171"><ele>341.0</ele><time>2026-03-30T09:21:00.999Z</time></trkpt><trkpt lat="45.714472717432486" lon="8.841176427671554"><ele>341.0</ele><time>2026-03-30T09:21:01.999Z</time></trkpt><trkpt lat="45.71452930097344" lon="8.841129485527738"><ele>341.0</ele><time>2026-03-30T09:21:02.999Z</time></trkpt><trkpt lat="45.71460225188509" lon="8.841081222923611"><ele>341.0</ele><time>2026-03-30T09:21:03.999Z</time></trkpt><trkpt lat="45.71466199585376" lon="8.841048914556442"><ele>341.0</ele><time>2026-03-30T09:21:04.999Z</time></trkpt><trkpt lat="45.71473871697539" lon="8.840965990001056"><ele>340.5</ele><time>2026-03-30T09:21:06.999Z</time></trkpt><trkpt lat="45.714820813875825" lon="8.840954017987421"><ele>340.0</ele><time>2026-03-30T09:21:08.999Z</time></trkpt><trkpt lat="45.71488416816298" lon="8.84093689403344"><ele>339.5</ele><time>2026-03-30T09:21:09.999Z</time></trkpt><trkpt lat="45.71495959702055" lon="8.840907536851569"><ele>339.0</ele><time>2026-03-30T09:21:11Z</time></trkpt><trkpt lat="45.71502379308318" lon="8.840867695625244"><ele>338.5</ele><time>2026-03-30T09:21:12Z</time></trkpt><trkpt lat="45.71509793868355" lon="8.840847547561786"><ele>338.0</ele><time>2026-03-30T09:21:14Z</time></trkpt><trkpt lat="45.71523516581648" lon="8.84085637333685"><ele>338.4</ele><time>2026-03-30T09:21:16Z</time></trkpt><trkpt lat="45.71533722006894" lon="8.84085335129482"><ele>338.79999999999995</ele><time>2026-03-30T09:21:17Z</time></trkpt><trkpt lat="45.71541657558132" lon="8.840844487731852"><ele>339.2</ele><time>2026-03-30T09:21:18Z</time></trkpt><trkpt lat="45.71553572074166" lon="8.840823230784748"><ele>339.6</ele><time>2026-03-30T09:21:20Z</time></trkpt><trkpt lat="45.715651623360294" lon="8.840809700390952"><ele>340.0</ele><time>2026-03-30T09:21:22Z</time></trkpt><trkpt lat="45.71574082100013" lon="8.840783683313658"><ele>340.0</ele><time>2026-03-30T09:21:24Z</time></trkpt><trkpt lat="45.71581714429106" lon="8.840707436021482"><ele>340.0</ele><time>2026-03-30T09:21:25Z</time></trkpt><trkpt lat="45.715894043200144" lon="8.840685255527108"><ele>340.0</ele><time>2026-03-30T09:21:26Z</time></trkpt><trkpt lat="45.71598155115942" lon="8.840677709456669"><ele>340.0</ele><time>2026-03-30T09:21:27Z</time></trkpt><trkpt lat="45.71605701596902" lon="8.840701861067084"><ele>340.0</ele><time>2026-03-30T09:21:28Z</time></trkpt><trkpt lat="45.71613637547051" lon="8.840749527671704"><ele>340.0</ele><time>2026-03-30T09:21:29Z</time></trkpt><trkpt lat="45.716204731610766" lon="8.840766658511033"><ele>339.8333333333333</ele><time>2026-03-30T09:21:30Z</time></trkpt><trkpt lat="45.716277972829154" lon="8.840761459507842"><ele>339.66666666666663</ele><time>2026-03-30T09:21:31Z</time></trkpt><trkpt lat="45.716354025526165" lon="8.840742333038873"><ele>339.5</ele><time>2026-03-30T09:21:32Z</time></trkpt><trkpt lat="45.71644044241137" lon="8.840726718726922"><ele>339.3333333333333</ele><time>2026-03-30T09:21:33Z</time></trkpt><trkpt lat="45.71650816114571" lon="8.840724188870762"><ele>339.1666666666667</ele><time>2026-03-30T09:21:34Z</time></trkpt><trkpt lat="45.716583594586936" lon="8.840709086266038"><ele>339.0</ele><time>2026-03-30T09:21:35Z</time></trkpt><trkpt lat="45.71667263883091" lon="8.840689211725822"><ele>345.0</ele><time>2026-03-30T09:21:36Z</time></trkpt><trkpt lat="45.71746420417195" lon="8.841028824655474"><ele>345.0</ele><time>2026-03-30T09:21:47Z</time></trkpt><trkpt lat="45.717541788766354" lon="8.841063385312465"><ele>345.0</ele><time>2026-03-30T09:21:48Z</time></trkpt><trkpt lat="45.71762937656113" lon="8.84111100668248"><ele>345.0</ele><time>2026-03-30T09:21:49Z</time></trkpt><trkpt lat="45.71770365683418" lon="8.841158121919696"><ele>345.0</ele><time>2026-03-30T09:21:50Z</time></trkpt><trkpt lat="45.71777210883563" lon="8.841224173889799"><ele>345.0</ele><time>2026-03-30T09:21:51Z</time></trkpt><trkpt lat="45.71783212397709" lon="8.841264806572942"><ele>345.0</ele><time>2026-03-30T09:21:52Z</time></trkpt><trkpt lat="45.71790138940915" lon="8.841339703002422"><ele>343.5</ele><time>2026-03-30T09:21:53Z</time></trkpt><trkpt lat="45.71797477518464" lon="8.841382725392963"><ele>342.0</ele><time>2026-03-30T09:21:54Z</time></trkpt><trkpt lat="45.71805276509287" lon="8.841410420189076"><ele>340.5</ele><time>2026-03-30T09:21:55Z</time></trkpt><trkpt lat="45.718121592849194" lon="8.8414260838706"><ele>339.0</ele><time>2026-03-30T09:21:56Z</time></trkpt><trkpt lat="45.71821305648453" lon="8.841441398237945"><ele>337.5</ele><time>2026-03-30T09:21:57Z</time></trkpt><trkpt lat="45.71831195624996" lon="8.841472912716938"><ele>336.0</ele><time>2026-03-30T09:21:58Z</time></trkpt><trkpt lat="45.718398259453515" lon="8.841509017425755"><ele>336.0</ele><time>2026-03-30T09:21:59Z</time></trkpt><trkpt lat="45.718464749623905" lon="8.84151211946798"><ele>336.0</ele><time>2026-03-30T09:22:00Z</time></trkpt><trkpt lat="45.71846474527472" lon="8.841639915150886"><ele>336.0</ele><time>2026-03-30T09:22:20.999Z</time></trkpt><trkpt lat="45.718402548269" lon="8.841729077832769"><ele>336.0</ele><time>2026-03-30T09:22:22.999Z</time></trkpt><trkpt lat="45.718341968953574" lon="8.841791398248025"><ele>336.0</ele><time>2026-03-30T09:22:24.999Z</time></trkpt><trkpt lat="45.71828887886598" lon="8.841885415768925"><ele>336.0</ele><time>2026-03-30T09:22:28.999Z</time></trkpt><trkpt lat="45.71823934217108" lon="8.841968972239766"><ele>337.0</ele><time>2026-03-30T09:22:30.999Z</time></trkpt><trkpt lat="45.71816360354108" lon="8.842053995374126"><ele>338.0</ele><time>2026-03-30T09:22:32.999Z</time></trkpt><trkpt lat="45.71810898180732" lon="8.842121151691822"><ele>339.0</ele><time>2026-03-30T09:22:34.999Z</time></trkpt><trkpt lat="45.71774404577218" lon="8.842667967486486"><ele>339.5</ele><time>2026-03-30T09:22:45.999Z</time></trkpt><trkpt lat="45.717675855777905" lon="8.842798370985328"><ele>340.0</ele><time>2026-03-30T09:22:47.999Z</time></trkpt><trkpt lat="45.71764846323107" lon="8.842892313210816"><ele>340.5</ele><time>2026-03-30T09:22:49.999Z</time></trkpt><trkpt lat="45.71765303958622" lon="8.843009029179985"><ele>341.0</ele><time>2026-03-30T09:22:50.999Z</time></trkpt><trkpt lat="45.717669455623586" lon="8.843110542286196"><ele>341.5</ele><time>2026-03-30T09:22:51.999Z</time></trkpt><trkpt lat="45.71767922160946" lon="8.84324293261805"><ele>342.0</ele><time>2026-03-30T09:22:53.999Z</time></trkpt><trkpt lat="45.71768116156818" lon="8.843396320185352"><ele>342.8333333333333</ele><time>2026-03-30T09:22:56.999Z</time></trkpt><trkpt lat="45.717727890907845" lon="8.84349403054301"><ele>343.6666666666667</ele><time>2026-03-30T09:22:58.999Z</time></trkpt><trkpt lat="45.717675858403645" lon="8.84357058818082"><ele>344.5</ele><time>2026-03-30T09:23:01.999Z</time></trkpt><trkpt lat="45.717576597013014" lon="8.843610978556088"><ele>345.33333333333337</ele><time>2026-03-30T09:23:03.999Z</time></trkpt><trkpt lat="45.717511236508415" lon="8.843648747859383"><ele>346.1666666666667</ele><time>2026-03-30T09:23:04.999Z</time></trkpt><trkpt lat="45.71741007525587" lon="8.843709571455287"><ele>347.0</ele><time>2026-03-30T09:23:06.999Z</time></trkpt><trkpt lat="45.717336080384044" lon="8.84376661683018"><ele>347.0</ele><time>2026-03-30T09:23:08.999Z</time></trkpt><trkpt lat="45.717316581396865" lon="8.843862349591973"><ele>347.0</ele><time>2026-03-30T09:23:12.999Z</time></trkpt><trkpt lat="45.717319925652156" lon="8.843952613704062"><ele>347.0</ele><time>2026-03-30T09:23:13.999Z</time></trkpt><trkpt lat="45.717285332072215" lon="8.844039141876207"><ele>347.0</ele><time>2026-03-30T09:23:14.999Z</time></trkpt><trkpt lat="45.71723694924621" lon="8.844097720798846"><ele>347.0</ele><time>2026-03-30T09:23:16Z</time></trkpt><trkpt lat="45.71718040166336" lon="8.844161979685042"><ele>347.0</ele><time>2026-03-30T09:23:17Z</time></trkpt><trkpt lat="45.717132584772926" lon="8.8442228030234"><ele>347.0</ele><time>2026-03-30T09:23:18Z</time></trkpt><trkpt lat="45.717076006500086" lon="8.844346235279762"><ele>346.20000000000005</ele><time>2026-03-30T09:23:20Z</time></trkpt><trkpt lat="45.71701590529261" lon="8.844484732607883"><ele>345.4</ele><time>2026-03-30T09:23:22Z</time></trkpt><trkpt lat="45.71690633696766" lon="8.844492454014064"><ele>344.6</ele><time>2026-03-30T09:23:24Z</time></trkpt><trkpt lat="45.716842625807566" lon="8.844482812173082"><ele>343.79999999999995</ele><time>2026-03-30T09:23:25Z</time></trkpt><trkpt lat="45.716736185208745" lon="8.844577052092093"><ele>343.0</ele><time>2026-03-30T09:23:27Z</time></trkpt><trkpt lat="45.71666465353883" lon="8.844679784871838"><ele>342.59999999999997</ele><time>2026-03-30T09:23:29Z</time></trkpt><trkpt lat="45.71664334383319" lon="8.84482340020085"><ele>342.2</ele><time>2026-03-30T09:23:31Z</time></trkpt><trkpt lat="45.716680103532845" lon="8.844996176806715"><ele>341.8</ele><time>2026-03-30T09:23:33Z</time></trkpt><trkpt lat="45.71675831987143" lon="8.845096454664626"><ele>341.4</ele><time>2026-03-30T09:23:35Z</time></trkpt><trkpt lat="45.71677900648406" lon="8.845193143134404"><ele>341.0</ele><time>2026-03-30T09:23:36Z</time></trkpt><trkpt lat="45.71712131512497" lon="8.845905171116707"><ele>342.20000000000005</ele><time>2026-03-30T09:23:47Z</time></trkpt><trkpt lat="45.71715721637399" lon="8.846037342322825"><ele>343.40000000000003</ele><time>2026-03-30T09:23:49Z</time></trkpt><trkpt lat="45.717119199264296" lon="8.846135102867256"><ele>344.6</ele><time>2026-03-30T09:23:52Z</time></trkpt><trkpt lat="45.71704798260318" lon="8.846231355979638"><ele>345.8</ele><time>2026-03-30T09:23:54Z</time></trkpt><trkpt lat="45.71694273756095" lon="8.846256464966428"><ele>347.0</ele><time>2026-03-30T09:23:56Z</time></trkpt><trkpt lat="45.71687446670877" lon="8.846261020233827"><ele>349.40000000000003</ele><time>2026-03-30T09:23:57Z</time></trkpt><trkpt lat="45.71677289326424" lon="8.846289784185242"><ele>351.8</ele><time>2026-03-30T09:23:59Z</time></trkpt><trkpt lat="45.71671719858411" lon="8.846401031758349"><ele>354.2</ele><time>2026-03-30T09:24:00Z</time></trkpt><trkpt lat="45.71662639883087" lon="8.846447621683653"><ele>356.6</ele><time>2026-03-30T09:24:02Z</time></trkpt><trkpt lat="45.716520242747734" lon="8.846416654099349"><ele>359.0</ele><time>2026-03-30T09:24:03.999Z</time></trkpt><trkpt lat="45.716409742754514" lon="8.846414442073135"><ele>359.0</ele><time>2026-03-30T09:24:05.999Z</time></trkpt><trkpt lat="45.71633003123512" lon="8.846426282941932"><ele>359.0</ele><time>2026-03-30T09:24:07.999Z</time></trkpt><trkpt lat="45.71621764944356" lon="8.846436024564044"><ele>359.0</ele><time>2026-03-30T09:24:09.999Z</time></trkpt><trkpt lat="45.716145455448704" lon="8.846435836221447"><ele>359.0</ele><time>2026-03-30T09:24:10.999Z</time></trkpt><trkpt lat="45.716035220446365" lon="8.8464159424779"><ele>359.0</ele><time>2026-03-30T09:24:12.999Z</time></trkpt><trkpt lat="45.71596429843702" lon="8.84639296161869"><ele>359.0</ele><time>2026-03-30T09:24:14.999Z</time></trkpt><trkpt lat="45.715896828165135" lon="8.846417601576013"><ele>359.4</ele><time>2026-03-30T09:24:18.999Z</time></trkpt><trkpt lat="45.7158760275488" lon="8.846663259919215"><ele>359.79999999999995</ele><time>2026-03-30T09:24:27.999Z</time></trkpt><trkpt lat="45.71587864716325" lon="8.84675881824476"><ele>360.20000000000005</ele><time>2026-03-30T09:24:28.999Z</time></trkpt><trkpt lat="45.71588829311099" lon="8.84689214669544"><ele>360.6</ele><time>2026-03-30T09:24:30.999Z</time></trkpt><trkpt lat="45.71591913412139" lon="8.846985728476854"><ele>361.0</ele><time>2026-03-30T09:24:32.999Z</time></trkpt><trkpt lat="45.71595050186873" lon="8.847110274336732"><ele>328.0</ele><time>2026-03-30T09:24:34.999Z</time></trkpt><trkpt lat="45.717722357646736" lon="8.848558276149655"><ele>327.99999999999994</ele><time>2026-03-30T09:25:47Z</time></trkpt><trkpt lat="45.71765650818136" lon="8.848516594297784"><ele>328.0</ele><time>2026-03-30T09:26:05Z</time></trkpt><trkpt lat="45.717643807352474" lon="8.848615054113761"><ele>328.0</ele><time>2026-03-30T09:26:15Z</time></trkpt><trkpt lat="45.71763860407839" lon="8.848725992315968"><ele>328.0</ele><time>2026-03-30T09:26:17.999Z</time></trkpt><trkpt lat="45.71755758769494" lon="8.84877749683363"><ele>328.0</ele><time>2026-03-30T09:26:20.999Z</time></trkpt><trkpt lat="45.717528161453686" lon="8.848858258970964"><ele>327.99999999999994</ele><time>2026-03-30T09:26:23.999Z</time></trkpt><trkpt lat="45.717593107857134" lon="8.848903454431934"><ele>328.0</ele><time>2026-03-30T09:26:27.999Z</time></trkpt><trkpt lat="45.717545368604526" lon="8.849065442956574"><ele>328.0</ele><time>2026-03-30T09:26:30.999Z</time></trkpt><trkpt lat="45.71745757103742" lon="8.849112030345562"><ele>328.0</ele><time>2026-03-30T09:26:34.999Z</time></trkpt><trkpt lat="45.716849927093314" lon="8.850239515984326"><ele>326.71428571428567</ele><time>2026-03-30T09:28:39.999Z</time></trkpt><trkpt lat="45.716799732228765" lon="8.850298267257706"><ele>325.42857142857144</ele><time>2026-03-30T09:28:44.999Z</time></trkpt><trkpt lat="45.716737251639806" lon="8.8503756670279"><ele>324.1428571428571</ele><time>2026-03-30T09:28:47.999Z</time></trkpt><trkpt lat="45.71667072408228" lon="8.850430580332986"><ele>322.85714285714283</ele><time>2026-03-30T09:28:50.999Z</time></trkpt><trkpt lat="45.71665694688056" lon="8.850538112800102"><ele>321.57142857142856</ele><time>2026-03-30T09:28:59.999Z</time></trkpt><trkpt lat="45.71663902172472" lon="8.850625555039773"><ele>320.2857142857143</ele><time>2026-03-30T09:29:01.999Z</time></trkpt><trkpt lat="45.71662944166277" lon="8.850738372134025"><ele>319.0</ele><time>2026-03-30T09:29:03.999Z</time></trkpt><trkpt lat="45.71658099980632" lon="8.850875145437197"><ele>319.0</ele><time>2026-03-30T09:29:06.999Z</time></trkpt><trkpt lat="45.716636353201636" lon="8.850929787302556"><ele>319.0</ele><time>2026-03-30T09:29:07.999Z</time></trkpt><trkpt lat="45.7166499191448" lon="8.851029072713294"><ele>319.0</ele><time>2026-03-30T09:29:10.999Z</time></trkpt><trkpt lat="45.71667279277638" lon="8.851144383934445"><ele>319.0</ele><time>2026-03-30T09:29:14.999Z</time></trkpt><trkpt lat="45.71671645254583" lon="8.851228777491217"><ele>319.0</ele><time>2026-03-30T09:29:16.999Z</time></trkpt><trkpt lat="45.71675326521843" lon="8.851315869612842"><ele>319.0</ele><time>2026-03-30T09:29:18.999Z</time></trkpt><trkpt lat="45.716765576058776" lon="8.851409841369714"><ele>319.0</ele><time>2026-03-30T09:29:20.999Z</time></trkpt><trkpt lat="45.716723735511856" lon="8.851526614902696"><ele>318.66666666666663</ele><time>2026-03-30T09:29:23.999Z</time></trkpt><trkpt lat="45.7166643729219" lon="8.851560916617505"><ele>318.3333333333333</ele><time>2026-03-30T09:29:25.999Z</time></trkpt><trkpt lat="45.716576000513236" lon="8.851623048056604"><ele>318.0</ele><time>2026-03-30T09:29:27.999Z</time></trkpt><trkpt lat="45.71650477791084" lon="8.85165213637618"><ele>317.6666666666667</ele><time>2026-03-30T09:29:29.999Z</time></trkpt><trkpt lat="45.71644718274654" lon="8.851699788328942"><ele>317.33333333333337</ele><time>2026-03-30T09:29:30.999Z</time></trkpt><trkpt lat="45.71640921291521" lon="8.851823374203342"><ele>317.0</ele><time>2026-03-30T09:29:34Z</time></trkpt><trkpt lat="45.716417777648864" lon="8.851952939522723"><ele>316.5</ele><time>2026-03-30T09:29:36Z</time></trkpt><trkpt lat="45.71656094262044" lon="8.852543627198406"><ele>316.0</ele><time>2026-03-30T09:29:47Z</time></trkpt><trkpt lat="45.71656589693349" lon="8.852647464843399"><ele>316.40000000000003</ele><time>2026-03-30T09:29:49Z</time></trkpt><trkpt lat="45.71658339580003" lon="8.852751144874906"><ele>316.8</ele><time>2026-03-30T09:29:51Z</time></trkpt><trkpt lat="45.716508189265575" lon="8.852792542198255"><ele>317.20000000000005</ele><time>2026-03-30T09:29:53Z</time></trkpt><trkpt lat="45.71646213386219" lon="8.852947831727855"><ele>317.6</ele><time>2026-03-30T09:29:55Z</time></trkpt><trkpt lat="45.71643325642741" lon="8.853061627589529"><ele>318.0</ele><time>2026-03-30T09:29:57Z</time></trkpt><trkpt lat="45.71636168344355" lon="8.853176265498446"><ele>318.0</ele><time>2026-03-30T09:29:59Z</time></trkpt><trkpt lat="45.71630443795122" lon="8.853298833543876"><ele>318.0</ele><time>2026-03-30T09:30:01Z</time></trkpt><trkpt lat="45.716257199338656" lon="8.853363974070254"><ele>318.0</ele><time>2026-03-30T09:30:02Z</time></trkpt><trkpt lat="45.716192462210564" lon="8.853446296401293"><ele>318.0</ele><time>2026-03-30T09:30:04Z</time></trkpt><trkpt lat="45.716102852427696" lon="8.853487382598775"><ele>318.0</ele><time>2026-03-30T09:30:07Z</time></trkpt><trkpt lat="45.716007422500944" lon="8.853470326235039"><ele>318.0</ele><time>2026-03-30T09:30:10Z</time></trkpt><trkpt lat="45.71591241896432" lon="8.853448536496215"><ele>316.8</ele><time>2026-03-30T09:30:12Z</time></trkpt><trkpt lat="45.71581713109665" lon="8.853461770992356"><ele>315.6</ele><time>2026-03-30T09:30:14Z</time></trkpt><trkpt lat="45.71574373769699" lon="8.853523372227235"><ele>314.4</ele><time>2026-03-30T09:30:16Z</time></trkpt><trkpt lat="45.71570116416877" lon="8.853611097217962"><ele>313.2</ele><time>2026-03-30T09:30:18Z</time></trkpt><trkpt lat="45.71563733894281" lon="8.853777125031293"><ele>312.0</ele><time>2026-03-30T09:30:20Z</time></trkpt><trkpt lat="45.71559309426261" lon="8.85391740635385"><ele>312.0</ele><time>2026-03-30T09:30:22Z</time></trkpt><trkpt lat="45.71556439493834" lon="8.85400907197022"><ele>312.0</ele><time>2026-03-30T09:30:24Z</time></trkpt><trkpt lat="45.715552042614426" lon="8.854134657024817"><ele>312.0</ele><time>2026-03-30T09:30:26Z</time></trkpt><trkpt lat="45.71553285417631" lon="8.854268828864871"><ele>312.0</ele><time>2026-03-30T09:30:28Z</time></trkpt><trkpt lat="45.71546426499592" lon="8.854358259228356"><ele>312.0</ele><time>2026-03-30T09:30:30Z</time></trkpt><trkpt lat="45.71538072346556" lon="8.854461245131521"><ele>312.0</ele><time>2026-03-30T09:30:32Z</time></trkpt><trkpt lat="45.715324936801785" lon="8.854573590598127"><ele>312.0</ele><time>2026-03-30T09:30:34Z</time></trkpt><trkpt lat="45.71528584096574" lon="8.854722362328681"><ele>312.0</ele><time>2026-03-30T09:30:35.999Z</time></trkpt><trkpt lat="45.71525719162262" lon="8.855098264231492"><ele>311.4</ele><time>2026-03-30T09:30:45.999Z</time></trkpt><trkpt lat="45.71532130999116" lon="8.855141801763287"><ele>310.79999999999995</ele><time>2026-03-30T09:31:18.999Z</time></trkpt><trkpt lat="45.71544088524342" lon="8.855215602034278"><ele>310.2</ele><time>2026-03-30T09:31:31.999Z</time></trkpt><trkpt lat="45.715545042882106" lon="8.855283257340082"><ele>309.59999999999997</ele><time>2026-03-30T09:31:33.999Z</time></trkpt><trkpt lat="45.71558616241329" lon="8.855365883772546"><ele>309.0</ele><time>2026-03-30T09:31:35.999Z</time></trkpt><trkpt lat="45.71344868520767" lon="8.861104027688405"><ele>309.0</ele><time>2026-03-30T09:32:41.999Z</time></trkpt><trkpt lat="45.7134825340562" lon="8.861244274890815"><ele>309.0</ele><time>2026-03-30T09:32:42.999Z</time></trkpt><trkpt lat="45.71350886934835" lon="8.861365989054063"><ele>309.0</ele><time>2026-03-30T09:32:43.999Z</time></trkpt><trkpt lat="45.713531065383066" lon="8.861470724154021"><ele>309.0</ele><time>2026-03-30T09:32:44.999Z</time></trkpt><trkpt lat="45.713535677539056" lon="8.86157531324573"><ele>309.0</ele><time>2026-03-30T09:32:45.999Z</time></trkpt><trkpt lat="45.71351552890536" lon="8.861714094698378"><ele>309.0</ele><time>2026-03-30T09:32:46.999Z</time></trkpt><trkpt lat="45.71349124322175" lon="8.861849047814868"><ele>309.0</ele><time>2026-03-30T09:32:47.999Z</time></trkpt><trkpt lat="45.71348521832011" lon="8.86195277885873"><ele>309.0</ele><time>2026-03-30T09:32:49.999Z</time></trkpt><trkpt lat="45.71340600838711" lon="8.861957057646517"><ele>309.0</ele><time>2026-03-30T09:32:52.999Z</time></trkpt><trkpt lat="45.713343064657984" lon="8.861894029813833"><ele>309.0</ele><time>2026-03-30T09:32:56.999Z</time></trkpt></trkseg><trkseg><trkpt lat="45.713363494766604" lon="8.861865866937546"><ele>309.0</ele><time>2026-03-30T10:18:12.985Z</time></trkpt><trkpt lat="45.71329595002656" lon="8.861805132514888"><ele>309.0</ele><time>2026-03-30T10:20:07.999Z</time></trkpt><trkpt lat="45.71335221446418" lon="8.861849543280519"><ele>309.0</ele><time>2026-03-30T10:20:23Z</time></trkpt><trkpt lat="45.71341927341352" lon="8.861918605747755"><ele>309.0</ele><time>2026-03-30T10:20:25Z</time></trkpt><trkpt lat="45.713486785468845" lon="8.862013310309402"><ele>309.0</ele><time>2026-03-30T10:20:28Z</time></trkpt><trkpt lat="45.71345898165187" lon="8.862097449011499"><ele>309.0</ele><time>2026-03-30T10:20:30Z</time></trkpt><trkpt lat="45.71338936967258" lon="8.862122936072712"><ele>309.0</ele><time>2026-03-30T10:20:32Z</time></trkpt><trkpt lat="45.71327996361459" lon="8.862123147212765"><ele>309.0</ele><time>2026-03-30T10:20:34Z</time></trkpt><trkpt lat="45.71321292032537" lon="8.862118147046335"><ele>309.0</ele><time>2026-03-30T10:20:35Z</time></trkpt><trkpt lat="45.71313134751744" lon="8.862122176964574"><ele>309.0</ele><time>2026-03-30T10:20:36Z</time></trkpt><trkpt lat="45.71305398544449" lon="8.86214375970567"><ele>309.0</ele><time>2026-03-30T10:20:37Z</time></trkpt><trkpt lat="45.71296290940151" lon="8.862163599079604"><ele>309.0</ele><time>2026-03-30T10:20:38Z</time></trkpt><trkpt lat="45.7128510205731" lon="8.862189451400983"><ele>309.0</ele><time>2026-03-30T10:20:39Z</time></trkpt><trkpt lat="45.71274530478692" lon="8.862198791378198"><ele>309.0</ele><time>2026-03-30T10:20:40Z</time></trkpt><trkpt lat="45.7126315430271" lon="8.862201979477621"><ele>309.0</ele><time>2026-03-30T10:20:41Z</time></trkpt><trkpt lat="45.71251127797812" lon="8.86220615579118"><ele>309.0</ele><time>2026-03-30T10:20:42Z</time></trkpt><trkpt lat="45.71237990035109" lon="8.86220670517954"><ele>308.5</ele><time>2026-03-30T10:20:43Z</time></trkpt><trkpt lat="45.71225515561565" lon="8.862211130696075"><ele>308.0</ele><time>2026-03-30T10:20:44Z</time></trkpt><trkpt lat="45.71211213067573" lon="8.862202547639555"><ele>307.5</ele><time>2026-03-30T10:20:45Z</time></trkpt><trkpt lat="45.711976665138536" lon="8.862213887354047"><ele>307.0</ele><time>2026-03-30T10:20:46Z</time></trkpt><trkpt lat="45.71184211183764" lon="8.862218134338757"><ele>306.5</ele><time>2026-03-30T10:20:47Z</time></trkpt><trkpt lat="45.71170629126515" lon="8.8622292247311"><ele>306.0</ele><time>2026-03-30T10:20:48Z</time></trkpt><trkpt lat="45.711568808020246" lon="8.862231683406149"><ele>305.5</ele><time>2026-03-30T10:20:49Z</time></trkpt><trkpt lat="45.71142627881345" lon="8.862245828296874"><ele>305.0</ele><time>2026-03-30T10:20:50Z</time></trkpt><trkpt lat="45.711279641699875" lon="8.862257969890365"><ele>305.0</ele><time>2026-03-30T10:20:51Z</time></trkpt><trkpt lat="45.71112720234249" lon="8.862274542761474"><ele>305.0</ele><time>2026-03-30T10:20:52Z</time></trkpt><trkpt lat="45.710983390677285" lon="8.862269893525909"><ele>305.0</ele><time>2026-03-30T10:20:53Z</time></trkpt><trkpt lat="45.710827018053685" lon="8.862274399777231"><ele>304.75</ele><time>2026-03-30T10:20:54Z</time></trkpt><trkpt lat="45.71068448565658" lon="8.862283690394314"><ele>304.5</ele><time>2026-03-30T10:20:55Z</time></trkpt><trkpt lat="45.71055367496635" lon="8.86230351846548"><ele>304.25</ele><time>2026-03-30T10:20:56Z</time></trkpt><trkpt lat="45.71042018236233" lon="8.862306527750233"><ele>304.0</ele><time>2026-03-30T10:20:57Z</time></trkpt><trkpt lat="45.71028152004592" lon="8.86230991944"><ele>304.0</ele><time>2026-03-30T10:20:58Z</time></trkpt><trkpt lat="45.710140137416346" lon="8.862319736636202"><ele>304.0</ele><time>2026-03-30T10:20:59Z</time></trkpt><trkpt lat="45.70999277850835" lon="8.862335098192935"><ele>304.0</ele><time>2026-03-30T10:21:00Z</time></trkpt><trkpt lat="45.70984644589964" lon="8.862352194008677"><ele>304.0</ele><time>2026-03-30T10:21:01Z</time></trkpt><trkpt lat="45.70971018502486" lon="8.862375726899957"><ele>304.0</ele><time>2026-03-30T10:21:01.999Z</time></trkpt><trkpt lat="45.70958118017869" lon="8.862392220423265"><ele>304.0</ele><time>2026-03-30T10:21:02.999Z</time></trkpt><trkpt lat="45.70945891531585" lon="8.862413868073649"><ele>304.0</ele><time>2026-03-30T10:21:03.999Z</time></trkpt><trkpt lat="45.709350931131446" lon="8.8624298442119"><ele>304.0</ele><time>2026-03-30T10:21:04.999Z</time></trkpt><trkpt lat="45.7092550925806" lon="8.862448614939039"><ele>303.5</ele><time>2026-03-30T10:21:05.999Z</time></trkpt><trkpt lat="45.70917436258259" lon="8.862461633680937"><ele>303.0</ele><time>2026-03-30T10:21:06.999Z</time></trkpt><trkpt lat="45.709092949583585" lon="8.862484113172574"><ele>302.5</ele><time>2026-03-30T10:21:07.999Z</time></trkpt><trkpt lat="45.70902074863423" lon="8.862491649258683"><ele>302.0</ele><time>2026-03-30T10:21:08.999Z</time></trkpt><trkpt lat="45.70894968502491" lon="8.862505314056701"><ele>301.5</ele><time>2026-03-30T10:21:09.999Z</time></trkpt><trkpt lat="45.70885391728981" lon="8.862522964639169"><ele>301.0</ele><time>2026-03-30T10:21:11.999Z</time></trkpt><trkpt lat="45.70887733570363" lon="8.862652445801416"><ele>301.0</ele><time>2026-03-30T10:21:14.999Z</time></trkpt><trkpt lat="45.70890060093016" lon="8.862746911491291"><ele>301.0</ele><time>2026-03-30T10:21:15.999Z</time></trkpt><trkpt lat="45.70890690452144" lon="8.862882273359498"><ele>301.0</ele><time>2026-03-30T10:21:16.999Z</time></trkpt><trkpt lat="45.70892783294189" lon="8.863026098245145"><ele>301.0</ele><time>2026-03-30T10:21:17.999Z</time></trkpt><trkpt lat="45.708942357661435" lon="8.863168760479539"><ele>301.0</ele><time>2026-03-30T10:21:18.999Z</time></trkpt><trkpt lat="45.708952958729384" lon="8.863321190381109"><ele>301.5</ele><time>2026-03-30T10:21:19.999Z</time></trkpt><trkpt lat="45.70896300893368" lon="8.86349280729636"><ele>302.0</ele><time>2026-03-30T10:21:20.999Z</time></trkpt><trkpt lat="45.7089770423412" lon="8.863657652002694"><ele>302.5</ele><time>2026-03-30T10:21:21.999Z</time></trkpt><trkpt lat="45.70899233865644" lon="8.863827961330204"><ele>303.0</ele><time>2026-03-30T10:21:22.999Z</time></trkpt><trkpt lat="45.709004525974095" lon="8.863974141387871"><ele>303.0</ele><time>2026-03-30T10:21:23.999Z</time></trkpt><trkpt lat="45.70901366199933" lon="8.86413183722683"><ele>303.0</ele><time>2026-03-30T10:21:24.999Z</time></trkpt><trkpt lat="45.70902000348845" lon="8.864266371946893"><ele>303.0</ele><time>2026-03-30T10:21:25.999Z</time></trkpt><trkpt lat="45.70903386247446" lon="8.864383874537044"><ele>303.0</ele><time>2026-03-30T10:21:26.999Z</time></trkpt><trkpt lat="45.709061721782305" lon="8.864488704969713"><ele>303.0</ele><time>2026-03-30T10:21:28.999Z</time></trkpt><trkpt lat="45.70891378698641" lon="8.864449083486582"><ele>302.8</ele><time>2026-03-30T10:21:31.999Z</time></trkpt><trkpt lat="45.70878555313577" lon="8.864473304094648"><ele>302.6</ele><time>2026-03-30T10:21:33.999Z</time></trkpt><trkpt lat="45.708718111677825" lon="8.864481903769903"><ele>302.4</ele><time>2026-03-30T10:21:34.999Z</time></trkpt><trkpt lat="45.70864405833973" lon="8.864493616281786"><ele>302.2</ele><time>2026-03-30T10:21:35.999Z</time></trkpt><trkpt lat="45.70850785445318" lon="8.8645327811082"><ele>302.0</ele><time>2026-03-30T10:21:37.999Z</time></trkpt><trkpt lat="45.70842007262386" lon="8.86457232759066"><ele>302.0</ele><time>2026-03-30T10:21:39.999Z</time></trkpt><trkpt lat="45.70831027322488" lon="8.864619867267283"><ele>302.0</ele><time>2026-03-30T10:21:41.999Z</time></trkpt><trkpt lat="45.708248877521456" lon="8.864646702527702"><ele>302.0</ele><time>2026-03-30T10:21:42.999Z</time></trkpt><trkpt lat="45.70813569033014" lon="8.86469036346595"><ele>302.0</ele><time>2026-03-30T10:21:44.999Z</time></trkpt><trkpt lat="45.708028809254444" lon="8.86471340009028"><ele>302.0</ele><time>2026-03-30T10:21:46.999Z</time></trkpt><trkpt lat="45.70793382387573" lon="8.864745913919114"><ele>302.0</ele><time>2026-03-30T10:21:48.999Z</time></trkpt><trkpt lat="45.70782787749332" lon="8.86479385401822"><ele>302.0</ele><time>2026-03-30T10:21:50.999Z</time></trkpt><trkpt lat="45.70770669110097" lon="8.864820524960905"><ele>302.0</ele><time>2026-03-30T10:21:52.999Z</time></trkpt><trkpt lat="45.707641402614534" lon="8.864824622704901"><ele>302.0</ele><time>2026-03-30T10:21:53.999Z</time></trkpt><trkpt lat="45.707571694456725" lon="8.864827088339409"><ele>302.0</ele><time>2026-03-30T10:21:54.999Z</time></trkpt><trkpt lat="45.70749574753331" lon="8.864826170410185"><ele>302.0</ele><time>2026-03-30T10:21:55.999Z</time></trkpt><trkpt lat="45.70741066307771" lon="8.864837532112807"><ele>302.2</ele><time>2026-03-30T10:21:56.999Z</time></trkpt><trkpt lat="45.707309620050566" lon="8.86486321214399"><ele>302.4</ele><time>2026-03-30T10:21:57.999Z</time></trkpt><trkpt lat="45.70719791754416" lon="8.864879938360362"><ele>302.6</ele><time>2026-03-30T10:21:58.999Z</time></trkpt><trkpt lat="45.70708222662611" lon="8.864893265443136"><ele>302.8</ele><time>2026-03-30T10:21:59.999Z</time></trkpt><trkpt lat="45.70697125733831" lon="8.864903397367156"><ele>303.0</ele><time>2026-03-30T10:22:00.999Z</time></trkpt><trkpt lat="45.706854926942746" lon="8.864917405868162"><ele>302.5</ele><time>2026-03-30T10:22:01.999Z</time></trkpt><trkpt lat="45.706739754443326" lon="8.8649330451599"><ele>302.0</ele><time>2026-03-30T10:22:02.999Z</time></trkpt><trkpt lat="45.706621109272845" lon="8.86494652496333"><ele>301.5</ele><time>2026-03-30T10:22:03.999Z</time></trkpt><trkpt lat="45.706500176044926" lon="8.864951014421859"><ele>301.0</ele><time>2026-03-30T10:22:04.999Z</time></trkpt><trkpt lat="45.70637756539144" lon="8.864959309560982"><ele>301.0</ele><time>2026-03-30T10:22:05.999Z</time></trkpt><trkpt lat="45.70625395638557" lon="8.864961991514427"><ele>301.0</ele><time>2026-03-30T10:22:06.999Z</time></trkpt><trkpt lat="45.706129873440936" lon="8.864974136666378"><ele>301.0</ele><time>2026-03-30T10:22:07.999Z</time></trkpt><trkpt lat="45.706008551204235" lon="8.864979391647351"><ele>301.0</ele><time>2026-03-30T10:22:08.999Z</time></trkpt><trkpt lat="45.705886549088696" lon="8.864978695210118"><ele>300.75</ele><time>2026-03-30T10:22:09.999Z</time></trkpt><trkpt lat="45.70576608659909" lon="8.864979354080369"><ele>300.5</ele><time>2026-03-30T10:22:10.999Z</time></trkpt><trkpt lat="45.705636865513085" lon="8.864984909401638"><ele>300.25</ele><time>2026-03-30T10:22:11.999Z</time></trkpt><trkpt lat="45.70550424999341" lon="8.864993415469243"><ele>300.0</ele><time>2026-03-30T10:22:12.999Z</time></trkpt><trkpt lat="45.70537445042791" lon="8.86500769117482"><ele>300.0</ele><time>2026-03-30T10:22:13.999Z</time></trkpt><trkpt lat="45.70524723903572" lon="8.865024797524928"><ele>300.0</ele><time>2026-03-30T10:22:14.999Z</time></trkpt><trkpt lat="45.70512357822633" lon="8.865040116118493"><ele>300.0</ele><time>2026-03-30T10:22:15.999Z</time></trkpt><trkpt lat="45.70499991799073" lon="8.86505768864172"><ele>300.0</ele><time>2026-03-30T10:22:16.999Z</time></trkpt><trkpt lat="45.70487697403785" lon="8.865090346650968"><ele>298.5</ele><time>2026-03-30T10:22:17.999Z</time></trkpt><trkpt lat="45.70476731832189" lon="8.865121251694712"><ele>297.0</ele><time>2026-03-30T10:22:18.999Z</time></trkpt><trkpt lat="45.704655621476206" lon="8.865157945525416"><ele>295.5</ele><time>2026-03-30T10:22:19.998Z</time></trkpt><trkpt lat="45.70454339969276" lon="8.865181508764659"><ele>294.0</ele><time>2026-03-30T10:22:20.998Z</time></trkpt><trkpt lat="45.70443321466783" lon="8.86521362873295"><ele>294.2</ele><time>2026-03-30T10:22:21.998Z</time></trkpt><trkpt lat="45.70432685271649" lon="8.86523199036221"><ele>294.4</ele><time>2026-03-30T10:22:22.998Z</time></trkpt><trkpt lat="45.70423056544524" lon="8.86522933354696"><ele>294.6</ele><time>2026-03-30T10:22:23.998Z</time></trkpt><trkpt lat="45.70413967667392" lon="8.86523944864781"><ele>294.8</ele><time>2026-03-30T10:22:24.998Z</time></trkpt><trkpt lat="45.70405438876238" lon="8.865251594626777"><ele>295.0</ele><time>2026-03-30T10:22:26Z</time></trkpt><trkpt lat="45.703967451636196" lon="8.865267609495419"><ele>295.0</ele><time>2026-03-30T10:22:27Z</time></trkpt><trkpt lat="45.70387734389851" lon="8.865280118607654"><ele>295.0</ele><time>2026-03-30T10:22:28Z</time></trkpt><trkpt lat="45.70377750415824" lon="8.865304146143654"><ele>295.0</ele><time>2026-03-30T10:22:29Z</time></trkpt><trkpt lat="45.7036794442352" lon="8.865327138076005"><ele>295.0</ele><time>2026-03-30T10:22:30Z</time></trkpt><trkpt lat="45.70357942859385" lon="8.865349540771838"><ele>295.0</ele><time>2026-03-30T10:22:31Z</time></trkpt><trkpt lat="45.70347570675216" lon="8.865376875833594"><ele>295.0</ele><time>2026-03-30T10:22:32Z</time></trkpt><trkpt lat="45.70337404963851" lon="8.865384147022402"><ele>295.0</ele><time>2026-03-30T10:22:33Z</time></trkpt><trkpt lat="45.7032659454253" lon="8.865381405539885"><ele>295.0</ele><time>2026-03-30T10:22:34Z</time></trkpt><trkpt lat="45.70315780440362" lon="8.865386349132457"><ele>295.0</ele><time>2026-03-30T10:22:35Z</time></trkpt><trkpt lat="45.70304814021707" lon="8.865385464345264"><ele>295.0</ele><time>2026-03-30T10:22:36Z</time></trkpt><trkpt lat="45.702946135129004" lon="8.865363995242452"><ele>295.0</ele><time>2026-03-30T10:22:37Z</time></trkpt><trkpt lat="45.70284473401314" lon="8.865352383478182"><ele>295.0</ele><time>2026-03-30T10:22:38Z</time></trkpt><trkpt lat="45.70276037062038" lon="8.865342360849732"><ele>295.0</ele><time>2026-03-30T10:22:39Z</time></trkpt><trkpt lat="45.70266505577535" lon="8.86534242860929"><ele>295.0</ele><time>2026-03-30T10:22:40Z</time></trkpt><trkpt lat="45.70259191116772" lon="8.8653403476463"><ele>295.0</ele><time>2026-03-30T10:22:41Z</time></trkpt><trkpt lat="45.70252052470085" lon="8.865441195055123"><ele>294.7142857142857</ele><time>2026-03-30T10:22:44Z</time></trkpt><trkpt lat="45.702453356134406" lon="8.86544038037146"><ele>294.42857142857144</ele><time>2026-03-30T10:22:45Z</time></trkpt><trkpt lat="45.70237238335487" lon="8.865460123583096"><ele>294.1428571428571</ele><time>2026-03-30T10:22:46Z</time></trkpt><trkpt lat="45.70230034562245" lon="8.865464301145446"><ele>293.8571428571429</ele><time>2026-03-30T10:22:47Z</time></trkpt><trkpt lat="45.70222620789281" lon="8.86548551366441"><ele>293.57142857142856</ele><time>2026-03-30T10:22:48Z</time></trkpt><trkpt lat="45.7021555495342" lon="8.865470239794078"><ele>293.2857142857143</ele><time>2026-03-30T10:22:49Z</time></trkpt><trkpt lat="45.702082759237506" lon="8.865460421946446"><ele>293.0</ele><time>2026-03-30T10:22:50Z</time></trkpt><trkpt lat="45.702008259587096" lon="8.865460140209604"><ele>293.0</ele><time>2026-03-30T10:22:51Z</time></trkpt><trkpt lat="45.70194138561441" lon="8.86544855743535"><ele>293.0</ele><time>2026-03-30T10:22:52Z</time></trkpt><trkpt lat="45.70188125775064" lon="8.86542081524648"><ele>293.0</ele><time>2026-03-30T10:22:53Z</time></trkpt><trkpt lat="45.70178555904454" lon="8.865361871122428"><ele>293.0</ele><time>2026-03-30T10:22:55Z</time></trkpt><trkpt lat="45.70170105332119" lon="8.865348056737522"><ele>293.0</ele><time>2026-03-30T10:22:57Z</time></trkpt><trkpt lat="45.70159340455761" lon="8.865402096470506"><ele>293.0</ele><time>2026-03-30T10:22:59Z</time></trkpt><trkpt lat="45.70154400111551" lon="8.865490101635082"><ele>292.6</ele><time>2026-03-30T10:23:01Z</time></trkpt><trkpt lat="45.7015854723869" lon="8.86565789576927"><ele>292.20000000000005</ele><time>2026-03-30T10:23:03Z</time></trkpt><trkpt lat="45.70162388242515" lon="8.865810135652337"><ele>291.8</ele><time>2026-03-30T10:23:04Z</time></trkpt><trkpt lat="45.701637890855494" lon="8.86595832464135"><ele>291.40000000000003</ele><time>2026-03-30T10:23:05Z</time></trkpt><trkpt lat="45.701671337250836" lon="8.86605858352996"><ele>291.0</ele><time>2026-03-30T10:23:06Z</time></trkpt><trkpt lat="45.70168921982134" lon="8.866155271615003"><ele>290.6666666666667</ele><time>2026-03-30T10:23:07Z</time></trkpt><trkpt lat="45.70172927033379" lon="8.866299306408143"><ele>290.3333333333333</ele><time>2026-03-30T10:23:09Z</time></trkpt><trkpt lat="45.70175261553625" lon="8.866388650612185"><ele>290.0</ele><time>2026-03-30T10:23:10Z</time></trkpt><trkpt lat="45.70176560745679" lon="8.866480232212417"><ele>289.66666666666663</ele><time>2026-03-30T10:23:11Z</time></trkpt><trkpt lat="45.7017742586527" lon="8.86663335480261"><ele>289.3333333333333</ele><time>2026-03-30T10:23:13Z</time></trkpt><trkpt lat="45.7017368193723" lon="8.866722737577943"><ele>289.0</ele><time>2026-03-30T10:23:14.999Z</time></trkpt><trkpt lat="45.70165311042931" lon="8.866746437727489"><ele>289.0</ele><time>2026-03-30T10:23:16.999Z</time></trkpt><trkpt lat="45.70157577066418" lon="8.86676885908489"><ele>289.0</ele><time>2026-03-30T10:23:19.999Z</time></trkpt><trkpt lat="45.70153274655592" lon="8.866838095295241"><ele>289.0</ele><time>2026-03-30T10:24:34Z</time></trkpt><trkpt lat="45.70145994535945" lon="8.866872932384249"><ele>289.0</ele><time>2026-03-30T10:24:47Z</time></trkpt><trkpt lat="45.701331075576775" lon="8.866902013275299"><ele>289.0</ele><time>2026-03-30T10:24:49Z</time></trkpt><trkpt lat="45.7012450683773" lon="8.866903060274318"><ele>289.0</ele><time>2026-03-30T10:24:50Z</time></trkpt><trkpt lat="45.70115960059501" lon="8.866916529964044"><ele>288.5</ele><time>2026-03-30T10:24:51Z</time></trkpt><trkpt lat="45.70107178083718" lon="8.866938393566508"><ele>288.0</ele><time>2026-03-30T10:24:52Z</time></trkpt><trkpt lat="45.700996209025504" lon="8.866951117287421"><ele>287.5</ele><time>2026-03-30T10:24:53Z</time></trkpt><trkpt lat="45.700902306415784" lon="8.86696688897849"><ele>287.0</ele><time>2026-03-30T10:24:54Z</time></trkpt><trkpt lat="45.70080291721479" lon="8.867014090108311"><ele>286.5</ele><time>2026-03-30T10:24:55Z</time></trkpt><trkpt lat="45.700726917151314" lon="8.867047646257726"><ele>286.0</ele><time>2026-03-30T10:24:56Z</time></trkpt><trkpt lat="45.70066005928035" lon="8.867055999219932"><ele>286.0</ele><time>2026-03-30T10:24:57Z</time></trkpt><trkpt lat="45.700589250320554" lon="8.867096818129948"><ele>286.0</ele><time>2026-03-30T10:24:58Z</time></trkpt><trkpt lat="45.70051474514993" lon="8.867173049424403"><ele>286.0</ele><time>2026-03-30T10:24:59Z</time></trkpt><trkpt lat="45.70042696136116" lon="8.867296334853027"><ele>286.0</ele><time>2026-03-30T10:25:00Z</time></trkpt><trkpt lat="45.70033647165939" lon="8.867381625720721"><ele>286.0</ele><time>2026-03-30T10:25:01Z</time></trkpt><trkpt lat="45.70023810801207" lon="8.867455176081117"><ele>285.8</ele><time>2026-03-30T10:25:02Z</time></trkpt><trkpt lat="45.70014781718206" lon="8.867550784213474"><ele>285.6</ele><time>2026-03-30T10:25:03Z</time></trkpt><trkpt lat="45.70006886633659" lon="8.867602015631608"><ele>285.4</ele><time>2026-03-30T10:25:04Z</time></trkpt><trkpt lat="45.69999567257672" lon="8.867676820156657"><ele>285.2</ele><time>2026-03-30T10:25:05Z</time></trkpt><trkpt lat="45.69993475256082" lon="8.867782288581491"><ele>285.0</ele><time>2026-03-30T10:25:06Z</time></trkpt><trkpt lat="45.699870451106804" lon="8.867920236900797"><ele>284.8</ele><time>2026-03-30T10:25:07Z</time></trkpt><trkpt lat="45.69981185733525" lon="8.868049995299435"><ele>284.6</ele><time>2026-03-30T10:25:08Z</time></trkpt><trkpt lat="45.6997452374864" lon="8.868175545997639"><ele>284.4</ele><time>2026-03-30T10:25:09Z</time></trkpt><trkpt lat="45.69966490229857" lon="8.86830025082866"><ele>284.2</ele><time>2026-03-30T10:25:10Z</time></trkpt><trkpt lat="45.69958740157391" lon="8.868415754504344"><ele>284.0</ele><time>2026-03-30T10:25:11Z</time></trkpt><trkpt lat="45.699514251856876" lon="8.868535206295862"><ele>284.0</ele><time>2026-03-30T10:25:12Z</time></trkpt><trkpt lat="45.699430689645574" lon="8.868646822514924"><ele>284.0</ele><time>2026-03-30T10:25:13Z</time></trkpt><trkpt lat="45.69933868708989" lon="8.86875563583152"><ele>284.0</ele><time>2026-03-30T10:25:14Z</time></trkpt><trkpt lat="45.699244226584355" lon="8.8688378178586"><ele>284.0</ele><time>2026-03-30T10:25:15Z</time></trkpt><trkpt lat="45.69915847800029" lon="8.868924623601716"><ele>284.0</ele><time>2026-03-30T10:25:16Z</time></trkpt><trkpt lat="45.69909102332673" lon="8.868995194314502"><ele>284.4</ele><time>2026-03-30T10:25:17Z</time></trkpt><trkpt lat="45.69902795051538" lon="8.869086391514042"><ele>284.79999999999995</ele><time>2026-03-30T10:25:18Z</time></trkpt><trkpt lat="45.69898044719909" lon="8.869194378870327"><ele>285.20000000000005</ele><time>2026-03-30T10:25:19Z</time></trkpt><trkpt lat="45.69894750765271" lon="8.869326230351025"><ele>285.6</ele><time>2026-03-30T10:25:20Z</time></trkpt><trkpt lat="45.69892760236273" lon="8.869486712026253"><ele>286.0</ele><time>2026-03-30T10:25:21Z</time></trkpt><trkpt lat="45.69889079228022" lon="8.869613046598047"><ele>285.3333333333333</ele><time>2026-03-30T10:25:22Z</time></trkpt><trkpt lat="45.698841463107534" lon="8.869726505873643"><ele>284.66666666666663</ele><time>2026-03-30T10:25:22.999Z</time></trkpt><trkpt lat="45.69880864045452" lon="8.8698265793707"><ele>284.0</ele><time>2026-03-30T10:25:23.999Z</time></trkpt><trkpt lat="45.69880372773005" lon="8.869940310929818"><ele>283.3333333333333</ele><time>2026-03-30T10:25:24.999Z</time></trkpt><trkpt lat="45.69881981847372" lon="8.870072946506653"><ele>282.6666666666667</ele><time>2026-03-30T10:25:25.999Z</time></trkpt><trkpt lat="45.69882717151675" lon="8.870170998435919"><ele>282.0</ele><time>2026-03-30T10:25:26.999Z</time></trkpt><trkpt lat="45.69881089264863" lon="8.870264885821136"><ele>281.0</ele><time>2026-03-30T10:25:27.999Z</time></trkpt><trkpt lat="45.698771228458426" lon="8.870352131349723"><ele>280.0</ele><time>2026-03-30T10:25:28.999Z</time></trkpt><trkpt lat="45.698706098479605" lon="8.870421535099199"><ele>279.0</ele><time>2026-03-30T10:25:29.999Z</time></trkpt><trkpt lat="45.69861239588507" lon="8.870479736784132"><ele>278.0</ele><time>2026-03-30T10:25:30.999Z</time></trkpt><trkpt lat="45.69850789812162" lon="8.870520286498571"><ele>277.0</ele><time>2026-03-30T10:25:31.999Z</time></trkpt><trkpt lat="45.698391988183126" lon="8.870568349604293"><ele>277.0</ele><time>2026-03-30T10:25:32.999Z</time></trkpt><trkpt lat="45.698281928822034" lon="8.870623428784544"><ele>277.0</ele><time>2026-03-30T10:25:33.999Z</time></trkpt><trkpt lat="45.6981720342511" lon="8.870672390656498"><ele>277.0</ele><time>2026-03-30T10:25:34.999Z</time></trkpt><trkpt lat="45.698067932837205" lon="8.870714575950062"><ele>277.0</ele><time>2026-03-30T10:25:35.999Z</time></trkpt><trkpt lat="45.69796569249902" lon="8.870758827039355"><ele>277.0</ele><time>2026-03-30T10:25:36.999Z</time></trkpt><trkpt lat="45.69786667548053" lon="8.870801230177062"><ele>277.0</ele><time>2026-03-30T10:25:37.999Z</time></trkpt><trkpt lat="45.697765633752354" lon="8.870834601723205"><ele>277.0</ele><time>2026-03-30T10:25:38.999Z</time></trkpt><trkpt lat="45.69767251727692" lon="8.870865566940978"><ele>277.0</ele><time>2026-03-30T10:25:39.999Z</time></trkpt><trkpt lat="45.697581636145706" lon="8.870890518954113"><ele>277.0</ele><time>2026-03-30T10:25:40.999Z</time></trkpt><trkpt lat="45.69749157350607" lon="8.870932510824996"><ele>277.0</ele><time>2026-03-30T10:25:41.999Z</time></trkpt><trkpt lat="45.69740996497957" lon="8.870958529369327"><ele>276.8333333333333</ele><time>2026-03-30T10:25:42.999Z</time></trkpt><trkpt lat="45.69733441214076" lon="8.871004825450445"><ele>276.66666666666663</ele><time>2026-03-30T10:25:43.999Z</time></trkpt><trkpt lat="45.69726305736779" lon="8.871016721647171"><ele>276.5</ele><time>2026-03-30T10:25:44.999Z</time></trkpt><trkpt lat="45.69718365960444" lon="8.87104554685414"><ele>276.3333333333333</ele><time>2026-03-30T10:25:45.999Z</time></trkpt><trkpt lat="45.69710716350785" lon="8.871070687985387"><ele>276.1666666666667</ele><time>2026-03-30T10:25:46.999Z</time></trkpt><trkpt lat="45.697032510315374" lon="8.871105432114875"><ele>276.0</ele><time>2026-03-30T10:25:47.999Z</time></trkpt><trkpt lat="45.696955047922174" lon="8.871132223196115"><ele>276.1666666666667</ele><time>2026-03-30T10:25:48.999Z</time></trkpt><trkpt lat="45.696882477105156" lon="8.871149573939796"><ele>276.3333333333333</ele><time>2026-03-30T10:25:49.999Z</time></trkpt><trkpt lat="45.69679757594007" lon="8.871160500783834"><ele>276.5</ele><time>2026-03-30T10:25:50.999Z</time></trkpt><trkpt lat="45.696707030299294" lon="8.871151594733787"><ele>276.66666666666663</ele><time>2026-03-30T10:25:51.999Z</time></trkpt><trkpt lat="45.69661512586522" lon="8.871128402463558"><ele>276.8333333333333</ele><time>2026-03-30T10:25:52.999Z</time></trkpt><trkpt lat="45.6965381199602" lon="8.871097838782857"><ele>277.0</ele><time>2026-03-30T10:25:53.999Z</time></trkpt><trkpt lat="45.69647371958353" lon="8.871066379518318"><ele>277.0</ele><time>2026-03-30T10:25:54.999Z</time></trkpt><trkpt lat="45.69637400418531" lon="8.871031344595073"><ele>277.0</ele><time>2026-03-30T10:25:56.999Z</time></trkpt><trkpt lat="45.69630507697574" lon="8.87111533054032"><ele>277.0</ele><time>2026-03-30T10:25:59.999Z</time></trkpt><trkpt lat="45.69628263347118" lon="8.87122780899007"><ele>277.0</ele><time>2026-03-30T10:26:02.999Z</time></trkpt><trkpt lat="45.6962193542318" lon="8.871289169058334"><ele>277.0</ele><time>2026-03-30T10:26:05.999Z</time></trkpt><trkpt lat="45.69614555336504" lon="8.87137214807785"><ele>277.0</ele><time>2026-03-30T10:26:08.999Z</time></trkpt><trkpt lat="45.69608078348468" lon="8.871430846935695"><ele>277.8333333333333</ele><time>2026-03-30T10:26:10.999Z</time></trkpt><trkpt lat="45.696019172506695" lon="8.87146121558931"><ele>278.66666666666663</ele><time>2026-03-30T10:26:11.999Z</time></trkpt><trkpt lat="45.69592189192273" lon="8.871546005713789"><ele>279.5</ele><time>2026-03-30T10:26:13.999Z</time></trkpt><trkpt lat="45.69587562876942" lon="8.871643534921445"><ele>280.3333333333333</ele><time>2026-03-30T10:26:15.999Z</time></trkpt><trkpt lat="45.69581038966432" lon="8.87166894843095"><ele>281.1666666666667</ele><time>2026-03-30T10:26:18.999Z</time></trkpt><trkpt lat="45.695720739078" lon="8.871716737067468"><ele>282.0</ele><time>2026-03-30T10:26:20.999Z</time></trkpt><trkpt lat="45.69565209881254" lon="8.871704572431172"><ele>282.0</ele><time>2026-03-30T10:26:21.999Z</time></trkpt><trkpt lat="45.69561832114809" lon="8.871806400566374"><ele>282.0</ele><time>2026-03-30T10:26:24.999Z</time></trkpt><trkpt lat="45.695631662445734" lon="8.871917423471908"><ele>282.0</ele><time>2026-03-30T10:26:26.999Z</time></trkpt><trkpt lat="45.69557555469099" lon="8.872041123458555"><ele>282.0</ele><time>2026-03-30T10:26:28.999Z</time></trkpt><trkpt lat="45.69559548460643" lon="8.87219875337099"><ele>282.0</ele><time>2026-03-30T10:26:30.999Z</time></trkpt><trkpt lat="45.6956095699189" lon="8.8722868490833"><ele>282.0</ele><time>2026-03-30T10:26:31.999Z</time></trkpt><trkpt lat="45.6956114512662" lon="8.872389131858954"><ele>282.0</ele><time>2026-03-30T10:26:32.999Z</time></trkpt><trkpt lat="45.695619367725776" lon="8.87249395830014"><ele>282.0</ele><time>2026-03-30T10:26:33.999Z</time></trkpt><trkpt lat="45.695609783084684" lon="8.87262400899085"><ele>282.0</ele><time>2026-03-30T10:26:35.999Z</time></trkpt><trkpt lat="45.695579448314746" lon="8.872745173045216"><ele>282.0</ele><time>2026-03-30T10:26:38Z</time></trkpt><trkpt lat="45.695584971709515" lon="8.872897270930224"><ele>282.0</ele><time>2026-03-30T10:26:40Z</time></trkpt><trkpt lat="45.69556203930752" lon="8.87300179098152"><ele>282.0</ele><time>2026-03-30T10:26:41Z</time></trkpt><trkpt lat="45.69561325469268" lon="8.873121123526024"><ele>281.5</ele><time>2026-03-30T10:26:43Z</time></trkpt><trkpt lat="45.695650641871694" lon="8.873241112811122"><ele>281.0</ele><time>2026-03-30T10:26:45Z</time></trkpt><trkpt lat="45.69563658051253" lon="8.873337378678382"><ele>280.5</ele><time>2026-03-30T10:26:46Z</time></trkpt><trkpt lat="45.69565023676667" lon="8.873464511332255"><ele>280.0</ele><time>2026-03-30T10:26:48Z</time></trkpt><trkpt lat="45.69565552920397" lon="8.873571334683147"><ele>279.5</ele><time>2026-03-30T10:26:50Z</time></trkpt><trkpt lat="45.69562195493897" lon="8.873677077859998"><ele>279.0</ele><time>2026-03-30T10:26:52Z</time></trkpt><trkpt lat="45.6956383322649" lon="8.873776648998616"><ele>276.8333333333333</ele><time>2026-03-30T10:26:54Z</time></trkpt><trkpt lat="45.69563732962035" lon="8.873885960643655"><ele>274.6666666666667</ele><time>2026-03-30T10:26:58Z</time></trkpt><trkpt lat="45.69562637864979" lon="8.873992335718427"><ele>272.5</ele><time>2026-03-30T10:27:01Z</time></trkpt><trkpt lat="45.695678683803585" lon="8.874055855398408"><ele>270.33333333333337</ele><time>2026-03-30T10:27:23Z</time></trkpt><trkpt lat="45.69567454866025" lon="8.874168526077469"><ele>268.1666666666667</ele><time>2026-03-30T10:27:31.999Z</time></trkpt><trkpt lat="45.69574871911033" lon="8.87421204851787"><ele>266.0</ele><time>2026-03-30T10:27:35.999Z</time></trkpt><trkpt lat="45.695813917039466" lon="8.874165952319354"><ele>266.0</ele><time>2026-03-30T10:27:37.999Z</time></trkpt><trkpt lat="45.695874578330134" lon="8.874134571890597"><ele>266.0</ele><time>2026-03-30T10:27:39.999Z</time></trkpt><trkpt lat="45.695976113834654" lon="8.874179439714277"><ele>266.0</ele><time>2026-03-30T10:27:43.999Z</time></trkpt><trkpt lat="45.696043735699924" lon="8.874187588351775"><ele>266.0</ele><time>2026-03-30T10:27:46.999Z</time></trkpt><trkpt lat="45.696232057507004" lon="8.874134650866965"><ele>266.0</ele><time>2026-03-30T10:27:50.999Z</time></trkpt><trkpt lat="45.69630019969618" lon="8.874155922069477"><ele>264.2</ele><time>2026-03-30T10:27:52.999Z</time></trkpt><trkpt lat="45.69639434217804" lon="8.874167383586679"><ele>262.40000000000003</ele><time>2026-03-30T10:27:55.999Z</time></trkpt><trkpt lat="45.696514443331395" lon="8.874119894113834"><ele>260.6</ele><time>2026-03-30T10:27:58.999Z</time></trkpt><trkpt lat="45.69660238908438" lon="8.874072359359344"><ele>258.8</ele><time>2026-03-30T10:28:00.999Z</time></trkpt><trkpt lat="45.696681642860625" lon="8.874106823132232"><ele>257.0</ele><time>2026-03-30T10:28:03.999Z</time></trkpt><trkpt lat="45.6967787395747" lon="8.874107762191345"><ele>257.0</ele><time>2026-03-30T10:28:07.999Z</time></trkpt><trkpt lat="45.696860621278965" lon="8.874128209396584"><ele>257.0</ele><time>2026-03-30T10:28:09.999Z</time></trkpt><trkpt lat="45.69695156998935" lon="8.874138099597527"><ele>257.0</ele><time>2026-03-30T10:28:11.999Z</time></trkpt><trkpt lat="45.69704082456338" lon="8.87406335880866"><ele>257.0</ele><time>2026-03-30T10:28:13.999Z</time></trkpt><trkpt lat="45.69715077043302" lon="8.87401700974103"><ele>257.0</ele><time>2026-03-30T10:28:15.999Z</time></trkpt><trkpt lat="45.69725302252253" lon="8.873959607167468"><ele>254.50000000000003</ele><time>2026-03-30T10:28:17.999Z</time></trkpt><trkpt lat="45.69733924739115" lon="8.873923538415209"><ele>252.0</ele><time>2026-03-30T10:28:19.999Z</time></trkpt><trkpt lat="45.6974140666738" lon="8.873877079312521"><ele>249.5</ele><time>2026-03-30T10:28:21.999Z</time></trkpt><trkpt lat="45.697458485510765" lon="8.873806655637123"><ele>247.0</ele><time>2026-03-30T10:28:23.999Z</time></trkpt><trkpt lat="45.697563102478306" lon="8.873730276139081"><ele>244.50000000000003</ele><time>2026-03-30T10:28:25.999Z</time></trkpt><trkpt lat="45.6976219943234" lon="8.873674001818861"><ele>242.0</ele><time>2026-03-30T10:28:26.999Z</time></trkpt><trkpt lat="45.697689134995585" lon="8.873623413224921"><ele>241.0</ele><time>2026-03-30T10:28:27.999Z</time></trkpt><trkpt lat="45.697758459742374" lon="8.873580428814806"><ele>239.99999999999997</ele><time>2026-03-30T10:28:28.999Z</time></trkpt><trkpt lat="45.69781861214766" lon="8.873525583812551"><ele>239.0</ele><time>2026-03-30T10:28:29.999Z</time></trkpt><trkpt lat="45.69788054381664" lon="8.873462949329586"><ele>238.0</ele><time>2026-03-30T10:28:30.999Z</time></trkpt><trkpt lat="45.69793709205564" lon="8.87339421514208"><ele>236.99999999999997</ele><time>2026-03-30T10:28:31.999Z</time></trkpt><trkpt lat="45.69799317162026" lon="8.87333613966658"><ele>236.0</ele><time>2026-03-30T10:28:32.999Z</time></trkpt><trkpt lat="45.69806020766256" lon="8.873309372731047"><ele>235.0</ele><time>2026-03-30T10:28:33.999Z</time></trkpt><trkpt lat="45.69816438853685" lon="8.873245859579157"><ele>235.0</ele><time>2026-03-30T10:28:35.999Z</time></trkpt><trkpt lat="45.698034455429834" lon="8.87333427269141"><ele>235.0</ele><time>2026-03-30T10:29:01Z</time></trkpt><trkpt lat="45.69793732065047" lon="8.873423878474217"><ele>235.0</ele><time>2026-03-30T10:29:03Z</time></trkpt><trkpt lat="45.69788446587183" lon="8.873474993614703"><ele>235.0</ele><time>2026-03-30T10:29:04Z</time></trkpt><trkpt lat="45.69782123143563" lon="8.873520344782072"><ele>235.0</ele><time>2026-03-30T10:29:05Z</time></trkpt><trkpt lat="45.69776390110594" lon="8.873584526116936"><ele>236.4</ele><time>2026-03-30T10:29:06Z</time></trkpt><trkpt lat="45.697659991456995" lon="8.873686345300456"><ele>237.8</ele><time>2026-03-30T10:29:08Z</time></trkpt><trkpt lat="45.69760605635147" lon="8.873737607833768"><ele>239.2</ele><time>2026-03-30T10:29:09Z</time></trkpt><trkpt lat="45.697516497374735" lon="8.873837913055155"><ele>240.6</ele><time>2026-03-30T10:29:11Z</time></trkpt><trkpt lat="45.69745868462769" lon="8.873919338342615"><ele>242.0</ele><time>2026-03-30T10:29:13Z</time></trkpt><trkpt lat="45.697420113029224" lon="8.87400652763384"><ele>242.0</ele><time>2026-03-30T10:29:15Z</time></trkpt><trkpt lat="45.697466336567196" lon="8.874112163339511"><ele>242.0</ele><time>2026-03-30T10:29:18Z</time></trkpt><trkpt lat="45.69752182009735" lon="8.874184709182455"><ele>242.0</ele><time>2026-03-30T10:29:20Z</time></trkpt><trkpt lat="45.69748074031293" lon="8.874299067681415"><ele>242.0</ele><time>2026-03-30T10:29:30Z</time></trkpt><trkpt lat="45.69738549430249" lon="8.874292269196152"><ele>242.0</ele><time>2026-03-30T10:29:31Z</time></trkpt><trkpt lat="45.69728126474109" lon="8.874314973775025"><ele>240.33333333333334</ele><time>2026-03-30T10:29:32Z</time></trkpt><trkpt lat="45.69713480021813" lon="8.874337240207153"><ele>238.66666666666669</ele><time>2026-03-30T10:29:33Z</time></trkpt><trkpt lat="45.696971170781524" lon="8.874356371537123"><ele>237.0</ele><time>2026-03-30T10:29:34Z</time></trkpt><trkpt lat="45.69680363008125" lon="8.87439557230936"><ele>237.0</ele><time>2026-03-30T10:29:35Z</time></trkpt><trkpt lat="45.696632394259886" lon="8.874438603081833"><ele>237.0</ele><time>2026-03-30T10:29:36Z</time></trkpt><trkpt lat="45.69646609067452" lon="8.874469082280156"><ele>237.0</ele><time>2026-03-30T10:29:37Z</time></trkpt><trkpt lat="45.69630672706006" lon="8.874529013158583"><ele>237.0</ele><time>2026-03-30T10:29:37.999Z</time></trkpt><trkpt lat="45.69614565915354" lon="8.87460901629453"><ele>237.0</ele><time>2026-03-30T10:29:38.999Z</time></trkpt><trkpt lat="45.69598811881217" lon="8.874666549145209"><ele>237.0</ele><time>2026-03-30T10:29:39.999Z</time></trkpt><trkpt lat="45.69582370395243" lon="8.874747937894158"><ele>238.33333333333331</ele><time>2026-03-30T10:29:40.999Z</time></trkpt><trkpt lat="45.69566215534859" lon="8.874829282345685"><ele>239.66666666666666</ele><time>2026-03-30T10:29:41.999Z</time></trkpt><trkpt lat="45.695503857153646" lon="8.874906999933627"><ele>241.0</ele><time>2026-03-30T10:29:42.999Z</time></trkpt><trkpt lat="45.695351929672974" lon="8.874972451369507"><ele>241.66666666666666</ele><time>2026-03-30T10:29:43.999Z</time></trkpt><trkpt lat="45.69520565023336" lon="8.875034494254926"><ele>242.33333333333331</ele><time>2026-03-30T10:29:44.999Z</time></trkpt><trkpt lat="45.695051825282285" lon="8.875099960672102"><ele>243.0</ele><time>2026-03-30T10:29:45.999Z</time></trkpt><trkpt lat="45.694911452395154" lon="8.87514855056287"><ele>243.0</ele><time>2026-03-30T10:29:46.999Z</time></trkpt><trkpt lat="45.69478554077284" lon="8.875187309041777"><ele>243.0</ele><time>2026-03-30T10:29:47.999Z</time></trkpt><trkpt lat="45.694663081047544" lon="8.875232828474347"><ele>243.0</ele><time>2026-03-30T10:29:48.999Z</time></trkpt><trkpt lat="45.694542843530506" lon="8.875278306953495"><ele>243.0</ele><time>2026-03-30T10:29:49.999Z</time></trkpt><trkpt lat="45.69441624329197" lon="8.875334057820195"><ele>243.25</ele><time>2026-03-30T10:29:50.999Z</time></trkpt><trkpt lat="45.694291638966625" lon="8.875375637919532"><ele>243.5</ele><time>2026-03-30T10:29:51.999Z</time></trkpt><trkpt lat="45.694159245555745" lon="8.875431379402318"><ele>243.75</ele><time>2026-03-30T10:29:52.999Z</time></trkpt><trkpt lat="45.694033022903895" lon="8.875473694460418"><ele>244.0</ele><time>2026-03-30T10:29:53.999Z</time></trkpt><trkpt lat="45.6939044316782" lon="8.875531829656525"><ele>244.0</ele><time>2026-03-30T10:29:54.999Z</time></trkpt><trkpt lat="45.69379574054929" lon="8.875553293413322"><ele>243.99999999999997</ele><time>2026-03-30T10:29:55.999Z</time></trkpt><trkpt lat="45.69368580169987" lon="8.875581018249251"><ele>243.99999999999997</ele><time>2026-03-30T10:29:56.999Z</time></trkpt><trkpt lat="45.693580607380134" lon="8.875591189057154"><ele>244.0</ele><time>2026-03-30T10:29:57.999Z</time></trkpt><trkpt lat="45.693482111289" lon="8.875597147137116"><ele>244.0</ele><time>2026-03-30T10:29:58.999Z</time></trkpt><trkpt lat="45.69338226788522" lon="8.875594582672711"><ele>243.6</ele><time>2026-03-30T10:29:59.999Z</time></trkpt><trkpt lat="45.693270606610746" lon="8.875582897065257"><ele>243.2</ele><time>2026-03-30T10:30:00.999Z</time></trkpt><trkpt lat="45.69317081025934" lon="8.875504500346649"><ele>242.79999999999998</ele><time>2026-03-30T10:30:01.999Z</time></trkpt><trkpt lat="45.693085205841776" lon="8.875483322784506"><ele>242.39999999999998</ele><time>2026-03-30T10:30:02.999Z</time></trkpt><trkpt lat="45.69301573104243" lon="8.875449506764172"><ele>242.0</ele><time>2026-03-30T10:30:03.999Z</time></trkpt><trkpt lat="45.69295452629101" lon="8.875405159975204"><ele>242.0</ele><time>2026-03-30T10:30:04.999Z</time></trkpt><trkpt lat="45.692897915555164" lon="8.875355007006174"><ele>242.0</ele><time>2026-03-30T10:30:05.999Z</time></trkpt><trkpt lat="45.69275970255027" lon="8.875434899342835"><ele>242.0</ele><time>2026-03-30T10:30:06.999Z</time></trkpt><trkpt lat="45.692681284019315" lon="8.875468734687134"><ele>242.0</ele><time>2026-03-30T10:30:07.999Z</time></trkpt><trkpt lat="45.69259406279656" lon="8.875457943342171"><ele>242.0</ele><time>2026-03-30T10:30:08.999Z</time></trkpt><trkpt lat="45.692501505439054" lon="8.87541923752992"><ele>241.39999999999998</ele><time>2026-03-30T10:30:09.999Z</time></trkpt><trkpt lat="45.692403565345" lon="8.87540314503228"><ele>240.79999999999998</ele><time>2026-03-30T10:30:10.999Z</time></trkpt><trkpt lat="45.69230566337122" lon="8.875399036998314"><ele>240.2</ele><time>2026-03-30T10:30:11.999Z</time></trkpt><trkpt lat="45.69220988016058" lon="8.875416029761775"><ele>239.6</ele><time>2026-03-30T10:30:12.999Z</time></trkpt><trkpt lat="45.69210936179462" lon="8.875460879659503"><ele>239.0</ele><time>2026-03-30T10:30:13.999Z</time></trkpt><trkpt lat="45.69203580700309" lon="8.875512389941104"><ele>239.0</ele><time>2026-03-30T10:30:14.999Z</time></trkpt><trkpt lat="45.69196615856762" lon="8.875581737232427"><ele>238.99999999999997</ele><time>2026-03-30T10:30:15.999Z</time></trkpt><trkpt lat="45.6919010331333" lon="8.87567663299261"><ele>238.99999999999997</ele><time>2026-03-30T10:30:16.999Z</time></trkpt><trkpt lat="45.69185949957833" lon="8.875794419094158"><ele>239.0</ele><time>2026-03-30T10:30:17.999Z</time></trkpt><trkpt lat="45.69186027055818" lon="8.875930657470153"><ele>239.0</ele><time>2026-03-30T10:30:18.999Z</time></trkpt><trkpt lat="45.69185633550153" lon="8.87607565990552"><ele>238.75</ele><time>2026-03-30T10:30:19.999Z</time></trkpt><trkpt lat="45.691874953067796" lon="8.876232017762147"><ele>238.5</ele><time>2026-03-30T10:30:20.999Z</time></trkpt><trkpt lat="45.69190947325911" lon="8.8763859499638"><ele>238.25</ele><time>2026-03-30T10:30:21.999Z</time></trkpt><trkpt lat="45.691941215105025" lon="8.876543123398664"><ele>238.0</ele><time>2026-03-30T10:30:22.999Z</time></trkpt><trkpt lat="45.69194912988399" lon="8.87670425422883"><ele>237.5</ele><time>2026-03-30T10:30:23.999Z</time></trkpt><trkpt lat="45.69197509674667" lon="8.876869127906419"><ele>237.0</ele><time>2026-03-30T10:30:24.999Z</time></trkpt><trkpt lat="45.692001285773856" lon="8.877030444394842"><ele>236.5</ele><time>2026-03-30T10:30:25.999Z</time></trkpt><trkpt lat="45.69202702205361" lon="8.877188778476146"><ele>236.0</ele><time>2026-03-30T10:30:26.999Z</time></trkpt><trkpt lat="45.692052272446226" lon="8.877346904447892"><ele>236.0</ele><time>2026-03-30T10:30:27.999Z</time></trkpt><trkpt lat="45.69207699634017" lon="8.877503128297956"><ele>236.00000000000003</ele><time>2026-03-30T10:30:28.999Z</time></trkpt><trkpt lat="45.69211257676553" lon="8.877646254257737"><ele>236.00000000000003</ele><time>2026-03-30T10:30:29.999Z</time></trkpt><trkpt lat="45.692130722861386" lon="8.877779317819448"><ele>236.0</ele><time>2026-03-30T10:30:30.999Z</time></trkpt><trkpt lat="45.692161322835304" lon="8.877889671206885"><ele>236.0</ele><time>2026-03-30T10:30:31.999Z</time></trkpt><trkpt lat="45.692172425003214" lon="8.877986309754563"><ele>236.60000000000002</ele><time>2026-03-30T10:30:32.999Z</time></trkpt><trkpt lat="45.6921620169118" lon="8.878119424192981"><ele>237.20000000000002</ele><time>2026-03-30T10:30:34.999Z</time></trkpt><trkpt lat="45.69205567475847" lon="8.878185096281436"><ele>237.79999999999998</ele><time>2026-03-30T10:30:36.999Z</time></trkpt><trkpt lat="45.69196259711514" lon="8.878216738475302"><ele>238.39999999999998</ele><time>2026-03-30T10:30:37.999Z</time></trkpt><trkpt lat="45.69185173395124" lon="8.878240913182484"><ele>239.0</ele><time>2026-03-30T10:30:38.999Z</time></trkpt><trkpt lat="45.69174380638135" lon="8.878264190013775"><ele>239.0</ele><time>2026-03-30T10:30:39.999Z</time></trkpt><trkpt lat="45.6916321226748" lon="8.878295882047649"><ele>238.99999999999997</ele><time>2026-03-30T10:30:40.999Z</time></trkpt><trkpt lat="45.69151955759537" lon="8.878314369723295"><ele>238.99999999999997</ele><time>2026-03-30T10:30:41.999Z</time></trkpt><trkpt lat="45.69141951289424" lon="8.878322192385117"><ele>239.0</ele><time>2026-03-30T10:30:42.999Z</time></trkpt><trkpt lat="45.6913288559533" lon="8.87831051826416"><ele>239.0</ele><time>2026-03-30T10:30:43.999Z</time></trkpt><trkpt lat="45.69122270096672" lon="8.878297426439435"><ele>239.0</ele><time>2026-03-30T10:30:44.999Z</time></trkpt><trkpt lat="45.691109584926004" lon="8.87827435427117"><ele>239.0</ele><time>2026-03-30T10:30:45.999Z</time></trkpt><trkpt lat="45.69099448723529" lon="8.878252429160796"><ele>239.0</ele><time>2026-03-30T10:30:46.999Z</time></trkpt><trkpt lat="45.69087988904395" lon="8.878233557899884"><ele>239.0</ele><time>2026-03-30T10:30:47.999Z</time></trkpt><trkpt lat="45.69076457363101" lon="8.878208680101727"><ele>239.0</ele><time>2026-03-30T10:30:49Z</time></trkpt><trkpt lat="45.690652487458046" lon="8.878181814462009"><ele>239.0</ele><time>2026-03-30T10:30:50Z</time></trkpt><trkpt lat="45.690534232990245" lon="8.878156101857831"><ele>239.0</ele><time>2026-03-30T10:30:51Z</time></trkpt><trkpt lat="45.69041306013212" lon="8.878133766613246"><ele>239.0</ele><time>2026-03-30T10:30:52Z</time></trkpt><trkpt lat="45.69028964159781" lon="8.878109507921579"><ele>237.5</ele><time>2026-03-30T10:30:53Z</time></trkpt><trkpt lat="45.690167772947284" lon="8.878087353253573"><ele>236.0</ele><time>2026-03-30T10:30:54Z</time></trkpt><trkpt lat="45.6900506215835" lon="8.878069167137925"><ele>234.5</ele><time>2026-03-30T10:30:55Z</time></trkpt><trkpt lat="45.6899366240902" lon="8.878044291563583"><ele>233.0</ele><time>2026-03-30T10:30:56Z</time></trkpt><trkpt lat="45.689821955237186" lon="8.878021431956087"><ele>233.0</ele><time>2026-03-30T10:30:57Z</time></trkpt><trkpt lat="45.689705120956916" lon="8.878000920531651"><ele>233.0</ele><time>2026-03-30T10:30:58Z</time></trkpt><trkpt lat="45.68959151168134" lon="8.877908555094919"><ele>233.0</ele><time>2026-03-30T10:30:59Z</time></trkpt><trkpt lat="45.689472253762354" lon="8.87788562957184"><ele>233.0</ele><time>2026-03-30T10:31:00Z</time></trkpt><trkpt lat="45.68934956379469" lon="8.877861570221631"><ele>232.8</ele><time>2026-03-30T10:31:01Z</time></trkpt><trkpt lat="45.68923431464006" lon="8.877838328393333"><ele>232.60000000000002</ele><time>2026-03-30T10:31:02Z</time></trkpt><trkpt lat="45.68913204992627" lon="8.87781806148086"><ele>232.39999999999998</ele><time>2026-03-30T10:31:03Z</time></trkpt><trkpt lat="45.68901721444582" lon="8.877817918347171"><ele>232.2</ele><time>2026-03-30T10:31:04Z</time></trkpt><trkpt lat="45.68890873093166" lon="8.877797162270497"><ele>232.0</ele><time>2026-03-30T10:31:05Z</time></trkpt><trkpt lat="45.68880267685901" lon="8.877775598123005"><ele>232.0</ele><time>2026-03-30T10:31:06Z</time></trkpt><trkpt lat="45.68869674656813" lon="8.877750658957371"><ele>232.0</ele><time>2026-03-30T10:31:07Z</time></trkpt><trkpt lat="45.68859504592079" lon="8.877795478250116"><ele>232.0</ele><time>2026-03-30T10:31:08Z</time></trkpt><trkpt lat="45.688487775529325" lon="8.877840535949423"><ele>232.0</ele><time>2026-03-30T10:31:09Z</time></trkpt><trkpt lat="45.688377787166985" lon="8.877897414214697"><ele>232.0</ele><time>2026-03-30T10:31:10Z</time></trkpt><trkpt lat="45.68827163239354" lon="8.87797319331838"><ele>232.0</ele><time>2026-03-30T10:31:11Z</time></trkpt><trkpt lat="45.68817140128945" lon="8.878040054685814"><ele>232.0</ele><time>2026-03-30T10:31:12Z</time></trkpt><trkpt lat="45.68807430101819" lon="8.878107947338448"><ele>232.0</ele><time>2026-03-30T10:31:13Z</time></trkpt><trkpt lat="45.68797895763631" lon="8.878176796635874"><ele>232.0</ele><time>2026-03-30T10:31:14Z</time></trkpt><trkpt lat="45.68788039048127" lon="8.878246266216843"><ele>232.0</ele><time>2026-03-30T10:31:15Z</time></trkpt><trkpt lat="45.68777671722331" lon="8.878322027719488"><ele>232.75</ele><time>2026-03-30T10:31:16Z</time></trkpt><trkpt lat="45.6876677218677" lon="8.878419416065583"><ele>233.5</ele><time>2026-03-30T10:31:17Z</time></trkpt><trkpt lat="45.687565640151625" lon="8.878524950662268"><ele>234.25</ele><time>2026-03-30T10:31:18Z</time></trkpt><trkpt lat="45.687470405532856" lon="8.878614079547368"><ele>235.0</ele><time>2026-03-30T10:31:19Z</time></trkpt><trkpt lat="45.68737384931436" lon="8.878709640620661"><ele>235.0</ele><time>2026-03-30T10:31:20Z</time></trkpt><trkpt lat="45.687283291974516" lon="8.878801802250502"><ele>235.0</ele><time>2026-03-30T10:31:21Z</time></trkpt><trkpt lat="45.68720621928082" lon="8.87889072631348"><ele>235.0</ele><time>2026-03-30T10:31:22Z</time></trkpt><trkpt lat="45.68712442879184" lon="8.878979976158577"><ele>235.0</ele><time>2026-03-30T10:31:23Z</time></trkpt><trkpt lat="45.687052242000085" lon="8.879059965055625"><ele>235.0</ele><time>2026-03-30T10:31:24Z</time></trkpt><trkpt lat="45.68698790221401" lon="8.879137629380038"><ele>234.99999999999997</ele><time>2026-03-30T10:31:25Z</time></trkpt><trkpt lat="45.68693085031996" lon="8.879207283097669"><ele>235.0</ele><time>2026-03-30T10:31:26Z</time></trkpt><trkpt lat="45.6868739908129" lon="8.879263159690323"><ele>235.0</ele><time>2026-03-30T10:31:27Z</time></trkpt><trkpt lat="45.68679497279987" lon="8.879379543170925"><ele>235.0</ele><time>2026-03-30T10:31:29Z</time></trkpt><trkpt lat="45.68673105877718" lon="8.879465569648056"><ele>234.99999999999997</ele><time>2026-03-30T10:31:31Z</time></trkpt><trkpt lat="45.6866808647778" lon="8.879524462420482"><ele>235.0</ele><time>2026-03-30T10:31:33Z</time></trkpt><trkpt lat="45.6865635517105" lon="8.879629595210483"><ele>236.0</ele><time>2026-03-30T10:35:19Z</time></trkpt><trkpt lat="45.68650191703785" lon="8.879598216265743"><ele>236.0</ele><time>2026-03-30T10:35:24Z</time></trkpt><trkpt lat="45.686564901766985" lon="8.87958676341736"><ele>236.0</ele><time>2026-03-30T10:35:37Z</time></trkpt></trkseg><trkseg><trkpt lat="45.675678378128936" lon="8.907971959351718"><ele>269.0</ele><time>2026-03-30T11:12:05Z</time></trkpt><trkpt lat="45.67561353747102" lon="8.907987734842383"><ele>269.0</ele><time>2026-03-30T11:12:58.999Z</time></trkpt><trkpt lat="45.67550882015051" lon="8.90798508570279"><ele>269.0</ele><time>2026-03-30T11:13:03.999Z</time></trkpt><trkpt lat="45.67544283276792" lon="8.907953627662662"><ele>269.0</ele><time>2026-03-30T11:13:04.999Z</time></trkpt><trkpt lat="45.67537966415828" lon="8.907945915165321"><ele>269.0</ele><time>2026-03-30T11:13:05.999Z</time></trkpt><trkpt lat="45.67531563094207" lon="8.90798280326735"><ele>269.0</ele><time>2026-03-30T11:13:06.999Z</time></trkpt><trkpt lat="45.67524369143939" lon="8.908036056341194"><ele>269.4</ele><time>2026-03-30T11:13:07.999Z</time></trkpt><trkpt lat="45.675147414720264" lon="8.908081871414913"><ele>269.79999999999995</ele><time>2026-03-30T11:13:08.999Z</time></trkpt><trkpt lat="45.67506105459569" lon="8.908110843869286"><ele>270.20000000000005</ele><time>2026-03-30T11:13:09.999Z</time></trkpt><trkpt lat="45.674974528783615" lon="8.908151483219456"><ele>270.6</ele><time>2026-03-30T11:13:10.999Z</time></trkpt><trkpt lat="45.67489024617401" lon="8.908191092811503"><ele>271.0</ele><time>2026-03-30T11:13:11.999Z</time></trkpt><trkpt lat="45.67481305806769" lon="8.908248719843042"><ele>271.0</ele><time>2026-03-30T11:13:12.999Z</time></trkpt><trkpt lat="45.674724307192726" lon="8.908296996617517"><ele>271.0</ele><time>2026-03-30T11:13:13.999Z</time></trkpt><trkpt lat="45.67461495793838" lon="8.90833568531409"><ele>271.0</ele><time>2026-03-30T11:13:14.999Z</time></trkpt><trkpt lat="45.674504833868774" lon="8.908373530459292"><ele>271.0</ele><time>2026-03-30T11:13:15.999Z</time></trkpt><trkpt lat="45.6744015643797" lon="8.908431952146206"><ele>271.0</ele><time>2026-03-30T11:13:16.999Z</time></trkpt><trkpt lat="45.674295301102475" lon="8.908517322638948"><ele>270.5</ele><time>2026-03-30T11:13:17.999Z</time></trkpt><trkpt lat="45.674191637408555" lon="8.908583691917721"><ele>270.0</ele><time>2026-03-30T11:13:18.999Z</time></trkpt><trkpt lat="45.6740715081979" lon="8.90864249107137"><ele>269.5</ele><time>2026-03-30T11:13:19.999Z</time></trkpt><trkpt lat="45.67395565638654" lon="8.908699801343586"><ele>269.0</ele><time>2026-03-30T11:13:20.999Z</time></trkpt><trkpt lat="45.673849014124485" lon="8.908765426196366"><ele>269.0</ele><time>2026-03-30T11:13:21.999Z</time></trkpt><trkpt lat="45.6737440500381" lon="8.908820167608553"><ele>269.0</ele><time>2026-03-30T11:13:22.999Z</time></trkpt><trkpt lat="45.67364283807321" lon="8.908877207975001"><ele>269.0</ele><time>2026-03-30T11:13:23.999Z</time></trkpt><trkpt lat="45.67353664390952" lon="8.908908899945102"><ele>269.0</ele><time>2026-03-30T11:13:24.999Z</time></trkpt><trkpt lat="45.67343712653128" lon="8.908943904487966"><ele>269.0</ele><time>2026-03-30T11:13:25.999Z</time></trkpt><trkpt lat="45.67334415950438" lon="8.908946649703333"><ele>269.4</ele><time>2026-03-30T11:13:26.999Z</time></trkpt><trkpt lat="45.673263728830655" lon="8.908987919333388"><ele>269.79999999999995</ele><time>2026-03-30T11:13:27.999Z</time></trkpt><trkpt lat="45.67318220438579" lon="8.909052121934835"><ele>270.20000000000005</ele><time>2026-03-30T11:13:28.999Z</time></trkpt><trkpt lat="45.6730900134814" lon="8.909126330403321"><ele>270.6</ele><time>2026-03-30T11:13:29.999Z</time></trkpt><trkpt lat="45.67297804243412" lon="8.909196490143401"><ele>271.0</ele><time>2026-03-30T11:13:30.999Z</time></trkpt><trkpt lat="45.672851112635065" lon="8.909240673853315"><ele>270.5</ele><time>2026-03-30T11:13:31.999Z</time></trkpt><trkpt lat="45.67271915951056" lon="8.909300242486415"><ele>270.0</ele><time>2026-03-30T11:13:32.999Z</time></trkpt><trkpt lat="45.67259804550086" lon="8.909363438462996"><ele>269.5</ele><time>2026-03-30T11:13:33.999Z</time></trkpt><trkpt lat="45.6725291145567" lon="8.90940672721432"><ele>269.0</ele><time>2026-03-30T11:13:34.999Z</time></trkpt><trkpt lat="45.672432775074995" lon="8.909481987177866"><ele>269.0</ele><time>2026-03-30T11:13:35.999Z</time></trkpt><trkpt lat="45.67228786432902" lon="8.909541483842013"><ele>269.0</ele><time>2026-03-30T11:13:36.999Z</time></trkpt><trkpt lat="45.67213427774151" lon="8.909605197935102"><ele>269.0</ele><time>2026-03-30T11:13:37.999Z</time></trkpt><trkpt lat="45.67200333317038" lon="8.909662464371335"><ele>269.0</ele><time>2026-03-30T11:13:38.999Z</time></trkpt><trkpt lat="45.67186474315629" lon="8.909709579614876"><ele>269.0</ele><time>2026-03-30T11:13:39.999Z</time></trkpt><trkpt lat="45.671751003176865" lon="8.909746407722649"><ele>269.0</ele><time>2026-03-30T11:13:40.999Z</time></trkpt><trkpt lat="45.67163950956548" lon="8.909799810774976"><ele>269.0</ele><time>2026-03-30T11:13:41.999Z</time></trkpt><trkpt lat="45.67153459438982" lon="8.90981702126462"><ele>269.0</ele><time>2026-03-30T11:13:42.999Z</time></trkpt><trkpt lat="45.67137684152568" lon="8.909871551420188"><ele>269.0</ele><time>2026-03-30T11:13:43.999Z</time></trkpt><trkpt lat="45.671257624959544" lon="8.909911622440001"><ele>269.0</ele><time>2026-03-30T11:13:44.999Z</time></trkpt><trkpt lat="45.6711261082606" lon="8.909974466910155"><ele>269.0</ele><time>2026-03-30T11:13:45.999Z</time></trkpt><trkpt lat="45.67100368446659" lon="8.910032118463693"><ele>269.0</ele><time>2026-03-30T11:13:46.999Z</time></trkpt><trkpt lat="45.67087598984351" lon="8.910100764677308"><ele>269.0</ele><time>2026-03-30T11:13:47.999Z</time></trkpt><trkpt lat="45.67076589033187" lon="8.910156080419283"><ele>269.0</ele><time>2026-03-30T11:13:48.999Z</time></trkpt><trkpt lat="45.6706568045348" lon="8.910213286378662"><ele>269.0</ele><time>2026-03-30T11:13:49.999Z</time></trkpt><trkpt lat="45.67055874791213" lon="8.91025064245252"><ele>269.0</ele><time>2026-03-30T11:13:50.999Z</time></trkpt><trkpt lat="45.67048098643459" lon="8.910271567896684"><ele>269.0</ele><time>2026-03-30T11:13:51.999Z</time></trkpt><trkpt lat="45.670411910445466" lon="8.910309396543967"><ele>269.0</ele><time>2026-03-30T11:13:52.999Z</time></trkpt><trkpt lat="45.6703474127722" lon="8.910351741456653"><ele>269.0</ele><time>2026-03-30T11:13:54.999Z</time></trkpt><trkpt lat="45.67038333515973" lon="8.910486932163904"><ele>269.0</ele><time>2026-03-30T11:13:56.999Z</time></trkpt><trkpt lat="45.67042599015586" lon="8.910589610113838"><ele>269.0</ele><time>2026-03-30T11:13:57.999Z</time></trkpt><trkpt lat="45.67044821946073" lon="8.91071837622563"><ele>269.0</ele><time>2026-03-30T11:13:58.999Z</time></trkpt><trkpt lat="45.67038762383875" lon="8.910779069354694"><ele>269.0</ele><time>2026-03-30T11:14:00.999Z</time></trkpt><trkpt lat="45.67025681525219" lon="8.910861117962662"><ele>269.33333333333337</ele><time>2026-03-30T11:14:02.999Z</time></trkpt><trkpt lat="45.670145757058734" lon="8.910918778644767"><ele>269.6666666666667</ele><time>2026-03-30T11:14:03.999Z</time></trkpt><trkpt lat="45.6700562070904" lon="8.910998983736238"><ele>270.0</ele><time>2026-03-30T11:14:04.999Z</time></trkpt><trkpt lat="45.670017551823044" lon="8.91107980242491"><ele>270.3333333333333</ele><time>2026-03-30T11:14:05.999Z</time></trkpt><trkpt lat="45.66997470259979" lon="8.911159890896375"><ele>270.66666666666663</ele><time>2026-03-30T11:14:06.999Z</time></trkpt><trkpt lat="45.669974108669" lon="8.911271245515286"><ele>271.0</ele><time>2026-03-30T11:14:08Z</time></trkpt><trkpt lat="45.66999652613256" lon="8.911362306687836"><ele>271.0</ele><time>2026-03-30T11:14:09Z</time></trkpt><trkpt lat="45.67002197341618" lon="8.911551744881681"><ele>271.0</ele><time>2026-03-30T11:14:10Z</time></trkpt><trkpt lat="45.670047318624256" lon="8.911751990298082"><ele>271.0</ele><time>2026-03-30T11:14:11Z</time></trkpt><trkpt lat="45.67006487988464" lon="8.911898353100762"><ele>271.0</ele><time>2026-03-30T11:14:12Z</time></trkpt><trkpt lat="45.67009606019959" lon="8.912007935914014"><ele>270.6</ele><time>2026-03-30T11:14:13Z</time></trkpt><trkpt lat="45.670077369872196" lon="8.91211643857798"><ele>270.20000000000005</ele><time>2026-03-30T11:14:15Z</time></trkpt><trkpt lat="45.6699266676601" lon="8.912111762550113"><ele>269.79999999999995</ele><time>2026-03-30T11:14:17Z</time></trkpt><trkpt lat="45.66981570896342" lon="8.912078902555958"><ele>269.4</ele><time>2026-03-30T11:14:18Z</time></trkpt><trkpt lat="45.66973662314784" lon="8.91209110970264"><ele>269.0</ele><time>2026-03-30T11:14:19Z</time></trkpt><trkpt lat="45.66964186941561" lon="8.912098876988535"><ele>269.0</ele><time>2026-03-30T11:14:21Z</time></trkpt><trkpt lat="45.669544406113" lon="8.912132002921924"><ele>269.0</ele><time>2026-03-30T11:14:23Z</time></trkpt><trkpt lat="45.66947366367907" lon="8.912158976670764"><ele>269.0</ele><time>2026-03-30T11:14:26Z</time></trkpt><trkpt lat="45.669403917205294" lon="8.912221341747962"><ele>269.0</ele><time>2026-03-30T11:14:28Z</time></trkpt><trkpt lat="45.66932014920083" lon="8.912238227894907"><ele>269.0</ele><time>2026-03-30T11:14:30Z</time></trkpt><trkpt lat="45.66921066788982" lon="8.912200161597841"><ele>268.2</ele><time>2026-03-30T11:14:32Z</time></trkpt><trkpt lat="45.669159788652756" lon="8.912286530927574"><ele>267.4</ele><time>2026-03-30T11:14:35Z</time></trkpt><trkpt lat="45.66906923785916" lon="8.912340074572867"><ele>266.6</ele><time>2026-03-30T11:14:37Z</time></trkpt><trkpt lat="45.66899257179999" lon="8.912335320504708"><ele>265.8</ele><time>2026-03-30T11:14:38Z</time></trkpt><trkpt lat="45.66890432760556" lon="8.912347425539428"><ele>265.0</ele><time>2026-03-30T11:14:39Z</time></trkpt><trkpt lat="45.66879814747369" lon="8.912442276046056"><ele>265.0</ele><time>2026-03-30T11:14:41Z</time></trkpt><trkpt lat="45.6687177563864" lon="8.912454820342349"><ele>265.0</ele><time>2026-03-30T11:14:42Z</time></trkpt><trkpt lat="45.66864114874162" lon="8.91247888171806"><ele>265.0</ele><time>2026-03-30T11:14:43Z</time></trkpt><trkpt lat="45.668560241098376" lon="8.912509285739258"><ele>265.0</ele><time>2026-03-30T11:14:44Z</time></trkpt><trkpt lat="45.66841812729951" lon="8.912534620501631"><ele>265.0</ele><time>2026-03-30T11:14:46Z</time></trkpt><trkpt lat="45.668337341484985" lon="8.912567199115399"><ele>265.16666666666663</ele><time>2026-03-30T11:14:47Z</time></trkpt><trkpt lat="45.6682453088301" lon="8.912619062710107"><ele>265.3333333333333</ele><time>2026-03-30T11:14:48Z</time></trkpt><trkpt lat="45.66817950016498" lon="8.912665287957937"><ele>265.5</ele><time>2026-03-30T11:14:49Z</time></trkpt><trkpt lat="45.668091146722944" lon="8.91268372502824"><ele>265.6666666666667</ele><time>2026-03-30T11:14:50Z</time></trkpt><trkpt lat="45.66802002841302" lon="8.912705554952423"><ele>265.83333333333337</ele><time>2026-03-30T11:14:51Z</time></trkpt><trkpt lat="45.667929616088244" lon="8.912733241489157"><ele>266.0</ele><time>2026-03-30T11:14:53Z</time></trkpt><trkpt lat="45.66787310704677" lon="8.912623368675018"><ele>265.83333333333337</ele><time>2026-03-30T11:14:56Z</time></trkpt><trkpt lat="45.66785979074704" lon="8.912489925000013"><ele>265.6666666666667</ele><time>2026-03-30T11:14:58Z</time></trkpt><trkpt lat="45.66781030184146" lon="8.912413556651758"><ele>265.5</ele><time>2026-03-30T11:15:00.999Z</time></trkpt><trkpt lat="45.667729657844546" lon="8.91242583473274"><ele>265.3333333333333</ele><time>2026-03-30T11:15:02.999Z</time></trkpt><trkpt lat="45.66764387781761" lon="8.912451213176302"><ele>265.16666666666663</ele><time>2026-03-30T11:15:03.999Z</time></trkpt><trkpt lat="45.66753984014894" lon="8.912487918502363"><ele>265.0</ele><time>2026-03-30T11:15:04.999Z</time></trkpt><trkpt lat="45.66744745303207" lon="8.912523572403863"><ele>264.8</ele><time>2026-03-30T11:15:05.999Z</time></trkpt><trkpt lat="45.66735836645614" lon="8.91257265445581"><ele>264.6</ele><time>2026-03-30T11:15:06.999Z</time></trkpt><trkpt lat="45.66726224179142" lon="8.912587386662763"><ele>264.4</ele><time>2026-03-30T11:15:07.999Z</time></trkpt><trkpt lat="45.66718277716648" lon="8.912620357097078"><ele>264.2</ele><time>2026-03-30T11:15:08.999Z</time></trkpt><trkpt lat="45.667092147671326" lon="8.912634406760983"><ele>264.0</ele><time>2026-03-30T11:15:09.999Z</time></trkpt><trkpt lat="45.66699104617568" lon="8.912672893087905"><ele>264.0</ele><time>2026-03-30T11:15:10.999Z</time></trkpt><trkpt lat="45.666897263067405" lon="8.912695030860377"><ele>264.0</ele><time>2026-03-30T11:15:11.999Z</time></trkpt><trkpt lat="45.66679376887445" lon="8.912711516285992"><ele>264.0</ele><time>2026-03-30T11:15:12.999Z</time></trkpt><trkpt lat="45.66669496038299" lon="8.91273074896897"><ele>264.0</ele><time>2026-03-30T11:15:13.999Z</time></trkpt><trkpt lat="45.66659966459961" lon="8.912763413116819"><ele>264.0</ele><time>2026-03-30T11:15:14.999Z</time></trkpt><trkpt lat="45.66648332867211" lon="8.912814695186773"><ele>264.0</ele><time>2026-03-30T11:15:15.999Z</time></trkpt><trkpt lat="45.66637703894824" lon="8.912878339574075"><ele>264.0</ele><time>2026-03-30T11:15:16.999Z</time></trkpt><trkpt lat="45.66626704233052" lon="8.912932707388347"><ele>264.0</ele><time>2026-03-30T11:15:17.999Z</time></trkpt><trkpt lat="45.66615477123337" lon="8.912965553065762"><ele>264.0</ele><time>2026-03-30T11:15:18.999Z</time></trkpt><trkpt lat="45.66605300733205" lon="8.912985106733752"><ele>264.0</ele><time>2026-03-30T11:15:19.999Z</time></trkpt><trkpt lat="45.66596867732031" lon="8.913012479451222"><ele>263.59999999999997</ele><time>2026-03-30T11:15:20.999Z</time></trkpt><trkpt lat="45.665892147009195" lon="8.91305554497835"><ele>263.2</ele><time>2026-03-30T11:15:21.999Z</time></trkpt><trkpt lat="45.66580743420739" lon="8.913068482177025"><ele>262.79999999999995</ele><time>2026-03-30T11:15:23.999Z</time></trkpt><trkpt lat="45.66574552663073" lon="8.913049123267257"><ele>262.4</ele><time>2026-03-30T11:15:24.999Z</time></trkpt><trkpt lat="45.66567739922207" lon="8.91289578608969"><ele>262.0</ele><time>2026-03-30T11:15:26.999Z</time></trkpt><trkpt lat="45.66566731947521" lon="8.912760854666168"><ele>262.0</ele><time>2026-03-30T11:15:27.999Z</time></trkpt><trkpt lat="45.66566176214574" lon="8.912622604472483"><ele>262.0</ele><time>2026-03-30T11:15:28.999Z</time></trkpt><trkpt lat="45.66561257856107" lon="8.912482336667756"><ele>262.0</ele><time>2026-03-30T11:15:29.999Z</time></trkpt><trkpt lat="45.66556630859437" lon="8.912345463495779"><ele>262.0</ele><time>2026-03-30T11:15:30.999Z</time></trkpt><trkpt lat="45.665508420320734" lon="8.912183719575959"><ele>262.0</ele><time>2026-03-30T11:15:31.999Z</time></trkpt><trkpt lat="45.66545929752996" lon="8.912040999029879"><ele>262.0</ele><time>2026-03-30T11:15:32.999Z</time></trkpt><trkpt lat="45.66541157251282" lon="8.911902633195803"><ele>262.0</ele><time>2026-03-30T11:15:33.999Z</time></trkpt><trkpt lat="45.66536891765892" lon="8.911785297672333"><ele>262.0</ele><time>2026-03-30T11:15:34.999Z</time></trkpt><trkpt lat="45.66533986327455" lon="8.911675268248485"><ele>262.0</ele><time>2026-03-30T11:15:35.999Z</time></trkpt><trkpt lat="45.66529139277733" lon="8.911576440669426"><ele>262.0</ele><time>2026-03-30T11:15:36.999Z</time></trkpt><trkpt lat="45.6652607219818" lon="8.91149021967142"><ele>262.0</ele><time>2026-03-30T11:15:37.999Z</time></trkpt><trkpt lat="45.66522675958659" lon="8.911404723634982"><ele>262.6</ele><time>2026-03-30T11:15:38.999Z</time></trkpt><trkpt lat="45.66516799202708" lon="8.91123573642655"><ele>263.2</ele><time>2026-03-30T11:15:40.999Z</time></trkpt><trkpt lat="45.66512685043223" lon="8.911152754794948"><ele>263.8</ele><time>2026-03-30T11:15:41.999Z</time></trkpt><trkpt lat="45.66509776789689" lon="8.91105776204556"><ele>264.4</ele><time>2026-03-30T11:15:42.999Z</time></trkpt><trkpt lat="45.66504718694695" lon="8.910914624034948"><ele>265.0</ele><time>2026-03-30T11:15:44.999Z</time></trkpt><trkpt lat="45.66498697283702" lon="8.910835929341145"><ele>265.0</ele><time>2026-03-30T11:15:46.999Z</time></trkpt><trkpt lat="45.664918551415" lon="8.910784667203696"><ele>265.0</ele><time>2026-03-30T11:15:50.999Z</time></trkpt><trkpt lat="45.66488478174159" lon="8.910636024109218"><ele>265.0</ele><time>2026-03-30T11:15:52.999Z</time></trkpt><trkpt lat="45.664792056196184" lon="8.910635483410093"><ele>265.0</ele><time>2026-03-30T11:15:54.999Z</time></trkpt><trkpt lat="45.66472546202743" lon="8.910659806342911"><ele>265.0</ele><time>2026-03-30T11:15:55.999Z</time></trkpt><trkpt lat="45.66465229176464" lon="8.910682825298302"><ele>265.0</ele><time>2026-03-30T11:15:56.999Z</time></trkpt><trkpt lat="45.664573580498605" lon="8.910694806297203"><ele>265.0</ele><time>2026-03-30T11:15:57.999Z</time></trkpt><trkpt lat="45.66445190058822" lon="8.910703281558941"><ele>265.0</ele><time>2026-03-30T11:15:58.999Z</time></trkpt><trkpt lat="45.66438866910872" lon="8.910725039349314"><ele>265.0</ele><time>2026-03-30T11:15:59.999Z</time></trkpt><trkpt lat="45.66426377127175" lon="8.91072565722336"><ele>265.0</ele><time>2026-03-30T11:16:00.999Z</time></trkpt><trkpt lat="45.664142114154366" lon="8.910761119706036"><ele>265.0</ele><time>2026-03-30T11:16:01.999Z</time></trkpt><trkpt lat="45.664039252652685" lon="8.910795000648735"><ele>265.0</ele><time>2026-03-30T11:16:02.999Z</time></trkpt><trkpt lat="45.663926693272586" lon="8.910819728300822"><ele>265.0</ele><time>2026-03-30T11:16:03.999Z</time></trkpt><trkpt lat="45.66382219288774" lon="8.910837988107271"><ele>265.0</ele><time>2026-03-30T11:16:04.999Z</time></trkpt><trkpt lat="45.66371945956212" lon="8.910831298155312"><ele>265.0</ele><time>2026-03-30T11:16:05.999Z</time></trkpt><trkpt lat="45.66362984309487" lon="8.910841614721008"><ele>265.0</ele><time>2026-03-30T11:16:06.999Z</time></trkpt><trkpt lat="45.66353306261157" lon="8.910878909708432"><ele>265.4</ele><time>2026-03-30T11:16:07.999Z</time></trkpt><trkpt lat="45.66344348596725" lon="8.910907245781384"><ele>265.8</ele><time>2026-03-30T11:16:08.999Z</time></trkpt><trkpt lat="45.66333513906677" lon="8.910940676444497"><ele>266.2</ele><time>2026-03-30T11:16:09.999Z</time></trkpt><trkpt lat="45.66322734456896" lon="8.910963514992792"><ele>266.6</ele><time>2026-03-30T11:16:10.999Z</time></trkpt><trkpt lat="45.6631029059452" lon="8.910984747614087"><ele>267.0</ele><time>2026-03-30T11:16:11.999Z</time></trkpt><trkpt lat="45.66299453581816" lon="8.911007111333689"><ele>267.0</ele><time>2026-03-30T11:16:12.999Z</time></trkpt><trkpt lat="45.66290065155941" lon="8.911027464857602"><ele>267.0</ele><time>2026-03-30T11:16:14Z</time></trkpt><trkpt lat="45.662808868377944" lon="8.91104493454885"><ele>267.0</ele><time>2026-03-30T11:16:15Z</time></trkpt><trkpt lat="45.662714585140876" lon="8.91108059481987"><ele>267.0</ele><time>2026-03-30T11:16:16Z</time></trkpt><trkpt lat="45.6626125568929" lon="8.911099576066924"><ele>267.0</ele><time>2026-03-30T11:16:17Z</time></trkpt><trkpt lat="45.66250337350846" lon="8.911134049035049"><ele>266.75</ele><time>2026-03-30T11:16:18Z</time></trkpt><trkpt lat="45.6623869981025" lon="8.911148062922104"><ele>266.5</ele><time>2026-03-30T11:16:19Z</time></trkpt><trkpt lat="45.66228234410364" lon="8.911166154680474"><ele>266.25</ele><time>2026-03-30T11:16:20Z</time></trkpt><trkpt lat="45.66216570924475" lon="8.911187559348326"><ele>266.0</ele><time>2026-03-30T11:16:21Z</time></trkpt><trkpt lat="45.66205731738422" lon="8.911212623125136"><ele>265.5</ele><time>2026-03-30T11:16:22Z</time></trkpt><trkpt lat="45.661930497997474" lon="8.911249267043408"><ele>265.0</ele><time>2026-03-30T11:16:23Z</time></trkpt><trkpt lat="45.66181108583805" lon="8.911276205260982"><ele>264.5</ele><time>2026-03-30T11:16:24Z</time></trkpt><trkpt lat="45.661690436947566" lon="8.911288101318101"><ele>264.0</ele><time>2026-03-30T11:16:25Z</time></trkpt><trkpt lat="45.66157418293154" lon="8.911308333046634"><ele>264.0</ele><time>2026-03-30T11:16:26Z</time></trkpt><trkpt lat="45.66145232329913" lon="8.911328550780446"><ele>264.0</ele><time>2026-03-30T11:16:27Z</time></trkpt><trkpt lat="45.661341231981844" lon="8.911351717296652"><ele>264.0</ele><time>2026-03-30T11:16:28Z</time></trkpt><trkpt lat="45.661227987301146" lon="8.911390640490751"><ele>264.0</ele><time>2026-03-30T11:16:29Z</time></trkpt><trkpt lat="45.66111928900309" lon="8.911438720414004"><ele>264.5</ele><time>2026-03-30T11:16:30Z</time></trkpt><trkpt lat="45.66099659189731" lon="8.911471781856338"><ele>265.0</ele><time>2026-03-30T11:16:31Z</time></trkpt><trkpt lat="45.660869431757774" lon="8.911481843525044"><ele>265.5</ele><time>2026-03-30T11:16:32Z</time></trkpt><trkpt lat="45.66074872947567" lon="8.911504989954047"><ele>266.0</ele><time>2026-03-30T11:16:33Z</time></trkpt><trkpt lat="45.66061004433269" lon="8.911525134114228"><ele>266.0</ele><time>2026-03-30T11:16:34Z</time></trkpt><trkpt lat="45.66050139905039" lon="8.91155423242353"><ele>266.0</ele><time>2026-03-30T11:16:35Z</time></trkpt><trkpt lat="45.66037601048432" lon="8.911580057481096"><ele>266.0</ele><time>2026-03-30T11:16:36Z</time></trkpt><trkpt lat="45.66027512025177" lon="8.911599264001714"><ele>266.0</ele><time>2026-03-30T11:16:37Z</time></trkpt><trkpt lat="45.66016822770596" lon="8.911628947195565"><ele>266.0</ele><time>2026-03-30T11:16:38Z</time></trkpt><trkpt lat="45.6600732365112" lon="8.91167989542375"><ele>266.0</ele><time>2026-03-30T11:16:39Z</time></trkpt><trkpt lat="45.659962034741035" lon="8.911743014571853"><ele>266.0</ele><time>2026-03-30T11:16:40Z</time></trkpt><trkpt lat="45.659848934526934" lon="8.911781701018116"><ele>266.0</ele><time>2026-03-30T11:16:41Z</time></trkpt><trkpt lat="45.65973822670855" lon="8.91182363639589"><ele>266.0</ele><time>2026-03-30T11:16:42Z</time></trkpt><trkpt lat="45.659636390268076" lon="8.91185776825423"><ele>266.0</ele><time>2026-03-30T11:16:43Z</time></trkpt><trkpt lat="45.65953820429024" lon="8.911899092245308"><ele>266.0</ele><time>2026-03-30T11:16:44Z</time></trkpt><trkpt lat="45.65945470332928" lon="8.911942274208949"><ele>266.0</ele><time>2026-03-30T11:16:45Z</time></trkpt><trkpt lat="45.65937871164685" lon="8.91197300620606"><ele>266.0</ele><time>2026-03-30T11:16:46Z</time></trkpt><trkpt lat="45.65927288509346" lon="8.911985598122351"><ele>266.0</ele><time>2026-03-30T11:16:48Z</time></trkpt><trkpt lat="45.65920540894922" lon="8.911846005681282"><ele>266.0</ele><time>2026-03-30T11:16:50Z</time></trkpt><trkpt lat="45.659181102491246" lon="8.911731474383721"><ele>266.0</ele><time>2026-03-30T11:16:51Z</time></trkpt><trkpt lat="45.65914906535555" lon="8.911592318711213"><ele>266.0</ele><time>2026-03-30T11:16:52Z</time></trkpt><trkpt lat="45.65910092508098" lon="8.911425308929266"><ele>266.0</ele><time>2026-03-30T11:16:53Z</time></trkpt><trkpt lat="45.65903567442955" lon="8.911238533202797"><ele>266.0</ele><time>2026-03-30T11:16:54Z</time></trkpt><trkpt lat="45.65898372606168" lon="8.911071971642844"><ele>266.0</ele><time>2026-03-30T11:16:55Z</time></trkpt><trkpt lat="45.658934917034685" lon="8.9109113413036"><ele>266.0</ele><time>2026-03-30T11:16:56Z</time></trkpt><trkpt lat="45.65888796991222" lon="8.910761452069334"><ele>266.0</ele><time>2026-03-30T11:16:57Z</time></trkpt><trkpt lat="45.658853483967725" lon="8.910632523752756"><ele>266.0</ele><time>2026-03-30T11:16:58Z</time></trkpt><trkpt lat="45.65882177756764" lon="8.91051045233481"><ele>266.0</ele><time>2026-03-30T11:16:59Z</time></trkpt><trkpt lat="45.65879538524794" lon="8.9103869600591"><ele>266.0</ele><time>2026-03-30T11:17:00Z</time></trkpt><trkpt lat="45.65875817851713" lon="8.91026767099776"><ele>266.0</ele><time>2026-03-30T11:17:01Z</time></trkpt><trkpt lat="45.658718834598545" lon="8.910186341285208"><ele>266.0</ele><time>2026-03-30T11:17:02Z</time></trkpt><trkpt lat="45.65869461416507" lon="8.910079016808533"><ele>266.0</ele><time>2026-03-30T11:17:03Z</time></trkpt><trkpt lat="45.658688112282796" lon="8.909988484804662"><ele>266.0</ele><time>2026-03-30T11:17:04Z</time></trkpt><trkpt lat="45.65870882446076" lon="8.909889826066173"><ele>266.0</ele><time>2026-03-30T11:17:05Z</time></trkpt><trkpt lat="45.658742178765635" lon="8.90979615895133"><ele>266.0</ele><time>2026-03-30T11:17:05.999Z</time></trkpt><trkpt lat="45.65877082326419" lon="8.909714585282343"><ele>266.0</ele><time>2026-03-30T11:17:06.999Z</time></trkpt><trkpt lat="45.65880657040369" lon="8.909575779382312"><ele>266.0</ele><time>2026-03-30T11:17:08.999Z</time></trkpt><trkpt lat="45.65879915671533" lon="8.909485235421238"><ele>266.0</ele><time>2026-03-30T11:17:12.999Z</time></trkpt><trkpt lat="45.65881169278147" lon="8.909330103368367"><ele>266.0</ele><time>2026-03-30T11:17:21.999Z</time></trkpt><trkpt lat="45.65881111285858" lon="8.90921156497946"><ele>266.0</ele><time>2026-03-30T11:17:22.999Z</time></trkpt><trkpt lat="45.65880250271719" lon="8.90908913471952"><ele>266.0</ele><time>2026-03-30T11:17:23.999Z</time></trkpt><trkpt lat="45.65879124079555" lon="8.908983410736846"><ele>266.0</ele><time>2026-03-30T11:17:24.999Z</time></trkpt><trkpt lat="45.65877461262515" lon="8.90888941466781"><ele>266.0</ele><time>2026-03-30T11:17:25.999Z</time></trkpt><trkpt lat="45.658737908326295" lon="8.908747397045964"><ele>266.0</ele><time>2026-03-30T11:17:27.999Z</time></trkpt><trkpt lat="45.65868313761611" lon="8.90863884796193"><ele>266.0</ele><time>2026-03-30T11:17:38.999Z</time></trkpt><trkpt lat="45.65862446867687" lon="8.908472366238732"><ele>266.0</ele><time>2026-03-30T11:17:40.999Z</time></trkpt><trkpt lat="45.658583150239636" lon="8.908378854730454"><ele>266.0</ele><time>2026-03-30T11:17:41.999Z</time></trkpt><trkpt lat="45.65852952682765" lon="8.908284548852407"><ele>266.0</ele><time>2026-03-30T11:17:42.999Z</time></trkpt><trkpt lat="45.65845920769626" lon="8.908189711769579"><ele>266.0</ele><time>2026-03-30T11:17:43.999Z</time></trkpt><trkpt lat="45.65838364461184" lon="8.90810198623292"><ele>265.5</ele><time>2026-03-30T11:17:44.999Z</time></trkpt><trkpt lat="45.658306500771815" lon="8.908029413909937"><ele>265.0</ele><time>2026-03-30T11:17:45.999Z</time></trkpt><trkpt lat="45.65823679280374" lon="8.90796641537724"><ele>264.5</ele><time>2026-03-30T11:17:46.999Z</time></trkpt><trkpt lat="45.65817282010368" lon="8.907916642077344"><ele>264.0</ele><time>2026-03-30T11:17:47.999Z</time></trkpt><trkpt lat="45.65811186862987" lon="8.907868378395628"><ele>263.5</ele><time>2026-03-30T11:17:48.999Z</time></trkpt><trkpt lat="45.658044477170236" lon="8.907713575420287"><ele>263.0</ele><time>2026-03-30T11:17:50.999Z</time></trkpt><trkpt lat="45.65804303722917" lon="8.907613519183819"><ele>262.5</ele><time>2026-03-30T11:17:51.999Z</time></trkpt><trkpt lat="45.65804196738228" lon="8.907506998489074"><ele>262.0</ele><time>2026-03-30T11:17:52.999Z</time></trkpt><trkpt lat="45.65806353668532" lon="8.907404533306705"><ele>261.5</ele><time>2026-03-30T11:17:53.999Z</time></trkpt><trkpt lat="45.658086403447385" lon="8.907290953579707"><ele>261.0</ele><time>2026-03-30T11:17:54.999Z</time></trkpt><trkpt lat="45.658094374799596" lon="8.90718108976404"><ele>260.5</ele><time>2026-03-30T11:17:55.999Z</time></trkpt><trkpt lat="45.65808303672865" lon="8.907076070857716"><ele>260.0</ele><time>2026-03-30T11:17:56.999Z</time></trkpt><trkpt lat="45.65805482306211" lon="8.90695112310069"><ele>260.0</ele><time>2026-03-30T11:17:57.999Z</time></trkpt><trkpt lat="45.65801090494512" lon="8.906817785506753"><ele>260.0</ele><time>2026-03-30T11:17:58.999Z</time></trkpt><trkpt lat="45.65795978911203" lon="8.906663180336375"><ele>260.0</ele><time>2026-03-30T11:17:59.999Z</time></trkpt><trkpt lat="45.65791668001563" lon="8.906503570036648"><ele>260.0</ele><time>2026-03-30T11:18:00.999Z</time></trkpt><trkpt lat="45.657872658695936" lon="8.906340164274116"><ele>259.0</ele><time>2026-03-30T11:18:01.999Z</time></trkpt><trkpt lat="45.65783084222834" lon="8.906178743322453"><ele>258.0</ele><time>2026-03-30T11:18:02.999Z</time></trkpt><trkpt lat="45.657789308740355" lon="8.906029924952193"><ele>257.0</ele><time>2026-03-30T11:18:03.999Z</time></trkpt><trkpt lat="45.657747030633494" lon="8.905880168198355"><ele>256.0</ele><time>2026-03-30T11:18:04.999Z</time></trkpt><trkpt lat="45.65771083566181" lon="8.905744760369545"><ele>255.0</ele><time>2026-03-30T11:18:05.999Z</time></trkpt><trkpt lat="45.65768742009775" lon="8.905652314476866"><ele>255.0</ele><time>2026-03-30T11:18:06.999Z</time></trkpt><trkpt lat="45.657657461331425" lon="8.905569441358265"><ele>255.0</ele><time>2026-03-30T11:18:07.999Z</time></trkpt><trkpt lat="45.65756392296016" lon="8.905501537296411"><ele>255.0</ele><time>2026-03-30T11:18:09.999Z</time></trkpt><trkpt lat="45.65749482164621" lon="8.905489791484637"><ele>255.0</ele><time>2026-03-30T11:18:10.999Z</time></trkpt><trkpt lat="45.65742933273028" lon="8.905375313958729"><ele>255.0</ele><time>2026-03-30T11:18:12.999Z</time></trkpt><trkpt lat="45.657414554559985" lon="8.905259005461625"><ele>255.0</ele><time>2026-03-30T11:18:13.999Z</time></trkpt><trkpt lat="45.6573894444536" lon="8.905101066375378"><ele>254.66666666666669</ele><time>2026-03-30T11:18:14.999Z</time></trkpt><trkpt lat="45.657352839478186" lon="8.904916012967782"><ele>254.33333333333334</ele><time>2026-03-30T11:18:15.999Z</time></trkpt><trkpt lat="45.657132708706435" lon="8.90481218122346"><ele>254.0</ele><time>2026-03-30T11:18:16.999Z</time></trkpt><trkpt lat="45.65709110302734" lon="8.904625363831189"><ele>254.0</ele><time>2026-03-30T11:18:17.999Z</time></trkpt><trkpt lat="45.65705478287083" lon="8.904455058915373"><ele>254.0</ele><time>2026-03-30T11:18:18.999Z</time></trkpt><trkpt lat="45.65701605206849" lon="8.904273450529294"><ele>254.0</ele><time>2026-03-30T11:18:20Z</time></trkpt><trkpt lat="45.65697895984259" lon="8.904094747403827"><ele>254.0</ele><time>2026-03-30T11:18:21Z</time></trkpt><trkpt lat="45.65694004911447" lon="8.90390515049393"><ele>254.0</ele><time>2026-03-30T11:18:22Z</time></trkpt><trkpt lat="45.65690460471297" lon="8.903724107965738"><ele>254.0</ele><time>2026-03-30T11:18:23Z</time></trkpt><trkpt lat="45.6568672521986" lon="8.903533319366483"><ele>254.0</ele><time>2026-03-30T11:18:24Z</time></trkpt><trkpt lat="45.65682927561261" lon="8.90333068802347"><ele>254.0</ele><time>2026-03-30T11:18:25Z</time></trkpt><trkpt lat="45.65679371485772" lon="8.903138872182767"><ele>254.0</ele><time>2026-03-30T11:18:26Z</time></trkpt><trkpt lat="45.65675628494022" lon="8.902918444111716"><ele>254.0</ele><time>2026-03-30T11:18:27Z</time></trkpt><trkpt lat="45.65672215566244" lon="8.902705138445132"><ele>254.0</ele><time>2026-03-30T11:18:28Z</time></trkpt><trkpt lat="45.65669178487727" lon="8.90250747945273"><ele>254.75</ele><time>2026-03-30T11:18:29Z</time></trkpt><trkpt lat="45.65666380165236" lon="8.902316308450784"><ele>255.5</ele><time>2026-03-30T11:18:30Z</time></trkpt><trkpt lat="45.656640248673135" lon="8.90214496491124"><ele>256.25</ele><time>2026-03-30T11:18:31Z</time></trkpt><trkpt lat="45.65662240486179" lon="8.902008470600574"><ele>257.0</ele><time>2026-03-30T11:18:32Z</time></trkpt><trkpt lat="45.65660517126187" lon="8.901874440990344"><ele>257.0</ele><time>2026-03-30T11:18:33Z</time></trkpt><trkpt lat="45.656592057715365" lon="8.901769702430569"><ele>257.0</ele><time>2026-03-30T11:18:34Z</time></trkpt><trkpt lat="45.65657776528193" lon="8.901655548287536"><ele>257.0</ele><time>2026-03-30T11:18:36Z</time></trkpt><trkpt lat="45.656443699958324" lon="8.90171611410952"><ele>257.0</ele><time>2026-03-30T11:18:40Z</time></trkpt><trkpt lat="45.65635452402551" lon="8.901739710793903"><ele>257.0</ele><time>2026-03-30T11:18:41Z</time></trkpt><trkpt lat="45.65627009610675" lon="8.901797196292698"><ele>257.0</ele><time>2026-03-30T11:18:43Z</time></trkpt><trkpt lat="45.656222079295745" lon="8.90187531003829"><ele>257.0</ele><time>2026-03-30T11:18:45Z</time></trkpt><trkpt lat="45.65615333653794" lon="8.901873925878116"><ele>257.0</ele><time>2026-03-30T11:18:47Z</time></trkpt><trkpt lat="45.65610870594103" lon="8.902046636180458"><ele>257.0</ele><time>2026-03-30T11:18:49Z</time></trkpt><trkpt lat="45.65613372523517" lon="8.902156081450373"><ele>257.0</ele><time>2026-03-30T11:18:50Z</time></trkpt><trkpt lat="45.65616816627225" lon="8.902305920602236"><ele>257.0</ele><time>2026-03-30T11:18:51Z</time></trkpt><trkpt lat="45.656197455282516" lon="8.90244255503162"><ele>257.0</ele><time>2026-03-30T11:18:52Z</time></trkpt><trkpt lat="45.656177341171556" lon="8.902571152292843"><ele>257.0</ele><time>2026-03-30T11:18:54Z</time></trkpt><trkpt lat="45.656117762913134" lon="8.902624612744068"><ele>257.0</ele><time>2026-03-30T11:18:55Z</time></trkpt><trkpt lat="45.65602965566418" lon="8.902678511834687"><ele>257.0</ele><time>2026-03-30T11:18:56Z</time></trkpt><trkpt lat="45.65591665707905" lon="8.902729593492808"><ele>256.25</ele><time>2026-03-30T11:18:57Z</time></trkpt><trkpt lat="45.655791843217145" lon="8.90278353435681"><ele>255.5</ele><time>2026-03-30T11:18:58Z</time></trkpt><trkpt lat="45.65564948537819" lon="8.902855169225594"><ele>254.75</ele><time>2026-03-30T11:18:59Z</time></trkpt><trkpt lat="45.65550050722374" lon="8.902938947316498"><ele>254.0</ele><time>2026-03-30T11:19:00Z</time></trkpt><trkpt lat="45.65534775601246" lon="8.90302437533185"><ele>254.25</ele><time>2026-03-30T11:19:01Z</time></trkpt><trkpt lat="45.655219230264535" lon="8.90309889684296"><ele>254.5</ele><time>2026-03-30T11:19:02Z</time></trkpt><trkpt lat="45.65510710477386" lon="8.903162273546592"><ele>254.75</ele><time>2026-03-30T11:19:03Z</time></trkpt><trkpt lat="45.655008288232594" lon="8.903211633137282"><ele>255.0</ele><time>2026-03-30T11:19:04Z</time></trkpt><trkpt lat="45.654915488629925" lon="8.903239695645151"><ele>255.0</ele><time>2026-03-30T11:19:05Z</time></trkpt><trkpt lat="45.654841616924614" lon="8.90324875041661"><ele>255.0</ele><time>2026-03-30T11:19:06Z</time></trkpt><trkpt lat="45.65475867532327" lon="8.903283474796117"><ele>255.0</ele><time>2026-03-30T11:19:08Z</time></trkpt><trkpt lat="45.65476311507039" lon="8.90338845694658"><ele>255.0</ele><time>2026-03-30T11:19:10Z</time></trkpt><trkpt lat="45.65481335186535" lon="8.903497378662296"><ele>255.0</ele><time>2026-03-30T11:19:12Z</time></trkpt><trkpt lat="45.65486511667978" lon="8.903660630938527"><ele>254.66666666666666</ele><time>2026-03-30T11:19:13.999Z</time></trkpt><trkpt lat="45.65488946794428" lon="8.903747778485785"><ele>254.33333333333331</ele><time>2026-03-30T11:19:14.999Z</time></trkpt><trkpt lat="45.654916434974204" lon="8.903846399727453"><ele>254.0</ele><time>2026-03-30T11:19:15.999Z</time></trkpt><trkpt lat="45.65494375536863" lon="8.903949329783734"><ele>253.66666666666666</ele><time>2026-03-30T11:19:16.999Z</time></trkpt><trkpt lat="45.65497043396998" lon="8.904071211986505"><ele>253.33333333333331</ele><time>2026-03-30T11:19:17.999Z</time></trkpt><trkpt lat="45.6550049441528" lon="8.90420471223288"><ele>253.0</ele><time>2026-03-30T11:19:18.999Z</time></trkpt><trkpt lat="45.65504663592338" lon="8.904350666694944"><ele>252.75</ele><time>2026-03-30T11:19:19.999Z</time></trkpt><trkpt lat="45.65509408282592" lon="8.904519592298037"><ele>252.5</ele><time>2026-03-30T11:19:20.999Z</time></trkpt><trkpt lat="45.655142938093284" lon="8.904694938920478"><ele>252.25</ele><time>2026-03-30T11:19:21.999Z</time></trkpt><trkpt lat="45.655190873380405" lon="8.904866683713903"><ele>252.0</ele><time>2026-03-30T11:19:22.999Z</time></trkpt><trkpt lat="45.6552214573896" lon="8.905053037291097"><ele>251.75</ele><time>2026-03-30T11:19:23.999Z</time></trkpt><trkpt lat="45.655250574867836" lon="8.905239943686015"><ele>251.5</ele><time>2026-03-30T11:19:24.999Z</time></trkpt><trkpt lat="45.6552674088687" lon="8.90543845397805"><ele>251.25</ele><time>2026-03-30T11:19:25.999Z</time></trkpt><trkpt lat="45.65528291566929" lon="8.905645649342581"><ele>251.0</ele><time>2026-03-30T11:19:26.999Z</time></trkpt><trkpt lat="45.65530853418152" lon="8.905858396353068"><ele>251.33333333333334</ele><time>2026-03-30T11:19:27.999Z</time></trkpt><trkpt lat="45.65531175787479" lon="8.906062652698905"><ele>251.66666666666669</ele><time>2026-03-30T11:19:28.999Z</time></trkpt><trkpt lat="45.655310156487324" lon="8.90628039598611"><ele>252.0</ele><time>2026-03-30T11:19:29.999Z</time></trkpt><trkpt lat="45.65530813104771" lon="8.906512736091104"><ele>252.0</ele><time>2026-03-30T11:19:30.999Z</time></trkpt><trkpt lat="45.655310062202986" lon="8.906744187477576"><ele>252.0</ele><time>2026-03-30T11:19:31.999Z</time></trkpt><trkpt lat="45.65530834161986" lon="8.906983723557781"><ele>252.0</ele><time>2026-03-30T11:19:32.999Z</time></trkpt><trkpt lat="45.65530421004461" lon="8.907216305566468"><ele>252.0</ele><time>2026-03-30T11:19:33.999Z</time></trkpt><trkpt lat="45.65529843858336" lon="8.90746330908205"><ele>252.0</ele><time>2026-03-30T11:19:34.999Z</time></trkpt><trkpt lat="45.655290914458696" lon="8.907700127066496"><ele>252.0</ele><time>2026-03-30T11:19:35.999Z</time></trkpt><trkpt lat="45.655285525477865" lon="8.907931917509414"><ele>252.0</ele><time>2026-03-30T11:19:36.999Z</time></trkpt><trkpt lat="45.65528189040708" lon="8.908161975356746"><ele>252.0</ele><time>2026-03-30T11:19:37.999Z</time></trkpt><trkpt lat="45.6552782658819" lon="8.908383603800784"><ele>252.0</ele><time>2026-03-30T11:19:38.999Z</time></trkpt><trkpt lat="45.655271879405426" lon="8.908610435281453"><ele>252.25</ele><time>2026-03-30T11:19:39.999Z</time></trkpt><trkpt lat="45.655267728953135" lon="8.908814078830495"><ele>252.5</ele><time>2026-03-30T11:19:40.999Z</time></trkpt><trkpt lat="45.655268818278586" lon="8.90898803976391"><ele>252.75</ele><time>2026-03-30T11:19:41.999Z</time></trkpt><trkpt lat="45.65527753655049" lon="8.909144227203898"><ele>253.0</ele><time>2026-03-30T11:19:42.999Z</time></trkpt><trkpt lat="45.65529653182415" lon="8.909297631935484"><ele>255.0</ele><time>2026-03-30T11:19:43.999Z</time></trkpt><trkpt lat="45.65533057013287" lon="8.909440791442371"><ele>257.0</ele><time>2026-03-30T11:19:44.999Z</time></trkpt><trkpt lat="45.65537096686977" lon="8.90958684803793"><ele>259.0</ele><time>2026-03-30T11:19:45.999Z</time></trkpt><trkpt lat="45.655419924469456" lon="8.909743239916658"><ele>261.0</ele><time>2026-03-30T11:19:46.999Z</time></trkpt><trkpt lat="45.65544023072277" lon="8.909909654586258"><ele>261.0</ele><time>2026-03-30T11:19:47.999Z</time></trkpt><trkpt lat="45.65547669912416" lon="8.9100459362339"><ele>261.0</ele><time>2026-03-30T11:19:48.999Z</time></trkpt><trkpt lat="45.65551241181634" lon="8.910176908642756"><ele>261.0</ele><time>2026-03-30T11:19:49.999Z</time></trkpt><trkpt lat="45.65556104963774" lon="8.910301901825896"><ele>261.0</ele><time>2026-03-30T11:19:50.999Z</time></trkpt><trkpt lat="45.65559088075723" lon="8.910425317316092"><ele>261.0</ele><time>2026-03-30T11:19:51.999Z</time></trkpt><trkpt lat="45.65560897697963" lon="8.910546998002092"><ele>261.0</ele><time>2026-03-30T11:19:52.999Z</time></trkpt><trkpt lat="45.65563442448873" lon="8.91066298978017"><ele>261.0</ele><time>2026-03-30T11:19:53.999Z</time></trkpt><trkpt lat="45.65561857361829" lon="8.910755164956104"><ele>261.0</ele><time>2026-03-30T11:19:54.999Z</time></trkpt><trkpt lat="45.65558969821066" lon="8.91086766932378"><ele>261.0</ele><time>2026-03-30T11:19:56.999Z</time></trkpt><trkpt lat="45.65559561603672" lon="8.91101877532056"><ele>261.0</ele><time>2026-03-30T11:19:58.999Z</time></trkpt><trkpt lat="45.65555911053841" lon="8.91110038920488"><ele>261.0</ele><time>2026-03-30T11:19:59.999Z</time></trkpt><trkpt lat="45.65555174254055" lon="8.911196427249855"><ele>262.5</ele><time>2026-03-30T11:20:00.999Z</time></trkpt><trkpt lat="45.65591114046791" lon="8.911431176036674"><ele>264.0</ele><time>2026-03-30T11:20:01.999Z</time></trkpt><trkpt lat="45.655958202778166" lon="8.91158083361606"><ele>264.0</ele><time>2026-03-30T11:20:02.999Z</time></trkpt><trkpt lat="45.655989184505884" lon="8.911735318352056"><ele>264.0</ele><time>2026-03-30T11:20:03.999Z</time></trkpt><trkpt lat="45.656026957550594" lon="8.911905215378807"><ele>264.0</ele><time>2026-03-30T11:20:04.999Z</time></trkpt><trkpt lat="45.65607076792227" lon="8.912062865074219"><ele>264.0</ele><time>2026-03-30T11:20:05.999Z</time></trkpt><trkpt lat="45.65611524216638" lon="8.912226347321456"><ele>264.5</ele><time>2026-03-30T11:20:06.999Z</time></trkpt><trkpt lat="45.65617726002456" lon="8.912420746972014"><ele>265.0</ele><time>2026-03-30T11:20:07.999Z</time></trkpt><trkpt lat="45.656235383204454" lon="8.91258346878792"><ele>265.5</ele><time>2026-03-30T11:20:08.999Z</time></trkpt><trkpt lat="45.65628381275467" lon="8.912736768619581"><ele>266.0</ele><time>2026-03-30T11:20:09.999Z</time></trkpt><trkpt lat="45.65633181162299" lon="8.91289228578168"><ele>266.25</ele><time>2026-03-30T11:20:10.999Z</time></trkpt><trkpt lat="45.65638455358722" lon="8.913055420515164"><ele>266.5</ele><time>2026-03-30T11:20:11.999Z</time></trkpt><trkpt lat="45.65644476203567" lon="8.91320959448612"><ele>266.75</ele><time>2026-03-30T11:20:12.999Z</time></trkpt><trkpt lat="45.65650612975335" lon="8.913355988201204"><ele>267.0</ele><time>2026-03-30T11:20:13.999Z</time></trkpt><trkpt lat="45.656575693524154" lon="8.913495497824607"><ele>267.0</ele><time>2026-03-30T11:20:14.999Z</time></trkpt><trkpt lat="45.65663863560169" lon="8.913635950782897"><ele>267.0</ele><time>2026-03-30T11:20:15.999Z</time></trkpt><trkpt lat="45.65670028837046" lon="8.913788420672113"><ele>267.0</ele><time>2026-03-30T11:20:16.999Z</time></trkpt><trkpt lat="45.65677051278673" lon="8.91393019720084"><ele>267.0</ele><time>2026-03-30T11:20:17.999Z</time></trkpt><trkpt lat="45.65683376217913" lon="8.914075920675844"><ele>267.0</ele><time>2026-03-30T11:20:18.999Z</time></trkpt><trkpt lat="45.65689641396686" lon="8.91422030394534"><ele>267.0</ele><time>2026-03-30T11:20:19.999Z</time></trkpt><trkpt lat="45.65696878325096" lon="8.91436256278674"><ele>267.0</ele><time>2026-03-30T11:20:20.999Z</time></trkpt><trkpt lat="45.65703793925768" lon="8.914506570255327"><ele>267.0</ele><time>2026-03-30T11:20:21.999Z</time></trkpt><trkpt lat="45.65710807572363" lon="8.914649702865486"><ele>266.4</ele><time>2026-03-30T11:20:22.999Z</time></trkpt><trkpt lat="45.657168654794035" lon="8.914781901052702"><ele>265.79999999999995</ele><time>2026-03-30T11:20:23.999Z</time></trkpt><trkpt lat="45.65722443190355" lon="8.914904141117301"><ele>265.2</ele><time>2026-03-30T11:20:24.999Z</time></trkpt><trkpt lat="45.65728317440392" lon="8.91501957152433"><ele>264.59999999999997</ele><time>2026-03-30T11:20:26Z</time></trkpt><trkpt lat="45.65734430595708" lon="8.915122500996384"><ele>264.0</ele><time>2026-03-30T11:20:27Z</time></trkpt><trkpt lat="45.65740766565268" lon="8.91520990815201"><ele>264.0</ele><time>2026-03-30T11:20:28Z</time></trkpt><trkpt lat="45.657472122254404" lon="8.915274171426704"><ele>264.0</ele><time>2026-03-30T11:20:29Z</time></trkpt><trkpt lat="45.657540046387425" lon="8.915349026681271"><ele>264.0</ele><time>2026-03-30T11:20:30Z</time></trkpt><trkpt lat="45.657603163482506" lon="8.915412995945484"><ele>264.0</ele><time>2026-03-30T11:20:31Z</time></trkpt><trkpt lat="45.6576744127967" lon="8.915446974340837"><ele>264.0</ele><time>2026-03-30T11:20:32Z</time></trkpt><trkpt lat="45.657738849667304" lon="8.915460191925998"><ele>264.0</ele><time>2026-03-30T11:20:33Z</time></trkpt><trkpt lat="45.65778809695004" lon="8.915541428386579"><ele>264.0</ele><time>2026-03-30T11:20:36Z</time></trkpt><trkpt lat="45.65777317985761" lon="8.915638268918343"><ele>264.0</ele><time>2026-03-30T11:20:52Z</time></trkpt><trkpt lat="45.657709284357786" lon="8.915695280213928"><ele>264.0</ele><time>2026-03-30T11:20:54Z</time></trkpt><trkpt lat="45.657610918539895" lon="8.91572723384169"><ele>264.0</ele><time>2026-03-30T11:20:56Z</time></trkpt><trkpt lat="45.65750371527915" lon="8.915794274117026"><ele>264.0</ele><time>2026-03-30T11:20:58Z</time></trkpt><trkpt lat="45.65745343730098" lon="8.915856054998972"><ele>264.0</ele><time>2026-03-30T11:21:00Z</time></trkpt><trkpt lat="45.657394533398175" lon="8.916010258275683"><ele>263.4</ele><time>2026-03-30T11:21:02Z</time></trkpt><trkpt lat="45.657336474131085" lon="8.916063953186931"><ele>262.79999999999995</ele><time>2026-03-30T11:21:03Z</time></trkpt><trkpt lat="45.6572712680005" lon="8.916098989620414"><ele>262.20000000000005</ele><time>2026-03-30T11:21:04Z</time></trkpt><trkpt lat="45.65717664492065" lon="8.916143063984626"><ele>261.6</ele><time>2026-03-30T11:21:06Z</time></trkpt><trkpt lat="45.65709086115035" lon="8.916195505823854"><ele>261.0</ele><time>2026-03-30T11:21:08Z</time></trkpt><trkpt lat="45.65698048550683" lon="8.916275612555248"><ele>261.0</ele><time>2026-03-30T11:21:10Z</time></trkpt><trkpt lat="45.656929759680054" lon="8.91633098037526"><ele>261.0</ele><time>2026-03-30T11:21:11Z</time></trkpt><trkpt lat="45.656828032939266" lon="8.916394242559347"><ele>261.0</ele><time>2026-03-30T11:21:13Z</time></trkpt><trkpt lat="45.656720806835295" lon="8.916490499394094"><ele>261.0</ele><time>2026-03-30T11:21:15Z</time></trkpt><trkpt lat="45.6566547486914" lon="8.916554228646774"><ele>261.0</ele><time>2026-03-30T11:21:15.999Z</time></trkpt><trkpt lat="45.656590948969296" lon="8.916618335695262"><ele>261.0</ele><time>2026-03-30T11:21:16.999Z</time></trkpt><trkpt lat="45.656529977316005" lon="8.916697525033696"><ele>261.0</ele><time>2026-03-30T11:21:17.999Z</time></trkpt><trkpt lat="45.65647524238866" lon="8.916779088762237"><ele>261.0</ele><time>2026-03-30T11:21:18.999Z</time></trkpt><trkpt lat="45.65640953570065" lon="8.916852815132398"><ele>261.0</ele><time>2026-03-30T11:21:19.999Z</time></trkpt><trkpt lat="45.65634601594529" lon="8.91691066062411"><ele>261.0</ele><time>2026-03-30T11:21:20.999Z</time></trkpt><trkpt lat="45.65629162172673" lon="8.91697605896665"><ele>261.0</ele><time>2026-03-30T11:21:21.999Z</time></trkpt><trkpt lat="45.6562415000047" lon="8.917042419915557"><ele>261.0</ele><time>2026-03-30T11:21:22.999Z</time></trkpt><trkpt lat="45.65617559948069" lon="8.917119453592337"><ele>261.0</ele><time>2026-03-30T11:21:23.999Z</time></trkpt><trkpt lat="45.656123960436254" lon="8.91721095885406"><ele>261.0</ele><time>2026-03-30T11:21:24.999Z</time></trkpt><trkpt lat="45.65606946996214" lon="8.917287836833667"><ele>261.0</ele><time>2026-03-30T11:21:25.999Z</time></trkpt><trkpt lat="45.655982528182726" lon="8.917415642308647"><ele>261.0</ele><time>2026-03-30T11:21:27.999Z</time></trkpt><trkpt lat="45.65593303919115" lon="8.917495215797434"><ele>261.0</ele><time>2026-03-30T11:21:28.999Z</time></trkpt><trkpt lat="45.65588524744619" lon="8.917569990406607"><ele>261.0</ele><time>2026-03-30T11:21:29.999Z</time></trkpt><trkpt lat="45.65583913152176" lon="8.917644202713777"><ele>261.0</ele><time>2026-03-30T11:21:30.999Z</time></trkpt><trkpt lat="45.65578570785543" lon="8.917728744210157"><ele>261.0</ele><time>2026-03-30T11:21:31.999Z</time></trkpt><trkpt lat="45.65573299616422" lon="8.917832149526559"><ele>261.0</ele><time>2026-03-30T11:21:32.999Z</time></trkpt><trkpt lat="45.655669931583645" lon="8.91791767271137"><ele>261.0</ele><time>2026-03-30T11:21:33.999Z</time></trkpt><trkpt lat="45.655610672671486" lon="8.917992539056394"><ele>261.0</ele><time>2026-03-30T11:21:34.999Z</time></trkpt><trkpt lat="45.655545748803576" lon="8.91808592093214"><ele>261.0</ele><time>2026-03-30T11:21:35.999Z</time></trkpt><trkpt lat="45.655472332097496" lon="8.91815329149095"><ele>261.0</ele><time>2026-03-30T11:21:36.999Z</time></trkpt><trkpt lat="45.65541018445096" lon="8.918200723196556"><ele>261.0</ele><time>2026-03-30T11:21:37.999Z</time></trkpt><trkpt lat="45.655329184760205" lon="8.918270109592186"><ele>261.0</ele><time>2026-03-30T11:21:38.999Z</time></trkpt><trkpt lat="45.65525948511017" lon="8.918336401981017"><ele>261.0</ele><time>2026-03-30T11:21:39.999Z</time></trkpt><trkpt lat="45.655174448156046" lon="8.918406750368124"><ele>261.0</ele><time>2026-03-30T11:21:40.999Z</time></trkpt><trkpt lat="45.65509622855153" lon="8.91846791634991"><ele>260.5</ele><time>2026-03-30T11:21:41.999Z</time></trkpt><trkpt lat="45.65501744062384" lon="8.91851693024866"><ele>260.0</ele><time>2026-03-30T11:21:42.999Z</time></trkpt><trkpt lat="45.65493041666619" lon="8.918575548101307"><ele>259.5</ele><time>2026-03-30T11:21:43.999Z</time></trkpt><trkpt lat="45.65485455684014" lon="8.918639236170861"><ele>259.0</ele><time>2026-03-30T11:21:44.999Z</time></trkpt><trkpt lat="45.654787910184154" lon="8.918695670732982"><ele>258.5</ele><time>2026-03-30T11:21:45.999Z</time></trkpt><trkpt lat="45.65471232048426" lon="8.918776821946599"><ele>258.0</ele><time>2026-03-30T11:21:46.999Z</time></trkpt><trkpt lat="45.65465143469086" lon="8.918821121038258"><ele>258.0</ele><time>2026-03-30T11:21:47.999Z</time></trkpt><trkpt lat="45.654601175462304" lon="8.918878940526659"><ele>258.0</ele><time>2026-03-30T11:21:49.999Z</time></trkpt><trkpt lat="45.65455146045292" lon="8.918944029299011"><ele>258.0</ele><time>2026-03-30T11:21:53.999Z</time></trkpt><trkpt lat="45.65457975949749" lon="8.919056074466637"><ele>258.0</ele><time>2026-03-30T11:21:55.999Z</time></trkpt><trkpt lat="45.65451779535072" lon="8.91913500484545"><ele>258.0</ele><time>2026-03-30T11:21:57.999Z</time></trkpt><trkpt lat="45.6544533643632" lon="8.919303320767158"><ele>258.0</ele><time>2026-03-30T11:21:59.999Z</time></trkpt><trkpt lat="45.6544171406326" lon="8.919394760549672"><ele>257.6</ele><time>2026-03-30T11:22:00.999Z</time></trkpt><trkpt lat="45.65438953437596" lon="8.919480429734758"><ele>257.20000000000005</ele><time>2026-03-30T11:22:01.999Z</time></trkpt><trkpt lat="45.65430882072944" lon="8.91959825370626"><ele>256.8</ele><time>2026-03-30T11:22:03.999Z</time></trkpt><trkpt lat="45.65424530251264" lon="8.919628206694545"><ele>256.40000000000003</ele><time>2026-03-30T11:22:04.999Z</time></trkpt><trkpt lat="45.65418287209604" lon="8.919660806131104"><ele>256.0</ele><time>2026-03-30T11:22:05.999Z</time></trkpt><trkpt lat="45.65417469416364" lon="8.919883001478654"><ele>256.0</ele><time>2026-03-30T11:22:06.999Z</time></trkpt><trkpt lat="45.65410750887129" lon="8.919921499782742"><ele>256.0</ele><time>2026-03-30T11:22:07.999Z</time></trkpt><trkpt lat="45.654003464913146" lon="8.919988012361"><ele>256.0</ele><time>2026-03-30T11:22:09.999Z</time></trkpt><trkpt lat="45.65392884048009" lon="8.920037366773629"><ele>256.0</ele><time>2026-03-30T11:22:11.999Z</time></trkpt><trkpt lat="45.653830656219725" lon="8.919902624304695"><ele>256.0</ele><time>2026-03-30T11:23:08Z</time></trkpt><trkpt lat="45.65370118782527" lon="8.920069713811671"><ele>255.33333333333331</ele><time>2026-03-30T11:23:45.999Z</time></trkpt><trkpt lat="45.65365507297295" lon="8.920170424357078"><ele>254.66666666666666</ele><time>2026-03-30T11:23:46.999Z</time></trkpt><trkpt lat="45.65360845221525" lon="8.920265243493859"><ele>254.0</ele><time>2026-03-30T11:23:47.999Z</time></trkpt><trkpt lat="45.65354589674739" lon="8.920342796998632"><ele>253.33333333333331</ele><time>2026-03-30T11:23:48.999Z</time></trkpt><trkpt lat="45.65346395930026" lon="8.920402172905762"><ele>252.66666666666666</ele><time>2026-03-30T11:23:49.999Z</time></trkpt><trkpt lat="45.65335609898579" lon="8.920409516382016"><ele>252.0</ele><time>2026-03-30T11:23:50.999Z</time></trkpt><trkpt lat="45.65326906314003" lon="8.920461168963715"><ele>252.0</ele><time>2026-03-30T11:23:51.999Z</time></trkpt><trkpt lat="45.653186922602906" lon="8.92052706529783"><ele>252.0</ele><time>2026-03-30T11:23:52.999Z</time></trkpt><trkpt lat="45.65311252085366" lon="8.920552966149614"><ele>252.0</ele><time>2026-03-30T11:23:53.999Z</time></trkpt><trkpt lat="45.65304390795899" lon="8.920564860390975"><ele>252.0</ele><time>2026-03-30T11:23:54.999Z</time></trkpt><trkpt lat="45.65297274755443" lon="8.920587551114318"><ele>252.0</ele><time>2026-03-30T11:23:55.999Z</time></trkpt><trkpt lat="45.65288075218501" lon="8.920556361933034"><ele>252.0</ele><time>2026-03-30T11:23:57.999Z</time></trkpt><trkpt lat="45.65279127571006" lon="8.92058801507771"><ele>252.2</ele><time>2026-03-30T11:23:59.999Z</time></trkpt><trkpt lat="45.65274428434056" lon="8.920723124204331"><ele>252.39999999999998</ele><time>2026-03-30T11:24:00.999Z</time></trkpt><trkpt lat="45.65268361335726" lon="8.920824234866018"><ele>252.60000000000002</ele><time>2026-03-30T11:24:01.999Z</time></trkpt><trkpt lat="45.65264976793392" lon="8.920904217760135"><ele>252.8</ele><time>2026-03-30T11:24:02.999Z</time></trkpt><trkpt lat="45.65255781537221" lon="8.921061345771411"><ele>253.0</ele><time>2026-03-30T11:24:03.999Z</time></trkpt><trkpt lat="45.65249691204225" lon="8.921209557364003"><ele>253.0</ele><time>2026-03-30T11:24:04.999Z</time></trkpt><trkpt lat="45.6524400198827" lon="8.921344680376297"><ele>253.0</ele><time>2026-03-30T11:24:05.999Z</time></trkpt><trkpt lat="45.652394843349676" lon="8.921472349693397"><ele>253.0</ele><time>2026-03-30T11:24:06.999Z</time></trkpt><trkpt lat="45.65235124014852" lon="8.921577609939794"><ele>253.0</ele><time>2026-03-30T11:24:07.999Z</time></trkpt><trkpt lat="45.652284246486346" lon="8.921657109190933"><ele>253.0</ele><time>2026-03-30T11:24:08.999Z</time></trkpt><trkpt lat="45.65219610508822" lon="8.921804941188611"><ele>252.8</ele><time>2026-03-30T11:24:10.999Z</time></trkpt><trkpt lat="45.652095868912774" lon="8.921898538689547"><ele>252.60000000000002</ele><time>2026-03-30T11:24:12.999Z</time></trkpt><trkpt lat="45.6519876923686" lon="8.92193262541865"><ele>252.39999999999998</ele><time>2026-03-30T11:24:15.999Z</time></trkpt><trkpt lat="45.65190457666286" lon="8.92199535267136"><ele>252.2</ele><time>2026-03-30T11:24:16.999Z</time></trkpt><trkpt lat="45.651826566531476" lon="8.922022128129713"><ele>252.0</ele><time>2026-03-30T11:24:17.999Z</time></trkpt><trkpt lat="45.65174017408372" lon="8.922050448359327"><ele>251.75</ele><time>2026-03-30T11:24:18.999Z</time></trkpt><trkpt lat="45.65164900681842" lon="8.92206989256661"><ele>251.5</ele><time>2026-03-30T11:24:19.999Z</time></trkpt><trkpt lat="45.65152686743921" lon="8.92210682594915"><ele>251.25</ele><time>2026-03-30T11:24:20.999Z</time></trkpt><trkpt lat="45.65140720075743" lon="8.922147289278824"><ele>251.0</ele><time>2026-03-30T11:24:21.999Z</time></trkpt><trkpt lat="45.65129863454008" lon="8.922219959744965"><ele>251.0</ele><time>2026-03-30T11:24:22.999Z</time></trkpt><trkpt lat="45.651196768789355" lon="8.922285003537059"><ele>251.00000000000003</ele><time>2026-03-30T11:24:23.999Z</time></trkpt><trkpt lat="45.65108873594728" lon="8.922315454661131"><ele>251.00000000000003</ele><time>2026-03-30T11:24:24.999Z</time></trkpt><trkpt lat="45.6509731545734" lon="8.922333017045695"><ele>251.0</ele><time>2026-03-30T11:24:25.999Z</time></trkpt><trkpt lat="45.65087795695368" lon="8.922368562387298"><ele>251.0</ele><time>2026-03-30T11:24:26.999Z</time></trkpt><trkpt lat="45.65079284224652" lon="8.922422295392037"><ele>251.00000000000003</ele><time>2026-03-30T11:24:27.999Z</time></trkpt><trkpt lat="45.650689032679324" lon="8.922455407954523"><ele>251.0</ele><time>2026-03-30T11:24:28.999Z</time></trkpt><trkpt lat="45.65060677590463" lon="8.922490747959907"><ele>251.0</ele><time>2026-03-30T11:24:29.999Z</time></trkpt><trkpt lat="45.65053724358844" lon="8.922513012694427"><ele>251.0</ele><time>2026-03-30T11:24:30.999Z</time></trkpt><trkpt lat="45.650481330345634" lon="8.92255819835958"><ele>251.00000000000003</ele><time>2026-03-30T11:24:32.999Z</time></trkpt><trkpt lat="45.65038198904914" lon="8.92262349510815"><ele>251.0</ele><time>2026-03-30T11:24:34.999Z</time></trkpt><trkpt lat="45.65030504478471" lon="8.92265772241185"><ele>250.33333333333334</ele><time>2026-03-30T11:24:35.998Z</time></trkpt><trkpt lat="45.650204324186696" lon="8.922750859655016"><ele>249.66666666666669</ele><time>2026-03-30T11:24:36.999Z</time></trkpt><trkpt lat="45.65014091540604" lon="8.922828186280034"><ele>249.0</ele><time>2026-03-30T11:24:38Z</time></trkpt><trkpt lat="45.650040897084224" lon="8.922886312085526"><ele>248.33333333333331</ele><time>2026-03-30T11:24:40Z</time></trkpt><trkpt lat="45.64998684345098" lon="8.922835631537955"><ele>247.66666666666666</ele><time>2026-03-30T11:24:41Z</time></trkpt><trkpt lat="45.64992418527062" lon="8.922845579788534"><ele>247.0</ele><time>2026-03-30T11:24:42Z</time></trkpt><trkpt lat="45.64988647203527" lon="8.922954860446051"><ele>247.0</ele><time>2026-03-30T11:24:43Z</time></trkpt><trkpt lat="45.64980514548862" lon="8.923045938224298"><ele>247.0</ele><time>2026-03-30T11:24:44Z</time></trkpt><trkpt lat="45.64969647111313" lon="8.923123136431798"><ele>247.0</ele><time>2026-03-30T11:24:45Z</time></trkpt><trkpt lat="45.64958849901744" lon="8.923214644102297"><ele>247.0</ele><time>2026-03-30T11:24:46Z</time></trkpt><trkpt lat="45.649500881126826" lon="8.923282888440607"><ele>247.8</ele><time>2026-03-30T11:24:47Z</time></trkpt><trkpt lat="45.649439070379884" lon="8.92333706015042"><ele>248.6</ele><time>2026-03-30T11:24:48Z</time></trkpt><trkpt lat="45.649364826754585" lon="8.923379809977071"><ele>249.40000000000003</ele><time>2026-03-30T11:24:49Z</time></trkpt><trkpt lat="45.64927229873515" lon="8.92340810972297"><ele>250.20000000000002</ele><time>2026-03-30T11:24:50Z</time></trkpt><trkpt lat="45.649174659425725" lon="8.92344720025527"><ele>251.0</ele><time>2026-03-30T11:24:51Z</time></trkpt><trkpt lat="45.64904886702446" lon="8.923384403377444"><ele>251.0</ele><time>2026-03-30T11:24:52Z</time></trkpt><trkpt lat="45.64892995815676" lon="8.923399005022787"><ele>251.0</ele><time>2026-03-30T11:24:53Z</time></trkpt><trkpt lat="45.64882761790497" lon="8.923416260727445"><ele>251.0</ele><time>2026-03-30T11:24:54Z</time></trkpt><trkpt lat="45.64869244161551" lon="8.923449344372166"><ele>251.0</ele><time>2026-03-30T11:24:55Z</time></trkpt><trkpt lat="45.64857990645178" lon="8.923486354359373"><ele>251.0</ele><time>2026-03-30T11:24:56Z</time></trkpt><trkpt lat="45.648468968439346" lon="8.923522502545005"><ele>251.0</ele><time>2026-03-30T11:24:57Z</time></trkpt><trkpt lat="45.64833128092849" lon="8.923528606057264"><ele>251.0</ele><time>2026-03-30T11:24:58Z</time></trkpt><trkpt lat="45.648202509639" lon="8.923546788644474"><ele>251.0</ele><time>2026-03-30T11:24:59Z</time></trkpt><trkpt lat="45.64808653294339" lon="8.923577295920058"><ele>251.0</ele><time>2026-03-30T11:25:00Z</time></trkpt><trkpt lat="45.64797043924649" lon="8.923595455701212"><ele>251.0</ele><time>2026-03-30T11:25:01Z</time></trkpt><trkpt lat="45.64783763823384" lon="8.923607125574598"><ele>251.0</ele><time>2026-03-30T11:25:02Z</time></trkpt><trkpt lat="45.64769904248199" lon="8.923603683772203"><ele>251.0</ele><time>2026-03-30T11:25:03Z</time></trkpt><trkpt lat="45.64758649243951" lon="8.923570946597623"><ele>251.0</ele><time>2026-03-30T11:25:04Z</time></trkpt><trkpt lat="45.64750009406317" lon="8.923550734004923"><ele>251.0</ele><time>2026-03-30T11:25:05Z</time></trkpt><trkpt lat="45.647368550342044" lon="8.923534746909224"><ele>251.0</ele><time>2026-03-30T11:25:06Z</time></trkpt><trkpt lat="45.64724220723305" lon="8.923536749151317"><ele>251.0</ele><time>2026-03-30T11:25:07Z</time></trkpt><trkpt lat="45.64710700437129" lon="8.92354214138058"><ele>251.0</ele><time>2026-03-30T11:25:08Z</time></trkpt><trkpt lat="45.64699594304185" lon="8.923551186764993"><ele>251.00000000000003</ele><time>2026-03-30T11:25:09Z</time></trkpt><trkpt lat="45.64688692879367" lon="8.923586644043954"><ele>251.00000000000003</ele><time>2026-03-30T11:25:10Z</time></trkpt><trkpt lat="45.64678600279266" lon="8.923603791205531"><ele>251.0</ele><time>2026-03-30T11:25:11Z</time></trkpt><trkpt lat="45.646686041736416" lon="8.923623435884762"><ele>251.0</ele><time>2026-03-30T11:25:12Z</time></trkpt><trkpt lat="45.64659760121499" lon="8.923619093296066"><ele>251.00000000000003</ele><time>2026-03-30T11:25:13Z</time></trkpt><trkpt lat="45.64651353702246" lon="8.923592590252325"><ele>251.0</ele><time>2026-03-30T11:25:14Z</time></trkpt><trkpt lat="45.64646823360471" lon="8.923527196966726"><ele>251.0</ele><time>2026-03-30T11:25:15Z</time></trkpt><trkpt lat="45.64640018099275" lon="8.92343991202023"><ele>251.0</ele><time>2026-03-30T11:25:16Z</time></trkpt><trkpt lat="45.646349661108346" lon="8.923325905567179"><ele>251.00000000000003</ele><time>2026-03-30T11:25:17Z</time></trkpt><trkpt lat="45.646296985940864" lon="8.923184775285455"><ele>251.0</ele><time>2026-03-30T11:25:18Z</time></trkpt><trkpt lat="45.64623757256942" lon="8.92303627031293"><ele>251.75</ele><time>2026-03-30T11:25:19Z</time></trkpt><trkpt lat="45.646186171565766" lon="8.922877851264307"><ele>252.5</ele><time>2026-03-30T11:25:20Z</time></trkpt><trkpt lat="45.64613247189946" lon="8.922730939913176"><ele>253.25</ele><time>2026-03-30T11:25:21Z</time></trkpt><trkpt lat="45.6460835964054" lon="8.922587866778274"><ele>254.0</ele><time>2026-03-30T11:25:22Z</time></trkpt><trkpt lat="45.64602544816628" lon="8.922437463700025"><ele>254.25</ele><time>2026-03-30T11:25:23Z</time></trkpt><trkpt lat="45.64596891010319" lon="8.922278453124568"><ele>254.5</ele><time>2026-03-30T11:25:24Z</time></trkpt><trkpt lat="45.64590848538226" lon="8.922129138170817"><ele>254.75</ele><time>2026-03-30T11:25:25Z</time></trkpt><trkpt lat="45.64586011919804" lon="8.92197714707709"><ele>255.0</ele><time>2026-03-30T11:25:26Z</time></trkpt><trkpt lat="45.645812496728006" lon="8.92180491214003"><ele>254.25</ele><time>2026-03-30T11:25:27Z</time></trkpt><trkpt lat="45.64577178848639" lon="8.921618614949361"><ele>253.5</ele><time>2026-03-30T11:25:28Z</time></trkpt><trkpt lat="45.64573079093307" lon="8.921434389770557"><ele>252.75</ele><time>2026-03-30T11:25:29Z</time></trkpt><trkpt lat="45.645679738254515" lon="8.921255249988645"><ele>252.0</ele><time>2026-03-30T11:25:30Z</time></trkpt><trkpt lat="45.64563169695377" lon="8.921079550307185"><ele>252.0</ele><time>2026-03-30T11:25:31Z</time></trkpt><trkpt lat="45.64557836761873" lon="8.920914443346147"><ele>252.0</ele><time>2026-03-30T11:25:32Z</time></trkpt><trkpt lat="45.645517870249925" lon="8.92073175733251"><ele>252.0</ele><time>2026-03-30T11:25:32.999Z</time></trkpt><trkpt lat="45.645463740528555" lon="8.920563088483046"><ele>252.0</ele><time>2026-03-30T11:25:33.999Z</time></trkpt><trkpt lat="45.64541338935606" lon="8.920402230895117"><ele>251.2</ele><time>2026-03-30T11:25:34.999Z</time></trkpt><trkpt lat="45.64537257330682" lon="8.920230181465875"><ele>250.39999999999998</ele><time>2026-03-30T11:25:35.999Z</time></trkpt><trkpt lat="45.64533516778277" lon="8.92005191416434"><ele>249.60000000000002</ele><time>2026-03-30T11:25:36.999Z</time></trkpt><trkpt lat="45.645303479418686" lon="8.919914598410063"><ele>248.8</ele><time>2026-03-30T11:25:37.999Z</time></trkpt><trkpt lat="45.64526647921291" lon="8.919812508199554"><ele>248.0</ele><time>2026-03-30T11:25:38.999Z</time></trkpt><trkpt lat="45.64524096882929" lon="8.91970570400716"><ele>247.60000000000002</ele><time>2026-03-30T11:25:39.999Z</time></trkpt><trkpt lat="45.64520551566513" lon="8.919627903397842"><ele>247.20000000000002</ele><time>2026-03-30T11:25:40.999Z</time></trkpt><trkpt lat="45.645092589203315" lon="8.91959453097429"><ele>246.8</ele><time>2026-03-30T11:25:42.999Z</time></trkpt><trkpt lat="45.64501543795413" lon="8.919617955273482"><ele>246.4</ele><time>2026-03-30T11:25:43.999Z</time></trkpt><trkpt lat="45.64491431945163" lon="8.919665911855702"><ele>246.0</ele><time>2026-03-30T11:25:44.999Z</time></trkpt><trkpt lat="45.64481093185453" lon="8.919737085901852"><ele>246.0</ele><time>2026-03-30T11:25:45.999Z</time></trkpt><trkpt lat="45.64470045444273" lon="8.91980532546159"><ele>246.0</ele><time>2026-03-30T11:25:46.999Z</time></trkpt><trkpt lat="45.644592830438036" lon="8.919852069391498"><ele>246.0</ele><time>2026-03-30T11:25:47.999Z</time></trkpt><trkpt lat="45.64447978084269" lon="8.919908585418382"><ele>246.0</ele><time>2026-03-30T11:25:48.999Z</time></trkpt><trkpt lat="45.64435921713614" lon="8.919971263819534"><ele>245.75</ele><time>2026-03-30T11:25:49.999Z</time></trkpt><trkpt lat="45.64423746978905" lon="8.920026303917057"><ele>245.5</ele><time>2026-03-30T11:25:50.999Z</time></trkpt><trkpt lat="45.64410475590928" lon="8.920081906375696"><ele>245.25</ele><time>2026-03-30T11:25:51.999Z</time></trkpt><trkpt lat="45.64397289401593" lon="8.920152838818206"><ele>245.0</ele><time>2026-03-30T11:25:52.999Z</time></trkpt><trkpt lat="45.64384677238913" lon="8.920216747055347"><ele>245.0</ele><time>2026-03-30T11:25:53.999Z</time></trkpt><trkpt lat="45.64371617804987" lon="8.92027761072523"><ele>245.0</ele><time>2026-03-30T11:25:54.999Z</time></trkpt><trkpt lat="45.643584317019254" lon="8.920346374681527"><ele>245.0</ele><time>2026-03-30T11:25:55.999Z</time></trkpt><trkpt lat="45.64346534930535" lon="8.920405727408639"><ele>245.0</ele><time>2026-03-30T11:25:56.999Z</time></trkpt><trkpt lat="45.64334222243099" lon="8.920458697045785"><ele>244.75</ele><time>2026-03-30T11:25:57.999Z</time></trkpt><trkpt lat="45.643218118590944" lon="8.920515436611012"><ele>244.5</ele><time>2026-03-30T11:25:58.999Z</time></trkpt><trkpt lat="45.643096283745614" lon="8.920573676470879"><ele>244.25</ele><time>2026-03-30T11:25:59.999Z</time></trkpt><trkpt lat="45.64296914042849" lon="8.920628598154005"><ele>244.0</ele><time>2026-03-30T11:26:00.999Z</time></trkpt><trkpt lat="45.64283909366939" lon="8.920695205858996"><ele>243.99999999999997</ele><time>2026-03-30T11:26:01.999Z</time></trkpt><trkpt lat="45.64272891165764" lon="8.92074624869828"><ele>244.0</ele><time>2026-03-30T11:26:02.999Z</time></trkpt><trkpt lat="45.64264747192145" lon="8.920789830452188"><ele>244.0</ele><time>2026-03-30T11:26:03.999Z</time></trkpt><trkpt lat="45.6425682087044" lon="8.920831460757524"><ele>244.0</ele><time>2026-03-30T11:26:04.999Z</time></trkpt><trkpt lat="45.642505894490576" lon="8.920864508037255"><ele>243.99999999999997</ele><time>2026-03-30T11:26:05.999Z</time></trkpt><trkpt lat="45.64242494173078" lon="8.920907235664778"><ele>244.0</ele><time>2026-03-30T11:26:07.999Z</time></trkpt><trkpt lat="45.64235293304835" lon="8.920910418993287"><ele>244.2</ele><time>2026-03-30T11:26:10.999Z</time></trkpt><trkpt lat="45.64224280474554" lon="8.920966586968214"><ele>244.39999999999998</ele><time>2026-03-30T11:26:19.999Z</time></trkpt><trkpt lat="45.642182972004406" lon="8.921008571533084"><ele>244.6</ele><time>2026-03-30T11:26:20.999Z</time></trkpt><trkpt lat="45.642111259080735" lon="8.921058129143953"><ele>244.8</ele><time>2026-03-30T11:26:21.999Z</time></trkpt><trkpt lat="45.64202033086307" lon="8.921101498614012"><ele>245.0</ele><time>2026-03-30T11:26:22.999Z</time></trkpt><trkpt lat="45.64192205941077" lon="8.921143235852819"><ele>245.0</ele><time>2026-03-30T11:26:23.999Z</time></trkpt><trkpt lat="45.64182221099108" lon="8.921183848105725"><ele>245.0</ele><time>2026-03-30T11:26:24.999Z</time></trkpt><trkpt lat="45.64171106268232" lon="8.921223949612267"><ele>245.0</ele><time>2026-03-30T11:26:25.999Z</time></trkpt><trkpt lat="45.641590482811885" lon="8.921269379611518"><ele>245.0</ele><time>2026-03-30T11:26:26.999Z</time></trkpt><trkpt lat="45.64146322086706" lon="8.921318908638478"><ele>245.0</ele><time>2026-03-30T11:26:27.999Z</time></trkpt><trkpt lat="45.64132660065276" lon="8.921372257538959"><ele>245.0</ele><time>2026-03-30T11:26:28.999Z</time></trkpt><trkpt lat="45.64119554385516" lon="8.921422987121913"><ele>245.0</ele><time>2026-03-30T11:26:29.999Z</time></trkpt><trkpt lat="45.64107330639832" lon="8.921467828583028"><ele>245.0</ele><time>2026-03-30T11:26:30.999Z</time></trkpt><trkpt lat="45.64095957860591" lon="8.92151348749989"><ele>244.83333333333334</ele><time>2026-03-30T11:26:31.999Z</time></trkpt><trkpt lat="45.64085753558804" lon="8.921561764112848"><ele>244.66666666666669</ele><time>2026-03-30T11:26:32.999Z</time></trkpt><trkpt lat="45.64076205812676" lon="8.921582828683563"><ele>244.5</ele><time>2026-03-30T11:26:33.999Z</time></trkpt><trkpt lat="45.64068355742583" lon="8.92160944994492"><ele>244.33333333333331</ele><time>2026-03-30T11:26:34.999Z</time></trkpt><trkpt lat="45.64062215208735" lon="8.921630186417373"><ele>244.16666666666666</ele><time>2026-03-30T11:26:35.999Z</time></trkpt><trkpt lat="45.64053913089617" lon="8.921658226739575"><ele>244.0</ele><time>2026-03-30T11:26:38.999Z</time></trkpt><trkpt lat="45.64071059029896" lon="8.921860627918068"><ele>244.0</ele><time>2026-03-30T11:26:40.999Z</time></trkpt><trkpt lat="45.64073843973684" lon="8.92200024774887"><ele>244.0</ele><time>2026-03-30T11:26:42.999Z</time></trkpt><trkpt lat="45.64075597602846" lon="8.922088163880236"><ele>244.0</ele><time>2026-03-30T11:26:44Z</time></trkpt><trkpt lat="45.64053286620048" lon="8.92234008947557"><ele>244.0</ele><time>2026-03-30T11:26:45Z</time></trkpt><trkpt lat="45.64053543538746" lon="8.922510248996147"><ele>243.99999999999997</ele><time>2026-03-30T11:26:46Z</time></trkpt><trkpt lat="45.6405182659978" lon="8.922661116977972"><ele>243.99999999999997</ele><time>2026-03-30T11:26:47Z</time></trkpt><trkpt lat="45.640518681761556" lon="8.922809587700922"><ele>244.0</ele><time>2026-03-30T11:26:48Z</time></trkpt><trkpt lat="45.64053566547489" lon="8.922974724871073"><ele>244.0</ele><time>2026-03-30T11:26:49Z</time></trkpt><trkpt lat="45.64055399704284" lon="8.923137573708562"><ele>244.25</ele><time>2026-03-30T11:26:50Z</time></trkpt><trkpt lat="45.640555278819946" lon="8.92330555314089"><ele>244.5</ele><time>2026-03-30T11:26:51Z</time></trkpt><trkpt lat="45.64054926415697" lon="8.923473468966346"><ele>244.75</ele><time>2026-03-30T11:26:52Z</time></trkpt><trkpt lat="45.640559122455855" lon="8.923628167103677"><ele>245.0</ele><time>2026-03-30T11:26:53Z</time></trkpt><trkpt lat="45.64057371592361" lon="8.923795428698291"><ele>245.0</ele><time>2026-03-30T11:26:54Z</time></trkpt><trkpt lat="45.64059693983561" lon="8.92397541410757"><ele>245.0</ele><time>2026-03-30T11:26:55Z</time></trkpt><trkpt lat="45.64060250932644" lon="8.924153995875647"><ele>245.0</ele><time>2026-03-30T11:26:56Z</time></trkpt><trkpt lat="45.64061153946959" lon="8.924331106074497"><ele>245.0</ele><time>2026-03-30T11:26:57Z</time></trkpt><trkpt lat="45.64061173014816" lon="8.92448840053267"><ele>245.0</ele><time>2026-03-30T11:26:58Z</time></trkpt><trkpt lat="45.64060204763797" lon="8.924678444873441"><ele>245.0</ele><time>2026-03-30T11:26:59Z</time></trkpt><trkpt lat="45.64059801582556" lon="8.92486433906483"><ele>245.0</ele><time>2026-03-30T11:27:00Z</time></trkpt><trkpt lat="45.64059322896741" lon="8.925018722070869"><ele>245.0</ele><time>2026-03-30T11:27:01Z</time></trkpt><trkpt lat="45.6405801592813" lon="8.925166629256957"><ele>245.0</ele><time>2026-03-30T11:27:02Z</time></trkpt><trkpt lat="45.64056981074242" lon="8.925294408028362"><ele>245.0</ele><time>2026-03-30T11:27:03Z</time></trkpt><trkpt lat="45.64056783665127" lon="8.925410080846813"><ele>245.0</ele><time>2026-03-30T11:27:04Z</time></trkpt><trkpt lat="45.640535172567354" lon="8.925512241641739"><ele>245.0</ele><time>2026-03-30T11:27:05Z</time></trkpt><trkpt lat="45.6404573271777" lon="8.925654778410225"><ele>245.0</ele><time>2026-03-30T11:27:07Z</time></trkpt><trkpt lat="45.64038682336951" lon="8.92570735860083"><ele>244.8</ele><time>2026-03-30T11:27:08Z</time></trkpt><trkpt lat="45.64028444238166" lon="8.92572434471801"><ele>244.6</ele><time>2026-03-30T11:27:09Z</time></trkpt><trkpt lat="45.640191142026445" lon="8.925780331956021"><ele>244.39999999999998</ele><time>2026-03-30T11:27:10Z</time></trkpt><trkpt lat="45.64009731837491" lon="8.925844055023063"><ele>244.2</ele><time>2026-03-30T11:27:11Z</time></trkpt><trkpt lat="45.640011783848834" lon="8.925917438918118"><ele>244.0</ele><time>2026-03-30T11:27:12Z</time></trkpt><trkpt lat="45.63993056181837" lon="8.925978916100796"><ele>243.99999999999997</ele><time>2026-03-30T11:27:13Z</time></trkpt><trkpt lat="45.639838758190926" lon="8.9260452738083"><ele>244.0</ele><time>2026-03-30T11:27:15Z</time></trkpt><trkpt lat="45.63975018157006" lon="8.926091294645264"><ele>244.0</ele><time>2026-03-30T11:27:17Z</time></trkpt><trkpt lat="45.63971570559569" lon="8.926191697050657"><ele>244.0</ele><time>2026-03-30T11:27:20Z</time></trkpt><trkpt lat="45.639732838688495" lon="8.926292730565686"><ele>243.99999999999997</ele><time>2026-03-30T11:27:22Z</time></trkpt><trkpt lat="45.63967592110552" lon="8.926400161054715"><ele>244.0</ele><time>2026-03-30T11:27:25Z</time></trkpt><trkpt lat="45.639611797643205" lon="8.926450915101563"><ele>244.0</ele><time>2026-03-30T11:27:27Z</time></trkpt><trkpt lat="45.639512627925335" lon="8.926445018707128"><ele>243.99999999999997</ele><time>2026-03-30T11:27:32Z</time></trkpt><trkpt lat="45.63944601582559" lon="8.926370547945258"><ele>243.99999999999997</ele><time>2026-03-30T11:27:36Z</time></trkpt><trkpt lat="45.639375663087534" lon="8.926417970888558"><ele>244.0</ele><time>2026-03-30T11:27:38.999Z</time></trkpt><trkpt lat="45.6393005597627" lon="8.926475150070099"><ele>244.0</ele><time>2026-03-30T11:27:40.999Z</time></trkpt><trkpt lat="45.63902421325237" lon="8.926624220481683"><ele>244.0</ele><time>2026-03-30T11:27:43.999Z</time></trkpt><trkpt lat="45.63893316638474" lon="8.926684345276831"><ele>243.99999999999997</ele><time>2026-03-30T11:27:45.999Z</time></trkpt><trkpt lat="45.6388611154245" lon="8.926674550538024"><ele>243.99999999999997</ele><time>2026-03-30T11:27:47.999Z</time></trkpt><trkpt lat="45.63879983503777" lon="8.926764734795539"><ele>244.0</ele><time>2026-03-30T11:27:50.999Z</time></trkpt><trkpt lat="45.63873081106647" lon="8.926851824065633"><ele>244.0</ele><time>2026-03-30T11:27:53.999Z</time></trkpt><trkpt lat="45.638609863065575" lon="8.926889528108179"><ele>244.2</ele><time>2026-03-30T11:27:55.999Z</time></trkpt><trkpt lat="45.638542111564526" lon="8.926902729786766"><ele>244.39999999999998</ele><time>2026-03-30T11:27:56.999Z</time></trkpt><trkpt lat="45.63845132629427" lon="8.926966792248164"><ele>244.6</ele><time>2026-03-30T11:27:57.999Z</time></trkpt><trkpt lat="45.638376059446045" lon="8.927019773438332"><ele>244.8</ele><time>2026-03-30T11:27:58.999Z</time></trkpt><trkpt lat="45.63828557520579" lon="8.927103670922133"><ele>245.0</ele><time>2026-03-30T11:27:59.999Z</time></trkpt><trkpt lat="45.63817156082626" lon="8.92714981737318"><ele>245.0</ele><time>2026-03-30T11:28:00.999Z</time></trkpt><trkpt lat="45.63809015458225" lon="8.927184971787346"><ele>245.0</ele><time>2026-03-30T11:28:01.999Z</time></trkpt><trkpt lat="45.63800988233598" lon="8.927232137651925"><ele>245.0</ele><time>2026-03-30T11:28:02.999Z</time></trkpt><trkpt lat="45.63792115790893" lon="8.927279049878402"><ele>245.0</ele><time>2026-03-30T11:28:03.999Z</time></trkpt><trkpt lat="45.6378296287764" lon="8.92733380086427"><ele>245.0</ele><time>2026-03-30T11:28:04.999Z</time></trkpt><trkpt lat="45.63772142563193" lon="8.927365379341648"><ele>245.25</ele><time>2026-03-30T11:28:05.999Z</time></trkpt><trkpt lat="45.63757726834697" lon="8.927381631620577"><ele>245.5</ele><time>2026-03-30T11:28:06.999Z</time></trkpt><trkpt lat="45.6374598911097" lon="8.927425041491446"><ele>245.75</ele><time>2026-03-30T11:28:07.999Z</time></trkpt><trkpt lat="45.6373466487791" lon="8.92746101674495"><ele>246.0</ele><time>2026-03-30T11:28:08.999Z</time></trkpt><trkpt lat="45.637240770936025" lon="8.927501163384177"><ele>246.0</ele><time>2026-03-30T11:28:09.999Z</time></trkpt><trkpt lat="45.63714106938859" lon="8.927541289048389"><ele>246.00000000000003</ele><time>2026-03-30T11:28:10.999Z</time></trkpt><trkpt lat="45.63703950833516" lon="8.927590778241639"><ele>246.00000000000003</ele><time>2026-03-30T11:28:11.999Z</time></trkpt><trkpt lat="45.636925623765485" lon="8.927648376751916"><ele>246.0</ele><time>2026-03-30T11:28:12.999Z</time></trkpt><trkpt lat="45.636820280841405" lon="8.927671255713651"><ele>246.0</ele><time>2026-03-30T11:28:13.999Z</time></trkpt><trkpt lat="45.63670026559354" lon="8.92774297249677"><ele>245.60000000000002</ele><time>2026-03-30T11:28:14.999Z</time></trkpt><trkpt lat="45.63660594115496" lon="8.927759457308644"><ele>245.20000000000002</ele><time>2026-03-30T11:28:15.999Z</time></trkpt><trkpt lat="45.63651678717097" lon="8.92780069125662"><ele>244.79999999999998</ele><time>2026-03-30T11:28:16.999Z</time></trkpt><trkpt lat="45.63643488822983" lon="8.927871860097369"><ele>244.39999999999998</ele><time>2026-03-30T11:28:17.999Z</time></trkpt><trkpt lat="45.636360702065026" lon="8.927937657753873"><ele>244.0</ele><time>2026-03-30T11:28:18.999Z</time></trkpt><trkpt lat="45.636312456122944" lon="8.928064191202738"><ele>244.0</ele><time>2026-03-30T11:28:19.999Z</time></trkpt><trkpt lat="45.63619882029568" lon="8.928152403569197"><ele>243.99999999999997</ele><time>2026-03-30T11:28:20.999Z</time></trkpt><trkpt lat="45.63610690960822" lon="8.928251568403255"><ele>243.99999999999997</ele><time>2026-03-30T11:28:21.999Z</time></trkpt><trkpt lat="45.63601911629068" lon="8.928360670019378"><ele>244.0</ele><time>2026-03-30T11:28:22.999Z</time></trkpt><trkpt lat="45.63595312700502" lon="8.928434392824817"><ele>244.0</ele><time>2026-03-30T11:28:23.999Z</time></trkpt><trkpt lat="45.6358846255697" lon="8.92851159940384"><ele>244.0</ele><time>2026-03-30T11:28:24.999Z</time></trkpt><trkpt lat="45.63580761660091" lon="8.928636747293332"><ele>243.99999999999997</ele><time>2026-03-30T11:28:25.999Z</time></trkpt><trkpt lat="45.63572929241294" lon="8.928728895970211"><ele>243.99999999999997</ele><time>2026-03-30T11:28:26.999Z</time></trkpt><trkpt lat="45.63567159668361" lon="8.928783675360103"><ele>244.0</ele><time>2026-03-30T11:28:27.999Z</time></trkpt><trkpt lat="45.63562770589133" lon="8.928888558323816"><ele>244.0</ele><time>2026-03-30T11:28:29.999Z</time></trkpt><trkpt lat="45.63566753349641" lon="8.92905889553468"><ele>244.0</ele><time>2026-03-30T11:28:31.999Z</time></trkpt><trkpt lat="45.63572374199518" lon="8.92916545556726"><ele>244.0</ele><time>2026-03-30T11:28:32.999Z</time></trkpt><trkpt lat="45.63577746746386" lon="8.929270011016476"><ele>244.0</ele><time>2026-03-30T11:28:33.999Z</time></trkpt><trkpt lat="45.63586529826425" lon="8.929423263283832"><ele>244.0</ele><time>2026-03-30T11:28:34.999Z</time></trkpt><trkpt lat="45.6359480865117" lon="8.929595553698547"><ele>244.0</ele><time>2026-03-30T11:28:35.999Z</time></trkpt><trkpt lat="45.636010407242125" lon="8.929737744133313"><ele>244.0</ele><time>2026-03-30T11:28:36.999Z</time></trkpt><trkpt lat="45.63607537249367" lon="8.929869647655092"><ele>244.0</ele><time>2026-03-30T11:28:37.999Z</time></trkpt><trkpt lat="45.63615143459931" lon="8.929993873261113"><ele>244.0</ele><time>2026-03-30T11:28:38.999Z</time></trkpt><trkpt lat="45.636230494900985" lon="8.930106183420222"><ele>244.75</ele><time>2026-03-30T11:28:39.999Z</time></trkpt><trkpt lat="45.63632450295169" lon="8.930220689065175"><ele>245.5</ele><time>2026-03-30T11:28:40.999Z</time></trkpt><trkpt lat="45.636398106491136" lon="8.930362062248854"><ele>246.25</ele><time>2026-03-30T11:28:41.999Z</time></trkpt><trkpt lat="45.63648637587174" lon="8.930509072171565"><ele>247.0</ele><time>2026-03-30T11:28:42.999Z</time></trkpt><trkpt lat="45.63657091145077" lon="8.930652684226725"><ele>247.0</ele><time>2026-03-30T11:28:43.999Z</time></trkpt><trkpt lat="45.636668580933694" lon="8.930801093526659"><ele>247.0</ele><time>2026-03-30T11:28:44.999Z</time></trkpt><trkpt lat="45.63675631859073" lon="8.930941017290465"><ele>247.0</ele><time>2026-03-30T11:28:45.999Z</time></trkpt><trkpt lat="45.63686397473868" lon="8.931066767671666"><ele>247.0</ele><time>2026-03-30T11:28:46.999Z</time></trkpt><trkpt lat="45.636943076297506" lon="8.931190757514859"><ele>246.5</ele><time>2026-03-30T11:28:47.999Z</time></trkpt><trkpt lat="45.63701310273604" lon="8.931317949264907"><ele>246.0</ele><time>2026-03-30T11:28:48.999Z</time></trkpt><trkpt lat="45.63711276157704" lon="8.931439828523361"><ele>245.5</ele><time>2026-03-30T11:28:50Z</time></trkpt><trkpt lat="45.63719048282307" lon="8.931571412306125"><ele>245.0</ele><time>2026-03-30T11:28:51Z</time></trkpt><trkpt lat="45.63727344857949" lon="8.931696067571147"><ele>244.75</ele><time>2026-03-30T11:28:52Z</time></trkpt><trkpt lat="45.63737582978209" lon="8.931805745295831"><ele>244.5</ele><time>2026-03-30T11:28:53Z</time></trkpt><trkpt lat="45.63748103726753" lon="8.931914490334139"><ele>244.25</ele><time>2026-03-30T11:28:54Z</time></trkpt><trkpt lat="45.63758411640141" lon="8.93203118622262"><ele>244.0</ele><time>2026-03-30T11:28:55Z</time></trkpt><trkpt lat="45.637698697235734" lon="8.932139177329693"><ele>244.0</ele><time>2026-03-30T11:28:56Z</time></trkpt><trkpt lat="45.63778351833408" lon="8.932261747158517"><ele>244.0</ele><time>2026-03-30T11:28:57Z</time></trkpt><trkpt lat="45.637859721087736" lon="8.932389989053084"><ele>244.0</ele><time>2026-03-30T11:28:58Z</time></trkpt><trkpt lat="45.63794557583901" lon="8.932500924689156"><ele>244.0</ele><time>2026-03-30T11:28:59Z</time></trkpt><trkpt lat="45.63805222759915" lon="8.9326086786603"><ele>244.39999999999998</ele><time>2026-03-30T11:29:00Z</time></trkpt><trkpt lat="45.6381163467809" lon="8.932718829861328"><ele>244.79999999999998</ele><time>2026-03-30T11:29:01Z</time></trkpt><trkpt lat="45.638194743938556" lon="8.932781097087268"><ele>245.20000000000002</ele><time>2026-03-30T11:29:02Z</time></trkpt><trkpt lat="45.63827876713389" lon="8.932898653207069"><ele>245.60000000000002</ele><time>2026-03-30T11:29:04Z</time></trkpt><trkpt lat="45.63834230935273" lon="8.932989701025909"><ele>246.0</ele><time>2026-03-30T11:29:07Z</time></trkpt><trkpt lat="45.63840351061039" lon="8.933030812023626"><ele>246.0</ele><time>2026-03-30T11:29:14Z</time></trkpt><trkpt lat="45.638483664030325" lon="8.933046251155316"><ele>246.0</ele><time>2026-03-30T11:29:22Z</time></trkpt><trkpt lat="45.63855073120187" lon="8.933080666256032"><ele>246.0</ele><time>2026-03-30T11:29:24Z</time></trkpt><trkpt lat="45.63862188525288" lon="8.933121434983825"><ele>246.0</ele><time>2026-03-30T11:29:27Z</time></trkpt><trkpt lat="45.63861431493412" lon="8.93323053581038"><ele>246.0</ele><time>2026-03-30T11:29:32Z</time></trkpt><trkpt lat="45.63856045533036" lon="8.933312294314717"><ele>246.0</ele><time>2026-03-30T11:29:36Z</time></trkpt><trkpt lat="45.63856473084232" lon="8.933435604885162"><ele>246.20000000000002</ele><time>2026-03-30T11:29:38.999Z</time></trkpt><trkpt lat="45.6386283868462" lon="8.933562051062239"><ele>246.40000000000003</ele><time>2026-03-30T11:29:40.999Z</time></trkpt><trkpt lat="45.63866587878207" lon="8.933652623365067"><ele>246.6</ele><time>2026-03-30T11:29:41.999Z</time></trkpt><trkpt lat="45.638705622198785" lon="8.93374612987956"><ele>246.8</ele><time>2026-03-30T11:29:42.999Z</time></trkpt><trkpt lat="45.63876052076297" lon="8.933915219439152"><ele>247.0</ele><time>2026-03-30T11:29:44.999Z</time></trkpt><trkpt lat="45.638838028805516" lon="8.934079911085014"><ele>246.99999999999997</ele><time>2026-03-30T11:29:46.999Z</time></trkpt><trkpt lat="45.638885041577986" lon="8.934164068319099"><ele>247.0</ele><time>2026-03-30T11:29:47.999Z</time></trkpt><trkpt lat="45.63891188375988" lon="8.93426101129989"><ele>247.0</ele><time>2026-03-30T11:29:48.999Z</time></trkpt><trkpt lat="45.638960000851654" lon="8.934353867647665"><ele>247.0</ele><time>2026-03-30T11:29:49.999Z</time></trkpt><trkpt lat="45.639006063209074" lon="8.934475171421402"><ele>246.99999999999997</ele><time>2026-03-30T11:29:51.999Z</time></trkpt><trkpt lat="45.63905353748783" lon="8.934553784271092"><ele>247.0</ele><time>2026-03-30T11:29:55.999Z</time></trkpt><trkpt lat="45.63912240614191" lon="8.934550588653115"><ele>247.0</ele><time>2026-03-30T11:29:58.999Z</time></trkpt><trkpt lat="45.63921482795668" lon="8.93462389417604"><ele>247.0</ele><time>2026-03-30T11:30:02.999Z</time></trkpt><trkpt lat="45.63918022841577" lon="8.934723498458894"><ele>247.0</ele><time>2026-03-30T11:30:05.999Z</time></trkpt><trkpt lat="45.639174334737085" lon="8.934813312032427"><ele>247.0</ele><time>2026-03-30T11:30:07.999Z</time></trkpt><trkpt lat="45.63922579551176" lon="8.934954938683797"><ele>247.0</ele><time>2026-03-30T11:30:09.999Z</time></trkpt><trkpt lat="45.63928980031778" lon="8.93508340600273"><ele>246.99999999999997</ele><time>2026-03-30T11:30:11.999Z</time></trkpt><trkpt lat="45.63933122859973" lon="8.935171156053796"><ele>247.0</ele><time>2026-03-30T11:30:12.999Z</time></trkpt><trkpt lat="45.63935681801407" lon="8.935276686298877"><ele>247.0</ele><time>2026-03-30T11:30:13.999Z</time></trkpt><trkpt lat="45.639389756469434" lon="8.935378722765895"><ele>247.0</ele><time>2026-03-30T11:30:14.999Z</time></trkpt><trkpt lat="45.63944659889493" lon="8.935503991315253"><ele>246.99999999999997</ele><time>2026-03-30T11:30:15.999Z</time></trkpt><trkpt lat="45.639492261799184" lon="8.935620676087918"><ele>247.0</ele><time>2026-03-30T11:30:16.999Z</time></trkpt><trkpt lat="45.639552269317626" lon="8.935755254306661"><ele>247.0</ele><time>2026-03-30T11:30:17.999Z</time></trkpt><trkpt lat="45.63959700323745" lon="8.935865966334124"><ele>247.0</ele><time>2026-03-30T11:30:18.999Z</time></trkpt><trkpt lat="45.63964983605601" lon="8.935986835470231"><ele>247.0</ele><time>2026-03-30T11:30:19.999Z</time></trkpt><trkpt lat="45.63969497098224" lon="8.936123852370395"><ele>247.0</ele><time>2026-03-30T11:30:20.999Z</time></trkpt><trkpt lat="45.639747844297695" lon="8.936249458749892"><ele>247.0</ele><time>2026-03-30T11:30:21.999Z</time></trkpt><trkpt lat="45.63980866393623" lon="8.936389616151338"><ele>246.8</ele><time>2026-03-30T11:30:22.999Z</time></trkpt><trkpt lat="45.63985471769602" lon="8.936529047877864"><ele>246.6</ele><time>2026-03-30T11:30:23.999Z</time></trkpt><trkpt lat="45.63989066368627" lon="8.936676684423274"><ele>246.40000000000003</ele><time>2026-03-30T11:30:24.999Z</time></trkpt><trkpt lat="45.63991538129365" lon="8.936809168993902"><ele>246.20000000000002</ele><time>2026-03-30T11:30:25.999Z</time></trkpt><trkpt lat="45.63993433679169" lon="8.936954973517391"><ele>246.0</ele><time>2026-03-30T11:30:26.999Z</time></trkpt><trkpt lat="45.63993408752126" lon="8.937111182095052"><ele>245.8</ele><time>2026-03-30T11:30:27.999Z</time></trkpt><trkpt lat="45.63994953704071" lon="8.93727886242872"><ele>245.60000000000002</ele><time>2026-03-30T11:30:28.999Z</time></trkpt><trkpt lat="45.639953091919" lon="8.937432554677553"><ele>245.4</ele><time>2026-03-30T11:30:29.999Z</time></trkpt><trkpt lat="45.63996266962572" lon="8.937582006753015"><ele>245.2</ele><time>2026-03-30T11:30:30.999Z</time></trkpt><trkpt lat="45.63997705735951" lon="8.937738185251522"><ele>245.0</ele><time>2026-03-30T11:30:31.999Z</time></trkpt><trkpt lat="45.639982688205556" lon="8.937892796867319"><ele>243.8</ele><time>2026-03-30T11:30:32.999Z</time></trkpt><trkpt lat="45.639995113341826" lon="8.938040995235074"><ele>242.6</ele><time>2026-03-30T11:30:33.999Z</time></trkpt><trkpt lat="45.6399977667769" lon="8.938204528894167"><ele>241.39999999999998</ele><time>2026-03-30T11:30:34.999Z</time></trkpt><trkpt lat="45.63998985284211" lon="8.938351301065332"><ele>240.2</ele><time>2026-03-30T11:30:35.999Z</time></trkpt><trkpt lat="45.6399911624783" lon="8.938487636610175"><ele>239.0</ele><time>2026-03-30T11:30:36.999Z</time></trkpt><trkpt lat="45.64000220850521" lon="8.938628079698969"><ele>239.0</ele><time>2026-03-30T11:30:37.999Z</time></trkpt><trkpt lat="45.64002396087748" lon="8.938753825019356"><ele>238.99999999999997</ele><time>2026-03-30T11:30:38.999Z</time></trkpt><trkpt lat="45.64005947100949" lon="8.938874821430327"><ele>238.99999999999997</ele><time>2026-03-30T11:30:39.999Z</time></trkpt><trkpt lat="45.640116196973494" lon="8.938995923688841"><ele>239.0</ele><time>2026-03-30T11:30:40.999Z</time></trkpt><trkpt lat="45.64016592469316" lon="8.939105078910664"><ele>239.0</ele><time>2026-03-30T11:30:41.999Z</time></trkpt><trkpt lat="45.64021382232463" lon="8.939245910075385"><ele>239.75</ele><time>2026-03-30T11:30:42.999Z</time></trkpt><trkpt lat="45.64027290848246" lon="8.939415448582762"><ele>240.5</ele><time>2026-03-30T11:30:43.999Z</time></trkpt><trkpt lat="45.64032214116138" lon="8.939543397674758"><ele>241.25</ele><time>2026-03-30T11:30:44.999Z</time></trkpt><trkpt lat="45.64038586967902" lon="8.939711665567415"><ele>242.0</ele><time>2026-03-30T11:30:45.999Z</time></trkpt><trkpt lat="45.64045630616499" lon="8.939864126956556"><ele>241.5</ele><time>2026-03-30T11:30:46.999Z</time></trkpt><trkpt lat="45.64051362558146" lon="8.940020982441785"><ele>241.0</ele><time>2026-03-30T11:30:47.999Z</time></trkpt><trkpt lat="45.640572900833476" lon="8.940186063631865"><ele>240.5</ele><time>2026-03-30T11:30:48.999Z</time></trkpt><trkpt lat="45.64064548035218" lon="8.94033218369228"><ele>240.0</ele><time>2026-03-30T11:30:49.999Z</time></trkpt><trkpt lat="45.6407190291935" lon="8.940487848722418"><ele>240.0</ele><time>2026-03-30T11:30:50.999Z</time></trkpt><trkpt lat="45.64078115966383" lon="8.940664434806783"><ele>240.0</ele><time>2026-03-30T11:30:51.999Z</time></trkpt><trkpt lat="45.64084792182924" lon="8.940822883540326"><ele>240.0</ele><time>2026-03-30T11:30:52.999Z</time></trkpt><trkpt lat="45.640899736283366" lon="8.94096302278157"><ele>240.0</ele><time>2026-03-30T11:30:53.999Z</time></trkpt><trkpt lat="45.6409608247699" lon="8.941088079808377"><ele>241.4</ele><time>2026-03-30T11:30:54.999Z</time></trkpt><trkpt lat="45.641005465218825" lon="8.94120704897456"><ele>242.8</ele><time>2026-03-30T11:30:56Z</time></trkpt><trkpt lat="45.64102947608974" lon="8.941305216251305"><ele>244.2</ele><time>2026-03-30T11:30:57Z</time></trkpt><trkpt lat="45.64105733442658" lon="8.941441208142914"><ele>245.6</ele><time>2026-03-30T11:30:59Z</time></trkpt><trkpt lat="45.64099314156798" lon="8.941601689507925"><ele>247.0</ele><time>2026-03-30T11:31:01Z</time></trkpt><trkpt lat="45.640950189686855" lon="8.941695815978559"><ele>246.99999999999997</ele><time>2026-03-30T11:31:02Z</time></trkpt><trkpt lat="45.64090727839195" lon="8.94176418248618"><ele>247.0</ele><time>2026-03-30T11:31:03Z</time></trkpt><trkpt lat="45.64085906564987" lon="8.941831519228437"><ele>247.0</ele><time>2026-03-30T11:31:04Z</time></trkpt><trkpt lat="45.6407786783516" lon="8.941924959760636"><ele>247.0</ele><time>2026-03-30T11:31:06Z</time></trkpt><trkpt lat="45.64072290998026" lon="8.942004981489196"><ele>246.99999999999997</ele><time>2026-03-30T11:31:08Z</time></trkpt><trkpt lat="45.64066971202981" lon="8.942063308356566"><ele>247.0</ele><time>2026-03-30T11:31:10Z</time></trkpt><trkpt lat="45.64061400275871" lon="8.942132024946934"><ele>247.0</ele><time>2026-03-30T11:31:13Z</time></trkpt><trkpt lat="45.64055357007397" lon="8.942224661906229"><ele>247.0</ele><time>2026-03-30T11:31:15Z</time></trkpt><trkpt lat="45.64049718073211" lon="8.942309305893026"><ele>247.0</ele><time>2026-03-30T11:31:17Z</time></trkpt><trkpt lat="45.64043745481249" lon="8.942435772010253"><ele>247.0</ele><time>2026-03-30T11:31:19Z</time></trkpt><trkpt lat="45.64038675998998" lon="8.942590932994655"><ele>247.0</ele><time>2026-03-30T11:31:21Z</time></trkpt><trkpt lat="45.64037772769029" lon="8.9426966844644"><ele>247.16666666666666</ele><time>2026-03-30T11:31:22Z</time></trkpt><trkpt lat="45.640373452337734" lon="8.942794142784775"><ele>247.33333333333331</ele><time>2026-03-30T11:31:23Z</time></trkpt><trkpt lat="45.64035848557983" lon="8.94289567518789"><ele>247.5</ele><time>2026-03-30T11:31:24Z</time></trkpt><trkpt lat="45.64034241437284" lon="8.943042154150024"><ele>247.66666666666669</ele><time>2026-03-30T11:31:25Z</time></trkpt><trkpt lat="45.640335321303816" lon="8.943186320451098"><ele>247.83333333333334</ele><time>2026-03-30T11:31:26Z</time></trkpt><trkpt lat="45.64033126089816" lon="8.94330829360269"><ele>248.0</ele><time>2026-03-30T11:31:27Z</time></trkpt><trkpt lat="45.640317166164294" lon="8.943474731486187"><ele>248.2</ele><time>2026-03-30T11:31:28Z</time></trkpt><trkpt lat="45.64031470181163" lon="8.94362044423254"><ele>248.4</ele><time>2026-03-30T11:31:29Z</time></trkpt><trkpt lat="45.64030667055692" lon="8.943777461535461"><ele>248.59999999999997</ele><time>2026-03-30T11:31:30Z</time></trkpt><trkpt lat="45.64030272103582" lon="8.943938583696545"><ele>248.79999999999998</ele><time>2026-03-30T11:31:31Z</time></trkpt><trkpt lat="45.64030222662921" lon="8.944096126911207"><ele>249.0</ele><time>2026-03-30T11:31:32Z</time></trkpt><trkpt lat="45.6403037429727" lon="8.94424462434642"><ele>248.25</ele><time>2026-03-30T11:31:33Z</time></trkpt><trkpt lat="45.64031841946431" lon="8.944420673923517"><ele>247.5</ele><time>2026-03-30T11:31:34Z</time></trkpt><trkpt lat="45.640321890959775" lon="8.944580645461453"><ele>246.75</ele><time>2026-03-30T11:31:35Z</time></trkpt><trkpt lat="45.64031609351449" lon="8.94474789563332"><ele>246.0</ele><time>2026-03-30T11:31:36Z</time></trkpt><trkpt lat="45.64032177761554" lon="8.94492155548151"><ele>245.75</ele><time>2026-03-30T11:31:37Z</time></trkpt><trkpt lat="45.64032217431546" lon="8.945083239302114"><ele>245.5</ele><time>2026-03-30T11:31:38Z</time></trkpt><trkpt lat="45.64031964112593" lon="8.945260886736312"><ele>245.25</ele><time>2026-03-30T11:31:39Z</time></trkpt><trkpt lat="45.640318158385426" lon="8.94543563261164"><ele>245.0</ele><time>2026-03-30T11:31:40Z</time></trkpt><trkpt lat="45.64030711116935" lon="8.945614121326553"><ele>245.0</ele><time>2026-03-30T11:31:41Z</time></trkpt><trkpt lat="45.64030155965274" lon="8.945795093022088"><ele>245.0</ele><time>2026-03-30T11:31:42Z</time></trkpt><trkpt lat="45.64028314506656" lon="8.94597739399914"><ele>245.0</ele><time>2026-03-30T11:31:43Z</time></trkpt><trkpt lat="45.64026759535336" lon="8.94615432484029"><ele>245.0</ele><time>2026-03-30T11:31:44Z</time></trkpt><trkpt lat="45.64025927548546" lon="8.946337409527702"><ele>244.0</ele><time>2026-03-30T11:31:45Z</time></trkpt><trkpt lat="45.64025324579031" lon="8.946522414520173"><ele>243.0</ele><time>2026-03-30T11:31:46Z</time></trkpt><trkpt lat="45.64024324126006" lon="8.946704973587023"><ele>242.0</ele><time>2026-03-30T11:31:47Z</time></trkpt><trkpt lat="45.64023083925762" lon="8.946890828771313"><ele>241.0</ele><time>2026-03-30T11:31:48Z</time></trkpt><trkpt lat="45.640220266802174" lon="8.947074446793547"><ele>240.75</ele><time>2026-03-30T11:31:49Z</time></trkpt><trkpt lat="45.64020859142605" lon="8.947248332812565"><ele>240.5</ele><time>2026-03-30T11:31:50Z</time></trkpt><trkpt lat="45.64019805453188" lon="8.947429662951691"><ele>240.25</ele><time>2026-03-30T11:31:51Z</time></trkpt><trkpt lat="45.64018569006143" lon="8.947592961376147"><ele>240.0</ele><time>2026-03-30T11:31:51.999Z</time></trkpt><trkpt lat="45.64018050219133" lon="8.947766522869172"><ele>240.0</ele><time>2026-03-30T11:31:52.999Z</time></trkpt><trkpt lat="45.64018392518111" lon="8.947945220286071"><ele>240.0</ele><time>2026-03-30T11:31:53.999Z</time></trkpt><trkpt lat="45.64018511098759" lon="8.948117120161536"><ele>240.0</ele><time>2026-03-30T11:31:54.999Z</time></trkpt><trkpt lat="45.64018004407681" lon="8.948275059068287"><ele>240.0</ele><time>2026-03-30T11:31:55.999Z</time></trkpt><trkpt lat="45.64017199426406" lon="8.948420642863821"><ele>240.0</ele><time>2026-03-30T11:31:56.999Z</time></trkpt><trkpt lat="45.64016013364197" lon="8.948558460887142"><ele>240.0</ele><time>2026-03-30T11:31:57.999Z</time></trkpt><trkpt lat="45.64014767858465" lon="8.948712549912495"><ele>240.0</ele><time>2026-03-30T11:31:58.999Z</time></trkpt><trkpt lat="45.64013141576691" lon="8.948868798911672"><ele>240.0</ele><time>2026-03-30T11:31:59.999Z</time></trkpt><trkpt lat="45.640113640423785" lon="8.949019871311728"><ele>240.0</ele><time>2026-03-30T11:32:00.999Z</time></trkpt><trkpt lat="45.640098559769704" lon="8.949170220685042"><ele>239.8</ele><time>2026-03-30T11:32:01.999Z</time></trkpt><trkpt lat="45.64008520831406" lon="8.949309270231566"><ele>239.6</ele><time>2026-03-30T11:32:02.999Z</time></trkpt><trkpt lat="45.640083132943495" lon="8.949440624273565"><ele>239.39999999999998</ele><time>2026-03-30T11:32:03.999Z</time></trkpt><trkpt lat="45.64007525552" lon="8.949595464555653"><ele>239.2</ele><time>2026-03-30T11:32:04.999Z</time></trkpt><trkpt lat="45.640086107477565" lon="8.949727938513012"><ele>239.0</ele><time>2026-03-30T11:32:05.999Z</time></trkpt><trkpt lat="45.64008885195266" lon="8.949859708053436"><ele>239.0</ele><time>2026-03-30T11:32:06.999Z</time></trkpt><trkpt lat="45.64008770500921" lon="8.950021293621797"><ele>238.99999999999997</ele><time>2026-03-30T11:32:07.999Z</time></trkpt><trkpt lat="45.640087753540875" lon="8.95014753905078"><ele>238.99999999999997</ele><time>2026-03-30T11:32:08.999Z</time></trkpt><trkpt lat="45.640110443051604" lon="8.95026440192928"><ele>239.0</ele><time>2026-03-30T11:32:09.999Z</time></trkpt><trkpt lat="45.64011546693881" lon="8.95037305483475"><ele>239.0</ele><time>2026-03-30T11:32:10.999Z</time></trkpt><trkpt lat="45.640097967633764" lon="8.950496644656168"><ele>239.00000000000003</ele><time>2026-03-30T11:32:11.999Z</time></trkpt><trkpt lat="45.640087241017135" lon="8.950630524907446"><ele>239.0</ele><time>2026-03-30T11:32:12.999Z</time></trkpt><trkpt lat="45.6400924040843" lon="8.9507525347258"><ele>239.0</ele><time>2026-03-30T11:32:13.999Z</time></trkpt><trkpt lat="45.64008485786574" lon="8.950860952691011"><ele>239.0</ele><time>2026-03-30T11:32:14.999Z</time></trkpt><trkpt lat="45.64008263293808" lon="8.95097322065141"><ele>239.00000000000003</ele><time>2026-03-30T11:32:15.999Z</time></trkpt><trkpt lat="45.64007223023661" lon="8.95109084774255"><ele>239.0</ele><time>2026-03-30T11:32:16.999Z</time></trkpt><trkpt lat="45.64007966663357" lon="8.951182359259963"><ele>239.00000000000003</ele><time>2026-03-30T11:32:17.999Z</time></trkpt><trkpt lat="45.64006496346175" lon="8.95127611602128"><ele>239.0</ele><time>2026-03-30T11:32:18.999Z</time></trkpt><trkpt lat="45.64003939372994" lon="8.95140763298558"><ele>239.0</ele><time>2026-03-30T11:32:19.999Z</time></trkpt><trkpt lat="45.64002863488515" lon="8.951557033419244"><ele>239.0</ele><time>2026-03-30T11:32:20.999Z</time></trkpt><trkpt lat="45.64003898229016" lon="8.95170424087156"><ele>239.00000000000003</ele><time>2026-03-30T11:32:21.999Z</time></trkpt><trkpt lat="45.6400457844066" lon="8.951813049022801"><ele>239.0</ele><time>2026-03-30T11:32:22.999Z</time></trkpt><trkpt lat="45.64005177034361" lon="8.951914717642351"><ele>239.0</ele><time>2026-03-30T11:32:23.999Z</time></trkpt><trkpt lat="45.64003455753916" lon="8.952010002742737"><ele>238.99999999999997</ele><time>2026-03-30T11:32:24.999Z</time></trkpt><trkpt lat="45.640023798511685" lon="8.9521662487151"><ele>238.99999999999997</ele><time>2026-03-30T11:32:25.999Z</time></trkpt><trkpt lat="45.64001748321996" lon="8.952304569509131"><ele>239.0</ele><time>2026-03-30T11:32:26.999Z</time></trkpt><trkpt lat="45.64000282617791" lon="8.95246474484826"><ele>239.0</ele><time>2026-03-30T11:32:27.999Z</time></trkpt><trkpt lat="45.63999514635442" lon="8.952638077109231"><ele>239.0</ele><time>2026-03-30T11:32:28.999Z</time></trkpt><trkpt lat="45.63999899879216" lon="8.95280815294464"><ele>238.99999999999997</ele><time>2026-03-30T11:32:29.999Z</time></trkpt><trkpt lat="45.640012101050566" lon="8.952946444888285"><ele>238.99999999999997</ele><time>2026-03-30T11:32:30.999Z</time></trkpt><trkpt lat="45.64001038384398" lon="8.953100962375753"><ele>239.0</ele><time>2026-03-30T11:32:31.999Z</time></trkpt><trkpt lat="45.64002589230475" lon="8.953234429783961"><ele>239.0</ele><time>2026-03-30T11:32:32.999Z</time></trkpt><trkpt lat="45.640022663390475" lon="8.95334242265443"><ele>239.2</ele><time>2026-03-30T11:32:33.999Z</time></trkpt><trkpt lat="45.64000087808833" lon="8.953449361693496"><ele>239.39999999999998</ele><time>2026-03-30T11:32:34.999Z</time></trkpt><trkpt lat="45.639975786253586" lon="8.95357500795526"><ele>239.6</ele><time>2026-03-30T11:32:35.999Z</time></trkpt><trkpt lat="45.639977167074676" lon="8.953712738459584"><ele>239.8</ele><time>2026-03-30T11:32:36.999Z</time></trkpt><trkpt lat="45.63997552800754" lon="8.953855111703687"><ele>240.0</ele><time>2026-03-30T11:32:37.999Z</time></trkpt><trkpt lat="45.63997650606015" lon="8.953991993468557"><ele>240.0</ele><time>2026-03-30T11:32:38.999Z</time></trkpt><trkpt lat="45.63997166919394" lon="8.954090675566961"><ele>240.0</ele><time>2026-03-30T11:32:39.999Z</time></trkpt><trkpt lat="45.63996529935356" lon="8.954208856207941"><ele>240.0</ele><time>2026-03-30T11:32:41.999Z</time></trkpt><trkpt lat="45.6400000307327" lon="8.954350561038943"><ele>240.0</ele><time>2026-03-30T11:32:44.999Z</time></trkpt><trkpt lat="45.63995806851978" lon="8.954552980393204"><ele>240.0</ele><time>2026-03-30T11:32:46.999Z</time></trkpt><trkpt lat="45.639947503986726" lon="8.954728902721772"><ele>239.83333333333334</ele><time>2026-03-30T11:32:47.999Z</time></trkpt><trkpt lat="45.63993914622383" lon="8.954835209034382"><ele>239.66666666666669</ele><time>2026-03-30T11:32:48.999Z</time></trkpt><trkpt lat="45.64001680565591" lon="8.954909490554883"><ele>239.5</ele><time>2026-03-30T11:32:50.999Z</time></trkpt><trkpt lat="45.64004620982533" lon="8.955042529285393"><ele>239.33333333333334</ele><time>2026-03-30T11:32:52.999Z</time></trkpt><trkpt lat="45.64005381175918" lon="8.955133230635406"><ele>239.16666666666669</ele><time>2026-03-30T11:32:54.999Z</time></trkpt><trkpt lat="45.64000245729411" lon="8.95522309413193"><ele>239.0</ele><time>2026-03-30T11:32:56.999Z</time></trkpt><trkpt lat="45.639961699414584" lon="8.955305992265918"><ele>238.79999999999998</ele><time>2026-03-30T11:32:58.999Z</time></trkpt><trkpt lat="45.639965173150394" lon="8.955413429241812"><ele>238.59999999999997</ele><time>2026-03-30T11:32:59.999Z</time></trkpt><trkpt lat="45.63995473695797" lon="8.955582743733444"><ele>238.4</ele><time>2026-03-30T11:33:02Z</time></trkpt><trkpt lat="45.63994241623841" lon="8.955725792268478"><ele>238.2</ele><time>2026-03-30T11:33:04Z</time></trkpt><trkpt lat="45.63993373400601" lon="8.955916837813026"><ele>238.0</ele><time>2026-03-30T11:33:06Z</time></trkpt><trkpt lat="45.63992837786569" lon="8.956022178385052"><ele>237.99999999999997</ele><time>2026-03-30T11:33:07Z</time></trkpt><trkpt lat="45.639953611522955" lon="8.956125486850311"><ele>238.0</ele><time>2026-03-30T11:33:08Z</time></trkpt><trkpt lat="45.639929094377" lon="8.956240731893732"><ele>238.0</ele><time>2026-03-30T11:33:09Z</time></trkpt><trkpt lat="45.639903616510736" lon="8.956369558590051"><ele>238.0</ele><time>2026-03-30T11:33:10Z</time></trkpt><trkpt lat="45.6398929879358" lon="8.95648253838581"><ele>237.99999999999997</ele><time>2026-03-30T11:33:11Z</time></trkpt><trkpt lat="45.639897730975015" lon="8.956602189098318"><ele>238.0</ele><time>2026-03-30T11:33:12Z</time></trkpt><trkpt lat="45.63987690203547" lon="8.9567421273521"><ele>238.2</ele><time>2026-03-30T11:33:13Z</time></trkpt><trkpt lat="45.63985767545027" lon="8.956882057974932"><ele>238.4</ele><time>2026-03-30T11:33:14Z</time></trkpt><trkpt lat="45.63981236267485" lon="8.95702231048037"><ele>238.59999999999997</ele><time>2026-03-30T11:33:15Z</time></trkpt><trkpt lat="45.6397833010994" lon="8.957165672390934"><ele>238.79999999999998</ele><time>2026-03-30T11:33:16Z</time></trkpt><trkpt lat="45.639746435207606" lon="8.957310521237346"><ele>239.0</ele><time>2026-03-30T11:33:17Z</time></trkpt><trkpt lat="45.63970970947652" lon="8.957459274510816"><ele>238.6</ele><time>2026-03-30T11:33:18Z</time></trkpt><trkpt lat="45.63968034130589" lon="8.957613383972365"><ele>238.2</ele><time>2026-03-30T11:33:19Z</time></trkpt><trkpt lat="45.63964974508156" lon="8.957768287216629"><ele>237.79999999999998</ele><time>2026-03-30T11:33:20Z</time></trkpt><trkpt lat="45.63961540862195" lon="8.957894257321332"><ele>237.39999999999998</ele><time>2026-03-30T11:33:21Z</time></trkpt><trkpt lat="45.639583466309574" lon="8.958005083146631"><ele>237.0</ele><time>2026-03-30T11:33:22Z</time></trkpt><trkpt lat="45.63956501925317" lon="8.95813292302085"><ele>237.0</ele><time>2026-03-30T11:33:23Z</time></trkpt><trkpt lat="45.6395576456106" lon="8.958261263914636"><ele>237.0</ele><time>2026-03-30T11:33:24Z</time></trkpt><trkpt lat="45.63953059469795" lon="8.958381116746953"><ele>237.0</ele><time>2026-03-30T11:33:25Z</time></trkpt><trkpt lat="45.63949818843478" lon="8.958500268243991"><ele>237.0</ele><time>2026-03-30T11:33:26Z</time></trkpt><trkpt lat="45.63946059482087" lon="8.95862501469318"><ele>237.0</ele><time>2026-03-30T11:33:27Z</time></trkpt><trkpt lat="45.6394264365182" lon="8.958779241002029"><ele>237.6</ele><time>2026-03-30T11:33:28Z</time></trkpt><trkpt lat="45.639392859135405" lon="8.9589108188515"><ele>238.2</ele><time>2026-03-30T11:33:29Z</time></trkpt><trkpt lat="45.63937372242942" lon="8.95904705881382"><ele>238.8</ele><time>2026-03-30T11:33:30Z</time></trkpt><trkpt lat="45.639352270534886" lon="8.959179113044"><ele>239.4</ele><time>2026-03-30T11:33:31Z</time></trkpt><trkpt lat="45.639319287002785" lon="8.959323423955205"><ele>240.0</ele><time>2026-03-30T11:33:32Z</time></trkpt><trkpt lat="45.639291230522105" lon="8.959461211910268"><ele>240.0</ele><time>2026-03-30T11:33:33Z</time></trkpt><trkpt lat="45.639266466333105" lon="8.959579655581019"><ele>240.0</ele><time>2026-03-30T11:33:34Z</time></trkpt><trkpt lat="45.63923344087332" lon="8.959706667206943"><ele>240.0</ele><time>2026-03-30T11:33:35Z</time></trkpt><trkpt lat="45.639210673841426" lon="8.959816030630593"><ele>240.0</ele><time>2026-03-30T11:33:36Z</time></trkpt><trkpt lat="45.63919359592451" lon="8.9599151687541"><ele>240.0</ele><time>2026-03-30T11:33:37Z</time></trkpt><trkpt lat="45.639179180930256" lon="8.960014196127961"><ele>240.0</ele><time>2026-03-30T11:33:38Z</time></trkpt><trkpt lat="45.63918286704407" lon="8.960118822413726"><ele>239.8</ele><time>2026-03-30T11:33:39Z</time></trkpt><trkpt lat="45.63919813905751" lon="8.96027973256365"><ele>239.6</ele><time>2026-03-30T11:33:41Z</time></trkpt><trkpt lat="45.63920265340124" lon="8.96038962503317"><ele>239.39999999999998</ele><time>2026-03-30T11:33:43Z</time></trkpt><trkpt lat="45.63915077615629" lon="8.96048715913433"><ele>239.2</ele><time>2026-03-30T11:33:45Z</time></trkpt><trkpt lat="45.6391299200468" lon="8.960607929349269"><ele>239.0</ele><time>2026-03-30T11:33:47Z</time></trkpt><trkpt lat="45.6391313967603" lon="8.960741299369332"><ele>239.00000000000003</ele><time>2026-03-30T11:33:49Z</time></trkpt><trkpt lat="45.639070432786085" lon="8.960810983126793"><ele>239.0</ele><time>2026-03-30T11:33:51Z</time></trkpt><trkpt lat="45.639006858577204" lon="8.960830641354706"><ele>239.0</ele><time>2026-03-30T11:33:52Z</time></trkpt><trkpt lat="45.6389274158029" lon="8.960897010871626"><ele>239.0</ele><time>2026-03-30T11:33:54Z</time></trkpt><trkpt lat="45.6388269262024" lon="8.960908018282716"><ele>239.00000000000003</ele><time>2026-03-30T11:33:55.999Z</time></trkpt><trkpt lat="45.638749610362105" lon="8.960903072550186"><ele>239.0</ele><time>2026-03-30T11:33:58.999Z</time></trkpt><trkpt lat="45.63864998034023" lon="8.960985508458682"><ele>239.50000000000003</ele><time>2026-03-30T11:34:01.999Z</time></trkpt><trkpt lat="45.63859737635014" lon="8.961046042309185"><ele>240.0</ele><time>2026-03-30T11:34:02.999Z</time></trkpt><trkpt lat="45.638541180804765" lon="8.961099826139337"><ele>240.5</ele><time>2026-03-30T11:34:03.999Z</time></trkpt><trkpt lat="45.63848324800792" lon="8.961150466717537"><ele>241.0</ele><time>2026-03-30T11:34:04.999Z</time></trkpt><trkpt lat="45.63837612257433" lon="8.961200371544551"><ele>241.50000000000003</ele><time>2026-03-30T11:34:06.999Z</time></trkpt><trkpt lat="45.63830523968287" lon="8.961195053666511"><ele>242.0</ele><time>2026-03-30T11:34:07.999Z</time></trkpt><trkpt lat="45.6382409182321" lon="8.961190055128688"><ele>242.0</ele><time>2026-03-30T11:34:08.999Z</time></trkpt><trkpt lat="45.638134994194864" lon="8.961188857333468"><ele>242.0</ele><time>2026-03-30T11:34:10.999Z</time></trkpt><trkpt lat="45.63802163359717" lon="8.961165977483407"><ele>242.0</ele><time>2026-03-30T11:34:12.999Z</time></trkpt><trkpt lat="45.637894484414424" lon="8.96111674739128"><ele>242.0</ele><time>2026-03-30T11:34:14.999Z</time></trkpt><trkpt lat="45.63779642086518" lon="8.96109741598056"><ele>241.50000000000003</ele><time>2026-03-30T11:34:16.999Z</time></trkpt><trkpt lat="45.63772304340761" lon="8.96101079909787"><ele>241.0</ele><time>2026-03-30T11:34:18.999Z</time></trkpt><trkpt lat="45.637652776714575" lon="8.960999403137716"><ele>240.5</ele><time>2026-03-30T11:34:19.999Z</time></trkpt><trkpt lat="45.63758306237192" lon="8.961010528002568"><ele>240.0</ele><time>2026-03-30T11:34:20.999Z</time></trkpt><trkpt lat="45.63749108822887" lon="8.961036044828948"><ele>239.50000000000003</ele><time>2026-03-30T11:34:22.999Z</time></trkpt><trkpt lat="45.63739642470991" lon="8.961030856911526"><ele>239.0</ele><time>2026-03-30T11:34:24.999Z</time></trkpt><trkpt lat="45.637338567498716" lon="8.961066800528796"><ele>239.00000000000003</ele><time>2026-03-30T11:34:25.999Z</time></trkpt><trkpt lat="45.6372261015156" lon="8.961139238325314"><ele>239.0</ele><time>2026-03-30T11:34:27.999Z</time></trkpt><trkpt lat="45.637172422535514" lon="8.961189800741167"><ele>239.0</ele><time>2026-03-30T11:34:28.999Z</time></trkpt><trkpt lat="45.63711590942369" lon="8.961239564936136"><ele>239.0</ele><time>2026-03-30T11:34:29.999Z</time></trkpt><trkpt lat="45.63704408312929" lon="8.961333272257686"><ele>239.00000000000003</ele><time>2026-03-30T11:34:31.999Z</time></trkpt><trkpt lat="45.637018767749126" lon="8.96142204744646"><ele>239.0</ele><time>2026-03-30T11:34:33.999Z</time></trkpt><trkpt lat="45.63699755367998" lon="8.961510097870635"><ele>238.79999999999998</ele><time>2026-03-30T11:34:35.999Z</time></trkpt><trkpt lat="45.63693818691075" lon="8.961668742032588"><ele>238.59999999999997</ele><time>2026-03-30T11:34:37.999Z</time></trkpt><trkpt lat="45.63691215690242" lon="8.9617715305191"><ele>238.4</ele><time>2026-03-30T11:34:39.999Z</time></trkpt><trkpt lat="45.636906889715725" lon="8.961914515744063"><ele>238.2</ele><time>2026-03-30T11:34:41.999Z</time></trkpt><trkpt lat="45.63684818887177" lon="8.962026285297577"><ele>238.0</ele><time>2026-03-30T11:34:43.999Z</time></trkpt><trkpt lat="45.63677998528858" lon="8.962156999999527"><ele>238.0</ele><time>2026-03-30T11:34:45.999Z</time></trkpt><trkpt lat="45.6367034031528" lon="8.962258525579175"><ele>238.0</ele><time>2026-03-30T11:34:47.999Z</time></trkpt><trkpt lat="45.6366024419598" lon="8.962242527196032"><ele>238.0</ele><time>2026-03-30T11:34:49.999Z</time></trkpt><trkpt lat="45.63653531552098" lon="8.96212049684668"><ele>238.0</ele><time>2026-03-30T11:34:51.999Z</time></trkpt><trkpt lat="45.6365078935119" lon="8.961994356977295"><ele>238.0</ele><time>2026-03-30T11:34:53.999Z</time></trkpt><trkpt lat="45.63637410163752" lon="8.962020143981668"><ele>238.0</ele><time>2026-03-30T11:34:56.999Z</time></trkpt><trkpt lat="45.6362887956595" lon="8.962022540704158"><ele>238.0</ele><time>2026-03-30T11:34:58.999Z</time></trkpt><trkpt lat="45.63623837283777" lon="8.961966066079619"><ele>238.0</ele><time>2026-03-30T11:35:01.999Z</time></trkpt><trkpt lat="45.63626608464483" lon="8.9618427295806"><ele>238.0</ele><time>2026-03-30T11:35:04.999Z</time></trkpt><trkpt lat="45.636229394218056" lon="8.961692390750676"><ele>238.0</ele><time>2026-03-30T11:35:08Z</time></trkpt><trkpt lat="45.63612076600092" lon="8.96165094946247"><ele>237.8</ele><time>2026-03-30T11:35:10Z</time></trkpt><trkpt lat="45.636014500817446" lon="8.961664135923723"><ele>237.60000000000002</ele><time>2026-03-30T11:35:12Z</time></trkpt><trkpt lat="45.63593298886625" lon="8.961676038168923"><ele>237.39999999999998</ele><time>2026-03-30T11:35:14Z</time></trkpt><trkpt lat="45.63586490005967" lon="8.961792519079749"><ele>237.2</ele><time>2026-03-30T11:35:16Z</time></trkpt><trkpt lat="45.635821699636544" lon="8.961900815634216"><ele>237.0</ele><time>2026-03-30T11:35:18Z</time></trkpt><trkpt lat="45.63578208844433" lon="8.961988399392814"><ele>237.0</ele><time>2026-03-30T11:35:20Z</time></trkpt><trkpt lat="45.635711013922226" lon="8.96207971968353"><ele>237.0</ele><time>2026-03-30T11:35:22Z</time></trkpt><trkpt lat="45.63568410818539" lon="8.96220100989241"><ele>237.0</ele><time>2026-03-30T11:35:24Z</time></trkpt><trkpt lat="45.63559662524084" lon="8.962349171040144"><ele>237.0</ele><time>2026-03-30T11:35:26Z</time></trkpt><trkpt lat="45.635524490813516" lon="8.962465004204358"><ele>237.0</ele><time>2026-03-30T11:35:28Z</time></trkpt><trkpt lat="45.6354763895935" lon="8.962533668950742"><ele>237.39999999999998</ele><time>2026-03-30T11:35:30Z</time></trkpt><trkpt lat="45.635448549005844" lon="8.962664985214111"><ele>237.79999999999998</ele><time>2026-03-30T11:35:32Z</time></trkpt><trkpt lat="45.63539315719406" lon="8.962794950912015"><ele>238.2</ele><time>2026-03-30T11:35:34Z</time></trkpt><trkpt lat="45.63531125862635" lon="8.962871334333656"><ele>238.6</ele><time>2026-03-30T11:35:36Z</time></trkpt><trkpt lat="45.635211887726236" lon="8.962975111889243"><ele>239.0</ele><time>2026-03-30T11:35:38Z</time></trkpt><trkpt lat="45.635126354874124" lon="8.9629998211836"><ele>239.00000000000003</ele><time>2026-03-30T11:35:40Z</time></trkpt><trkpt lat="45.63505388411332" lon="8.962996276093863"><ele>239.0</ele><time>2026-03-30T11:35:42Z</time></trkpt><trkpt lat="45.63498625511046" lon="8.962976343225417"><ele>239.0</ele><time>2026-03-30T11:35:44Z</time></trkpt><trkpt lat="45.63493777224951" lon="8.962889037468395"><ele>239.0</ele><time>2026-03-30T11:35:47Z</time></trkpt><trkpt lat="45.63486528775021" lon="8.962827736803376"><ele>239.00000000000003</ele><time>2026-03-30T11:35:49Z</time></trkpt><trkpt lat="45.63479216301861" lon="8.962785298694897"><ele>239.0</ele><time>2026-03-30T11:35:51Z</time></trkpt><trkpt lat="45.63472410638953" lon="8.962729102845774"><ele>239.0</ele><time>2026-03-30T11:35:53Z</time></trkpt><trkpt lat="45.634644045126734" lon="8.96269254224569"><ele>238.99999999999997</ele><time>2026-03-30T11:35:56Z</time></trkpt><trkpt lat="45.63457387308548" lon="8.962705923160717"><ele>238.99999999999997</ele><time>2026-03-30T11:35:58Z</time></trkpt><trkpt lat="45.634484211936986" lon="8.962752530699015"><ele>239.0</ele><time>2026-03-30T11:36:00Z</time></trkpt><trkpt lat="45.634391763862716" lon="8.962830415764717"><ele>239.0</ele><time>2026-03-30T11:36:02Z</time></trkpt><trkpt lat="45.634318453376096" lon="8.962931570397727"><ele>239.0</ele><time>2026-03-30T11:36:04Z</time></trkpt><trkpt lat="45.63424297105314" lon="8.963044043118487"><ele>238.99999999999997</ele><time>2026-03-30T11:36:07.999Z</time></trkpt><trkpt lat="45.63414131966482" lon="8.9631631399856"><ele>238.99999999999997</ele><time>2026-03-30T11:36:10.999Z</time></trkpt><trkpt lat="45.63405017411654" lon="8.963214229358876"><ele>239.0</ele><time>2026-03-30T11:36:11.999Z</time></trkpt><trkpt lat="45.633956597920296" lon="8.96326613474318"><ele>239.0</ele><time>2026-03-30T11:36:13.999Z</time></trkpt><trkpt lat="45.633850352475044" lon="8.963307137481065"><ele>239.00000000000003</ele><time>2026-03-30T11:36:15.999Z</time></trkpt><trkpt lat="45.633754805253574" lon="8.963350746194305"><ele>239.0</ele><time>2026-03-30T11:36:17.999Z</time></trkpt><trkpt lat="45.63369841715369" lon="8.963434601273448"><ele>239.0</ele><time>2026-03-30T11:36:19.999Z</time></trkpt><trkpt lat="45.63362027898394" lon="8.963522809029246"><ele>239.0</ele><time>2026-03-30T11:36:21.999Z</time></trkpt><trkpt lat="45.633555767063235" lon="8.963544224200122"><ele>239.00000000000003</ele><time>2026-03-30T11:36:23.999Z</time></trkpt><trkpt lat="45.633473334040104" lon="8.963570492393233"><ele>239.0</ele><time>2026-03-30T11:36:25.999Z</time></trkpt><trkpt lat="45.63338437189357" lon="8.963539919276412"><ele>238.50000000000003</ele><time>2026-03-30T11:36:27.999Z</time></trkpt><trkpt lat="45.63331631754685" lon="8.96361209151261"><ele>238.0</ele><time>2026-03-30T11:36:29.999Z</time></trkpt><trkpt lat="45.633241383518445" lon="8.963654474610257"><ele>237.5</ele><time>2026-03-30T11:36:31.999Z</time></trkpt><trkpt lat="45.633167871658046" lon="8.963705820324137"><ele>237.0</ele><time>2026-03-30T11:36:33.999Z</time></trkpt><trkpt lat="45.633082878596625" lon="8.96371889277572"><ele>236.50000000000003</ele><time>2026-03-30T11:36:35.999Z</time></trkpt><trkpt lat="45.63301773390514" lon="8.963683268147648"><ele>236.0</ele><time>2026-03-30T11:36:38.999Z</time></trkpt><trkpt lat="45.63292179488678" lon="8.963608804309471"><ele>236.0</ele><time>2026-03-30T11:36:40.999Z</time></trkpt><trkpt lat="45.63283144746845" lon="8.963557869203969"><ele>236.0</ele><time>2026-03-30T11:36:42.999Z</time></trkpt><trkpt lat="45.63275310214579" lon="8.963497011119024"><ele>236.0</ele><time>2026-03-30T11:36:44.999Z</time></trkpt><trkpt lat="45.63268139220664" lon="8.963368250808804"><ele>236.0</ele><time>2026-03-30T11:36:46.999Z</time></trkpt><trkpt lat="45.632578462491956" lon="8.963084929561415"><ele>236.00000000000003</ele><time>2026-03-30T11:36:49.999Z</time></trkpt><trkpt lat="45.63253057337381" lon="8.962985245389863"><ele>236.0</ele><time>2026-03-30T11:36:50.999Z</time></trkpt><trkpt lat="45.63248388675521" lon="8.962923247059681"><ele>236.0</ele><time>2026-03-30T11:36:51.999Z</time></trkpt><trkpt lat="45.63245473012381" lon="8.962827888738092"><ele>236.0</ele><time>2026-03-30T11:36:52.999Z</time></trkpt><trkpt lat="45.63240548256434" lon="8.96274545237966"><ele>236.00000000000003</ele><time>2026-03-30T11:36:53.999Z</time></trkpt><trkpt lat="45.632331243270784" lon="8.962687747281175"><ele>236.0</ele><time>2026-03-30T11:36:54.999Z</time></trkpt><trkpt lat="45.632266675186145" lon="8.96262322434091"><ele>236.0</ele><time>2026-03-30T11:36:55.999Z</time></trkpt><trkpt lat="45.632144500588886" lon="8.962641460855496"><ele>236.00000000000003</ele><time>2026-03-30T11:36:56.999Z</time></trkpt><trkpt lat="45.63204247853543" lon="8.962684635621375"><ele>236.00000000000003</ele><time>2026-03-30T11:36:57.999Z</time></trkpt><trkpt lat="45.63195773749494" lon="8.962723818996803"><ele>236.0</ele><time>2026-03-30T11:36:58.999Z</time></trkpt><trkpt lat="45.63187049460986" lon="8.962800864744205"><ele>236.0</ele><time>2026-03-30T11:36:59.999Z</time></trkpt><trkpt lat="45.63176551559343" lon="8.96291752980168"><ele>236.60000000000002</ele><time>2026-03-30T11:37:00.999Z</time></trkpt><trkpt lat="45.63169612165453" lon="8.962991506104162"><ele>237.20000000000002</ele><time>2026-03-30T11:37:01.999Z</time></trkpt><trkpt lat="45.63162172949499" lon="8.96306554910851"><ele>237.79999999999998</ele><time>2026-03-30T11:37:02.999Z</time></trkpt><trkpt lat="45.63153981228954" lon="8.963152132215578"><ele>238.39999999999998</ele><time>2026-03-30T11:37:03.999Z</time></trkpt><trkpt lat="45.631436547479616" lon="8.963247423018075"><ele>239.0</ele><time>2026-03-30T11:37:04.999Z</time></trkpt><trkpt lat="45.63132765488352" lon="8.963330754076301"><ele>238.39999999999998</ele><time>2026-03-30T11:37:05.999Z</time></trkpt><trkpt lat="45.63122333479577" lon="8.963439575313442"><ele>237.79999999999998</ele><time>2026-03-30T11:37:06.999Z</time></trkpt><trkpt lat="45.631141834083465" lon="8.963525100450141"><ele>237.20000000000002</ele><time>2026-03-30T11:37:07.999Z</time></trkpt><trkpt lat="45.63105139350841" lon="8.963610058380906"><ele>236.60000000000002</ele><time>2026-03-30T11:37:08.999Z</time></trkpt><trkpt lat="45.630950707145196" lon="8.963673996323333"><ele>236.0</ele><time>2026-03-30T11:37:09.999Z</time></trkpt><trkpt lat="45.63090667789272" lon="8.96376457704654"><ele>235.0</ele><time>2026-03-30T11:37:10.999Z</time></trkpt><trkpt lat="45.63081723685201" lon="8.963826606799069"><ele>234.00000000000003</ele><time>2026-03-30T11:37:11.999Z</time></trkpt><trkpt lat="45.630761881227166" lon="8.963882669032351"><ele>233.00000000000003</ele><time>2026-03-30T11:37:12.999Z</time></trkpt><trkpt lat="45.63068654661653" lon="8.963936993325657"><ele>232.0</ele><time>2026-03-30T11:37:14Z</time></trkpt><trkpt lat="45.63060275594542" lon="8.964013894468579"><ele>231.0</ele><time>2026-03-30T11:37:15Z</time></trkpt><trkpt lat="45.63050323213582" lon="8.964078803313846"><ele>231.0</ele><time>2026-03-30T11:37:16Z</time></trkpt><trkpt lat="45.63042082740955" lon="8.964163055795039"><ele>231.0</ele><time>2026-03-30T11:37:17Z</time></trkpt><trkpt lat="45.630357529357234" lon="8.964232476443813"><ele>231.0</ele><time>2026-03-30T11:37:18Z</time></trkpt><trkpt lat="45.63029497810576" lon="8.964304792484876"><ele>231.0</ele><time>2026-03-30T11:37:19Z</time></trkpt><trkpt lat="45.6302544421849" lon="8.96440812805614"><ele>231.0</ele><time>2026-03-30T11:37:20Z</time></trkpt><trkpt lat="45.63020689333339" lon="8.964511847712295"><ele>231.0</ele><time>2026-03-30T11:37:21Z</time></trkpt><trkpt lat="45.630169224676955" lon="8.964623599818603"><ele>230.20000000000002</ele><time>2026-03-30T11:37:22Z</time></trkpt><trkpt lat="45.6301022152078" lon="8.964706804435748"><ele>229.40000000000003</ele><time>2026-03-30T11:37:23Z</time></trkpt><trkpt lat="45.630066940812085" lon="8.964812856304953"><ele>228.6</ele><time>2026-03-30T11:37:24Z</time></trkpt><trkpt lat="45.629976645507114" lon="8.96493204696508"><ele>227.8</ele><time>2026-03-30T11:37:26Z</time></trkpt><trkpt lat="45.629897802053094" lon="8.964925919483706"><ele>227.0</ele><time>2026-03-30T11:37:28Z</time></trkpt><trkpt lat="45.62984238093361" lon="8.96477531683833"><ele>227.0</ele><time>2026-03-30T11:37:30Z</time></trkpt><trkpt lat="45.62979236184779" lon="8.964676166973096"><ele>227.0</ele><time>2026-03-30T11:37:31Z</time></trkpt><trkpt lat="45.62972310496711" lon="8.964566451727054"><ele>227.0</ele><time>2026-03-30T11:37:32Z</time></trkpt><trkpt lat="45.62965168904245" lon="8.96444084109018"><ele>227.0</ele><time>2026-03-30T11:37:33Z</time></trkpt><trkpt lat="45.62958112355218" lon="8.964309599241417"><ele>227.0</ele><time>2026-03-30T11:37:34Z</time></trkpt><trkpt lat="45.62954159372302" lon="8.964197017683276"><ele>227.0</ele><time>2026-03-30T11:37:35Z</time></trkpt><trkpt lat="45.629491262193376" lon="8.964078362832074"><ele>227.0</ele><time>2026-03-30T11:37:36Z</time></trkpt><trkpt lat="45.62940235031695" lon="8.963964712002353"><ele>227.0</ele><time>2026-03-30T11:37:37Z</time></trkpt><trkpt lat="45.62933466722954" lon="8.963845908047203"><ele>227.0</ele><time>2026-03-30T11:37:38Z</time></trkpt><trkpt lat="45.62927049746482" lon="8.963704346923416"><ele>227.0</ele><time>2026-03-30T11:37:39Z</time></trkpt><trkpt lat="45.62919357532982" lon="8.96357167521207"><ele>226.39999999999998</ele><time>2026-03-30T11:37:40Z</time></trkpt><trkpt lat="45.62913225790303" lon="8.96345467626077"><ele>225.79999999999998</ele><time>2026-03-30T11:37:41Z</time></trkpt><trkpt lat="45.62906007904645" lon="8.96333974917676"><ele>225.2</ele><time>2026-03-30T11:37:42Z</time></trkpt><trkpt lat="45.62898305223275" lon="8.9632134298846"><ele>224.6</ele><time>2026-03-30T11:37:43Z</time></trkpt><trkpt lat="45.628932511459" lon="8.963076079718563"><ele>224.0</ele><time>2026-03-30T11:37:44Z</time></trkpt><trkpt lat="45.62886411863081" lon="8.962957044877975"><ele>225.6</ele><time>2026-03-30T11:37:45Z</time></trkpt><trkpt lat="45.628798252392066" lon="8.962827877940649"><ele>227.2</ele><time>2026-03-30T11:37:46Z</time></trkpt><trkpt lat="45.6287293231039" lon="8.962692214678158"><ele>228.79999999999998</ele><time>2026-03-30T11:37:47Z</time></trkpt><trkpt lat="45.62866792122548" lon="8.962569160444048"><ele>230.39999999999998</ele><time>2026-03-30T11:37:48Z</time></trkpt><trkpt lat="45.628600711632146" lon="8.96245175378498"><ele>232.0</ele><time>2026-03-30T11:37:49Z</time></trkpt><trkpt lat="45.62854299267155" lon="8.962340473263627"><ele>231.99999999999997</ele><time>2026-03-30T11:37:50Z</time></trkpt><trkpt lat="45.628489761985215" lon="8.962249098265872"><ele>232.0</ele><time>2026-03-30T11:37:51Z</time></trkpt><trkpt lat="45.6284445025187" lon="8.962169145960935"><ele>232.0</ele><time>2026-03-30T11:37:52Z</time></trkpt><trkpt lat="45.62835917778413" lon="8.962133876247767"><ele>232.0</ele><time>2026-03-30T11:37:55Z</time></trkpt><trkpt lat="45.62829603988188" lon="8.9621829657161"><ele>231.99999999999997</ele><time>2026-03-30T11:37:56Z</time></trkpt><trkpt lat="45.62822675384445" lon="8.962277172592517"><ele>232.0</ele><time>2026-03-30T11:37:57Z</time></trkpt><trkpt lat="45.62815276010789" lon="8.962392388194178"><ele>232.0</ele><time>2026-03-30T11:37:58Z</time></trkpt><trkpt lat="45.628070308389454" lon="8.962488622555263"><ele>232.0</ele><time>2026-03-30T11:37:59Z</time></trkpt><trkpt lat="45.62795244567816" lon="8.962591655369911"><ele>232.0</ele><time>2026-03-30T11:38:00Z</time></trkpt><trkpt lat="45.62785161587543" lon="8.96266728331419"><ele>232.0</ele><time>2026-03-30T11:38:01Z</time></trkpt><trkpt lat="45.62776087986713" lon="8.962729285257295"><ele>231.49999999999997</ele><time>2026-03-30T11:38:02Z</time></trkpt><trkpt lat="45.627701524274045" lon="8.962774919635732"><ele>231.0</ele><time>2026-03-30T11:38:03Z</time></trkpt><trkpt lat="45.6276033170314" lon="8.96281302190859"><ele>230.5</ele><time>2026-03-30T11:38:05Z</time></trkpt><trkpt lat="45.627551900111094" lon="8.962892385946057"><ele>230.0</ele><time>2026-03-30T11:38:06Z</time></trkpt><trkpt lat="45.62748098082762" lon="8.962884742476076"><ele>229.49999999999997</ele><time>2026-03-30T11:38:07Z</time></trkpt><trkpt lat="45.62739468272052" lon="8.962960090701921"><ele>229.0</ele><time>2026-03-30T11:38:08Z</time></trkpt><trkpt lat="45.627266663392845" lon="8.963062315866367"><ele>228.99999999999997</ele><time>2026-03-30T11:38:09Z</time></trkpt><trkpt lat="45.62720152768841" lon="8.963142227459679"><ele>229.0</ele><time>2026-03-30T11:38:10Z</time></trkpt><trkpt lat="45.62713921742615" lon="8.963221315147358"><ele>229.0</ele><time>2026-03-30T11:38:11Z</time></trkpt><trkpt lat="45.62706303633499" lon="8.963278728474027"><ele>229.0</ele><time>2026-03-30T11:38:12.999Z</time></trkpt><trkpt lat="45.627022078507615" lon="8.963381663613223"><ele>228.99999999999997</ele><time>2026-03-30T11:38:14.999Z</time></trkpt><trkpt lat="45.62698470171363" lon="8.96345681288286"><ele>229.0</ele><time>2026-03-30T11:38:33.999Z</time></trkpt><trkpt lat="45.626925098596764" lon="8.963521672471767"><ele>229.0</ele><time>2026-03-30T11:38:37.999Z</time></trkpt><trkpt lat="45.626897058550746" lon="8.963628566079159"><ele>228.99999999999997</ele><time>2026-03-30T11:38:39.999Z</time></trkpt><trkpt lat="45.62683122294422" lon="8.963630556626425"><ele>228.99999999999997</ele><time>2026-03-30T11:38:50.999Z</time></trkpt><trkpt lat="45.6267368112064" lon="8.963505814688407"><ele>229.0</ele><time>2026-03-30T11:38:52.999Z</time></trkpt><trkpt lat="45.62667478312839" lon="8.963398355088486"><ele>229.0</ele><time>2026-03-30T11:38:53.999Z</time></trkpt><trkpt lat="45.626608270906104" lon="8.963272064180213"><ele>228.0</ele><time>2026-03-30T11:38:54.999Z</time></trkpt><trkpt lat="45.6265287668828" lon="8.963145893336542"><ele>227.0</ele><time>2026-03-30T11:38:55.999Z</time></trkpt><trkpt lat="45.626438852304915" lon="8.963010653159369"><ele>226.0</ele><time>2026-03-30T11:38:56.999Z</time></trkpt><trkpt lat="45.62633892876876" lon="8.96286297037065"><ele>225.0</ele><time>2026-03-30T11:38:57.999Z</time></trkpt><trkpt lat="45.62623108898485" lon="8.96271216311926"><ele>224.5</ele><time>2026-03-30T11:38:58.999Z</time></trkpt><trkpt lat="45.6261297869435" lon="8.962572572062845"><ele>224.0</ele><time>2026-03-30T11:38:59.999Z</time></trkpt><trkpt lat="45.62602179136443" lon="8.962430159733428"><ele>223.5</ele><time>2026-03-30T11:39:00.999Z</time></trkpt><trkpt lat="45.625906854776524" lon="8.962282481191563"><ele>223.0</ele><time>2026-03-30T11:39:01.999Z</time></trkpt><trkpt lat="45.625795561556465" lon="8.962127581270657"><ele>223.0</ele><time>2026-03-30T11:39:02.999Z</time></trkpt><trkpt lat="45.62568001780819" lon="8.961969117026495"><ele>223.0</ele><time>2026-03-30T11:39:03.999Z</time></trkpt><trkpt lat="45.62556814850156" lon="8.961817759386104"><ele>223.0</ele><time>2026-03-30T11:39:04.999Z</time></trkpt><trkpt lat="45.625454434329896" lon="8.96166343092669"><ele>223.0</ele><time>2026-03-30T11:39:05.999Z</time></trkpt><trkpt lat="45.625341523329006" lon="8.961509612528758"><ele>223.0</ele><time>2026-03-30T11:39:06.999Z</time></trkpt><trkpt lat="45.625228956421125" lon="8.961355792403493"><ele>223.0</ele><time>2026-03-30T11:39:07.999Z</time></trkpt><trkpt lat="45.625112687932344" lon="8.961202819954105"><ele>223.0</ele><time>2026-03-30T11:39:08.999Z</time></trkpt><trkpt lat="45.62499934048121" lon="8.96105294132498"><ele>223.0</ele><time>2026-03-30T11:39:09.999Z</time></trkpt><trkpt lat="45.62488538460581" lon="8.960894262963158"><ele>223.0</ele><time>2026-03-30T11:39:10.999Z</time></trkpt><trkpt lat="45.62477723546701" lon="8.960752539461884"><ele>222.75</ele><time>2026-03-30T11:39:11.999Z</time></trkpt><trkpt lat="45.62466745243917" lon="8.960625385638672"><ele>222.5</ele><time>2026-03-30T11:39:12.999Z</time></trkpt><trkpt lat="45.62453994123788" lon="8.960520737448793"><ele>222.25</ele><time>2026-03-30T11:39:13.999Z</time></trkpt><trkpt lat="45.62439787944805" lon="8.960447849158916"><ele>222.0</ele><time>2026-03-30T11:39:14.999Z</time></trkpt><trkpt lat="45.62424255559622" lon="8.960414081459149"><ele>222.0</ele><time>2026-03-30T11:39:15.999Z</time></trkpt><trkpt lat="45.62408166926513" lon="8.960414395604593"><ele>222.0</ele><time>2026-03-30T11:39:16.999Z</time></trkpt><trkpt lat="45.62392727652883" lon="8.96043171467429"><ele>222.0</ele><time>2026-03-30T11:39:17.999Z</time></trkpt><trkpt lat="45.62380039117455" lon="8.960469634914556"><ele>222.0</ele><time>2026-03-30T11:39:18.999Z</time></trkpt><trkpt lat="45.62364057346173" lon="8.96049643817323"><ele>222.25</ele><time>2026-03-30T11:39:20Z</time></trkpt><trkpt lat="45.623482991478085" lon="8.96052283039682"><ele>222.5</ele><time>2026-03-30T11:39:21Z</time></trkpt><trkpt lat="45.62333531484656" lon="8.960547659774399"><ele>222.75</ele><time>2026-03-30T11:39:22Z</time></trkpt><trkpt lat="45.623225427288446" lon="8.960565042448833"><ele>223.0</ele><time>2026-03-30T11:39:23Z</time></trkpt><trkpt lat="45.62308215479986" lon="8.960593574582791"><ele>223.0</ele><time>2026-03-30T11:39:24Z</time></trkpt><trkpt lat="45.62293467372614" lon="8.960605192751848"><ele>223.0</ele><time>2026-03-30T11:39:25Z</time></trkpt><trkpt lat="45.62279301765689" lon="8.960601385476357"><ele>223.0</ele><time>2026-03-30T11:39:26Z</time></trkpt><trkpt lat="45.62265577824079" lon="8.960577376750022"><ele>223.0</ele><time>2026-03-30T11:39:27Z</time></trkpt><trkpt lat="45.62252706201624" lon="8.960520073561696"><ele>222.75</ele><time>2026-03-30T11:39:28Z</time></trkpt><trkpt lat="45.62240947719146" lon="8.96045160090493"><ele>222.5</ele><time>2026-03-30T11:39:29Z</time></trkpt><trkpt lat="45.6222916764701" lon="8.960388833335966"><ele>222.25</ele><time>2026-03-30T11:39:30Z</time></trkpt><trkpt lat="45.622186649496236" lon="8.960342811592394"><ele>222.0</ele><time>2026-03-30T11:39:31Z</time></trkpt><trkpt lat="45.62208333159654" lon="8.960307216500302"><ele>222.0</ele><time>2026-03-30T11:39:32Z</time></trkpt><trkpt lat="45.621980514428195" lon="8.960253584957641"><ele>222.0</ele><time>2026-03-30T11:39:33Z</time></trkpt><trkpt lat="45.621902213068736" lon="8.960185276492632"><ele>222.0</ele><time>2026-03-30T11:39:34Z</time></trkpt><trkpt lat="45.62182760922517" lon="8.96014463209672"><ele>222.0</ele><time>2026-03-30T11:39:35Z</time></trkpt><trkpt lat="45.62174581691776" lon="8.96014619186029"><ele>222.0</ele><time>2026-03-30T11:39:36Z</time></trkpt><trkpt lat="45.62167617997791" lon="8.960196778303422"><ele>222.0</ele><time>2026-03-30T11:39:37Z</time></trkpt><trkpt lat="45.62163444964517" lon="8.960288510254825"><ele>222.0</ele><time>2026-03-30T11:39:38Z</time></trkpt><trkpt lat="45.621612901720724" lon="8.960406290434719"><ele>222.0</ele><time>2026-03-30T11:39:39Z</time></trkpt><trkpt lat="45.62162215969017" lon="8.96055334173268"><ele>222.0</ele><time>2026-03-30T11:39:40Z</time></trkpt><trkpt lat="45.6215693421654" lon="8.960717812508118"><ele>222.0</ele><time>2026-03-30T11:39:41Z</time></trkpt><trkpt lat="45.62149105595179" lon="8.96084579082806"><ele>222.0</ele><time>2026-03-30T11:39:42Z</time></trkpt><trkpt lat="45.62141637715313" lon="8.960961922041236"><ele>221.6</ele><time>2026-03-30T11:39:43Z</time></trkpt><trkpt lat="45.62134205239247" lon="8.961086501861987"><ele>221.2</ele><time>2026-03-30T11:39:44Z</time></trkpt><trkpt lat="45.6212688007155" lon="8.961208200980408"><ele>220.8</ele><time>2026-03-30T11:39:45Z</time></trkpt><trkpt lat="45.621199939914156" lon="8.961327124960453"><ele>220.4</ele><time>2026-03-30T11:39:46Z</time></trkpt><trkpt lat="45.62113067772947" lon="8.961450657149754"><ele>220.0</ele><time>2026-03-30T11:39:47Z</time></trkpt><trkpt lat="45.62105640995293" lon="8.961574767780236"><ele>219.5</ele><time>2026-03-30T11:39:48Z</time></trkpt><trkpt lat="45.62098059663494" lon="8.96170086388677"><ele>219.0</ele><time>2026-03-30T11:39:49Z</time></trkpt><trkpt lat="45.62090112893136" lon="8.96182598736109"><ele>218.5</ele><time>2026-03-30T11:39:50Z</time></trkpt><trkpt lat="45.62081749479334" lon="8.9619493946094"><ele>218.0</ele><time>2026-03-30T11:39:51Z</time></trkpt><trkpt lat="45.62072473327277" lon="8.962077887884654"><ele>218.0</ele><time>2026-03-30T11:39:52Z</time></trkpt><trkpt lat="45.620625503929446" lon="8.962209800157805"><ele>218.0</ele><time>2026-03-30T11:39:53Z</time></trkpt><trkpt lat="45.62052713776364" lon="8.962348193563548"><ele>218.0</ele><time>2026-03-30T11:39:54Z</time></trkpt><trkpt lat="45.62044377276542" lon="8.962472526084289"><ele>218.0</ele><time>2026-03-30T11:39:55Z</time></trkpt><trkpt lat="45.620374394080685" lon="8.962588484677594"><ele>218.60000000000002</ele><time>2026-03-30T11:39:56Z</time></trkpt><trkpt lat="45.620309807744476" lon="8.962652204668567"><ele>219.20000000000002</ele><time>2026-03-30T11:39:57Z</time></trkpt><trkpt lat="45.62025443539033" lon="8.962728434945765"><ele>219.8</ele><time>2026-03-30T11:39:59Z</time></trkpt><trkpt lat="45.62036564627245" lon="8.962878153869442"><ele>220.4</ele><time>2026-03-30T11:40:02Z</time></trkpt><trkpt lat="45.62042923040111" lon="8.962976975180212"><ele>221.0</ele><time>2026-03-30T11:40:04Z</time></trkpt><trkpt lat="45.620570282510066" lon="8.963115968744528"><ele>221.0</ele><time>2026-03-30T11:40:05Z</time></trkpt><trkpt lat="45.62063573266206" lon="8.96319867404721"><ele>221.00000000000003</ele><time>2026-03-30T11:40:06Z</time></trkpt><trkpt lat="45.62072140154579" lon="8.96330043251077"><ele>221.00000000000003</ele><time>2026-03-30T11:40:07Z</time></trkpt><trkpt lat="45.620782543523454" lon="8.963383591949759"><ele>221.0</ele><time>2026-03-30T11:40:08Z</time></trkpt><trkpt lat="45.62085134063235" lon="8.963468050823492"><ele>221.0</ele><time>2026-03-30T11:40:09Z</time></trkpt><trkpt lat="45.62092223786478" lon="8.963575684771358"><ele>220.60000000000002</ele><time>2026-03-30T11:40:10Z</time></trkpt><trkpt lat="45.62099665142721" lon="8.963660838972288"><ele>220.20000000000002</ele><time>2026-03-30T11:40:11Z</time></trkpt><trkpt lat="45.621059005626016" lon="8.96376332226687"><ele>219.79999999999998</ele><time>2026-03-30T11:40:11.999Z</time></trkpt><trkpt lat="45.62115525808151" lon="8.963881441496179"><ele>219.39999999999998</ele><time>2026-03-30T11:40:12.999Z</time></trkpt><trkpt lat="45.621218983439775" lon="8.963977804431716"><ele>219.0</ele><time>2026-03-30T11:40:13.999Z</time></trkpt><trkpt lat="45.62125958431946" lon="8.964070432509063"><ele>219.0</ele><time>2026-03-30T11:40:14.999Z</time></trkpt><trkpt lat="45.62130371052028" lon="8.96416174334791"><ele>219.0</ele><time>2026-03-30T11:40:15.999Z</time></trkpt><trkpt lat="45.62136107507149" lon="8.96423482403406"><ele>219.0</ele><time>2026-03-30T11:40:16.999Z</time></trkpt><trkpt lat="45.62141077527178" lon="8.964292587511503"><ele>219.0</ele><time>2026-03-30T11:40:17.999Z</time></trkpt><trkpt lat="45.62151518755982" lon="8.964398279981083"><ele>219.0</ele><time>2026-03-30T11:40:19.999Z</time></trkpt><trkpt lat="45.621559925627956" lon="8.964466734188488"><ele>219.0</ele><time>2026-03-30T11:40:20.999Z</time></trkpt><trkpt lat="45.62163579803109" lon="8.96457107321809"><ele>217.75</ele><time>2026-03-30T11:40:21.999Z</time></trkpt><trkpt lat="45.62171235527809" lon="8.964677445183632"><ele>216.5</ele><time>2026-03-30T11:40:22.999Z</time></trkpt><trkpt lat="45.62179653054006" lon="8.964793250842048"><ele>215.25</ele><time>2026-03-30T11:40:23.999Z</time></trkpt><trkpt lat="45.62188279057186" lon="8.96490769029848"><ele>214.0</ele><time>2026-03-30T11:40:24.999Z</time></trkpt><trkpt lat="45.62196973336662" lon="8.965021862628438"><ele>214.75</ele><time>2026-03-30T11:40:25.999Z</time></trkpt><trkpt lat="45.62206713713242" lon="8.965122017932543"><ele>215.5</ele><time>2026-03-30T11:40:26.999Z</time></trkpt><trkpt lat="45.622147831794344" lon="8.965236827046978"><ele>216.25</ele><time>2026-03-30T11:40:27.999Z</time></trkpt><trkpt lat="45.6222348104992" lon="8.965350047212523"><ele>217.0</ele><time>2026-03-30T11:40:28.999Z</time></trkpt><trkpt lat="45.6223190147737" lon="8.965469028565487"><ele>217.0</ele><time>2026-03-30T11:40:29.999Z</time></trkpt><trkpt lat="45.62240616608897" lon="8.965593084541032"><ele>217.0</ele><time>2026-03-30T11:40:30.999Z</time></trkpt><trkpt lat="45.622499379302575" lon="8.965728595008263"><ele>217.0</ele><time>2026-03-30T11:40:31.999Z</time></trkpt><trkpt lat="45.62258954809547" lon="8.965863727958514"><ele>217.0</ele><time>2026-03-30T11:40:32.999Z</time></trkpt><trkpt lat="45.622680355864425" lon="8.966005234908735"><ele>218.25</ele><time>2026-03-30T11:40:33.999Z</time></trkpt><trkpt lat="45.62276865174506" lon="8.966143341829804"><ele>219.5</ele><time>2026-03-30T11:40:34.999Z</time></trkpt><trkpt lat="45.622855613810486" lon="8.966275153559325"><ele>220.75</ele><time>2026-03-30T11:40:35.999Z</time></trkpt><trkpt lat="45.6229306156575" lon="8.96639429910648"><ele>222.0</ele><time>2026-03-30T11:40:36.999Z</time></trkpt><trkpt lat="45.6229973384254" lon="8.966499685806008"><ele>222.0</ele><time>2026-03-30T11:40:37.999Z</time></trkpt><trkpt lat="45.62305256299848" lon="8.966589290642473"><ele>222.0</ele><time>2026-03-30T11:40:38.999Z</time></trkpt><trkpt lat="45.62310601389072" lon="8.966680271319895"><ele>222.0</ele><time>2026-03-30T11:40:39.999Z</time></trkpt><trkpt lat="45.623166914745575" lon="8.966771752269311"><ele>222.0</ele><time>2026-03-30T11:40:40.999Z</time></trkpt><trkpt lat="45.62323249150073" lon="8.966866171795944"><ele>222.0</ele><time>2026-03-30T11:40:41.999Z</time></trkpt><trkpt lat="45.62328434208364" lon="8.966965107040084"><ele>222.0</ele><time>2026-03-30T11:40:42.999Z</time></trkpt><trkpt lat="45.6233113300852" lon="8.96707330416673"><ele>222.39999999999998</ele><time>2026-03-30T11:40:43.999Z</time></trkpt><trkpt lat="45.62334473765969" lon="8.967159109068396"><ele>222.79999999999998</ele><time>2026-03-30T11:40:44.999Z</time></trkpt><trkpt lat="45.62338945466273" lon="8.96722938885138"><ele>223.2</ele><time>2026-03-30T11:40:46.999Z</time></trkpt><trkpt lat="45.62346949589414" lon="8.967385959134997"><ele>223.6</ele><time>2026-03-30T11:40:48.999Z</time></trkpt><trkpt lat="45.62351792755662" lon="8.967511998761188"><ele>224.0</ele><time>2026-03-30T11:40:49.999Z</time></trkpt><trkpt lat="45.62357919848994" lon="8.96763713025051"><ele>223.83333333333334</ele><time>2026-03-30T11:40:50.999Z</time></trkpt><trkpt lat="45.623642864160395" lon="8.967763695435062"><ele>223.66666666666669</ele><time>2026-03-30T11:40:51.999Z</time></trkpt><trkpt lat="45.62370343703538" lon="8.967884877508864"><ele>223.5</ele><time>2026-03-30T11:40:52.999Z</time></trkpt><trkpt lat="45.62373661133528" lon="8.96796812580102"><ele>223.33333333333331</ele><time>2026-03-30T11:40:53.999Z</time></trkpt><trkpt lat="45.62376294012769" lon="8.968053223034683"><ele>223.16666666666666</ele><time>2026-03-30T11:40:54.999Z</time></trkpt><trkpt lat="45.62378719083024" lon="8.968146888549159"><ele>223.0</ele><time>2026-03-30T11:40:55.999Z</time></trkpt><trkpt lat="45.623799216161494" lon="8.968273592337676"><ele>223.16666666666666</ele><time>2026-03-30T11:40:56.999Z</time></trkpt><trkpt lat="45.62376947069966" lon="8.96841738689087"><ele>223.33333333333331</ele><time>2026-03-30T11:40:57.999Z</time></trkpt><trkpt lat="45.62374085988408" lon="8.968531032386961"><ele>223.5</ele><time>2026-03-30T11:40:58.999Z</time></trkpt><trkpt lat="45.623673661649256" lon="8.968622668970657"><ele>223.66666666666669</ele><time>2026-03-30T11:40:59.999Z</time></trkpt><trkpt lat="45.62362467027761" lon="8.968698953471844"><ele>223.83333333333334</ele><time>2026-03-30T11:41:00.999Z</time></trkpt><trkpt lat="45.62361269212361" lon="8.968807559375517"><ele>224.0</ele><time>2026-03-30T11:41:01.999Z</time></trkpt><trkpt lat="45.623588565286504" lon="8.968919247075004"><ele>224.0</ele><time>2026-03-30T11:41:02.999Z</time></trkpt><trkpt lat="45.62358656380143" lon="8.969110089289382"><ele>224.0</ele><time>2026-03-30T11:41:04.999Z</time></trkpt><trkpt lat="45.62358983074248" lon="8.969254755213043"><ele>224.0</ele><time>2026-03-30T11:41:05.999Z</time></trkpt><trkpt lat="45.623619839736605" lon="8.969406725424578"><ele>224.0</ele><time>2026-03-30T11:41:06.999Z</time></trkpt><trkpt lat="45.623649853270486" lon="8.969552434705815"><ele>223.39999999999998</ele><time>2026-03-30T11:41:07.999Z</time></trkpt><trkpt lat="45.62367166716767" lon="8.969706539186314"><ele>222.79999999999998</ele><time>2026-03-30T11:41:08.999Z</time></trkpt><trkpt lat="45.62368535163361" lon="8.969851368666628"><ele>222.20000000000002</ele><time>2026-03-30T11:41:09.999Z</time></trkpt><trkpt lat="45.623698532750915" lon="8.969995409566653"><ele>221.60000000000002</ele><time>2026-03-30T11:41:10.999Z</time></trkpt><trkpt lat="45.623710529816606" lon="8.970131364228287"><ele>221.0</ele><time>2026-03-30T11:41:11.999Z</time></trkpt><trkpt lat="45.62371217543615" lon="8.970271394379118"><ele>221.00000000000003</ele><time>2026-03-30T11:41:12.999Z</time></trkpt><trkpt lat="45.62373050453998" lon="8.970417092776094"><ele>221.0</ele><time>2026-03-30T11:41:13.999Z</time></trkpt><trkpt lat="45.623764478566784" lon="8.970563734972453"><ele>221.0</ele><time>2026-03-30T11:41:14.999Z</time></trkpt><trkpt lat="45.62375450970978" lon="8.970696017474618"><ele>221.0</ele><time>2026-03-30T11:41:15.999Z</time></trkpt><trkpt lat="45.62375035984836" lon="8.970788341662928"><ele>221.00000000000003</ele><time>2026-03-30T11:41:16.999Z</time></trkpt><trkpt lat="45.62373159150056" lon="8.970897665861656"><ele>221.0</ele><time>2026-03-30T11:41:18.999Z</time></trkpt><trkpt lat="45.62369578001856" lon="8.97105220765048"><ele>221.33333333333334</ele><time>2026-03-30T11:41:20.999Z</time></trkpt><trkpt lat="45.62373333463794" lon="8.97112974829414"><ele>221.66666666666669</ele><time>2026-03-30T11:41:22.999Z</time></trkpt><trkpt lat="45.62374247855827" lon="8.97121905197693"><ele>222.0</ele><time>2026-03-30T11:41:23.999Z</time></trkpt><trkpt lat="45.62384998251758" lon="8.971950020916733"><ele>222.0</ele><time>2026-03-30T11:41:28Z</time></trkpt><trkpt lat="45.62385600491241" lon="8.972107347834365"><ele>222.0</ele><time>2026-03-30T11:41:29Z</time></trkpt><trkpt lat="45.6238796836104" lon="8.972267507577055"><ele>222.0</ele><time>2026-03-30T11:41:30Z</time></trkpt><trkpt lat="45.62390258277722" lon="8.972426747451332"><ele>222.0</ele><time>2026-03-30T11:41:31Z</time></trkpt><trkpt lat="45.62391172386053" lon="8.97261321971785"><ele>221.8</ele><time>2026-03-30T11:41:32Z</time></trkpt><trkpt lat="45.62393809330199" lon="8.97278460425216"><ele>221.6</ele><time>2026-03-30T11:41:33Z</time></trkpt><trkpt lat="45.623974566917994" lon="8.972927404819064"><ele>221.40000000000003</ele><time>2026-03-30T11:41:34Z</time></trkpt><trkpt lat="45.623988214741914" lon="8.97307281989097"><ele>221.20000000000002</ele><time>2026-03-30T11:41:35Z</time></trkpt><trkpt lat="45.623998486076076" lon="8.973235756083398"><ele>221.0</ele><time>2026-03-30T11:41:36Z</time></trkpt><trkpt lat="45.62400870385655" lon="8.973388447827995"><ele>221.0</ele><time>2026-03-30T11:41:37Z</time></trkpt><trkpt lat="45.62401555713085" lon="8.973534277744276"><ele>221.0</ele><time>2026-03-30T11:41:38Z</time></trkpt><trkpt lat="45.62402524907171" lon="8.973705828977963"><ele>221.0</ele><time>2026-03-30T11:41:39Z</time></trkpt><trkpt lat="45.62403796094791" lon="8.973885134531114"><ele>221.0</ele><time>2026-03-30T11:41:40Z</time></trkpt><trkpt lat="45.62405252474666" lon="8.974072972504006"><ele>221.0</ele><time>2026-03-30T11:41:41Z</time></trkpt><trkpt lat="45.62406646736904" lon="8.974243430242737"><ele>221.0</ele><time>2026-03-30T11:41:42Z</time></trkpt><trkpt lat="45.62408316031047" lon="8.974429841357665"><ele>221.0</ele><time>2026-03-30T11:41:43Z</time></trkpt><trkpt lat="45.62409768457773" lon="8.974581873832694"><ele>221.0</ele><time>2026-03-30T11:41:44Z</time></trkpt><trkpt lat="45.624115936887954" lon="8.974744122325808"><ele>221.0</ele><time>2026-03-30T11:41:45Z</time></trkpt><trkpt lat="45.62414781999426" lon="8.974859812051992"><ele>221.00000000000003</ele><time>2026-03-30T11:41:46Z</time></trkpt><trkpt lat="45.62416783826597" lon="8.975005278254457"><ele>221.00000000000003</ele><time>2026-03-30T11:41:47Z</time></trkpt><trkpt lat="45.624180216976406" lon="8.975147556769583"><ele>221.0</ele><time>2026-03-30T11:41:48Z</time></trkpt><trkpt lat="45.62417935339419" lon="8.975309391134152"><ele>221.0</ele><time>2026-03-30T11:41:49Z</time></trkpt><trkpt lat="45.62419290484415" lon="8.975411645445643"><ele>221.00000000000003</ele><time>2026-03-30T11:41:50Z</time></trkpt><trkpt lat="45.62422184835631" lon="8.97556271742089"><ele>221.0</ele><time>2026-03-30T11:41:52Z</time></trkpt><trkpt lat="45.62423514484688" lon="8.975653333367772"><ele>221.0</ele><time>2026-03-30T11:41:53Z</time></trkpt><trkpt lat="45.62430836432874" lon="8.97572298202267"><ele>221.0</ele><time>2026-03-30T11:41:54Z</time></trkpt><trkpt lat="45.624370348008924" lon="8.975807992291436"><ele>221.00000000000003</ele><time>2026-03-30T11:41:55Z</time></trkpt><trkpt lat="45.62441246016848" lon="8.975903309960877"><ele>221.0</ele><time>2026-03-30T11:41:56Z</time></trkpt><trkpt lat="45.62443615304561" lon="8.97614156650083"><ele>221.0</ele><time>2026-03-30T11:41:58Z</time></trkpt><trkpt lat="45.62445254300794" lon="8.976310017211423"><ele>221.0</ele><time>2026-03-30T11:41:59Z</time></trkpt><trkpt lat="45.62447592665603" lon="8.976476852479966"><ele>221.0</ele><time>2026-03-30T11:42:00Z</time></trkpt><trkpt lat="45.62448311965656" lon="8.976647882231399"><ele>221.0</ele><time>2026-03-30T11:42:01Z</time></trkpt><trkpt lat="45.624500159805194" lon="8.976807344801832"><ele>221.0</ele><time>2026-03-30T11:42:02Z</time></trkpt><trkpt lat="45.62452337073332" lon="8.976990564941087"><ele>221.0</ele><time>2026-03-30T11:42:03Z</time></trkpt><trkpt lat="45.62453096332501" lon="8.977145301687065"><ele>221.0</ele><time>2026-03-30T11:42:04Z</time></trkpt><trkpt lat="45.624536369681785" lon="8.9773136768998"><ele>221.0</ele><time>2026-03-30T11:42:05Z</time></trkpt><trkpt lat="45.624545201077126" lon="8.977469852171978"><ele>221.5</ele><time>2026-03-30T11:42:06Z</time></trkpt><trkpt lat="45.62454449726559" lon="8.977636498451247"><ele>222.0</ele><time>2026-03-30T11:42:07Z</time></trkpt><trkpt lat="45.62454673438056" lon="8.97779235451235"><ele>222.5</ele><time>2026-03-30T11:42:08Z</time></trkpt><trkpt lat="45.62455763561547" lon="8.97794439593473"><ele>223.0</ele><time>2026-03-30T11:42:09Z</time></trkpt><trkpt lat="45.62457677174133" lon="8.97811035997613"><ele>223.0</ele><time>2026-03-30T11:42:10Z</time></trkpt><trkpt lat="45.62459214487161" lon="8.978284021681967"><ele>223.0</ele><time>2026-03-30T11:42:11Z</time></trkpt><trkpt lat="45.6246051069694" lon="8.978457626784376"><ele>223.0</ele><time>2026-03-30T11:42:12Z</time></trkpt><trkpt lat="45.62461904212609" lon="8.978630288850937"><ele>223.0</ele><time>2026-03-30T11:42:13Z</time></trkpt><trkpt lat="45.624633585372656" lon="8.978820761757207"><ele>222.5</ele><time>2026-03-30T11:42:14Z</time></trkpt><trkpt lat="45.62464866515123" lon="8.979010653527235"><ele>222.0</ele><time>2026-03-30T11:42:14.999Z</time></trkpt><trkpt lat="45.624666540759776" lon="8.9792033908485"><ele>221.5</ele><time>2026-03-30T11:42:15.999Z</time></trkpt><trkpt lat="45.624668246923" lon="8.979416763003309"><ele>221.0</ele><time>2026-03-30T11:42:16.999Z</time></trkpt><trkpt lat="45.62468607255174" lon="8.979616141667238"><ele>220.75</ele><time>2026-03-30T11:42:17.999Z</time></trkpt><trkpt lat="45.62472014739325" lon="8.979824414570933"><ele>220.5</ele><time>2026-03-30T11:42:18.999Z</time></trkpt><trkpt lat="45.62472164038606" lon="8.980018697778105"><ele>220.25</ele><time>2026-03-30T11:42:19.999Z</time></trkpt><trkpt lat="45.6247532300859" lon="8.980229621604575"><ele>220.0</ele><time>2026-03-30T11:42:20.999Z</time></trkpt><trkpt lat="45.624770617973844" lon="8.9804255708337"><ele>219.5</ele><time>2026-03-30T11:42:21.999Z</time></trkpt><trkpt lat="45.62478527862192" lon="8.980628347167093"><ele>219.0</ele><time>2026-03-30T11:42:22.999Z</time></trkpt><trkpt lat="45.62480271908334" lon="8.9808159485076"><ele>218.5</ele><time>2026-03-30T11:42:23.999Z</time></trkpt><trkpt lat="45.624816218505764" lon="8.98101339505686"><ele>218.0</ele><time>2026-03-30T11:42:24.999Z</time></trkpt><trkpt lat="45.62483378710227" lon="8.981188279556346"><ele>218.0</ele><time>2026-03-30T11:42:25.999Z</time></trkpt><trkpt lat="45.62484865016216" lon="8.981345077269996"><ele>218.0</ele><time>2026-03-30T11:42:26.999Z</time></trkpt><trkpt lat="45.62485716324102" lon="8.98148117463324"><ele>218.0</ele><time>2026-03-30T11:42:27.999Z</time></trkpt><trkpt lat="45.624844235213295" lon="8.981614179744112"><ele>218.0</ele><time>2026-03-30T11:42:28.999Z</time></trkpt><trkpt lat="45.62482452338145" lon="8.981749083797462"><ele>218.0</ele><time>2026-03-30T11:42:29.999Z</time></trkpt><trkpt lat="45.624760293979755" lon="8.9818772744986"><ele>218.0</ele><time>2026-03-30T11:42:30.999Z</time></trkpt><trkpt lat="45.62469996798253" lon="8.982043512318336"><ele>218.0</ele><time>2026-03-30T11:42:31.999Z</time></trkpt><trkpt lat="45.62464456726652" lon="8.982226488895648"><ele>218.0</ele><time>2026-03-30T11:42:32.999Z</time></trkpt><trkpt lat="45.62457701558882" lon="8.98240430440352"><ele>218.0</ele><time>2026-03-30T11:42:33.999Z</time></trkpt><trkpt lat="45.6245375379676" lon="8.982584791478363"><ele>218.4</ele><time>2026-03-30T11:42:34.999Z</time></trkpt><trkpt lat="45.62446608488739" lon="8.98274916079947"><ele>218.8</ele><time>2026-03-30T11:42:35.999Z</time></trkpt><trkpt lat="45.62440590854202" lon="8.982890667366679"><ele>219.2</ele><time>2026-03-30T11:42:36.999Z</time></trkpt><trkpt lat="45.62434728042767" lon="8.982986988456625"><ele>219.6</ele><time>2026-03-30T11:42:37.999Z</time></trkpt><trkpt lat="45.62428899798103" lon="8.983058484171469"><ele>220.0</ele><time>2026-03-30T11:42:38.999Z</time></trkpt><trkpt lat="45.624192707464196" lon="8.983157698078594"><ele>220.0</ele><time>2026-03-30T11:42:39.999Z</time></trkpt><trkpt lat="45.62409639699583" lon="8.983247690942148"><ele>220.0</ele><time>2026-03-30T11:42:40.999Z</time></trkpt><trkpt lat="45.62399824827124" lon="8.983339693682089"><ele>220.0</ele><time>2026-03-30T11:42:41.999Z</time></trkpt><trkpt lat="45.623916088563554" lon="8.983419861195696"><ele>220.0</ele><time>2026-03-30T11:42:42.999Z</time></trkpt><trkpt lat="45.62382924961985" lon="8.983500560747228"><ele>220.0</ele><time>2026-03-30T11:42:43.999Z</time></trkpt><trkpt lat="45.62376254782004" lon="8.983562788168792"><ele>220.0</ele><time>2026-03-30T11:42:44.999Z</time></trkpt><trkpt lat="45.62368211125082" lon="8.983637829322758"><ele>220.0</ele><time>2026-03-30T11:42:46.999Z</time></trkpt><trkpt lat="45.623553904913635" lon="8.98344496834133"><ele>220.0</ele><time>2026-03-30T11:42:52.999Z</time></trkpt><trkpt lat="45.623504515180294" lon="8.983367901014965"><ele>220.0</ele><time>2026-03-30T11:42:53.999Z</time></trkpt><trkpt lat="45.62345292419226" lon="8.983291648392212"><ele>220.0</ele><time>2026-03-30T11:42:54.999Z</time></trkpt><trkpt lat="45.62339350524192" lon="8.983210360861571"><ele>219.99999999999997</ele><time>2026-03-30T11:42:55.999Z</time></trkpt><trkpt lat="45.623340955637694" lon="8.983125079339185"><ele>220.0</ele><time>2026-03-30T11:42:56.999Z</time></trkpt><trkpt lat="45.62328879945622" lon="8.983044014207394"><ele>220.0</ele><time>2026-03-30T11:42:57.999Z</time></trkpt><trkpt lat="45.62322878824063" lon="8.982960120801382"><ele>220.0</ele><time>2026-03-30T11:42:58.999Z</time></trkpt><trkpt lat="45.62316982426438" lon="8.98287254026951"><ele>219.99999999999997</ele><time>2026-03-30T11:42:59.999Z</time></trkpt><trkpt lat="45.62311145141239" lon="8.982787694163639"><ele>220.0</ele><time>2026-03-30T11:43:00.999Z</time></trkpt><trkpt lat="45.62306268094818" lon="8.982686954095898"><ele>219.99999999999997</ele><time>2026-03-30T11:43:01.999Z</time></trkpt><trkpt lat="45.62303167778914" lon="8.982604981075434"><ele>220.0</ele><time>2026-03-30T11:43:02.999Z</time></trkpt><trkpt lat="45.623025665738695" lon="8.982476628904072"><ele>220.0</ele><time>2026-03-30T11:43:04.999Z</time></trkpt><trkpt lat="45.62305645988123" lon="8.982590111417373"><ele>220.0</ele><time>2026-03-30T11:43:34Z</time></trkpt><trkpt lat="45.623070063820336" lon="8.982695700476372"><ele>219.99999999999997</ele><time>2026-03-30T11:43:36Z</time></trkpt><trkpt lat="45.623111668915875" lon="8.982768364169798"><ele>220.0</ele><time>2026-03-30T11:43:39Z</time></trkpt><trkpt lat="45.623187132877995" lon="8.982890392981552"><ele>220.0</ele><time>2026-03-30T11:43:42Z</time></trkpt><trkpt lat="45.62324034115866" lon="8.982959691343641"><ele>220.0</ele><time>2026-03-30T11:43:43Z</time></trkpt><trkpt lat="45.62329718861319" lon="8.983045127258807"><ele>220.0</ele><time>2026-03-30T11:43:44Z</time></trkpt><trkpt lat="45.62336033111382" lon="8.9831562704664"><ele>220.0</ele><time>2026-03-30T11:43:45Z</time></trkpt><trkpt lat="45.62343268695579" lon="8.983257399347037"><ele>220.0</ele><time>2026-03-30T11:43:46Z</time></trkpt><trkpt lat="45.62350664217398" lon="8.98335962951676"><ele>219.99999999999997</ele><time>2026-03-30T11:43:47Z</time></trkpt><trkpt lat="45.62356893422302" lon="8.983454219084384"><ele>220.0</ele><time>2026-03-30T11:43:48Z</time></trkpt><trkpt lat="45.62362796208071" lon="8.98353505846782"><ele>220.0</ele><time>2026-03-30T11:43:49Z</time></trkpt><trkpt lat="45.62367052227848" lon="8.98360649357548"><ele>220.0</ele><time>2026-03-30T11:43:50Z</time></trkpt><trkpt lat="45.623720021614" lon="8.983669938885608"><ele>219.99999999999997</ele><time>2026-03-30T11:43:52Z</time></trkpt><trkpt lat="45.6238365061844" lon="8.98362336915507"><ele>220.0</ele><time>2026-03-30T11:43:54Z</time></trkpt><trkpt lat="45.62388780439582" lon="8.983502634603779"><ele>220.0</ele><time>2026-03-30T11:43:55Z</time></trkpt><trkpt lat="45.62397712107578" lon="8.983417802902062"><ele>220.0</ele><time>2026-03-30T11:43:56Z</time></trkpt><trkpt lat="45.62407310728081" lon="8.98332616896141"><ele>220.0</ele><time>2026-03-30T11:43:57Z</time></trkpt><trkpt lat="45.62416442986246" lon="8.983240862939974"><ele>220.0</ele><time>2026-03-30T11:43:58Z</time></trkpt><trkpt lat="45.62424906318703" lon="8.983176800271846"><ele>220.0</ele><time>2026-03-30T11:43:59Z</time></trkpt><trkpt lat="45.62431775969769" lon="8.983102192102388"><ele>220.0</ele><time>2026-03-30T11:44:00Z</time></trkpt><trkpt lat="45.6243759065576" lon="8.983010168535023"><ele>220.0</ele><time>2026-03-30T11:44:01Z</time></trkpt><trkpt lat="45.62443709359" lon="8.982901897208892"><ele>220.0</ele><time>2026-03-30T11:44:02Z</time></trkpt><trkpt lat="45.62448823933855" lon="8.982786128302575"><ele>220.0</ele><time>2026-03-30T11:44:03Z</time></trkpt><trkpt lat="45.62454302388271" lon="8.982642799823715"><ele>220.0</ele><time>2026-03-30T11:44:04Z</time></trkpt><trkpt lat="45.62457395776306" lon="8.98248452180197"><ele>219.66666666666666</ele><time>2026-03-30T11:44:05Z</time></trkpt><trkpt lat="45.62461212329376" lon="8.982381306994718"><ele>219.33333333333331</ele><time>2026-03-30T11:44:06Z</time></trkpt><trkpt lat="45.6246444673456" lon="8.982270980569874"><ele>219.0</ele><time>2026-03-30T11:44:07Z</time></trkpt><trkpt lat="45.624677761092016" lon="8.98217466434101"><ele>218.66666666666669</ele><time>2026-03-30T11:44:08Z</time></trkpt><trkpt lat="45.62471478884902" lon="8.982076654170395"><ele>218.33333333333334</ele><time>2026-03-30T11:44:09Z</time></trkpt><trkpt lat="45.62475618634482" lon="8.981986419247628"><ele>218.0</ele><time>2026-03-30T11:44:10Z</time></trkpt><trkpt lat="45.62479843522739" lon="8.981893979022493"><ele>218.00000000000003</ele><time>2026-03-30T11:44:11Z</time></trkpt><trkpt lat="45.62484091473433" lon="8.981797721168599"><ele>218.0</ele><time>2026-03-30T11:44:12Z</time></trkpt><trkpt lat="45.62486726918294" lon="8.981685648351212"><ele>218.0</ele><time>2026-03-30T11:44:13Z</time></trkpt><trkpt lat="45.62488522885295" lon="8.981575597778917"><ele>218.0</ele><time>2026-03-30T11:44:14Z</time></trkpt><trkpt lat="45.624886311408765" lon="8.981479640988292"><ele>218.00000000000003</ele><time>2026-03-30T11:44:15Z</time></trkpt><trkpt lat="45.62487156748324" lon="8.98135673659001"><ele>218.0</ele><time>2026-03-30T11:44:17Z</time></trkpt><trkpt lat="45.624671264395644" lon="8.981292455373827"><ele>218.00000000000003</ele><time>2026-03-30T11:44:21Z</time></trkpt><trkpt lat="45.62460578807528" lon="8.981220981262467"><ele>218.0</ele><time>2026-03-30T11:44:23Z</time></trkpt><trkpt lat="45.6245503981411" lon="8.981148306024426"><ele>218.0</ele><time>2026-03-30T11:44:23.999Z</time></trkpt><trkpt lat="45.6245026442144" lon="8.98106792029634"><ele>218.0</ele><time>2026-03-30T11:44:24.999Z</time></trkpt><trkpt lat="45.624450548040436" lon="8.980984272858436"><ele>218.00000000000003</ele><time>2026-03-30T11:44:25.999Z</time></trkpt><trkpt lat="45.62438242770209" lon="8.980891944201495"><ele>218.0</ele><time>2026-03-30T11:44:26.999Z</time></trkpt><trkpt lat="45.6243259806544" lon="8.980799519316713"><ele>218.8</ele><time>2026-03-30T11:44:27.999Z</time></trkpt><trkpt lat="45.62427009656364" lon="8.98069419139393"><ele>219.60000000000002</ele><time>2026-03-30T11:44:28.999Z</time></trkpt><trkpt lat="45.62421441232948" lon="8.980581487246981"><ele>220.39999999999998</ele><time>2026-03-30T11:44:29.999Z</time></trkpt><trkpt lat="45.62415866334272" lon="8.98047468194297"><ele>221.2</ele><time>2026-03-30T11:44:30.999Z</time></trkpt><trkpt lat="45.62410436753276" lon="8.980365465374877"><ele>222.0</ele><time>2026-03-30T11:44:31.999Z</time></trkpt><trkpt lat="45.62404834616008" lon="8.980258210372885"><ele>222.0</ele><time>2026-03-30T11:44:32.999Z</time></trkpt><trkpt lat="45.62399484539584" lon="8.980147214125873"><ele>222.0</ele><time>2026-03-30T11:44:33.999Z</time></trkpt><trkpt lat="45.62395299095005" lon="8.980040405504091"><ele>222.0</ele><time>2026-03-30T11:44:34.999Z</time></trkpt><trkpt lat="45.623920964638955" lon="8.97992651930057"><ele>222.0</ele><time>2026-03-30T11:44:35.999Z</time></trkpt><trkpt lat="45.623898360426175" lon="8.979809673762553"><ele>222.0</ele><time>2026-03-30T11:44:36.999Z</time></trkpt><trkpt lat="45.62388585805154" lon="8.979680144364943"><ele>222.0</ele><time>2026-03-30T11:44:37.999Z</time></trkpt><trkpt lat="45.623881651670544" lon="8.979557091187003"><ele>221.66666666666666</ele><time>2026-03-30T11:44:38.999Z</time></trkpt><trkpt lat="45.6238715859334" lon="8.97943080769836"><ele>221.33333333333331</ele><time>2026-03-30T11:44:39.999Z</time></trkpt><trkpt lat="45.623861142692526" lon="8.979311505684914"><ele>221.0</ele><time>2026-03-30T11:44:40.999Z</time></trkpt><trkpt lat="45.62384775103011" lon="8.979191119784428"><ele>220.66666666666666</ele><time>2026-03-30T11:44:41.999Z</time></trkpt><trkpt lat="45.62383821221303" lon="8.979066391260442"><ele>220.33333333333331</ele><time>2026-03-30T11:44:42.999Z</time></trkpt><trkpt lat="45.623828200197636" lon="8.978928774053387"><ele>220.0</ele><time>2026-03-30T11:44:43.999Z</time></trkpt><trkpt lat="45.62382206168829" lon="8.978775423382062"><ele>219.6</ele><time>2026-03-30T11:44:44.999Z</time></trkpt><trkpt lat="45.62381392381067" lon="8.978629947889443"><ele>219.2</ele><time>2026-03-30T11:44:45.999Z</time></trkpt><trkpt lat="45.62380438090182" lon="8.978474343578783"><ele>218.8</ele><time>2026-03-30T11:44:46.999Z</time></trkpt><trkpt lat="45.62379203311417" lon="8.978323894347943"><ele>218.4</ele><time>2026-03-30T11:44:47.999Z</time></trkpt><trkpt lat="45.623785933105005" lon="8.978193090386394"><ele>218.0</ele><time>2026-03-30T11:44:48.999Z</time></trkpt><trkpt lat="45.62377823178517" lon="8.978060346909793"><ele>218.00000000000003</ele><time>2026-03-30T11:44:49.999Z</time></trkpt><trkpt lat="45.623773011312544" lon="8.977941028832968"><ele>218.0</ele><time>2026-03-30T11:44:50.999Z</time></trkpt><trkpt lat="45.62376970449656" lon="8.977830845813266"><ele>218.0</ele><time>2026-03-30T11:44:51.999Z</time></trkpt><trkpt lat="45.62376360673678" lon="8.977713922693244"><ele>218.0</ele><time>2026-03-30T11:44:52.999Z</time></trkpt><trkpt lat="45.62374862519477" lon="8.977615533341213"><ele>218.00000000000003</ele><time>2026-03-30T11:44:53.999Z</time></trkpt><trkpt lat="45.62371519509849" lon="8.977537256526482"><ele>218.0</ele><time>2026-03-30T11:44:54.999Z</time></trkpt><trkpt lat="45.62359795214647" lon="8.977471892794139"><ele>219.16666666666669</ele><time>2026-03-30T11:44:56.999Z</time></trkpt><trkpt lat="45.62353068605668" lon="8.977441963212586"><ele>220.33333333333334</ele><time>2026-03-30T11:44:57.999Z</time></trkpt><trkpt lat="45.62346469748243" lon="8.977432862023484"><ele>221.5</ele><time>2026-03-30T11:44:58.999Z</time></trkpt><trkpt lat="45.62337749131645" lon="8.97742759123727"><ele>222.66666666666669</ele><time>2026-03-30T11:44:59.999Z</time></trkpt><trkpt lat="45.623287294090524" lon="8.977399858620391"><ele>223.83333333333334</ele><time>2026-03-30T11:45:00.999Z</time></trkpt><trkpt lat="45.623201894913855" lon="8.977384240919914"><ele>225.0</ele><time>2026-03-30T11:45:01.999Z</time></trkpt><trkpt lat="45.62311749395898" lon="8.977368218240454"><ele>225.0</ele><time>2026-03-30T11:45:02.999Z</time></trkpt><trkpt lat="45.62302738478301" lon="8.97734742245565"><ele>225.0</ele><time>2026-03-30T11:45:03.999Z</time></trkpt><trkpt lat="45.62293417936736" lon="8.977321637644312"><ele>225.0</ele><time>2026-03-30T11:45:04.999Z</time></trkpt><trkpt lat="45.6228531359685" lon="8.977293034225623"><ele>225.0</ele><time>2026-03-30T11:45:05.999Z</time></trkpt><trkpt lat="45.622778483605764" lon="8.977269176677112"><ele>225.0</ele><time>2026-03-30T11:45:06.999Z</time></trkpt><trkpt lat="45.622702284935734" lon="8.977258830803791"><ele>225.0</ele><time>2026-03-30T11:45:07.999Z</time></trkpt><trkpt lat="45.62263769737478" lon="8.977216213308076"><ele>224.83333333333334</ele><time>2026-03-30T11:45:08.999Z</time></trkpt><trkpt lat="45.62256495221446" lon="8.977172247888074"><ele>224.66666666666669</ele><time>2026-03-30T11:45:09.999Z</time></trkpt><trkpt lat="45.62247815222734" lon="8.977137664782836"><ele>224.5</ele><time>2026-03-30T11:45:10.999Z</time></trkpt><trkpt lat="45.62238436166795" lon="8.977101669781701"><ele>224.33333333333334</ele><time>2026-03-30T11:45:11.999Z</time></trkpt><trkpt lat="45.62229972278025" lon="8.977092926432913"><ele>224.16666666666669</ele><time>2026-03-30T11:45:12.999Z</time></trkpt><trkpt lat="45.622218290693" lon="8.977092996597504"><ele>224.0</ele><time>2026-03-30T11:45:13.999Z</time></trkpt><trkpt lat="45.622149885478905" lon="8.977058298130116"><ele>224.00000000000003</ele><time>2026-03-30T11:45:14.999Z</time></trkpt><trkpt lat="45.62210361334565" lon="8.976985134140168"><ele>224.0</ele><time>2026-03-30T11:45:15.999Z</time></trkpt><trkpt lat="45.62205751077014" lon="8.976885056051023"><ele>224.0</ele><time>2026-03-30T11:45:16.999Z</time></trkpt><trkpt lat="45.62201403109539" lon="8.976808279290832"><ele>224.0</ele><time>2026-03-30T11:45:17.999Z</time></trkpt><trkpt lat="45.62195666976022" lon="8.976718036699411"><ele>224.00000000000003</ele><time>2026-03-30T11:45:18.999Z</time></trkpt><trkpt lat="45.621897953958594" lon="8.97658958773669"><ele>224.0</ele><time>2026-03-30T11:45:20.999Z</time></trkpt><trkpt lat="45.62187788552799" lon="8.976452442000348"><ele>224.16666666666669</ele><time>2026-03-30T11:45:21.999Z</time></trkpt><trkpt lat="45.62186810358204" lon="8.976318804562412"><ele>224.33333333333334</ele><time>2026-03-30T11:45:22.999Z</time></trkpt><trkpt lat="45.62185599845983" lon="8.976193044764047"><ele>224.5</ele><time>2026-03-30T11:45:23.999Z</time></trkpt><trkpt lat="45.621842986752995" lon="8.976063676480393"><ele>224.66666666666669</ele><time>2026-03-30T11:45:24.999Z</time></trkpt><trkpt lat="45.62182926404586" lon="8.975952905724972"><ele>224.83333333333334</ele><time>2026-03-30T11:45:25.999Z</time></trkpt><trkpt lat="45.621826369677606" lon="8.975861301935414"><ele>225.0</ele><time>2026-03-30T11:45:26.999Z</time></trkpt><trkpt lat="45.62180433259041" lon="8.9757372300024"><ele>224.4</ele><time>2026-03-30T11:45:28.999Z</time></trkpt><trkpt lat="45.621763263692195" lon="8.975629513728313"><ele>223.8</ele><time>2026-03-30T11:45:29.999Z</time></trkpt><trkpt lat="45.6217152713776" lon="8.975520697120091"><ele>223.2</ele><time>2026-03-30T11:45:30.999Z</time></trkpt><trkpt lat="45.621659614790694" lon="8.975417522028398"><ele>222.6</ele><time>2026-03-30T11:45:31.999Z</time></trkpt><trkpt lat="45.62159842996947" lon="8.975296978121"><ele>222.0</ele><time>2026-03-30T11:45:32.999Z</time></trkpt><trkpt lat="45.621529150453384" lon="8.975182293084522"><ele>222.0</ele><time>2026-03-30T11:45:33.999Z</time></trkpt><trkpt lat="45.62146822234269" lon="8.975072273506811"><ele>222.0</ele><time>2026-03-30T11:45:34.999Z</time></trkpt><trkpt lat="45.62140916032063" lon="8.974988147720847"><ele>222.0</ele><time>2026-03-30T11:45:35.999Z</time></trkpt><trkpt lat="45.62134354470758" lon="8.97490626129958"><ele>222.0</ele><time>2026-03-30T11:45:36.999Z</time></trkpt><trkpt lat="45.62129009473549" lon="8.974820590732064"><ele>222.0</ele><time>2026-03-30T11:45:38Z</time></trkpt><trkpt lat="45.62123781389631" lon="8.974758444974114"><ele>222.0</ele><time>2026-03-30T11:45:39Z</time></trkpt><trkpt lat="45.621175615165455" lon="8.97470826560453"><ele>221.6</ele><time>2026-03-30T11:45:40Z</time></trkpt><trkpt lat="45.62109258387298" lon="8.974673261108691"><ele>221.2</ele><time>2026-03-30T11:45:41Z</time></trkpt><trkpt lat="45.62100846169925" lon="8.97460769317835"><ele>220.8</ele><time>2026-03-30T11:45:42Z</time></trkpt><trkpt lat="45.62092962401709" lon="8.974518627131111"><ele>220.4</ele><time>2026-03-30T11:45:43Z</time></trkpt><trkpt lat="45.62086973481354" lon="8.974423225542692"><ele>220.0</ele><time>2026-03-30T11:45:44Z</time></trkpt><trkpt lat="45.620832460494626" lon="8.974302785316974"><ele>220.4</ele><time>2026-03-30T11:45:45Z</time></trkpt><trkpt lat="45.62078576204876" lon="8.974160440596764"><ele>220.8</ele><time>2026-03-30T11:45:46Z</time></trkpt><trkpt lat="45.62073473492759" lon="8.974040862799015"><ele>221.2</ele><time>2026-03-30T11:45:47Z</time></trkpt><trkpt lat="45.620676743511105" lon="8.973932410287043"><ele>221.6</ele><time>2026-03-30T11:45:48Z</time></trkpt><trkpt lat="45.6206194308474" lon="8.973834370494908"><ele>222.0</ele><time>2026-03-30T11:45:49Z</time></trkpt><trkpt lat="45.6205832758172" lon="8.973756053486143"><ele>222.0</ele><time>2026-03-30T11:45:50Z</time></trkpt><trkpt lat="45.620501539561026" lon="8.973682524515144"><ele>222.0</ele><time>2026-03-30T11:45:52Z</time></trkpt><trkpt lat="45.62043796735001" lon="8.973706314742612"><ele>222.0</ele><time>2026-03-30T11:45:53Z</time></trkpt><trkpt lat="45.62037673088082" lon="8.97375180628264"><ele>222.0</ele><time>2026-03-30T11:45:54Z</time></trkpt><trkpt lat="45.620312323855934" lon="8.973826753055034"><ele>222.0</ele><time>2026-03-30T11:45:55Z</time></trkpt><trkpt lat="45.62023015943841" lon="8.973935395122677"><ele>222.0</ele><time>2026-03-30T11:45:56Z</time></trkpt><trkpt lat="45.62014073289958" lon="8.974049619098274"><ele>221.25</ele><time>2026-03-30T11:45:57Z</time></trkpt><trkpt lat="45.620045798459884" lon="8.974154635945728"><ele>220.5</ele><time>2026-03-30T11:45:58Z</time></trkpt><trkpt lat="45.61994723471517" lon="8.97424436496833"><ele>219.75</ele><time>2026-03-30T11:45:59Z</time></trkpt><trkpt lat="45.61984947554096" lon="8.974338033561418"><ele>219.0</ele><time>2026-03-30T11:46:00Z</time></trkpt><trkpt lat="45.61975872544798" lon="8.974438243977948"><ele>218.2</ele><time>2026-03-30T11:46:01Z</time></trkpt><trkpt lat="45.619667775789864" lon="8.974537785601068"><ele>217.39999999999998</ele><time>2026-03-30T11:46:02Z</time></trkpt><trkpt lat="45.61958156483698" lon="8.97462880821949"><ele>216.6</ele><time>2026-03-30T11:46:03Z</time></trkpt><trkpt lat="45.619509609518744" lon="8.974706615247104"><ele>215.8</ele><time>2026-03-30T11:46:04Z</time></trkpt><trkpt lat="45.619442283237824" lon="8.974760262699323"><ele>215.0</ele><time>2026-03-30T11:46:05Z</time></trkpt><trkpt lat="45.6193787472792" lon="8.97477486085593"><ele>215.0</ele><time>2026-03-30T11:46:06Z</time></trkpt><trkpt lat="45.61931262203787" lon="8.974734673365152"><ele>215.0</ele><time>2026-03-30T11:46:07Z</time></trkpt><trkpt lat="45.61922735967371" lon="8.974684075679752"><ele>215.0</ele><time>2026-03-30T11:46:08Z</time></trkpt><trkpt lat="45.619135412457624" lon="8.974615837106594"><ele>215.0</ele><time>2026-03-30T11:46:09Z</time></trkpt><trkpt lat="45.619028575119394" lon="8.974546507157267"><ele>215.0</ele><time>2026-03-30T11:46:10Z</time></trkpt><trkpt lat="45.61892958016424" lon="8.974504373384852"><ele>215.0</ele><time>2026-03-30T11:46:11Z</time></trkpt><trkpt lat="45.61881566004368" lon="8.974506212806416"><ele>215.0</ele><time>2026-03-30T11:46:12Z</time></trkpt><trkpt lat="45.61871111704241" lon="8.974523226821766"><ele>215.0</ele><time>2026-03-30T11:46:13Z</time></trkpt><trkpt lat="45.61859961319711" lon="8.974558516339398"><ele>215.0</ele><time>2026-03-30T11:46:14Z</time></trkpt><trkpt lat="45.618499001017064" lon="8.974614989740111"><ele>215.0</ele><time>2026-03-30T11:46:15Z</time></trkpt><trkpt lat="45.61841498908187" lon="8.974706525243853"><ele>213.5</ele><time>2026-03-30T11:46:16Z</time></trkpt><trkpt lat="45.61830871808841" lon="8.974804713730268"><ele>212.0</ele><time>2026-03-30T11:46:17Z</time></trkpt><trkpt lat="45.61821492741092" lon="8.974890421997307"><ele>210.5</ele><time>2026-03-30T11:46:18Z</time></trkpt><trkpt lat="45.618113727775615" lon="8.974975569452418"><ele>209.0</ele><time>2026-03-30T11:46:19Z</time></trkpt><trkpt lat="45.618016299551684" lon="8.975069918247176"><ele>209.0</ele><time>2026-03-30T11:46:20Z</time></trkpt><trkpt lat="45.617921988010096" lon="8.975166283364732"><ele>209.0</ele><time>2026-03-30T11:46:21Z</time></trkpt><trkpt lat="45.61784873259495" lon="8.975254087945961"><ele>209.0</ele><time>2026-03-30T11:46:22Z</time></trkpt><trkpt lat="45.617758280180716" lon="8.975321357382176"><ele>209.0</ele><time>2026-03-30T11:46:23Z</time></trkpt><trkpt lat="45.61768023147435" lon="8.975410032831352"><ele>209.0</ele><time>2026-03-30T11:46:24Z</time></trkpt><trkpt lat="45.617569574681916" lon="8.9755030899547"><ele>209.0</ele><time>2026-03-30T11:46:25Z</time></trkpt><trkpt lat="45.617497668714705" lon="8.97560244292353"><ele>209.0</ele><time>2026-03-30T11:46:26Z</time></trkpt><trkpt lat="45.61741590672777" lon="8.975709114716647"><ele>209.0</ele><time>2026-03-30T11:46:27Z</time></trkpt><trkpt lat="45.617350479759665" lon="8.975820261989982"><ele>209.0</ele><time>2026-03-30T11:46:28Z</time></trkpt><trkpt lat="45.61728878497456" lon="8.975893492364508"><ele>209.0</ele><time>2026-03-30T11:46:28.999Z</time></trkpt><trkpt lat="45.617191606487275" lon="8.975924724837478"><ele>209.2</ele><time>2026-03-30T11:46:29.999Z</time></trkpt><trkpt lat="45.61709832631172" lon="8.97602758876076"><ele>209.39999999999998</ele><time>2026-03-30T11:46:30.999Z</time></trkpt><trkpt lat="45.61701357266354" lon="8.976133339624099"><ele>209.6</ele><time>2026-03-30T11:46:31.999Z</time></trkpt><trkpt lat="45.61695231255977" lon="8.97624074696327"><ele>209.8</ele><time>2026-03-30T11:46:32.999Z</time></trkpt><trkpt lat="45.61689184696315" lon="8.976320291335638"><ele>210.0</ele><time>2026-03-30T11:46:33.999Z</time></trkpt><trkpt lat="45.6168219444061" lon="8.976397798266563"><ele>210.0</ele><time>2026-03-30T11:46:34.999Z</time></trkpt><trkpt lat="45.616758333444324" lon="8.976454918500576"><ele>210.0</ele><time>2026-03-30T11:46:35.999Z</time></trkpt><trkpt lat="45.61670048750602" lon="8.976525700565835"><ele>210.0</ele><time>2026-03-30T11:46:36.999Z</time></trkpt><trkpt lat="45.616606693668395" lon="8.97661309528202"><ele>210.0</ele><time>2026-03-30T11:46:37.999Z</time></trkpt><trkpt lat="45.616541700761005" lon="8.976706132917412"><ele>210.0</ele><time>2026-03-30T11:46:38.999Z</time></trkpt><trkpt lat="45.61646730992617" lon="8.976788862112022"><ele>210.0</ele><time>2026-03-30T11:46:39.999Z</time></trkpt><trkpt lat="45.616403434342175" lon="8.976838444308056"><ele>210.0</ele><time>2026-03-30T11:46:40.999Z</time></trkpt><trkpt lat="45.61631922851701" lon="8.976930223578087"><ele>210.0</ele><time>2026-03-30T11:46:41.999Z</time></trkpt><trkpt lat="45.61624419536929" lon="8.976974850641078"><ele>210.0</ele><time>2026-03-30T11:46:42.999Z</time></trkpt><trkpt lat="45.61617243126943" lon="8.977051496125334"><ele>210.0</ele><time>2026-03-30T11:46:43.999Z</time></trkpt><trkpt lat="45.61609751685139" lon="8.977131384755081"><ele>210.0</ele><time>2026-03-30T11:46:44.999Z</time></trkpt><trkpt lat="45.6160175832976" lon="8.977222114429752"><ele>210.0</ele><time>2026-03-30T11:46:45.999Z</time></trkpt><trkpt lat="45.61594191278454" lon="8.97732868105959"><ele>210.0</ele><time>2026-03-30T11:46:46.999Z</time></trkpt><trkpt lat="45.615867791544616" lon="8.977413002487468"><ele>210.0</ele><time>2026-03-30T11:46:47.999Z</time></trkpt><trkpt lat="45.61578709118021" lon="8.97748666698297"><ele>210.0</ele><time>2026-03-30T11:46:48.999Z</time></trkpt><trkpt lat="45.61571396274736" lon="8.977550358509818"><ele>210.0</ele><time>2026-03-30T11:46:49.999Z</time></trkpt><trkpt lat="45.61563188606013" lon="8.977596324893"><ele>210.5</ele><time>2026-03-30T11:46:50.999Z</time></trkpt><trkpt lat="45.61557403989557" lon="8.977654890953863"><ele>211.0</ele><time>2026-03-30T11:46:51.999Z</time></trkpt><trkpt lat="45.61551198835748" lon="8.977729944385702"><ele>211.5</ele><time>2026-03-30T11:46:52.999Z</time></trkpt><trkpt lat="45.61544214764578" lon="8.97781178947881"><ele>212.0</ele><time>2026-03-30T11:46:53.999Z</time></trkpt><trkpt lat="45.615398616732826" lon="8.97788604614026"><ele>212.5</ele><time>2026-03-30T11:46:54.999Z</time></trkpt><trkpt lat="45.61531280679684" lon="8.97796438811965"><ele>213.0</ele><time>2026-03-30T11:46:55.999Z</time></trkpt><trkpt lat="45.61523812871005" lon="8.978060642650883"><ele>213.0</ele><time>2026-03-30T11:46:57.999Z</time></trkpt><trkpt lat="45.615183708745576" lon="8.978107132175193"><ele>213.0</ele><time>2026-03-30T11:47:04.999Z</time></trkpt><trkpt lat="45.61512256646595" lon="8.978183335461974"><ele>213.0</ele><time>2026-03-30T11:49:55Z</time></trkpt><trkpt lat="45.615044529570106" lon="8.978258943044722"><ele>213.0</ele><time>2026-03-30T11:49:56Z</time></trkpt><trkpt lat="45.614955996631686" lon="8.978347800303519"><ele>213.0</ele><time>2026-03-30T11:49:57Z</time></trkpt><trkpt lat="45.6148754983762" lon="8.978422616385007"><ele>213.0</ele><time>2026-03-30T11:49:58Z</time></trkpt><trkpt lat="45.61480721314286" lon="8.978507035457095"><ele>212.75</ele><time>2026-03-30T11:49:59Z</time></trkpt><trkpt lat="45.61472717044189" lon="8.978603133026247"><ele>212.5</ele><time>2026-03-30T11:50:00Z</time></trkpt><trkpt lat="45.61461755047991" lon="8.978704716511276"><ele>212.25</ele><time>2026-03-30T11:50:01Z</time></trkpt><trkpt lat="45.614532959691" lon="8.978825389177054"><ele>212.0</ele><time>2026-03-30T11:50:02Z</time></trkpt><trkpt lat="45.61444793765179" lon="8.978942549009279"><ele>211.5</ele><time>2026-03-30T11:50:03Z</time></trkpt><trkpt lat="45.61435225237016" lon="8.979065241727438"><ele>211.0</ele><time>2026-03-30T11:50:04Z</time></trkpt><trkpt lat="45.614257049244635" lon="8.979164509377634"><ele>210.5</ele><time>2026-03-30T11:50:05Z</time></trkpt><trkpt lat="45.614162657900195" lon="8.979250162232447"><ele>210.0</ele><time>2026-03-30T11:50:06Z</time></trkpt><trkpt lat="45.614068066389365" lon="8.979337974162906"><ele>210.0</ele><time>2026-03-30T11:50:07Z</time></trkpt><trkpt lat="45.613993620498576" lon="8.979433172307624"><ele>210.0</ele><time>2026-03-30T11:50:08Z</time></trkpt><trkpt lat="45.61390536139918" lon="8.979518702511298"><ele>210.0</ele><time>2026-03-30T11:50:09Z</time></trkpt><trkpt lat="45.61382177335637" lon="8.979609458314448"><ele>210.0</ele><time>2026-03-30T11:50:10Z</time></trkpt><trkpt lat="45.61372363266614" lon="8.97973141941458"><ele>210.0</ele><time>2026-03-30T11:50:11Z</time></trkpt><trkpt lat="45.61362390806095" lon="8.979826503071264"><ele>209.5</ele><time>2026-03-30T11:50:12Z</time></trkpt><trkpt lat="45.61352503358614" lon="8.97991733323503"><ele>209.0</ele><time>2026-03-30T11:50:13Z</time></trkpt><trkpt lat="45.61341632188283" lon="8.980016394412447"><ele>208.5</ele><time>2026-03-30T11:50:14Z</time></trkpt><trkpt lat="45.61330726104652" lon="8.980089738831573"><ele>208.0</ele><time>2026-03-30T11:50:15Z</time></trkpt><trkpt lat="45.61321022680481" lon="8.980157510849779"><ele>207.99999999999997</ele><time>2026-03-30T11:50:16Z</time></trkpt><trkpt lat="45.613130941541414" lon="8.980210549259116"><ele>208.0</ele><time>2026-03-30T11:50:17Z</time></trkpt><trkpt lat="45.61305499139444" lon="8.980245303983828"><ele>208.0</ele><time>2026-03-30T11:50:18Z</time></trkpt><trkpt lat="45.61299406372831" lon="8.980288691332857"><ele>208.0</ele><time>2026-03-30T11:50:20Z</time></trkpt><trkpt lat="45.612920859065284" lon="8.980288928195359"><ele>207.99999999999997</ele><time>2026-03-30T11:50:23Z</time></trkpt><trkpt lat="45.61291207839144" lon="8.980479920591005"><ele>208.0</ele><time>2026-03-30T11:50:24Z</time></trkpt><trkpt lat="45.612908149985905" lon="8.980600522886842"><ele>208.0</ele><time>2026-03-30T11:50:25Z</time></trkpt><trkpt lat="45.612921605572936" lon="8.98075074836223"><ele>208.0</ele><time>2026-03-30T11:50:26Z</time></trkpt><trkpt lat="45.612933872572775" lon="8.980912059970512"><ele>208.0</ele><time>2026-03-30T11:50:27Z</time></trkpt><trkpt lat="45.61294253615053" lon="8.981088100103959"><ele>208.0</ele><time>2026-03-30T11:50:28Z</time></trkpt><trkpt lat="45.61295090602855" lon="8.981283751568068"><ele>207.66666666666666</ele><time>2026-03-30T11:50:29Z</time></trkpt><trkpt lat="45.61295998526385" lon="8.981472285780702"><ele>207.33333333333331</ele><time>2026-03-30T11:50:30Z</time></trkpt><trkpt lat="45.61296913314937" lon="8.981694721942768"><ele>207.0</ele><time>2026-03-30T11:50:31Z</time></trkpt><trkpt lat="45.61297651331153" lon="8.981940476985663"><ele>207.66666666666669</ele><time>2026-03-30T11:50:32Z</time></trkpt><trkpt lat="45.61298523941926" lon="8.982187826571387"><ele>208.33333333333334</ele><time>2026-03-30T11:50:33Z</time></trkpt><trkpt lat="45.61299410092246" lon="8.982411635315435"><ele>209.0</ele><time>2026-03-30T11:50:34Z</time></trkpt><trkpt lat="45.613003109692215" lon="8.982632213990458"><ele>209.0</ele><time>2026-03-30T11:50:35Z</time></trkpt><trkpt lat="45.613014486357336" lon="8.982854414568102"><ele>209.0</ele><time>2026-03-30T11:50:36Z</time></trkpt><trkpt lat="45.613023016373404" lon="8.98307664530417"><ele>209.0</ele><time>2026-03-30T11:50:37Z</time></trkpt><trkpt lat="45.61302800821632" lon="8.983278226381977"><ele>209.2</ele><time>2026-03-30T11:50:38Z</time></trkpt><trkpt lat="45.61303764855285" lon="8.983455077497755"><ele>209.39999999999998</ele><time>2026-03-30T11:50:39Z</time></trkpt><trkpt lat="45.613044641340764" lon="8.983607530822203"><ele>209.6</ele><time>2026-03-30T11:50:40Z</time></trkpt><trkpt lat="45.61304893446741" lon="8.983745940213993"><ele>209.8</ele><time>2026-03-30T11:50:41Z</time></trkpt><trkpt lat="45.61305457374098" lon="8.983887125348208"><ele>210.0</ele><time>2026-03-30T11:50:42Z</time></trkpt><trkpt lat="45.61306051378058" lon="8.98402851874693"><ele>209.8</ele><time>2026-03-30T11:50:43Z</time></trkpt><trkpt lat="45.61306718748418" lon="8.984189233728959"><ele>209.6</ele><time>2026-03-30T11:50:43.999Z</time></trkpt><trkpt lat="45.61307520065625" lon="8.984360039984184"><ele>209.39999999999998</ele><time>2026-03-30T11:50:44.999Z</time></trkpt><trkpt lat="45.61308198963493" lon="8.984516349282048"><ele>209.2</ele><time>2026-03-30T11:50:45.999Z</time></trkpt><trkpt lat="45.613084367421635" lon="8.984668156686446"><ele>209.0</ele><time>2026-03-30T11:50:46.999Z</time></trkpt><trkpt lat="45.6130876215616" lon="8.984817321976188"><ele>209.0</ele><time>2026-03-30T11:50:47.999Z</time></trkpt><trkpt lat="45.61309301430638" lon="8.984967722541564"><ele>209.0</ele><time>2026-03-30T11:50:48.999Z</time></trkpt><trkpt lat="45.61309779753867" lon="8.985127110865667"><ele>209.0</ele><time>2026-03-30T11:50:49.999Z</time></trkpt><trkpt lat="45.61310185642116" lon="8.985289805857649"><ele>209.0</ele><time>2026-03-30T11:50:50.999Z</time></trkpt><trkpt lat="45.61310668746935" lon="8.985444557795661"><ele>209.0</ele><time>2026-03-30T11:50:51.999Z</time></trkpt><trkpt lat="45.61311224045503" lon="8.985580507131305"><ele>209.0</ele><time>2026-03-30T11:50:52.999Z</time></trkpt><trkpt lat="45.61311507654729" lon="8.985688152509463"><ele>209.0</ele><time>2026-03-30T11:50:53.999Z</time></trkpt><trkpt lat="45.61311813041975" lon="8.985835160312346"><ele>209.0</ele><time>2026-03-30T11:50:54.999Z</time></trkpt><trkpt lat="45.613122002598715" lon="8.985960832541874"><ele>209.0</ele><time>2026-03-30T11:50:55.999Z</time></trkpt><trkpt lat="45.61312457555736" lon="8.98611182170717"><ele>209.0</ele><time>2026-03-30T11:50:56.999Z</time></trkpt><trkpt lat="45.61313090346864" lon="8.986274647474108"><ele>209.0</ele><time>2026-03-30T11:50:57.999Z</time></trkpt><trkpt lat="45.613133921242564" lon="8.986443634607822"><ele>209.0</ele><time>2026-03-30T11:50:58.999Z</time></trkpt><trkpt lat="45.61313966569571" lon="8.98661124889256"><ele>209.0</ele><time>2026-03-30T11:50:59.999Z</time></trkpt><trkpt lat="45.613148032247175" lon="8.986779331489457"><ele>209.0</ele><time>2026-03-30T11:51:00.999Z</time></trkpt><trkpt lat="45.613153486520254" lon="8.986932368506151"><ele>209.2</ele><time>2026-03-30T11:51:01.999Z</time></trkpt><trkpt lat="45.61315986709301" lon="8.987074989966827"><ele>209.39999999999998</ele><time>2026-03-30T11:51:02.999Z</time></trkpt><trkpt lat="45.613163210461536" lon="8.987216989509426"><ele>209.6</ele><time>2026-03-30T11:51:03.999Z</time></trkpt><trkpt lat="45.61316697619455" lon="8.987362919529794"><ele>209.8</ele><time>2026-03-30T11:51:04.999Z</time></trkpt><trkpt lat="45.61317114948015" lon="8.98751318828695"><ele>210.0</ele><time>2026-03-30T11:51:05.999Z</time></trkpt><trkpt lat="45.6131748401259" lon="8.987666800373999"><ele>210.0</ele><time>2026-03-30T11:51:06.999Z</time></trkpt><trkpt lat="45.613178787420864" lon="8.987823180377672"><ele>210.0</ele><time>2026-03-30T11:51:07.999Z</time></trkpt><trkpt lat="45.61318248847155" lon="8.98798182092709"><ele>210.0</ele><time>2026-03-30T11:51:08.999Z</time></trkpt><trkpt lat="45.613189290953585" lon="8.988142272729394"><ele>210.0</ele><time>2026-03-30T11:51:09.999Z</time></trkpt><trkpt lat="45.61319598443429" lon="8.988291710052874"><ele>210.0</ele><time>2026-03-30T11:51:10.999Z</time></trkpt><trkpt lat="45.6132020779933" lon="8.988442961939988"><ele>209.4</ele><time>2026-03-30T11:51:11.999Z</time></trkpt><trkpt lat="45.613207936098036" lon="8.988599004588462"><ele>208.8</ele><time>2026-03-30T11:51:12.999Z</time></trkpt><trkpt lat="45.613213594672494" lon="8.988756476879615"><ele>208.2</ele><time>2026-03-30T11:51:13.999Z</time></trkpt><trkpt lat="45.61321895429116" lon="8.988913544300036"><ele>207.6</ele><time>2026-03-30T11:51:14.999Z</time></trkpt><trkpt lat="45.61322527205934" lon="8.989073161692142"><ele>207.0</ele><time>2026-03-30T11:51:15.999Z</time></trkpt><trkpt lat="45.613231598078876" lon="8.989231362366812"><ele>206.8</ele><time>2026-03-30T11:51:16.999Z</time></trkpt><trkpt lat="45.61323570286462" lon="8.98939040815886"><ele>206.6</ele><time>2026-03-30T11:51:17.999Z</time></trkpt><trkpt lat="45.613241144896854" lon="8.989557203520501"><ele>206.4</ele><time>2026-03-30T11:51:18.999Z</time></trkpt><trkpt lat="45.61324738838009" lon="8.98971112162961"><ele>206.20000000000002</ele><time>2026-03-30T11:51:19.999Z</time></trkpt><trkpt lat="45.61325141731486" lon="8.989855994067755"><ele>206.0</ele><time>2026-03-30T11:51:20.999Z</time></trkpt><trkpt lat="45.61325441202426" lon="8.989992831630117"><ele>206.33333333333334</ele><time>2026-03-30T11:51:21.999Z</time></trkpt><trkpt lat="45.61325674996883" lon="8.990124018374008"><ele>206.66666666666669</ele><time>2026-03-30T11:51:22.999Z</time></trkpt><trkpt lat="45.61325744162115" lon="8.990245039600415"><ele>207.0</ele><time>2026-03-30T11:51:23.999Z</time></trkpt><trkpt lat="45.61326147222001" lon="8.99033967976407"><ele>207.33333333333331</ele><time>2026-03-30T11:51:24.999Z</time></trkpt><trkpt lat="45.61326080165086" lon="8.9905169182049"><ele>207.66666666666666</ele><time>2026-03-30T11:51:26.999Z</time></trkpt><trkpt lat="45.613265946905194" lon="8.990608191426887"><ele>208.0</ele><time>2026-03-30T11:51:27.999Z</time></trkpt><trkpt lat="45.61328014958401" lon="8.990704827160702"><ele>208.0</ele><time>2026-03-30T11:51:28.999Z</time></trkpt><trkpt lat="45.61330992691351" lon="8.990788846648652"><ele>208.0</ele><time>2026-03-30T11:51:29.999Z</time></trkpt><trkpt lat="45.613340362379326" lon="8.990870566676369"><ele>208.0</ele><time>2026-03-30T11:51:30.999Z</time></trkpt><trkpt lat="45.61335565170186" lon="8.990960340919848"><ele>208.0</ele><time>2026-03-30T11:51:31.999Z</time></trkpt><trkpt lat="45.6133546588613" lon="8.991054576553019"><ele>208.0</ele><time>2026-03-30T11:51:32.999Z</time></trkpt><trkpt lat="45.613329312499225" lon="8.99114637220791"><ele>208.0</ele><time>2026-03-30T11:51:33.999Z</time></trkpt><trkpt lat="45.613314215995146" lon="8.991247435396755"><ele>208.0</ele><time>2026-03-30T11:51:34.999Z</time></trkpt><trkpt lat="45.613191739314395" lon="8.99131828222054"><ele>207.75</ele><time>2026-03-30T11:51:35.999Z</time></trkpt><trkpt lat="45.61310193855217" lon="8.991416737938964"><ele>207.5</ele><time>2026-03-30T11:51:36.999Z</time></trkpt><trkpt lat="45.61301710748385" lon="8.991529178333407"><ele>207.25</ele><time>2026-03-30T11:51:37.999Z</time></trkpt><trkpt lat="45.61292622773264" lon="8.991643886085832"><ele>207.0</ele><time>2026-03-30T11:51:38.999Z</time></trkpt><trkpt lat="45.612827693300005" lon="8.991763763765677"><ele>207.0</ele><time>2026-03-30T11:51:39.999Z</time></trkpt><trkpt lat="45.61272015041674" lon="8.991882705245125"><ele>207.0</ele><time>2026-03-30T11:51:40.999Z</time></trkpt><trkpt lat="45.61262064952804" lon="8.992008029839537"><ele>207.0</ele><time>2026-03-30T11:51:41.999Z</time></trkpt><trkpt lat="45.612518662192784" lon="8.992126594462752"><ele>207.0</ele><time>2026-03-30T11:51:42.999Z</time></trkpt><trkpt lat="45.61242217935306" lon="8.99224370408334"><ele>207.0</ele><time>2026-03-30T11:51:43.999Z</time></trkpt><trkpt lat="45.61231550945729" lon="8.992377290350834"><ele>207.0</ele><time>2026-03-30T11:51:44.999Z</time></trkpt><trkpt lat="45.612218061490665" lon="8.992492545327194"><ele>207.0</ele><time>2026-03-30T11:51:45.999Z</time></trkpt><trkpt lat="45.61212289072616" lon="8.99260025824613"><ele>207.0</ele><time>2026-03-30T11:51:46.999Z</time></trkpt><trkpt lat="45.61202865555694" lon="8.99270962688049"><ele>207.0</ele><time>2026-03-30T11:51:47.999Z</time></trkpt><trkpt lat="45.611952181597445" lon="8.992813995131664"><ele>207.0</ele><time>2026-03-30T11:51:48.999Z</time></trkpt><trkpt lat="45.61187628717909" lon="8.99290312262933"><ele>207.0</ele><time>2026-03-30T11:51:49.999Z</time></trkpt><trkpt lat="45.611805289667096" lon="8.992992788617858"><ele>207.0</ele><time>2026-03-30T11:51:50.999Z</time></trkpt><trkpt lat="45.61173399323421" lon="8.993073584933107"><ele>207.0</ele><time>2026-03-30T11:51:51.999Z</time></trkpt><trkpt lat="45.6116682301788" lon="8.993152822844538"><ele>207.0</ele><time>2026-03-30T11:51:52.999Z</time></trkpt><trkpt lat="45.61160126212346" lon="8.993233013767815"><ele>207.0</ele><time>2026-03-30T11:51:53.999Z</time></trkpt><trkpt lat="45.61153011447174" lon="8.993309445936703"><ele>207.0</ele><time>2026-03-30T11:51:55Z</time></trkpt><trkpt lat="45.61146411148301" lon="8.993386073957549"><ele>207.0</ele><time>2026-03-30T11:51:56Z</time></trkpt><trkpt lat="45.61136217890898" lon="8.993483561085396"><ele>207.0</ele><time>2026-03-30T11:51:58Z</time></trkpt><trkpt lat="45.611295064667004" lon="8.993499516609594"><ele>207.0</ele><time>2026-03-30T11:51:59Z</time></trkpt><trkpt lat="45.61122462857551" lon="8.993523983272382"><ele>207.0</ele><time>2026-03-30T11:52:00Z</time></trkpt><trkpt lat="45.61116757005764" lon="8.993597911335845"><ele>207.0</ele><time>2026-03-30T11:52:01Z</time></trkpt><trkpt lat="45.6111196612807" lon="8.993701079334002"><ele>207.0</ele><time>2026-03-30T11:52:02Z</time></trkpt><trkpt lat="45.61105729140726" lon="8.993809114901195"><ele>207.0</ele><time>2026-03-30T11:52:03Z</time></trkpt><trkpt lat="45.610972922342995" lon="8.993917013209709"><ele>207.0</ele><time>2026-03-30T11:52:04Z</time></trkpt><trkpt lat="45.610892542481494" lon="8.994018850108738"><ele>206.6</ele><time>2026-03-30T11:52:05Z</time></trkpt><trkpt lat="45.610806750626885" lon="8.994127538858352"><ele>206.2</ele><time>2026-03-30T11:52:06Z</time></trkpt><trkpt lat="45.61072516555151" lon="8.994230216399863"><ele>205.8</ele><time>2026-03-30T11:52:07Z</time></trkpt><trkpt lat="45.610642348307756" lon="8.99432892636551"><ele>205.4</ele><time>2026-03-30T11:52:08Z</time></trkpt><trkpt lat="45.61055921328316" lon="8.994435967496486"><ele>205.0</ele><time>2026-03-30T11:52:09Z</time></trkpt><trkpt lat="45.61046965282801" lon="8.994553149660344"><ele>205.0</ele><time>2026-03-30T11:52:10Z</time></trkpt><trkpt lat="45.610377528392846" lon="8.994672298983195"><ele>205.0</ele><time>2026-03-30T11:52:11Z</time></trkpt><trkpt lat="45.610282545120455" lon="8.994786842499295"><ele>205.0</ele><time>2026-03-30T11:52:12Z</time></trkpt><trkpt lat="45.610186904984445" lon="8.994900861292788"><ele>205.0</ele><time>2026-03-30T11:52:13Z</time></trkpt><trkpt lat="45.61008964159788" lon="8.995022854694902"><ele>204.75</ele><time>2026-03-30T11:52:14Z</time></trkpt><trkpt lat="45.60999734428423" lon="8.995144756051323"><ele>204.5</ele><time>2026-03-30T11:52:15Z</time></trkpt><trkpt lat="45.60990572483072" lon="8.995267585069788"><ele>204.25</ele><time>2026-03-30T11:52:16Z</time></trkpt><trkpt lat="45.60981465907093" lon="8.995375000632748"><ele>204.0</ele><time>2026-03-30T11:52:17Z</time></trkpt><trkpt lat="45.609721185359895" lon="8.99549365227851"><ele>204.0</ele><time>2026-03-30T11:52:18Z</time></trkpt><trkpt lat="45.60962349336791" lon="8.995626233855257"><ele>204.0</ele><time>2026-03-30T11:52:19Z</time></trkpt><trkpt lat="45.609522498450474" lon="8.995751224848497"><ele>204.0</ele><time>2026-03-30T11:52:20Z</time></trkpt><trkpt lat="45.60942480652053" lon="8.995870675446245"><ele>204.0</ele><time>2026-03-30T11:52:21Z</time></trkpt><trkpt lat="45.60933456429838" lon="8.995977058843035"><ele>203.25</ele><time>2026-03-30T11:52:22Z</time></trkpt><trkpt lat="45.60924763350873" lon="8.996078821248416"><ele>202.5</ele><time>2026-03-30T11:52:23Z</time></trkpt><trkpt lat="45.60916041290174" lon="8.996197548102167"><ele>201.75</ele><time>2026-03-30T11:52:24Z</time></trkpt><trkpt lat="45.60906317842335" lon="8.996307329939771"><ele>201.0</ele><time>2026-03-30T11:52:25Z</time></trkpt><trkpt lat="45.608957940299874" lon="8.996418548619284"><ele>201.0</ele><time>2026-03-30T11:52:26Z</time></trkpt><trkpt lat="45.60886274678625" lon="8.996525284623669"><ele>201.0</ele><time>2026-03-30T11:52:27Z</time></trkpt><trkpt lat="45.6087624260477" lon="8.996641732509934"><ele>201.0</ele><time>2026-03-30T11:52:28Z</time></trkpt><trkpt lat="45.608657903147645" lon="8.996760772145782"><ele>201.0</ele><time>2026-03-30T11:52:29Z</time></trkpt><trkpt lat="45.60854673067993" lon="8.996883593785952"><ele>201.25</ele><time>2026-03-30T11:52:30Z</time></trkpt><trkpt lat="45.6084364082127" lon="8.997008874536506"><ele>201.5</ele><time>2026-03-30T11:52:31Z</time></trkpt><trkpt lat="45.60832358470403" lon="8.997127660318277"><ele>201.75</ele><time>2026-03-30T11:52:32Z</time></trkpt><trkpt lat="45.60822112946634" lon="8.997241587340723"><ele>202.0</ele><time>2026-03-30T11:52:33Z</time></trkpt><trkpt lat="45.60812561311913" lon="8.997349750150581"><ele>202.0</ele><time>2026-03-30T11:52:34Z</time></trkpt><trkpt lat="45.60802946744089" lon="8.997452421590864"><ele>202.0</ele><time>2026-03-30T11:52:35Z</time></trkpt><trkpt lat="45.60793199268989" lon="8.99755818039513"><ele>202.0</ele><time>2026-03-30T11:52:36Z</time></trkpt><trkpt lat="45.607835784134586" lon="8.997665769433532"><ele>202.0</ele><time>2026-03-30T11:52:37Z</time></trkpt><trkpt lat="45.60773797349965" lon="8.997770387633262"><ele>202.0</ele><time>2026-03-30T11:52:38Z</time></trkpt><trkpt lat="45.60764132721191" lon="8.997879411339921"><ele>202.0</ele><time>2026-03-30T11:52:39Z</time></trkpt><trkpt lat="45.60753985780975" lon="8.99799966329838"><ele>202.0</ele><time>2026-03-30T11:52:40Z</time></trkpt><trkpt lat="45.60743869829009" lon="8.99812773939133"><ele>202.0</ele><time>2026-03-30T11:52:41Z</time></trkpt><trkpt lat="45.60733975733885" lon="8.99826164122451"><ele>202.0</ele><time>2026-03-30T11:52:42Z</time></trkpt><trkpt lat="45.607241023621334" lon="8.998391568415215"><ele>202.0</ele><time>2026-03-30T11:52:43Z</time></trkpt><trkpt lat="45.60713992443755" lon="8.998520256504724"><ele>202.0</ele><time>2026-03-30T11:52:43.999Z</time></trkpt><trkpt lat="45.60704429992625" lon="8.998642372980125"><ele>202.0</ele><time>2026-03-30T11:52:44.999Z</time></trkpt><trkpt lat="45.60695321018308" lon="8.998762563492571"><ele>201.8</ele><time>2026-03-30T11:52:45.999Z</time></trkpt><trkpt lat="45.60685926648941" lon="8.998885591339283"><ele>201.6</ele><time>2026-03-30T11:52:46.999Z</time></trkpt><trkpt lat="45.60677372430576" lon="8.998999346784512"><ele>201.4</ele><time>2026-03-30T11:52:47.999Z</time></trkpt><trkpt lat="45.60670827973423" lon="8.999089494652967"><ele>201.20000000000002</ele><time>2026-03-30T11:52:48.999Z</time></trkpt><trkpt lat="45.60664683850807" lon="8.999172431277568"><ele>201.0</ele><time>2026-03-30T11:52:49.999Z</time></trkpt><trkpt lat="45.606592761529086" lon="8.999238095780342"><ele>201.0</ele><time>2026-03-30T11:52:50.999Z</time></trkpt><trkpt lat="45.60651042946647" lon="8.999321433893247"><ele>201.0</ele><time>2026-03-30T11:52:52.999Z</time></trkpt><trkpt lat="45.606381930240815" lon="8.999301439004856"><ele>201.0</ele><time>2026-03-30T11:52:54.999Z</time></trkpt><trkpt lat="45.60629861753026" lon="8.99923096579531"><ele>201.0</ele><time>2026-03-30T11:52:55.999Z</time></trkpt><trkpt lat="45.606216945438284" lon="8.999160378342992"><ele>201.0</ele><time>2026-03-30T11:52:56.999Z</time></trkpt><trkpt lat="45.60611727732926" lon="8.99908421142795"><ele>201.0</ele><time>2026-03-30T11:52:57.999Z</time></trkpt><trkpt lat="45.60601965305262" lon="8.999007570919758"><ele>201.0</ele><time>2026-03-30T11:52:58.999Z</time></trkpt><trkpt lat="45.60591139910823" lon="8.998927047311641"><ele>201.0</ele><time>2026-03-30T11:52:59.999Z</time></trkpt><trkpt lat="45.605794085174644" lon="8.998841987125333"><ele>201.0</ele><time>2026-03-30T11:53:00.999Z</time></trkpt><trkpt lat="45.60566900769635" lon="8.998747503322564"><ele>201.0</ele><time>2026-03-30T11:53:01.999Z</time></trkpt><trkpt lat="45.605543676900055" lon="8.99865217050562"><ele>201.0</ele><time>2026-03-30T11:53:02.999Z</time></trkpt><trkpt lat="45.605424004724505" lon="8.998564035144465"><ele>201.0</ele><time>2026-03-30T11:53:03.999Z</time></trkpt><trkpt lat="45.605295831778214" lon="8.99846710164915"><ele>201.0</ele><time>2026-03-30T11:53:04.999Z</time></trkpt><trkpt lat="45.60516999836805" lon="8.998372991166878"><ele>201.0</ele><time>2026-03-30T11:53:05.999Z</time></trkpt><trkpt lat="45.6050554549045" lon="8.998282248928787"><ele>201.0</ele><time>2026-03-30T11:53:06.999Z</time></trkpt><trkpt lat="45.604950514884955" lon="8.998203635899653"><ele>201.0</ele><time>2026-03-30T11:53:07.999Z</time></trkpt><trkpt lat="45.604849703130675" lon="8.998124887540618"><ele>201.0</ele><time>2026-03-30T11:53:08.999Z</time></trkpt><trkpt lat="45.60475803448445" lon="8.998053048803564"><ele>201.0</ele><time>2026-03-30T11:53:09.999Z</time></trkpt><trkpt lat="45.60466924508196" lon="8.997980315810688"><ele>201.0</ele><time>2026-03-30T11:53:10.999Z</time></trkpt><trkpt lat="45.604586978526704" lon="8.997899349047566"><ele>201.0</ele><time>2026-03-30T11:53:11.999Z</time></trkpt><trkpt lat="45.60451337273416" lon="8.997825146918643"><ele>201.0</ele><time>2026-03-30T11:53:12.999Z</time></trkpt><trkpt lat="45.60444918550558" lon="8.997768640590058"><ele>201.0</ele><time>2026-03-30T11:53:13.999Z</time></trkpt><trkpt lat="45.60440470156738" lon="8.997703095776183"><ele>201.0</ele><time>2026-03-30T11:53:14.999Z</time></trkpt><trkpt lat="45.604242865967514" lon="8.997798373754732"><ele>200.75</ele><time>2026-03-30T11:53:16.999Z</time></trkpt><trkpt lat="45.60416340512433" lon="8.997882467604366"><ele>200.5</ele><time>2026-03-30T11:53:17.999Z</time></trkpt><trkpt lat="45.604073524831385" lon="8.997975431474712"><ele>200.25</ele><time>2026-03-30T11:53:18.999Z</time></trkpt><trkpt lat="45.603976031034094" lon="8.998074489357222"><ele>200.0</ele><time>2026-03-30T11:53:19.999Z</time></trkpt><trkpt lat="45.60387117034878" lon="8.998183289329312"><ele>200.0</ele><time>2026-03-30T11:53:20.999Z</time></trkpt><trkpt lat="45.60376540344011" lon="8.99830259782058"><ele>200.0</ele><time>2026-03-30T11:53:21.999Z</time></trkpt><trkpt lat="45.60365624685588" lon="8.998425289621496"><ele>200.0</ele><time>2026-03-30T11:53:22.999Z</time></trkpt><trkpt lat="45.60354267209533" lon="8.998547878830946"><ele>200.0</ele><time>2026-03-30T11:53:23.999Z</time></trkpt><trkpt lat="45.60343758326234" lon="8.998663196764898"><ele>200.0</ele><time>2026-03-30T11:53:24.999Z</time></trkpt><trkpt lat="45.603342604336454" lon="8.998772632510788"><ele>200.0</ele><time>2026-03-30T11:53:25.999Z</time></trkpt><trkpt lat="45.60325095540437" lon="8.998883351063268"><ele>200.0</ele><time>2026-03-30T11:53:26.999Z</time></trkpt><trkpt lat="45.603161907274156" lon="8.999001331289648"><ele>200.0</ele><time>2026-03-30T11:53:27.999Z</time></trkpt><trkpt lat="45.60306803618305" lon="8.999122935737997"><ele>199.75</ele><time>2026-03-30T11:53:28.999Z</time></trkpt><trkpt lat="45.60296452763076" lon="8.999221548236019"><ele>199.5</ele><time>2026-03-30T11:53:29.999Z</time></trkpt><trkpt lat="45.602847814307175" lon="8.999307790961925"><ele>199.25</ele><time>2026-03-30T11:53:30.999Z</time></trkpt><trkpt lat="45.602731065404434" lon="8.999398974036035"><ele>199.0</ele><time>2026-03-30T11:53:31.999Z</time></trkpt><trkpt lat="45.60262754042936" lon="8.999473936818855"><ele>199.39999999999998</ele><time>2026-03-30T11:53:32.999Z</time></trkpt><trkpt lat="45.60254174194039" lon="8.999542963692681"><ele>199.8</ele><time>2026-03-30T11:53:33.999Z</time></trkpt><trkpt lat="45.60246539463306" lon="8.999594462323905"><ele>200.2</ele><time>2026-03-30T11:53:34.999Z</time></trkpt><trkpt lat="45.602406299699695" lon="8.999650910115538"><ele>200.60000000000002</ele><time>2026-03-30T11:53:35.999Z</time></trkpt><trkpt lat="45.6023401038874" lon="8.999801854305622"><ele>201.0</ele><time>2026-03-30T11:53:37.999Z</time></trkpt><trkpt lat="45.60238854940279" lon="8.999947178709112"><ele>201.0</ele><time>2026-03-30T11:53:38.999Z</time></trkpt><trkpt lat="45.60244131387574" lon="9.000077505322974"><ele>201.0</ele><time>2026-03-30T11:53:39.999Z</time></trkpt><trkpt lat="45.6025171301053" lon="9.000220167842917"><ele>201.0</ele><time>2026-03-30T11:53:40.999Z</time></trkpt><trkpt lat="45.6025981407099" lon="9.000379109220901"><ele>201.0</ele><time>2026-03-30T11:53:41.999Z</time></trkpt><trkpt lat="45.60267099170068" lon="9.000542436593754"><ele>201.0</ele><time>2026-03-30T11:53:42.999Z</time></trkpt><trkpt lat="45.602739106727" lon="9.00070769145585"><ele>201.0</ele><time>2026-03-30T11:53:43.999Z</time></trkpt><trkpt lat="45.60281387432804" lon="9.00087798242816"><ele>201.0</ele><time>2026-03-30T11:53:44.999Z</time></trkpt><trkpt lat="45.60288773400592" lon="9.001047252225437"><ele>201.0</ele><time>2026-03-30T11:53:45.999Z</time></trkpt><trkpt lat="45.60295332405195" lon="9.00121279568592"><ele>201.0</ele><time>2026-03-30T11:53:46.999Z</time></trkpt><trkpt lat="45.60301838380492" lon="9.001375880744218"><ele>201.0</ele><time>2026-03-30T11:53:47.999Z</time></trkpt><trkpt lat="45.6030730480979" lon="9.001531260467623"><ele>201.0</ele><time>2026-03-30T11:53:48.999Z</time></trkpt><trkpt lat="45.60312139998891" lon="9.001690771130203"><ele>201.0</ele><time>2026-03-30T11:53:49.999Z</time></trkpt><trkpt lat="45.603181167792464" lon="9.001851998768517"><ele>201.0</ele><time>2026-03-30T11:53:50.999Z</time></trkpt><trkpt lat="45.603252054299936" lon="9.002025862117803"><ele>201.0</ele><time>2026-03-30T11:53:51.999Z</time></trkpt><trkpt lat="45.60332788120374" lon="9.002208407588848"><ele>201.0</ele><time>2026-03-30T11:53:52.999Z</time></trkpt><trkpt lat="45.603406986503096" lon="9.002401504329006"><ele>201.0</ele><time>2026-03-30T11:53:53.999Z</time></trkpt><trkpt lat="45.60348117304059" lon="9.002584891177296"><ele>199.66666666666669</ele><time>2026-03-30T11:53:54.998Z</time></trkpt><trkpt lat="45.6035484223963" lon="9.00277667169995"><ele>198.33333333333334</ele><time>2026-03-30T11:53:55.998Z</time></trkpt><trkpt lat="45.60364621121152" lon="9.002948524690634"><ele>197.0</ele><time>2026-03-30T11:53:56.998Z</time></trkpt><trkpt lat="45.60372900920355" lon="9.003139329234227"><ele>197.0</ele><time>2026-03-30T11:53:57.998Z</time></trkpt><trkpt lat="45.60381431104551" lon="9.003323701523543"><ele>197.0</ele><time>2026-03-30T11:53:58.998Z</time></trkpt><trkpt lat="45.60389203928077" lon="9.003506244366633"><ele>197.0</ele><time>2026-03-30T11:53:59.998Z</time></trkpt><trkpt lat="45.6039728114363" lon="9.003698373264967"><ele>197.0</ele><time>2026-03-30T11:54:01Z</time></trkpt><trkpt lat="45.604048333470324" lon="9.003876753779696"><ele>197.0</ele><time>2026-03-30T11:54:02Z</time></trkpt><trkpt lat="45.60411866677325" lon="9.004058223899289"><ele>197.0</ele><time>2026-03-30T11:54:03Z</time></trkpt><trkpt lat="45.60418312299045" lon="9.004229021689262"><ele>197.0</ele><time>2026-03-30T11:54:04Z</time></trkpt><trkpt lat="45.604268378196004" lon="9.004401562766375"><ele>197.0</ele><time>2026-03-30T11:54:05Z</time></trkpt><trkpt lat="45.60436017976204" lon="9.004547061922416"><ele>197.0</ele><time>2026-03-30T11:54:06Z</time></trkpt><trkpt lat="45.60445115031169" lon="9.00466572553504"><ele>197.0</ele><time>2026-03-30T11:54:07Z</time></trkpt><trkpt lat="45.60453397464219" lon="9.004747832639689"><ele>197.0</ele><time>2026-03-30T11:54:08Z</time></trkpt><trkpt lat="45.60461591538868" lon="9.004825657064485"><ele>197.39999999999998</ele><time>2026-03-30T11:54:09Z</time></trkpt><trkpt lat="45.604675232142135" lon="9.004890785082354"><ele>197.79999999999998</ele><time>2026-03-30T11:54:10Z</time></trkpt><trkpt lat="45.60473962596069" lon="9.005038854236995"><ele>198.2</ele><time>2026-03-30T11:54:12Z</time></trkpt><trkpt lat="45.60468167045892" lon="9.005190694328181"><ele>198.6</ele><time>2026-03-30T11:54:14Z</time></trkpt><trkpt lat="45.60460468378846" lon="9.005258446582769"><ele>199.0</ele><time>2026-03-30T11:54:15Z</time></trkpt><trkpt lat="45.60451102955294" lon="9.005296837346306"><ele>198.5</ele><time>2026-03-30T11:54:16Z</time></trkpt><trkpt lat="45.604394755325906" lon="9.005340957049734"><ele>198.0</ele><time>2026-03-30T11:54:17Z</time></trkpt><trkpt lat="45.60428225193191" lon="9.005383697505623"><ele>197.5</ele><time>2026-03-30T11:54:18Z</time></trkpt><trkpt lat="45.60415752222881" lon="9.005430735601719"><ele>197.0</ele><time>2026-03-30T11:54:19Z</time></trkpt><trkpt lat="45.60402291111765" lon="9.005491267141668"><ele>197.0</ele><time>2026-03-30T11:54:20Z</time></trkpt><trkpt lat="45.603889068943644" lon="9.005556525425826"><ele>197.0</ele><time>2026-03-30T11:54:21Z</time></trkpt><trkpt lat="45.60374727624861" lon="9.005641713299564"><ele>197.0</ele><time>2026-03-30T11:54:22Z</time></trkpt><trkpt lat="45.60359320348284" lon="9.005736541919195"><ele>195.66666666666669</ele><time>2026-03-30T11:54:23Z</time></trkpt><trkpt lat="45.60343982949917" lon="9.005845908780861"><ele>194.33333333333331</ele><time>2026-03-30T11:54:24Z</time></trkpt><trkpt lat="45.60330577771579" lon="9.005957972764056"><ele>193.0</ele><time>2026-03-30T11:54:25Z</time></trkpt><trkpt lat="45.60318194544691" lon="9.006069733243494"><ele>193.0</ele><time>2026-03-30T11:54:26Z</time></trkpt><trkpt lat="45.603058708226015" lon="9.006177964444541"><ele>193.0</ele><time>2026-03-30T11:54:27Z</time></trkpt><trkpt lat="45.60294165052039" lon="9.006305981612584"><ele>193.0</ele><time>2026-03-30T11:54:28Z</time></trkpt><trkpt lat="45.60283265964581" lon="9.006441004768819"><ele>193.0</ele><time>2026-03-30T11:54:29Z</time></trkpt><trkpt lat="45.60273018800719" lon="9.00656214051474"><ele>193.0</ele><time>2026-03-30T11:54:30Z</time></trkpt><trkpt lat="45.602634817994634" lon="9.006662706448404"><ele>193.0</ele><time>2026-03-30T11:54:31Z</time></trkpt><trkpt lat="45.60254700150783" lon="9.006741425612052"><ele>193.0</ele><time>2026-03-30T11:54:32Z</time></trkpt><trkpt lat="45.602456780184276" lon="9.006788776974119"><ele>193.0</ele><time>2026-03-30T11:54:33Z</time></trkpt><trkpt lat="45.602378079054795" lon="9.006831238328928"><ele>193.0</ele><time>2026-03-30T11:54:34Z</time></trkpt><trkpt lat="45.60232905662998" lon="9.006905239261227"><ele>193.0</ele><time>2026-03-30T11:54:35Z</time></trkpt><trkpt lat="45.60231599161159" lon="9.007001999849148"><ele>193.0</ele><time>2026-03-30T11:54:36Z</time></trkpt><trkpt lat="45.60233512353249" lon="9.007108451212654"><ele>193.0</ele><time>2026-03-30T11:54:37Z</time></trkpt><trkpt lat="45.602392144690555" lon="9.007221399660919"><ele>193.0</ele><time>2026-03-30T11:54:38Z</time></trkpt><trkpt lat="45.60249266954519" lon="9.007285985887568"><ele>193.0</ele><time>2026-03-30T11:54:39Z</time></trkpt><trkpt lat="45.60259214241322" lon="9.00742402785744"><ele>193.66666666666666</ele><time>2026-03-30T11:54:40Z</time></trkpt><trkpt lat="45.602637977870295" lon="9.00762878751054"><ele>194.33333333333331</ele><time>2026-03-30T11:54:41Z</time></trkpt><trkpt lat="45.60270789660534" lon="9.00782141011133"><ele>195.0</ele><time>2026-03-30T11:54:42Z</time></trkpt><trkpt lat="45.60277473014805" lon="9.008024295234584"><ele>195.33333333333331</ele><time>2026-03-30T11:54:43Z</time></trkpt><trkpt lat="45.602847680657824" lon="9.008234986997595"><ele>195.66666666666666</ele><time>2026-03-30T11:54:44Z</time></trkpt><trkpt lat="45.60292935943538" lon="9.008458683952467"><ele>196.0</ele><time>2026-03-30T11:54:45Z</time></trkpt><trkpt lat="45.60300508919224" lon="9.008660544233912"><ele>196.0</ele><time>2026-03-30T11:54:46Z</time></trkpt><trkpt lat="45.60307656852602" lon="9.008847384316557"><ele>196.0</ele><time>2026-03-30T11:54:47Z</time></trkpt><trkpt lat="45.603144246431036" lon="9.009036900961815"><ele>196.0</ele><time>2026-03-30T11:54:48Z</time></trkpt><trkpt lat="45.603209694649685" lon="9.009241527925065"><ele>196.0</ele><time>2026-03-30T11:54:49Z</time></trkpt><trkpt lat="45.60328077240641" lon="9.00944385318978"><ele>196.0</ele><time>2026-03-30T11:54:50Z</time></trkpt><trkpt lat="45.603352679899274" lon="9.009648732442576"><ele>196.0</ele><time>2026-03-30T11:54:51Z</time></trkpt><trkpt lat="45.603422237586116" lon="9.00984955887995"><ele>196.33333333333331</ele><time>2026-03-30T11:54:52Z</time></trkpt><trkpt lat="45.60349127039816" lon="9.010053853226507"><ele>196.66666666666669</ele><time>2026-03-30T11:54:52.999Z</time></trkpt><trkpt lat="45.60355567735215" lon="9.01025124071085"><ele>197.0</ele><time>2026-03-30T11:54:53.999Z</time></trkpt><trkpt lat="45.603620821675975" lon="9.010445753273531"><ele>197.25</ele><time>2026-03-30T11:54:54.999Z</time></trkpt><trkpt lat="45.60367925001988" lon="9.010626837438508"><ele>197.5</ele><time>2026-03-30T11:54:55.999Z</time></trkpt><trkpt lat="45.60372427200129" lon="9.010789838197146"><ele>197.75</ele><time>2026-03-30T11:54:56.999Z</time></trkpt><trkpt lat="45.60376161291228" lon="9.010952537127054"><ele>198.0</ele><time>2026-03-30T11:54:57.999Z</time></trkpt><trkpt lat="45.60379840463485" lon="9.011109566796378"><ele>198.0</ele><time>2026-03-30T11:54:58.999Z</time></trkpt><trkpt lat="45.60383784029692" lon="9.011264798357816"><ele>198.0</ele><time>2026-03-30T11:54:59.999Z</time></trkpt><trkpt lat="45.60387924352544" lon="9.011412101544277"><ele>198.0</ele><time>2026-03-30T11:55:00.999Z</time></trkpt><trkpt lat="45.60393715563496" lon="9.011543021024103"><ele>198.0</ele><time>2026-03-30T11:55:01.999Z</time></trkpt><trkpt lat="45.604012076317055" lon="9.011651160024293"><ele>198.0</ele><time>2026-03-30T11:55:02.999Z</time></trkpt><trkpt lat="45.60409768508606" lon="9.01171626914299"><ele>198.0</ele><time>2026-03-30T11:55:03.999Z</time></trkpt><trkpt lat="45.60418136867552" lon="9.011770880339908"><ele>198.0</ele><time>2026-03-30T11:55:04.999Z</time></trkpt><trkpt lat="45.60426119533856" lon="9.011825788443746"><ele>198.0</ele><time>2026-03-30T11:55:05.999Z</time></trkpt><trkpt lat="45.60433011517435" lon="9.01190739223484"><ele>198.0</ele><time>2026-03-30T11:55:06.999Z</time></trkpt><trkpt lat="45.60437801876851" lon="9.01200788945428"><ele>198.0</ele><time>2026-03-30T11:55:07.999Z</time></trkpt><trkpt lat="45.60428311410377" lon="9.012193839429075"><ele>198.0</ele><time>2026-03-30T11:55:08.999Z</time></trkpt><trkpt lat="45.60424288705577" lon="9.012352513325142"><ele>198.0</ele><time>2026-03-30T11:55:09.999Z</time></trkpt><trkpt lat="45.60420769682649" lon="9.012519132340982"><ele>198.0</ele><time>2026-03-30T11:55:10.999Z</time></trkpt><trkpt lat="45.60415746558095" lon="9.01267956449879"><ele>198.0</ele><time>2026-03-30T11:55:11.999Z</time></trkpt><trkpt lat="45.60411237265672" lon="9.01285571026181"><ele>197.5</ele><time>2026-03-30T11:55:12.999Z</time></trkpt><trkpt lat="45.60407212592052" lon="9.013035565945078"><ele>197.0</ele><time>2026-03-30T11:55:13.999Z</time></trkpt><trkpt lat="45.60401705582708" lon="9.013205129033036"><ele>196.5</ele><time>2026-03-30T11:55:14.999Z</time></trkpt><trkpt lat="45.60395349123827" lon="9.013359342092096"><ele>196.0</ele><time>2026-03-30T11:55:15.999Z</time></trkpt><trkpt lat="45.60388768547986" lon="9.013501576626311"><ele>196.0</ele><time>2026-03-30T11:55:16.999Z</time></trkpt><trkpt lat="45.6038234277648" lon="9.013643868940214"><ele>196.0</ele><time>2026-03-30T11:55:17.999Z</time></trkpt><trkpt lat="45.60375950003981" lon="9.013777815650474"><ele>196.0</ele><time>2026-03-30T11:55:18.999Z</time></trkpt><trkpt lat="45.6037023330295" lon="9.013886385549958"><ele>196.0</ele><time>2026-03-30T11:55:19.999Z</time></trkpt><trkpt lat="45.603642078345565" lon="9.013987449015923"><ele>196.0</ele><time>2026-03-30T11:55:20.999Z</time></trkpt><trkpt lat="45.60357496789249" lon="9.014083747906831"><ele>196.4</ele><time>2026-03-30T11:55:21.999Z</time></trkpt><trkpt lat="45.60349999328572" lon="9.014175673574838"><ele>196.8</ele><time>2026-03-30T11:55:22.999Z</time></trkpt><trkpt lat="45.60341744031174" lon="9.014275878592017"><ele>197.20000000000002</ele><time>2026-03-30T11:55:23.999Z</time></trkpt><trkpt lat="45.60333506169337" lon="9.014368836732906"><ele>197.60000000000002</ele><time>2026-03-30T11:55:24.999Z</time></trkpt><trkpt lat="45.60325327742586" lon="9.014463106010812"><ele>198.0</ele><time>2026-03-30T11:55:25.999Z</time></trkpt><trkpt lat="45.603171782343345" lon="9.014555333890081"><ele>198.0</ele><time>2026-03-30T11:55:26.999Z</time></trkpt><trkpt lat="45.603089170343694" lon="9.014643425613784"><ele>198.0</ele><time>2026-03-30T11:55:27.999Z</time></trkpt><trkpt lat="45.603012955144216" lon="9.014728959395972"><ele>198.0</ele><time>2026-03-30T11:55:28.999Z</time></trkpt><trkpt lat="45.60296024872698" lon="9.014787125854617"><ele>198.0</ele><time>2026-03-30T11:55:29.999Z</time></trkpt><trkpt lat="45.602908140703526" lon="9.014847701727223"><ele>198.0</ele><time>2026-03-30T11:55:30.999Z</time></trkpt><trkpt lat="45.602857943232195" lon="9.01490615362044"><ele>198.0</ele><time>2026-03-30T11:55:31.999Z</time></trkpt><trkpt lat="45.60280292979989" lon="9.014967241704825"><ele>197.83333333333334</ele><time>2026-03-30T11:55:32.999Z</time></trkpt><trkpt lat="45.60273922625811" lon="9.015040251441514"><ele>197.66666666666669</ele><time>2026-03-30T11:55:33.999Z</time></trkpt><trkpt lat="45.60266835996441" lon="9.015119205454905"><ele>197.5</ele><time>2026-03-30T11:55:34.999Z</time></trkpt><trkpt lat="45.60259762396891" lon="9.015209397021408"><ele>197.33333333333334</ele><time>2026-03-30T11:55:35.999Z</time></trkpt><trkpt lat="45.6025205033946" lon="9.015300209035438"><ele>197.16666666666669</ele><time>2026-03-30T11:55:36.999Z</time></trkpt><trkpt lat="45.602466290224825" lon="9.015357282561878"><ele>197.0</ele><time>2026-03-30T11:55:37.999Z</time></trkpt><trkpt lat="45.602367210068415" lon="9.015476018576221"><ele>197.0</ele><time>2026-03-30T11:55:39.999Z</time></trkpt><trkpt lat="45.60227031214671" lon="9.015584960787844"><ele>197.0</ele><time>2026-03-30T11:55:41.999Z</time></trkpt><trkpt lat="45.602169982963304" lon="9.015697912997444"><ele>197.0</ele><time>2026-03-30T11:55:43.999Z</time></trkpt><trkpt lat="45.60212003780872" lon="9.015760368055565"><ele>197.0</ele><time>2026-03-30T11:55:44.999Z</time></trkpt><trkpt lat="45.60206556852526" lon="9.015833152884827"><ele>197.0</ele><time>2026-03-30T11:55:45.999Z</time></trkpt><trkpt lat="45.6019926471013" lon="9.015916436865526"><ele>197.2</ele><time>2026-03-30T11:55:46.999Z</time></trkpt><trkpt lat="45.601925008428374" lon="9.015995053194583"><ele>197.39999999999998</ele><time>2026-03-30T11:55:47.999Z</time></trkpt><trkpt lat="45.6018587440298" lon="9.016096359628328"><ele>197.60000000000002</ele><time>2026-03-30T11:55:48.999Z</time></trkpt><trkpt lat="45.60176894733197" lon="9.01617377172073"><ele>197.8</ele><time>2026-03-30T11:55:49.999Z</time></trkpt><trkpt lat="45.60168291817835" lon="9.016278828225834"><ele>198.0</ele><time>2026-03-30T11:55:50.999Z</time></trkpt><trkpt lat="45.60160437634433" lon="9.016395419327859"><ele>198.0</ele><time>2026-03-30T11:55:51.999Z</time></trkpt><trkpt lat="45.601521869779425" lon="9.016498134510467"><ele>198.0</ele><time>2026-03-30T11:55:52.999Z</time></trkpt><trkpt lat="45.60144140704236" lon="9.016586820831597"><ele>198.0</ele><time>2026-03-30T11:55:53.999Z</time></trkpt><trkpt lat="45.60136359561669" lon="9.016680909786558"><ele>198.0</ele><time>2026-03-30T11:55:54.999Z</time></trkpt><trkpt lat="45.601284612084264" lon="9.016781228459323"><ele>198.0</ele><time>2026-03-30T11:55:55.999Z</time></trkpt><trkpt lat="45.601207142537845" lon="9.016865453378328"><ele>197.60000000000002</ele><time>2026-03-30T11:55:56.999Z</time></trkpt><trkpt lat="45.60112867274199" lon="9.016958972886782"><ele>197.20000000000002</ele><time>2026-03-30T11:55:57.999Z</time></trkpt><trkpt lat="45.6010560205917" lon="9.017042023744859"><ele>196.8</ele><time>2026-03-30T11:55:58.999Z</time></trkpt><trkpt lat="45.60099078827725" lon="9.0170973766255"><ele>196.4</ele><time>2026-03-30T11:55:59.999Z</time></trkpt><trkpt lat="45.60091907818181" lon="9.017190190306216"><ele>196.0</ele><time>2026-03-30T11:56:00.999Z</time></trkpt><trkpt lat="45.60082691590544" lon="9.017255797826003"><ele>196.0</ele><time>2026-03-30T11:56:01.999Z</time></trkpt><trkpt lat="45.60074128834994" lon="9.017303116434592"><ele>196.0</ele><time>2026-03-30T11:56:02.999Z</time></trkpt><trkpt lat="45.60064240514597" lon="9.017338583985843"><ele>196.0</ele><time>2026-03-30T11:56:03.999Z</time></trkpt><trkpt lat="45.60054477634597" lon="9.017374176567488"><ele>196.0</ele><time>2026-03-30T11:56:04.999Z</time></trkpt><trkpt lat="45.60045525359048" lon="9.017425234122705"><ele>196.0</ele><time>2026-03-30T11:56:05.998Z</time></trkpt><trkpt lat="45.600382110568816" lon="9.017465028187933"><ele>196.16666666666666</ele><time>2026-03-30T11:56:07Z</time></trkpt><trkpt lat="45.600319266091205" lon="9.017508715132024"><ele>196.33333333333331</ele><time>2026-03-30T11:56:08Z</time></trkpt><trkpt lat="45.60025516348518" lon="9.017573646640306"><ele>196.5</ele><time>2026-03-30T11:56:09Z</time></trkpt><trkpt lat="45.600151936229324" lon="9.0176836183086"><ele>196.66666666666669</ele><time>2026-03-30T11:56:11Z</time></trkpt><trkpt lat="45.60009357592539" lon="9.01776486205423"><ele>196.83333333333334</ele><time>2026-03-30T11:56:12Z</time></trkpt><trkpt lat="45.600042912894814" lon="9.017832140362264"><ele>197.0</ele><time>2026-03-30T11:56:13Z</time></trkpt><trkpt lat="45.60000054438026" lon="9.017916004228754"><ele>197.0</ele><time>2026-03-30T11:56:14Z</time></trkpt><trkpt lat="45.59994747333879" lon="9.017970495401135"><ele>197.0</ele><time>2026-03-30T11:56:15Z</time></trkpt><trkpt lat="45.59988308400621" lon="9.018006098404255"><ele>197.0</ele><time>2026-03-30T11:56:16Z</time></trkpt><trkpt lat="45.59981669901286" lon="9.018030245957455"><ele>197.0</ele><time>2026-03-30T11:56:17Z</time></trkpt><trkpt lat="45.599745581394245" lon="9.018016585048617"><ele>197.0</ele><time>2026-03-30T11:56:18Z</time></trkpt><trkpt lat="45.59967563802498" lon="9.018030706735685"><ele>197.0</ele><time>2026-03-30T11:56:19Z</time></trkpt><trkpt lat="45.599609696702544" lon="9.018051860434445"><ele>197.0</ele><time>2026-03-30T11:56:20Z</time></trkpt><trkpt lat="45.599547405928625" lon="9.018072642966684"><ele>196.85714285714286</ele><time>2026-03-30T11:56:21Z</time></trkpt><trkpt lat="45.5994798969155" lon="9.018078870183674"><ele>196.71428571428572</ele><time>2026-03-30T11:56:22Z</time></trkpt><trkpt lat="45.59941401693713" lon="9.018075901480424"><ele>196.57142857142856</ele><time>2026-03-30T11:56:23Z</time></trkpt><trkpt lat="45.5993455916798" lon="9.018082284761757"><ele>196.42857142857144</ele><time>2026-03-30T11:56:24Z</time></trkpt><trkpt lat="45.599281845565" lon="9.018085238930444"><ele>196.28571428571428</ele><time>2026-03-30T11:56:25Z</time></trkpt><trkpt lat="45.599215562222994" lon="9.018090662201509"><ele>196.14285714285714</ele><time>2026-03-30T11:56:26Z</time></trkpt><trkpt lat="45.599145468064314" lon="9.01808060213895"><ele>196.0</ele><time>2026-03-30T11:56:27Z</time></trkpt><trkpt lat="45.59907977089188" lon="9.01807119797341"><ele>195.99999999999997</ele><time>2026-03-30T11:56:28Z</time></trkpt><trkpt lat="45.59900960392728" lon="9.018068763662152"><ele>196.0</ele><time>2026-03-30T11:56:29Z</time></trkpt><trkpt lat="45.598937404032384" lon="9.018079009032006"><ele>196.0</ele><time>2026-03-30T11:56:30Z</time></trkpt><trkpt lat="45.59885767442907" lon="9.018087392220867"><ele>196.0</ele><time>2026-03-30T11:56:31Z</time></trkpt><trkpt lat="45.598771730505376" lon="9.018095367392926"><ele>195.99999999999997</ele><time>2026-03-30T11:56:32Z</time></trkpt><trkpt lat="45.598687102222854" lon="9.018087712480398"><ele>196.0</ele><time>2026-03-30T11:56:33Z</time></trkpt><trkpt lat="45.59861936681062" lon="9.018065172172875"><ele>196.0</ele><time>2026-03-30T11:56:34Z</time></trkpt><trkpt lat="45.59851654106034" lon="9.018025338963032"><ele>196.0</ele><time>2026-03-30T11:56:36Z</time></trkpt><trkpt lat="45.59867633377074" lon="9.017736008708729"><ele>196.0</ele><time>2026-03-30T11:56:42Z</time></trkpt><trkpt lat="45.59866016348307" lon="9.017572500179012"><ele>195.66666666666666</ele><time>2026-03-30T11:56:44Z</time></trkpt><trkpt lat="45.59864458147676" lon="9.017420327624327"><ele>195.33333333333331</ele><time>2026-03-30T11:56:46Z</time></trkpt><trkpt lat="45.59863322411394" lon="9.017309442308017"><ele>195.0</ele><time>2026-03-30T11:56:48Z</time></trkpt><trkpt lat="45.59862393838986" lon="9.017218783274826"><ele>194.66666666666669</ele><time>2026-03-30T11:56:50Z</time></trkpt><trkpt lat="45.59849434416614" lon="9.01722595039387"><ele>194.33333333333334</ele><time>2026-03-30T11:57:02.999Z</time></trkpt><trkpt lat="45.59851745696657" lon="9.017316497946364"><ele>194.0</ele><time>2026-03-30T11:58:17Z</time></trkpt><trkpt lat="45.598447987050626" lon="9.017327112138464"><ele>194.0</ele><time>2026-03-30T11:58:42Z</time></trkpt></trkseg></trk></gpx>